<?xml version="1.0" encoding="UTF-8" standalone="no" ?>
<gpx xmlns="http://www.topografix.com/GPX/1/1" xmlns:xsi="http://www.w3.org/2001/XMLSchema-instance" xsi:schemaLocation="http://www.topografix.com/GPX/1/1 http://www.topografix.com/GPX/1/1/gpx.xsd" version="1.1" creator="VisuGPX - https://www.visugpx.com">
  <metadata>
    <name>Courmes-Coursegoules-PuydeTourettes</name>
    <desc><![CDATA[Courmes, sud de Coursegoules, Saint Barnabé, Pic des Courmettes, puis Puy de Tourettes, retour à Courmes]]></desc>
  </metadata>
  <trk>
    <name><![CDATA[Tracé actuel: 29 MAI 2011 09:45]]></name>
    <trkseg>
      <trkpt lat="43.74357" lon="7.00874">
        <ele>575.97</ele>
        <time>2011-05-29T07:45:05Z</time>
      </trkpt>
      <trkpt lat="43.74358" lon="7.00876">
        <ele>576.93</ele>
        <time>2011-05-29T07:45:07Z</time>
      </trkpt>
      <trkpt lat="43.74357" lon="7.00877">
        <ele>580.77</ele>
        <time>2011-05-29T07:45:10Z</time>
      </trkpt>
      <trkpt lat="43.74356" lon="7.00879">
        <ele>584.14</ele>
        <time>2011-05-29T07:45:12Z</time>
      </trkpt>
      <trkpt lat="43.74356" lon="7.00879">
        <ele>587.5</ele>
        <time>2011-05-29T07:45:14Z</time>
      </trkpt>
      <trkpt lat="43.74354" lon="7.00877">
        <ele>591.35</ele>
        <time>2011-05-29T07:45:16Z</time>
      </trkpt>
      <trkpt lat="43.74354" lon="7.00876">
        <ele>595.67</ele>
        <time>2011-05-29T07:45:19Z</time>
      </trkpt>
      <trkpt lat="43.74355" lon="7.00877">
        <ele>599.52</ele>
        <time>2011-05-29T07:45:21Z</time>
      </trkpt>
      <trkpt lat="43.74355" lon="7.00876">
        <ele>599.52</ele>
        <time>2011-05-29T07:45:37Z</time>
      </trkpt>
      <trkpt lat="43.74359" lon="7.00875">
        <ele>599.52</ele>
        <time>2011-05-29T07:45:40Z</time>
      </trkpt>
      <trkpt lat="43.74363" lon="7.00874">
        <ele>600</ele>
        <time>2011-05-29T07:45:52Z</time>
      </trkpt>
      <trkpt lat="43.74349" lon="7.0087">
        <ele>599.52</ele>
        <time>2011-05-29T07:46:04Z</time>
      </trkpt>
      <trkpt lat="43.7435" lon="7.00871">
        <ele>600</ele>
        <time>2011-05-29T07:46:21Z</time>
      </trkpt>
      <trkpt lat="43.74348" lon="7.00872">
        <ele>601.44</ele>
        <time>2011-05-29T07:46:32Z</time>
      </trkpt>
      <trkpt lat="43.74343" lon="7.00883">
        <ele>601.44</ele>
        <time>2011-05-29T07:46:47Z</time>
      </trkpt>
      <trkpt lat="43.74346" lon="7.00882">
        <ele>601.92</ele>
        <time>2011-05-29T07:47:02Z</time>
      </trkpt>
      <trkpt lat="43.74346" lon="7.00883">
        <ele>601.92</ele>
        <time>2011-05-29T07:47:03Z</time>
      </trkpt>
      <trkpt lat="43.74346" lon="7.00888">
        <ele>601.92</ele>
        <time>2011-05-29T07:47:08Z</time>
      </trkpt>
      <trkpt lat="43.74343" lon="7.00896">
        <ele>602.4</ele>
        <time>2011-05-29T07:47:21Z</time>
      </trkpt>
      <trkpt lat="43.74343" lon="7.00896">
        <ele>603.36</ele>
        <time>2011-05-29T07:47:36Z</time>
      </trkpt>
      <trkpt lat="43.74343" lon="7.00896">
        <ele>603.36</ele>
        <time>2011-05-29T07:48:00Z</time>
      </trkpt>
      <trkpt lat="43.74343" lon="7.00896">
        <ele>603.85</ele>
        <time>2011-05-29T07:48:26Z</time>
      </trkpt>
      <trkpt lat="43.74343" lon="7.00896">
        <ele>604.81</ele>
        <time>2011-05-29T07:48:53Z</time>
      </trkpt>
      <trkpt lat="43.74343" lon="7.00896">
        <ele>605.29</ele>
        <time>2011-05-29T07:49:18Z</time>
      </trkpt>
      <trkpt lat="43.74343" lon="7.00896">
        <ele>605.77</ele>
        <time>2011-05-29T07:49:41Z</time>
      </trkpt>
      <trkpt lat="43.74343" lon="7.00896">
        <ele>605.77</ele>
        <time>2011-05-29T07:49:57Z</time>
      </trkpt>
      <trkpt lat="43.74343" lon="7.00896">
        <ele>605.77</ele>
        <time>2011-05-29T07:50:20Z</time>
      </trkpt>
      <trkpt lat="43.74348" lon="7.00904">
        <ele>606.73</ele>
        <time>2011-05-29T07:50:36Z</time>
      </trkpt>
      <trkpt lat="43.74357" lon="7.00908">
        <ele>606.25</ele>
        <time>2011-05-29T07:50:50Z</time>
      </trkpt>
      <trkpt lat="43.74361" lon="7.00909">
        <ele>606.25</ele>
        <time>2011-05-29T07:50:56Z</time>
      </trkpt>
      <trkpt lat="43.74374" lon="7.00913">
        <ele>605.29</ele>
        <time>2011-05-29T07:51:10Z</time>
      </trkpt>
      <trkpt lat="43.74385" lon="7.00912">
        <ele>603.85</ele>
        <time>2011-05-29T07:51:26Z</time>
      </trkpt>
      <trkpt lat="43.74385" lon="7.00913">
        <ele>604.33</ele>
        <time>2011-05-29T07:51:41Z</time>
      </trkpt>
      <trkpt lat="43.74386" lon="7.00917">
        <ele>605.29</ele>
        <time>2011-05-29T07:51:54Z</time>
      </trkpt>
      <trkpt lat="43.74385" lon="7.00928">
        <ele>606.73</ele>
        <time>2011-05-29T07:52:09Z</time>
      </trkpt>
      <trkpt lat="43.74382" lon="7.00934">
        <ele>608.17</ele>
        <time>2011-05-29T07:52:21Z</time>
      </trkpt>
      <trkpt lat="43.74376" lon="7.00943">
        <ele>610.09</ele>
        <time>2011-05-29T07:52:35Z</time>
      </trkpt>
      <trkpt lat="43.74369" lon="7.00954">
        <ele>611.54</ele>
        <time>2011-05-29T07:52:51Z</time>
      </trkpt>
      <trkpt lat="43.74365" lon="7.00965">
        <ele>613.94</ele>
        <time>2011-05-29T07:53:05Z</time>
      </trkpt>
      <trkpt lat="43.74357" lon="7.00972">
        <ele>615.38</ele>
        <time>2011-05-29T07:53:17Z</time>
      </trkpt>
      <trkpt lat="43.74353" lon="7.00967">
        <ele>616.34</ele>
        <time>2011-05-29T07:53:24Z</time>
      </trkpt>
      <trkpt lat="43.74346" lon="7.00961">
        <ele>616.82</ele>
        <time>2011-05-29T07:53:33Z</time>
      </trkpt>
      <trkpt lat="43.74343" lon="7.00958">
        <ele>617.78</ele>
        <time>2011-05-29T07:53:37Z</time>
      </trkpt>
      <trkpt lat="43.74334" lon="7.00955">
        <ele>618.75</ele>
        <time>2011-05-29T07:53:47Z</time>
      </trkpt>
      <trkpt lat="43.74326" lon="7.00956">
        <ele>620.19</ele>
        <time>2011-05-29T07:53:54Z</time>
      </trkpt>
      <trkpt lat="43.74318" lon="7.00957">
        <ele>620.19</ele>
        <time>2011-05-29T07:54:00Z</time>
      </trkpt>
      <trkpt lat="43.74308" lon="7.00962">
        <ele>622.11</ele>
        <time>2011-05-29T07:54:14Z</time>
      </trkpt>
      <trkpt lat="43.74302" lon="7.00967">
        <ele>623.07</ele>
        <time>2011-05-29T07:54:28Z</time>
      </trkpt>
      <trkpt lat="43.74296" lon="7.00972">
        <ele>624.99</ele>
        <time>2011-05-29T07:54:38Z</time>
      </trkpt>
      <trkpt lat="43.74293" lon="7.00984">
        <ele>626.92</ele>
        <time>2011-05-29T07:54:52Z</time>
      </trkpt>
      <trkpt lat="43.74287" lon="7.00991">
        <ele>628.84</ele>
        <time>2011-05-29T07:55:03Z</time>
      </trkpt>
      <trkpt lat="43.74276" lon="7.01">
        <ele>630.76</ele>
        <time>2011-05-29T07:55:18Z</time>
      </trkpt>
      <trkpt lat="43.7426" lon="7.01012">
        <ele>632.68</ele>
        <time>2011-05-29T07:55:34Z</time>
      </trkpt>
      <trkpt lat="43.74251" lon="7.0102">
        <ele>634.13</ele>
        <time>2011-05-29T07:55:49Z</time>
      </trkpt>
      <trkpt lat="43.74241" lon="7.01032">
        <ele>636.53</ele>
        <time>2011-05-29T07:56:04Z</time>
      </trkpt>
      <trkpt lat="43.74238" lon="7.01051">
        <ele>638.45</ele>
        <time>2011-05-29T07:56:18Z</time>
      </trkpt>
      <trkpt lat="43.74238" lon="7.01066">
        <ele>640.38</ele>
        <time>2011-05-29T07:56:32Z</time>
      </trkpt>
      <trkpt lat="43.74236" lon="7.01082">
        <ele>642.78</ele>
        <time>2011-05-29T07:56:47Z</time>
      </trkpt>
      <trkpt lat="43.7423" lon="7.01095">
        <ele>644.7</ele>
        <time>2011-05-29T07:56:59Z</time>
      </trkpt>
      <trkpt lat="43.74226" lon="7.01098">
        <ele>645.18</ele>
        <time>2011-05-29T07:57:03Z</time>
      </trkpt>
      <trkpt lat="43.74214" lon="7.01106">
        <ele>647.1</ele>
        <time>2011-05-29T07:57:19Z</time>
      </trkpt>
      <trkpt lat="43.74204" lon="7.01107">
        <ele>649.03</ele>
        <time>2011-05-29T07:57:34Z</time>
      </trkpt>
      <trkpt lat="43.74197" lon="7.01108">
        <ele>649.99</ele>
        <time>2011-05-29T07:57:42Z</time>
      </trkpt>
      <trkpt lat="43.74183" lon="7.01116">
        <ele>651.43</ele>
        <time>2011-05-29T07:57:57Z</time>
      </trkpt>
      <trkpt lat="43.74173" lon="7.01126">
        <ele>653.83</ele>
        <time>2011-05-29T07:58:12Z</time>
      </trkpt>
      <trkpt lat="43.74173" lon="7.01127">
        <ele>654.31</ele>
        <time>2011-05-29T07:58:13Z</time>
      </trkpt>
      <trkpt lat="43.74166" lon="7.01133">
        <ele>656.72</ele>
        <time>2011-05-29T07:58:28Z</time>
      </trkpt>
      <trkpt lat="43.74157" lon="7.01138">
        <ele>658.64</ele>
        <time>2011-05-29T07:58:40Z</time>
      </trkpt>
      <trkpt lat="43.74156" lon="7.01141">
        <ele>659.6</ele>
        <time>2011-05-29T07:58:44Z</time>
      </trkpt>
      <trkpt lat="43.74154" lon="7.01154">
        <ele>661.04</ele>
        <time>2011-05-29T07:58:56Z</time>
      </trkpt>
      <trkpt lat="43.74148" lon="7.01163">
        <ele>662.49</ele>
        <time>2011-05-29T07:59:07Z</time>
      </trkpt>
      <trkpt lat="43.74146" lon="7.01166">
        <ele>662.97</ele>
        <time>2011-05-29T07:59:10Z</time>
      </trkpt>
      <trkpt lat="43.74144" lon="7.01168">
        <ele>664.41</ele>
        <time>2011-05-29T07:59:15Z</time>
      </trkpt>
      <trkpt lat="43.74139" lon="7.01157">
        <ele>666.81</ele>
        <time>2011-05-29T07:59:28Z</time>
      </trkpt>
      <trkpt lat="43.74134" lon="7.01148">
        <ele>669.22</ele>
        <time>2011-05-29T07:59:43Z</time>
      </trkpt>
      <trkpt lat="43.74127" lon="7.01139">
        <ele>671.14</ele>
        <time>2011-05-29T07:59:55Z</time>
      </trkpt>
      <trkpt lat="43.74119" lon="7.01147">
        <ele>674.02</ele>
        <time>2011-05-29T08:00:11Z</time>
      </trkpt>
      <trkpt lat="43.74116" lon="7.0114">
        <ele>675.46</ele>
        <time>2011-05-29T08:00:21Z</time>
      </trkpt>
      <trkpt lat="43.74112" lon="7.01135">
        <ele>677.39</ele>
        <time>2011-05-29T08:00:30Z</time>
      </trkpt>
      <trkpt lat="43.74107" lon="7.01142">
        <ele>679.31</ele>
        <time>2011-05-29T08:00:41Z</time>
      </trkpt>
      <trkpt lat="43.74103" lon="7.01142">
        <ele>681.23</ele>
        <time>2011-05-29T08:00:54Z</time>
      </trkpt>
      <trkpt lat="43.74096" lon="7.01142">
        <ele>682.67</ele>
        <time>2011-05-29T08:01:06Z</time>
      </trkpt>
      <trkpt lat="43.74087" lon="7.01138">
        <ele>684.12</ele>
        <time>2011-05-29T08:01:20Z</time>
      </trkpt>
      <trkpt lat="43.74077" lon="7.01145">
        <ele>686.04</ele>
        <time>2011-05-29T08:01:34Z</time>
      </trkpt>
      <trkpt lat="43.74075" lon="7.01148">
        <ele>687</ele>
        <time>2011-05-29T08:01:39Z</time>
      </trkpt>
      <trkpt lat="43.74066" lon="7.01153">
        <ele>689.4</ele>
        <time>2011-05-29T08:01:53Z</time>
      </trkpt>
      <trkpt lat="43.74064" lon="7.01154">
        <ele>690.36</ele>
        <time>2011-05-29T08:01:58Z</time>
      </trkpt>
      <trkpt lat="43.74061" lon="7.01158">
        <ele>690.84</ele>
        <time>2011-05-29T08:02:05Z</time>
      </trkpt>
      <trkpt lat="43.74049" lon="7.01163">
        <ele>692.77</ele>
        <time>2011-05-29T08:02:20Z</time>
      </trkpt>
      <trkpt lat="43.74043" lon="7.01169">
        <ele>694.21</ele>
        <time>2011-05-29T08:02:33Z</time>
      </trkpt>
      <trkpt lat="43.74034" lon="7.01179">
        <ele>696.13</ele>
        <time>2011-05-29T08:02:49Z</time>
      </trkpt>
      <trkpt lat="43.74032" lon="7.0118">
        <ele>696.13</ele>
        <time>2011-05-29T08:02:51Z</time>
      </trkpt>
      <trkpt lat="43.74023" lon="7.01191">
        <ele>697.57</ele>
        <time>2011-05-29T08:03:04Z</time>
      </trkpt>
      <trkpt lat="43.74015" lon="7.01198">
        <ele>698.53</ele>
        <time>2011-05-29T08:03:16Z</time>
      </trkpt>
      <trkpt lat="43.74014" lon="7.012">
        <ele>699.02</ele>
        <time>2011-05-29T08:03:17Z</time>
      </trkpt>
      <trkpt lat="43.74011" lon="7.01202">
        <ele>698.53</ele>
        <time>2011-05-29T08:03:19Z</time>
      </trkpt>
      <trkpt lat="43.74002" lon="7.01219">
        <ele>699.98</ele>
        <time>2011-05-29T08:03:33Z</time>
      </trkpt>
      <trkpt lat="43.73996" lon="7.01236">
        <ele>701.42</ele>
        <time>2011-05-29T08:03:47Z</time>
      </trkpt>
      <trkpt lat="43.73991" lon="7.01253">
        <ele>701.9</ele>
        <time>2011-05-29T08:04:00Z</time>
      </trkpt>
      <trkpt lat="43.73983" lon="7.01265">
        <ele>702.86</ele>
        <time>2011-05-29T08:04:13Z</time>
      </trkpt>
      <trkpt lat="43.7398" lon="7.01274">
        <ele>704.78</ele>
        <time>2011-05-29T08:04:26Z</time>
      </trkpt>
      <trkpt lat="43.73975" lon="7.01285">
        <ele>707.19</ele>
        <time>2011-05-29T08:04:38Z</time>
      </trkpt>
      <trkpt lat="43.73975" lon="7.01286">
        <ele>707.67</ele>
        <time>2011-05-29T08:04:56Z</time>
      </trkpt>
      <trkpt lat="43.73976" lon="7.01286">
        <ele>708.63</ele>
        <time>2011-05-29T08:05:15Z</time>
      </trkpt>
      <trkpt lat="43.73976" lon="7.01286">
        <ele>708.63</ele>
        <time>2011-05-29T08:05:33Z</time>
      </trkpt>
      <trkpt lat="43.73976" lon="7.01286">
        <ele>709.11</ele>
        <time>2011-05-29T08:06:00Z</time>
      </trkpt>
      <trkpt lat="43.73977" lon="7.01286">
        <ele>709.59</ele>
        <time>2011-05-29T08:06:28Z</time>
      </trkpt>
      <trkpt lat="43.7398" lon="7.01287">
        <ele>709.59</ele>
        <time>2011-05-29T08:06:51Z</time>
      </trkpt>
      <trkpt lat="43.73989" lon="7.01288">
        <ele>711.51</ele>
        <time>2011-05-29T08:07:02Z</time>
      </trkpt>
      <trkpt lat="43.74005" lon="7.01302">
        <ele>711.99</ele>
        <time>2011-05-29T08:07:18Z</time>
      </trkpt>
      <trkpt lat="43.74011" lon="7.01305">
        <ele>712.95</ele>
        <time>2011-05-29T08:07:25Z</time>
      </trkpt>
      <trkpt lat="43.74027" lon="7.01311">
        <ele>714.88</ele>
        <time>2011-05-29T08:07:40Z</time>
      </trkpt>
      <trkpt lat="43.7404" lon="7.01319">
        <ele>716.8</ele>
        <time>2011-05-29T08:07:55Z</time>
      </trkpt>
      <trkpt lat="43.74049" lon="7.01323">
        <ele>719.2</ele>
        <time>2011-05-29T08:08:09Z</time>
      </trkpt>
      <trkpt lat="43.74056" lon="7.01335">
        <ele>722.57</ele>
        <time>2011-05-29T08:08:23Z</time>
      </trkpt>
      <trkpt lat="43.74056" lon="7.01345">
        <ele>724.49</ele>
        <time>2011-05-29T08:08:37Z</time>
      </trkpt>
      <trkpt lat="43.74061" lon="7.01361">
        <ele>727.37</ele>
        <time>2011-05-29T08:08:50Z</time>
      </trkpt>
      <trkpt lat="43.74067" lon="7.01372">
        <ele>729.78</ele>
        <time>2011-05-29T08:09:05Z</time>
      </trkpt>
      <trkpt lat="43.74075" lon="7.01391">
        <ele>731.7</ele>
        <time>2011-05-29T08:09:20Z</time>
      </trkpt>
      <trkpt lat="43.74079" lon="7.01398">
        <ele>732.66</ele>
        <time>2011-05-29T08:09:28Z</time>
      </trkpt>
      <trkpt lat="43.74082" lon="7.01407">
        <ele>734.58</ele>
        <time>2011-05-29T08:09:37Z</time>
      </trkpt>
      <trkpt lat="43.74089" lon="7.01416">
        <ele>735.55</ele>
        <time>2011-05-29T08:09:44Z</time>
      </trkpt>
      <trkpt lat="43.741" lon="7.01427">
        <ele>737.95</ele>
        <time>2011-05-29T08:09:59Z</time>
      </trkpt>
      <trkpt lat="43.74109" lon="7.01437">
        <ele>739.39</ele>
        <time>2011-05-29T08:10:11Z</time>
      </trkpt>
      <trkpt lat="43.74117" lon="7.01442">
        <ele>741.31</ele>
        <time>2011-05-29T08:10:20Z</time>
      </trkpt>
      <trkpt lat="43.74128" lon="7.0145">
        <ele>742.76</ele>
        <time>2011-05-29T08:10:32Z</time>
      </trkpt>
      <trkpt lat="43.74143" lon="7.01459">
        <ele>743.72</ele>
        <time>2011-05-29T08:10:45Z</time>
      </trkpt>
      <trkpt lat="43.74157" lon="7.01462">
        <ele>746.12</ele>
        <time>2011-05-29T08:11:01Z</time>
      </trkpt>
      <trkpt lat="43.74163" lon="7.01465">
        <ele>747.56</ele>
        <time>2011-05-29T08:11:08Z</time>
      </trkpt>
      <trkpt lat="43.74177" lon="7.01465">
        <ele>750.45</ele>
        <time>2011-05-29T08:11:23Z</time>
      </trkpt>
      <trkpt lat="43.74181" lon="7.01466">
        <ele>751.41</ele>
        <time>2011-05-29T08:11:28Z</time>
      </trkpt>
      <trkpt lat="43.74194" lon="7.01468">
        <ele>753.33</ele>
        <time>2011-05-29T08:11:43Z</time>
      </trkpt>
      <trkpt lat="43.74199" lon="7.01468">
        <ele>753.81</ele>
        <time>2011-05-29T08:11:47Z</time>
      </trkpt>
      <trkpt lat="43.74216" lon="7.0147">
        <ele>755.25</ele>
        <time>2011-05-29T08:12:03Z</time>
      </trkpt>
      <trkpt lat="43.74217" lon="7.01471">
        <ele>754.77</ele>
        <time>2011-05-29T08:12:04Z</time>
      </trkpt>
      <trkpt lat="43.74223" lon="7.01472">
        <ele>756.21</ele>
        <time>2011-05-29T08:12:10Z</time>
      </trkpt>
      <trkpt lat="43.74234" lon="7.01475">
        <ele>756.69</ele>
        <time>2011-05-29T08:12:20Z</time>
      </trkpt>
      <trkpt lat="43.74244" lon="7.01487">
        <ele>757.66</ele>
        <time>2011-05-29T08:12:29Z</time>
      </trkpt>
      <trkpt lat="43.74256" lon="7.01485">
        <ele>760.06</ele>
        <time>2011-05-29T08:12:41Z</time>
      </trkpt>
      <trkpt lat="43.74275" lon="7.01484">
        <ele>761.5</ele>
        <time>2011-05-29T08:12:57Z</time>
      </trkpt>
      <trkpt lat="43.7429" lon="7.01486">
        <ele>762.94</ele>
        <time>2011-05-29T08:13:10Z</time>
      </trkpt>
      <trkpt lat="43.74298" lon="7.01487">
        <ele>762.94</ele>
        <time>2011-05-29T08:13:17Z</time>
      </trkpt>
      <trkpt lat="43.74306" lon="7.01486">
        <ele>763.42</ele>
        <time>2011-05-29T08:13:24Z</time>
      </trkpt>
      <trkpt lat="43.7431" lon="7.01487">
        <ele>763.42</ele>
        <time>2011-05-29T08:13:26Z</time>
      </trkpt>
      <trkpt lat="43.74323" lon="7.01483">
        <ele>766.79</ele>
        <time>2011-05-29T08:13:40Z</time>
      </trkpt>
      <trkpt lat="43.74326" lon="7.01484">
        <ele>767.27</ele>
        <time>2011-05-29T08:13:44Z</time>
      </trkpt>
      <trkpt lat="43.7434" lon="7.01494">
        <ele>768.71</ele>
        <time>2011-05-29T08:13:59Z</time>
      </trkpt>
      <trkpt lat="43.74352" lon="7.01491">
        <ele>770.63</ele>
        <time>2011-05-29T08:14:14Z</time>
      </trkpt>
      <trkpt lat="43.74353" lon="7.01496">
        <ele>773.04</ele>
        <time>2011-05-29T08:14:25Z</time>
      </trkpt>
      <trkpt lat="43.74347" lon="7.01506">
        <ele>774.96</ele>
        <time>2011-05-29T08:14:37Z</time>
      </trkpt>
      <trkpt lat="43.74349" lon="7.01515">
        <ele>777.36</ele>
        <time>2011-05-29T08:14:49Z</time>
      </trkpt>
      <trkpt lat="43.74349" lon="7.01515">
        <ele>776.88</ele>
        <time>2011-05-29T08:15:15Z</time>
      </trkpt>
      <trkpt lat="43.74352" lon="7.01515">
        <ele>777.84</ele>
        <time>2011-05-29T08:15:30Z</time>
      </trkpt>
      <trkpt lat="43.74352" lon="7.01515">
        <ele>777.36</ele>
        <time>2011-05-29T08:15:49Z</time>
      </trkpt>
      <trkpt lat="43.74353" lon="7.01514">
        <ele>776.4</ele>
        <time>2011-05-29T08:15:53Z</time>
      </trkpt>
      <trkpt lat="43.74353" lon="7.01514">
        <ele>777.36</ele>
        <time>2011-05-29T08:16:16Z</time>
      </trkpt>
      <trkpt lat="43.74352" lon="7.01515">
        <ele>777.84</ele>
        <time>2011-05-29T08:16:31Z</time>
      </trkpt>
      <trkpt lat="43.74353" lon="7.01514">
        <ele>777.84</ele>
        <time>2011-05-29T08:16:45Z</time>
      </trkpt>
      <trkpt lat="43.74361" lon="7.01509">
        <ele>779.29</ele>
        <time>2011-05-29T08:16:54Z</time>
      </trkpt>
      <trkpt lat="43.74375" lon="7.01511">
        <ele>781.69</ele>
        <time>2011-05-29T08:17:08Z</time>
      </trkpt>
      <trkpt lat="43.74374" lon="7.01514">
        <ele>783.61</ele>
        <time>2011-05-29T08:17:16Z</time>
      </trkpt>
      <trkpt lat="43.74362" lon="7.01525">
        <ele>784.57</ele>
        <time>2011-05-29T08:17:31Z</time>
      </trkpt>
      <trkpt lat="43.74362" lon="7.01526">
        <ele>785.53</ele>
        <time>2011-05-29T08:17:32Z</time>
      </trkpt>
      <trkpt lat="43.74356" lon="7.01538">
        <ele>786.02</ele>
        <time>2011-05-29T08:17:42Z</time>
      </trkpt>
      <trkpt lat="43.74352" lon="7.01542">
        <ele>786.5</ele>
        <time>2011-05-29T08:17:47Z</time>
      </trkpt>
      <trkpt lat="43.74347" lon="7.01549">
        <ele>787.46</ele>
        <time>2011-05-29T08:17:55Z</time>
      </trkpt>
      <trkpt lat="43.74349" lon="7.01557">
        <ele>789.38</ele>
        <time>2011-05-29T08:18:05Z</time>
      </trkpt>
      <trkpt lat="43.74356" lon="7.01556">
        <ele>790.34</ele>
        <time>2011-05-29T08:18:13Z</time>
      </trkpt>
      <trkpt lat="43.74368" lon="7.0155">
        <ele>792.74</ele>
        <time>2011-05-29T08:18:26Z</time>
      </trkpt>
      <trkpt lat="43.74376" lon="7.01543">
        <ele>793.22</ele>
        <time>2011-05-29T08:18:36Z</time>
      </trkpt>
      <trkpt lat="43.74381" lon="7.01541">
        <ele>794.67</ele>
        <time>2011-05-29T08:18:42Z</time>
      </trkpt>
      <trkpt lat="43.74382" lon="7.01542">
        <ele>794.67</ele>
        <time>2011-05-29T08:18:44Z</time>
      </trkpt>
      <trkpt lat="43.74384" lon="7.01541">
        <ele>795.15</ele>
        <time>2011-05-29T08:18:46Z</time>
      </trkpt>
      <trkpt lat="43.7439" lon="7.01539">
        <ele>796.11</ele>
        <time>2011-05-29T08:18:54Z</time>
      </trkpt>
      <trkpt lat="43.74402" lon="7.01532">
        <ele>798.99</ele>
        <time>2011-05-29T08:19:09Z</time>
      </trkpt>
      <trkpt lat="43.74403" lon="7.01531">
        <ele>798.99</ele>
        <time>2011-05-29T08:19:10Z</time>
      </trkpt>
      <trkpt lat="43.74411" lon="7.01518">
        <ele>800.92</ele>
        <time>2011-05-29T08:19:25Z</time>
      </trkpt>
      <trkpt lat="43.74424" lon="7.0151">
        <ele>803.32</ele>
        <time>2011-05-29T08:19:41Z</time>
      </trkpt>
      <trkpt lat="43.74434" lon="7.01499">
        <ele>805.24</ele>
        <time>2011-05-29T08:19:55Z</time>
      </trkpt>
      <trkpt lat="43.74437" lon="7.01498">
        <ele>806.2</ele>
        <time>2011-05-29T08:19:58Z</time>
      </trkpt>
      <trkpt lat="43.74448" lon="7.0149">
        <ele>808.13</ele>
        <time>2011-05-29T08:20:14Z</time>
      </trkpt>
      <trkpt lat="43.74451" lon="7.01487">
        <ele>808.61</ele>
        <time>2011-05-29T08:20:18Z</time>
      </trkpt>
      <trkpt lat="43.74465" lon="7.01485">
        <ele>810.53</ele>
        <time>2011-05-29T08:20:33Z</time>
      </trkpt>
      <trkpt lat="43.7447" lon="7.01481">
        <ele>810.53</ele>
        <time>2011-05-29T08:20:39Z</time>
      </trkpt>
      <trkpt lat="43.74483" lon="7.01473">
        <ele>812.45</ele>
        <time>2011-05-29T08:20:54Z</time>
      </trkpt>
      <trkpt lat="43.74487" lon="7.0147">
        <ele>813.41</ele>
        <time>2011-05-29T08:21:00Z</time>
      </trkpt>
      <trkpt lat="43.74493" lon="7.01468">
        <ele>814.37</ele>
        <time>2011-05-29T08:21:05Z</time>
      </trkpt>
      <trkpt lat="43.74504" lon="7.0146">
        <ele>815.82</ele>
        <time>2011-05-29T08:21:16Z</time>
      </trkpt>
      <trkpt lat="43.74507" lon="7.01456">
        <ele>815.82</ele>
        <time>2011-05-29T08:21:20Z</time>
      </trkpt>
      <trkpt lat="43.74517" lon="7.01453">
        <ele>817.74</ele>
        <time>2011-05-29T08:21:31Z</time>
      </trkpt>
      <trkpt lat="43.74521" lon="7.01453">
        <ele>818.22</ele>
        <time>2011-05-29T08:21:33Z</time>
      </trkpt>
      <trkpt lat="43.74527" lon="7.01445">
        <ele>818.22</ele>
        <time>2011-05-29T08:21:48Z</time>
      </trkpt>
      <trkpt lat="43.74526" lon="7.01442">
        <ele>816.3</ele>
        <time>2011-05-29T08:22:07Z</time>
      </trkpt>
      <trkpt lat="43.74526" lon="7.01442">
        <ele>818.22</ele>
        <time>2011-05-29T08:22:28Z</time>
      </trkpt>
      <trkpt lat="43.74529" lon="7.01439">
        <ele>820.14</ele>
        <time>2011-05-29T08:22:46Z</time>
      </trkpt>
      <trkpt lat="43.74552" lon="7.01428">
        <ele>821.58</ele>
        <time>2011-05-29T08:23:05Z</time>
      </trkpt>
      <trkpt lat="43.74568" lon="7.01424">
        <ele>823.51</ele>
        <time>2011-05-29T08:23:19Z</time>
      </trkpt>
      <trkpt lat="43.74573" lon="7.01424">
        <ele>824.47</ele>
        <time>2011-05-29T08:23:24Z</time>
      </trkpt>
      <trkpt lat="43.74587" lon="7.01422">
        <ele>826.87</ele>
        <time>2011-05-29T08:23:41Z</time>
      </trkpt>
      <trkpt lat="43.74597" lon="7.01423">
        <ele>829.27</ele>
        <time>2011-05-29T08:23:55Z</time>
      </trkpt>
      <trkpt lat="43.74599" lon="7.01423">
        <ele>830.24</ele>
        <time>2011-05-29T08:23:58Z</time>
      </trkpt>
      <trkpt lat="43.746" lon="7.01422">
        <ele>830.24</ele>
        <time>2011-05-29T08:24:00Z</time>
      </trkpt>
      <trkpt lat="43.74613" lon="7.01414">
        <ele>832.64</ele>
        <time>2011-05-29T08:24:14Z</time>
      </trkpt>
      <trkpt lat="43.74623" lon="7.01406">
        <ele>834.08</ele>
        <time>2011-05-29T08:24:28Z</time>
      </trkpt>
      <trkpt lat="43.74632" lon="7.01392">
        <ele>836.48</ele>
        <time>2011-05-29T08:24:44Z</time>
      </trkpt>
      <trkpt lat="43.74636" lon="7.01384">
        <ele>839.37</ele>
        <time>2011-05-29T08:24:59Z</time>
      </trkpt>
      <trkpt lat="43.74635" lon="7.01399">
        <ele>841.77</ele>
        <time>2011-05-29T08:25:12Z</time>
      </trkpt>
      <trkpt lat="43.74636" lon="7.01402">
        <ele>841.77</ele>
        <time>2011-05-29T08:25:14Z</time>
      </trkpt>
      <trkpt lat="43.74635" lon="7.01406">
        <ele>842.25</ele>
        <time>2011-05-29T08:25:17Z</time>
      </trkpt>
      <trkpt lat="43.74635" lon="7.01426">
        <ele>844.18</ele>
        <time>2011-05-29T08:25:32Z</time>
      </trkpt>
      <trkpt lat="43.74632" lon="7.0144">
        <ele>846.1</ele>
        <time>2011-05-29T08:25:45Z</time>
      </trkpt>
      <trkpt lat="43.74632" lon="7.01444">
        <ele>848.02</ele>
        <time>2011-05-29T08:25:52Z</time>
      </trkpt>
      <trkpt lat="43.74633" lon="7.01441">
        <ele>848.5</ele>
        <time>2011-05-29T08:25:55Z</time>
      </trkpt>
      <trkpt lat="43.74642" lon="7.01424">
        <ele>850.9</ele>
        <time>2011-05-29T08:26:11Z</time>
      </trkpt>
      <trkpt lat="43.74645" lon="7.01419">
        <ele>851.38</ele>
        <time>2011-05-29T08:26:15Z</time>
      </trkpt>
      <trkpt lat="43.74646" lon="7.01413">
        <ele>852.35</ele>
        <time>2011-05-29T08:26:19Z</time>
      </trkpt>
      <trkpt lat="43.74649" lon="7.01406">
        <ele>852.83</ele>
        <time>2011-05-29T08:26:25Z</time>
      </trkpt>
      <trkpt lat="43.74657" lon="7.01393">
        <ele>855.71</ele>
        <time>2011-05-29T08:26:41Z</time>
      </trkpt>
      <trkpt lat="43.74665" lon="7.01383">
        <ele>857.63</ele>
        <time>2011-05-29T08:26:55Z</time>
      </trkpt>
      <trkpt lat="43.74677" lon="7.01382">
        <ele>859.08</ele>
        <time>2011-05-29T08:27:09Z</time>
      </trkpt>
      <trkpt lat="43.74674" lon="7.01396">
        <ele>861.96</ele>
        <time>2011-05-29T08:27:23Z</time>
      </trkpt>
      <trkpt lat="43.74671" lon="7.01416">
        <ele>863.4</ele>
        <time>2011-05-29T08:27:38Z</time>
      </trkpt>
      <trkpt lat="43.74668" lon="7.01431">
        <ele>866.77</ele>
        <time>2011-05-29T08:27:54Z</time>
      </trkpt>
      <trkpt lat="43.74666" lon="7.01448">
        <ele>869.17</ele>
        <time>2011-05-29T08:28:09Z</time>
      </trkpt>
      <trkpt lat="43.74664" lon="7.01461">
        <ele>871.09</ele>
        <time>2011-05-29T08:28:24Z</time>
      </trkpt>
      <trkpt lat="43.74659" lon="7.01476">
        <ele>873.01</ele>
        <time>2011-05-29T08:28:39Z</time>
      </trkpt>
      <trkpt lat="43.74653" lon="7.01488">
        <ele>874.46</ele>
        <time>2011-05-29T08:28:51Z</time>
      </trkpt>
      <trkpt lat="43.74644" lon="7.01502">
        <ele>877.34</ele>
        <time>2011-05-29T08:29:07Z</time>
      </trkpt>
      <trkpt lat="43.74642" lon="7.01506">
        <ele>877.82</ele>
        <time>2011-05-29T08:29:11Z</time>
      </trkpt>
      <trkpt lat="43.74629" lon="7.0152">
        <ele>880.22</ele>
        <time>2011-05-29T08:29:29Z</time>
      </trkpt>
      <trkpt lat="43.74628" lon="7.01523">
        <ele>881.19</ele>
        <time>2011-05-29T08:29:44Z</time>
      </trkpt>
      <trkpt lat="43.74628" lon="7.01523">
        <ele>881.19</ele>
        <time>2011-05-29T08:30:10Z</time>
      </trkpt>
      <trkpt lat="43.74628" lon="7.01523">
        <ele>881.67</ele>
        <time>2011-05-29T08:30:35Z</time>
      </trkpt>
      <trkpt lat="43.74628" lon="7.01523">
        <ele>881.67</ele>
        <time>2011-05-29T08:31:09Z</time>
      </trkpt>
      <trkpt lat="43.74628" lon="7.01523">
        <ele>882.15</ele>
        <time>2011-05-29T08:31:44Z</time>
      </trkpt>
      <trkpt lat="43.74628" lon="7.01523">
        <ele>882.63</ele>
        <time>2011-05-29T08:32:13Z</time>
      </trkpt>
      <trkpt lat="43.74629" lon="7.01523">
        <ele>882.15</ele>
        <time>2011-05-29T08:32:46Z</time>
      </trkpt>
      <trkpt lat="43.74629" lon="7.01523">
        <ele>882.63</ele>
        <time>2011-05-29T08:33:14Z</time>
      </trkpt>
      <trkpt lat="43.74629" lon="7.01523">
        <ele>882.63</ele>
        <time>2011-05-29T08:33:41Z</time>
      </trkpt>
      <trkpt lat="43.74632" lon="7.01522">
        <ele>883.59</ele>
        <time>2011-05-29T08:33:55Z</time>
      </trkpt>
      <trkpt lat="43.74637" lon="7.0152">
        <ele>883.59</ele>
        <time>2011-05-29T08:34:00Z</time>
      </trkpt>
      <trkpt lat="43.74647" lon="7.01513">
        <ele>884.55</ele>
        <time>2011-05-29T08:34:13Z</time>
      </trkpt>
      <trkpt lat="43.74652" lon="7.01511">
        <ele>885.03</ele>
        <time>2011-05-29T08:34:20Z</time>
      </trkpt>
      <trkpt lat="43.74656" lon="7.01508">
        <ele>885.03</ele>
        <time>2011-05-29T08:34:25Z</time>
      </trkpt>
      <trkpt lat="43.74667" lon="7.01496">
        <ele>886.95</ele>
        <time>2011-05-29T08:34:41Z</time>
      </trkpt>
      <trkpt lat="43.74671" lon="7.01493">
        <ele>887.43</ele>
        <time>2011-05-29T08:34:46Z</time>
      </trkpt>
      <trkpt lat="43.74674" lon="7.01489">
        <ele>887.91</ele>
        <time>2011-05-29T08:34:50Z</time>
      </trkpt>
      <trkpt lat="43.74678" lon="7.01482">
        <ele>888.4</ele>
        <time>2011-05-29T08:34:55Z</time>
      </trkpt>
      <trkpt lat="43.74691" lon="7.01465">
        <ele>889.36</ele>
        <time>2011-05-29T08:35:11Z</time>
      </trkpt>
      <trkpt lat="43.74699" lon="7.01453">
        <ele>890.32</ele>
        <time>2011-05-29T08:35:22Z</time>
      </trkpt>
      <trkpt lat="43.74707" lon="7.01438">
        <ele>891.28</ele>
        <time>2011-05-29T08:35:36Z</time>
      </trkpt>
      <trkpt lat="43.74712" lon="7.0143">
        <ele>892.24</ele>
        <time>2011-05-29T08:35:45Z</time>
      </trkpt>
      <trkpt lat="43.7472" lon="7.01411">
        <ele>893.68</ele>
        <time>2011-05-29T08:35:59Z</time>
      </trkpt>
      <trkpt lat="43.7472" lon="7.01407">
        <ele>893.2</ele>
        <time>2011-05-29T08:36:13Z</time>
      </trkpt>
      <trkpt lat="43.7472" lon="7.01406">
        <ele>892.72</ele>
        <time>2011-05-29T08:36:31Z</time>
      </trkpt>
      <trkpt lat="43.7472" lon="7.01407">
        <ele>893.2</ele>
        <time>2011-05-29T08:36:50Z</time>
      </trkpt>
      <trkpt lat="43.74721" lon="7.01407">
        <ele>893.68</ele>
        <time>2011-05-29T08:36:51Z</time>
      </trkpt>
      <trkpt lat="43.74724" lon="7.01406">
        <ele>893.2</ele>
        <time>2011-05-29T08:36:55Z</time>
      </trkpt>
      <trkpt lat="43.7473" lon="7.01402">
        <ele>893.2</ele>
        <time>2011-05-29T08:37:08Z</time>
      </trkpt>
      <trkpt lat="43.74731" lon="7.01402">
        <ele>893.68</ele>
        <time>2011-05-29T08:37:23Z</time>
      </trkpt>
      <trkpt lat="43.74731" lon="7.01402">
        <ele>893.68</ele>
        <time>2011-05-29T08:37:55Z</time>
      </trkpt>
      <trkpt lat="43.74731" lon="7.01402">
        <ele>893.68</ele>
        <time>2011-05-29T08:38:21Z</time>
      </trkpt>
      <trkpt lat="43.74731" lon="7.01402">
        <ele>893.68</ele>
        <time>2011-05-29T08:38:53Z</time>
      </trkpt>
      <trkpt lat="43.74731" lon="7.01401">
        <ele>893.68</ele>
        <time>2011-05-29T08:39:21Z</time>
      </trkpt>
      <trkpt lat="43.74731" lon="7.01401">
        <ele>894.16</ele>
        <time>2011-05-29T08:39:51Z</time>
      </trkpt>
      <trkpt lat="43.74731" lon="7.01401">
        <ele>894.64</ele>
        <time>2011-05-29T08:40:23Z</time>
      </trkpt>
      <trkpt lat="43.74731" lon="7.01401">
        <ele>894.64</ele>
        <time>2011-05-29T08:40:55Z</time>
      </trkpt>
      <trkpt lat="43.74731" lon="7.01402">
        <ele>894.64</ele>
        <time>2011-05-29T08:41:30Z</time>
      </trkpt>
      <trkpt lat="43.74731" lon="7.01402">
        <ele>894.64</ele>
        <time>2011-05-29T08:41:59Z</time>
      </trkpt>
      <trkpt lat="43.74732" lon="7.014">
        <ele>895.12</ele>
        <time>2011-05-29T08:42:11Z</time>
      </trkpt>
      <trkpt lat="43.74733" lon="7.01398">
        <ele>894.64</ele>
        <time>2011-05-29T08:42:13Z</time>
      </trkpt>
      <trkpt lat="43.74751" lon="7.01402">
        <ele>894.16</ele>
        <time>2011-05-29T08:42:31Z</time>
      </trkpt>
      <trkpt lat="43.74762" lon="7.01416">
        <ele>894.64</ele>
        <time>2011-05-29T08:42:45Z</time>
      </trkpt>
      <trkpt lat="43.74769" lon="7.01428">
        <ele>894.64</ele>
        <time>2011-05-29T08:42:54Z</time>
      </trkpt>
      <trkpt lat="43.74772" lon="7.0143">
        <ele>895.12</ele>
        <time>2011-05-29T08:42:57Z</time>
      </trkpt>
      <trkpt lat="43.74777" lon="7.01436">
        <ele>895.12</ele>
        <time>2011-05-29T08:43:04Z</time>
      </trkpt>
      <trkpt lat="43.7479" lon="7.01451">
        <ele>896.09</ele>
        <time>2011-05-29T08:43:20Z</time>
      </trkpt>
      <trkpt lat="43.74805" lon="7.01465">
        <ele>897.05</ele>
        <time>2011-05-29T08:43:37Z</time>
      </trkpt>
      <trkpt lat="43.74806" lon="7.01466">
        <ele>897.05</ele>
        <time>2011-05-29T08:43:38Z</time>
      </trkpt>
      <trkpt lat="43.74809" lon="7.01469">
        <ele>896.57</ele>
        <time>2011-05-29T08:43:41Z</time>
      </trkpt>
      <trkpt lat="43.74817" lon="7.0148">
        <ele>896.57</ele>
        <time>2011-05-29T08:43:50Z</time>
      </trkpt>
      <trkpt lat="43.74828" lon="7.015">
        <ele>896.09</ele>
        <time>2011-05-29T08:44:06Z</time>
      </trkpt>
      <trkpt lat="43.74841" lon="7.01519">
        <ele>896.57</ele>
        <time>2011-05-29T08:44:22Z</time>
      </trkpt>
      <trkpt lat="43.74851" lon="7.01539">
        <ele>898.49</ele>
        <time>2011-05-29T08:44:37Z</time>
      </trkpt>
      <trkpt lat="43.74852" lon="7.01541">
        <ele>898.97</ele>
        <time>2011-05-29T08:44:40Z</time>
      </trkpt>
      <trkpt lat="43.74857" lon="7.01549">
        <ele>898.97</ele>
        <time>2011-05-29T08:44:49Z</time>
      </trkpt>
      <trkpt lat="43.7486" lon="7.01552">
        <ele>899.45</ele>
        <time>2011-05-29T08:44:53Z</time>
      </trkpt>
      <trkpt lat="43.74875" lon="7.01565">
        <ele>901.37</ele>
        <time>2011-05-29T08:45:08Z</time>
      </trkpt>
      <trkpt lat="43.74885" lon="7.0157">
        <ele>901.85</ele>
        <time>2011-05-29T08:45:18Z</time>
      </trkpt>
      <trkpt lat="43.74892" lon="7.01572">
        <ele>902.82</ele>
        <time>2011-05-29T08:45:24Z</time>
      </trkpt>
      <trkpt lat="43.74894" lon="7.01573">
        <ele>902.82</ele>
        <time>2011-05-29T08:45:26Z</time>
      </trkpt>
      <trkpt lat="43.74908" lon="7.01581">
        <ele>904.26</ele>
        <time>2011-05-29T08:45:40Z</time>
      </trkpt>
      <trkpt lat="43.74915" lon="7.01582">
        <ele>905.22</ele>
        <time>2011-05-29T08:45:47Z</time>
      </trkpt>
      <trkpt lat="43.74917" lon="7.01581">
        <ele>905.7</ele>
        <time>2011-05-29T08:45:49Z</time>
      </trkpt>
      <trkpt lat="43.74929" lon="7.01587">
        <ele>908.1</ele>
        <time>2011-05-29T08:46:04Z</time>
      </trkpt>
      <trkpt lat="43.7494" lon="7.01592">
        <ele>909.54</ele>
        <time>2011-05-29T08:46:17Z</time>
      </trkpt>
      <trkpt lat="43.74951" lon="7.01596">
        <ele>911.47</ele>
        <time>2011-05-29T08:46:30Z</time>
      </trkpt>
      <trkpt lat="43.7496" lon="7.01603">
        <ele>914.35</ele>
        <time>2011-05-29T08:46:44Z</time>
      </trkpt>
      <trkpt lat="43.7497" lon="7.01606">
        <ele>915.79</ele>
        <time>2011-05-29T08:46:58Z</time>
      </trkpt>
      <trkpt lat="43.74978" lon="7.01608">
        <ele>917.24</ele>
        <time>2011-05-29T08:47:10Z</time>
      </trkpt>
      <trkpt lat="43.74987" lon="7.0161">
        <ele>918.2</ele>
        <time>2011-05-29T08:47:23Z</time>
      </trkpt>
      <trkpt lat="43.74987" lon="7.0161">
        <ele>919.16</ele>
        <time>2011-05-29T08:47:24Z</time>
      </trkpt>
      <trkpt lat="43.74992" lon="7.01612">
        <ele>920.12</ele>
        <time>2011-05-29T08:47:29Z</time>
      </trkpt>
      <trkpt lat="43.75004" lon="7.01616">
        <ele>921.08</ele>
        <time>2011-05-29T08:47:45Z</time>
      </trkpt>
      <trkpt lat="43.75015" lon="7.01618">
        <ele>923</ele>
        <time>2011-05-29T08:47:58Z</time>
      </trkpt>
      <trkpt lat="43.75028" lon="7.01619">
        <ele>923.96</ele>
        <time>2011-05-29T08:48:13Z</time>
      </trkpt>
      <trkpt lat="43.7503" lon="7.0162">
        <ele>924.45</ele>
        <time>2011-05-29T08:48:16Z</time>
      </trkpt>
      <trkpt lat="43.75045" lon="7.01622">
        <ele>925.89</ele>
        <time>2011-05-29T08:48:33Z</time>
      </trkpt>
      <trkpt lat="43.75046" lon="7.01622">
        <ele>925.89</ele>
        <time>2011-05-29T08:48:34Z</time>
      </trkpt>
      <trkpt lat="43.75057" lon="7.01623">
        <ele>927.33</ele>
        <time>2011-05-29T08:48:48Z</time>
      </trkpt>
      <trkpt lat="43.75066" lon="7.01625">
        <ele>929.73</ele>
        <time>2011-05-29T08:49:02Z</time>
      </trkpt>
      <trkpt lat="43.75068" lon="7.01625">
        <ele>929.73</ele>
        <time>2011-05-29T08:49:04Z</time>
      </trkpt>
      <trkpt lat="43.75071" lon="7.01625">
        <ele>931.17</ele>
        <time>2011-05-29T08:49:07Z</time>
      </trkpt>
      <trkpt lat="43.75082" lon="7.01628">
        <ele>933.1</ele>
        <time>2011-05-29T08:49:19Z</time>
      </trkpt>
      <trkpt lat="43.75092" lon="7.01625">
        <ele>935.5</ele>
        <time>2011-05-29T08:49:32Z</time>
      </trkpt>
      <trkpt lat="43.75096" lon="7.01618">
        <ele>936.94</ele>
        <time>2011-05-29T08:49:40Z</time>
      </trkpt>
      <trkpt lat="43.75102" lon="7.01608">
        <ele>938.38</ele>
        <time>2011-05-29T08:49:54Z</time>
      </trkpt>
      <trkpt lat="43.75105" lon="7.01605">
        <ele>937.9</ele>
        <time>2011-05-29T08:49:57Z</time>
      </trkpt>
      <trkpt lat="43.75114" lon="7.01607">
        <ele>938.38</ele>
        <time>2011-05-29T08:50:06Z</time>
      </trkpt>
      <trkpt lat="43.75127" lon="7.0161">
        <ele>938.38</ele>
        <time>2011-05-29T08:50:21Z</time>
      </trkpt>
      <trkpt lat="43.75133" lon="7.01612">
        <ele>938.86</ele>
        <time>2011-05-29T08:50:35Z</time>
      </trkpt>
      <trkpt lat="43.75134" lon="7.01613">
        <ele>938.38</ele>
        <time>2011-05-29T08:50:38Z</time>
      </trkpt>
      <trkpt lat="43.75151" lon="7.01622">
        <ele>937.9</ele>
        <time>2011-05-29T08:50:54Z</time>
      </trkpt>
      <trkpt lat="43.7516" lon="7.01628">
        <ele>938.38</ele>
        <time>2011-05-29T08:51:10Z</time>
      </trkpt>
      <trkpt lat="43.75167" lon="7.0163">
        <ele>937.9</ele>
        <time>2011-05-29T08:51:25Z</time>
      </trkpt>
      <trkpt lat="43.7518" lon="7.01643">
        <ele>938.86</ele>
        <time>2011-05-29T08:51:40Z</time>
      </trkpt>
      <trkpt lat="43.75195" lon="7.01657">
        <ele>938.38</ele>
        <time>2011-05-29T08:51:56Z</time>
      </trkpt>
      <trkpt lat="43.75208" lon="7.01672">
        <ele>938.38</ele>
        <time>2011-05-29T08:52:10Z</time>
      </trkpt>
      <trkpt lat="43.75221" lon="7.01684">
        <ele>938.38</ele>
        <time>2011-05-29T08:52:24Z</time>
      </trkpt>
      <trkpt lat="43.75237" lon="7.01697">
        <ele>938.38</ele>
        <time>2011-05-29T08:52:39Z</time>
      </trkpt>
      <trkpt lat="43.7525" lon="7.01709">
        <ele>938.38</ele>
        <time>2011-05-29T08:52:54Z</time>
      </trkpt>
      <trkpt lat="43.75264" lon="7.01719">
        <ele>938.86</ele>
        <time>2011-05-29T08:53:09Z</time>
      </trkpt>
      <trkpt lat="43.7527" lon="7.01727">
        <ele>938.86</ele>
        <time>2011-05-29T08:53:16Z</time>
      </trkpt>
      <trkpt lat="43.75285" lon="7.01737">
        <ele>939.83</ele>
        <time>2011-05-29T08:53:31Z</time>
      </trkpt>
      <trkpt lat="43.75299" lon="7.0175">
        <ele>941.75</ele>
        <time>2011-05-29T08:53:46Z</time>
      </trkpt>
      <trkpt lat="43.7531" lon="7.0176">
        <ele>943.19</ele>
        <time>2011-05-29T08:54:00Z</time>
      </trkpt>
      <trkpt lat="43.75322" lon="7.01769">
        <ele>943.67</ele>
        <time>2011-05-29T08:54:15Z</time>
      </trkpt>
      <trkpt lat="43.75332" lon="7.0178">
        <ele>945.59</ele>
        <time>2011-05-29T08:54:30Z</time>
      </trkpt>
      <trkpt lat="43.75342" lon="7.01786">
        <ele>946.56</ele>
        <time>2011-05-29T08:54:46Z</time>
      </trkpt>
      <trkpt lat="43.75342" lon="7.01786">
        <ele>946.07</ele>
        <time>2011-05-29T08:55:03Z</time>
      </trkpt>
      <trkpt lat="43.75342" lon="7.01786">
        <ele>946.56</ele>
        <time>2011-05-29T08:55:25Z</time>
      </trkpt>
      <trkpt lat="43.75343" lon="7.01786">
        <ele>946.56</ele>
        <time>2011-05-29T08:55:46Z</time>
      </trkpt>
      <trkpt lat="43.75343" lon="7.01786">
        <ele>946.56</ele>
        <time>2011-05-29T08:56:19Z</time>
      </trkpt>
      <trkpt lat="43.75343" lon="7.01787">
        <ele>945.11</ele>
        <time>2011-05-29T08:56:45Z</time>
      </trkpt>
      <trkpt lat="43.75343" lon="7.01787">
        <ele>945.11</ele>
        <time>2011-05-29T08:57:07Z</time>
      </trkpt>
      <trkpt lat="43.75344" lon="7.01787">
        <ele>946.56</ele>
        <time>2011-05-29T08:57:33Z</time>
      </trkpt>
      <trkpt lat="43.75344" lon="7.01786">
        <ele>945.59</ele>
        <time>2011-05-29T08:57:57Z</time>
      </trkpt>
      <trkpt lat="43.75344" lon="7.01786">
        <ele>945.59</ele>
        <time>2011-05-29T08:58:28Z</time>
      </trkpt>
      <trkpt lat="43.75344" lon="7.01786">
        <ele>945.11</ele>
        <time>2011-05-29T08:58:53Z</time>
      </trkpt>
      <trkpt lat="43.75343" lon="7.01786">
        <ele>945.59</ele>
        <time>2011-05-29T08:59:18Z</time>
      </trkpt>
      <trkpt lat="43.75343" lon="7.01787">
        <ele>946.07</ele>
        <time>2011-05-29T08:59:30Z</time>
      </trkpt>
      <trkpt lat="43.75344" lon="7.01786">
        <ele>946.56</ele>
        <time>2011-05-29T08:59:58Z</time>
      </trkpt>
      <trkpt lat="43.75344" lon="7.01786">
        <ele>946.07</ele>
        <time>2011-05-29T09:00:21Z</time>
      </trkpt>
      <trkpt lat="43.75344" lon="7.01787">
        <ele>946.07</ele>
        <time>2011-05-29T09:00:55Z</time>
      </trkpt>
      <trkpt lat="43.75343" lon="7.01786">
        <ele>945.59</ele>
        <time>2011-05-29T09:01:13Z</time>
      </trkpt>
      <trkpt lat="43.75343" lon="7.01787">
        <ele>945.59</ele>
        <time>2011-05-29T09:01:34Z</time>
      </trkpt>
      <trkpt lat="43.75343" lon="7.01786">
        <ele>945.59</ele>
        <time>2011-05-29T09:01:57Z</time>
      </trkpt>
      <trkpt lat="43.75343" lon="7.01786">
        <ele>945.59</ele>
        <time>2011-05-29T09:02:18Z</time>
      </trkpt>
      <trkpt lat="43.75343" lon="7.01786">
        <ele>945.59</ele>
        <time>2011-05-29T09:02:36Z</time>
      </trkpt>
      <trkpt lat="43.75343" lon="7.01786">
        <ele>945.59</ele>
        <time>2011-05-29T09:03:08Z</time>
      </trkpt>
      <trkpt lat="43.75343" lon="7.01786">
        <ele>945.11</ele>
        <time>2011-05-29T09:03:37Z</time>
      </trkpt>
      <trkpt lat="43.75343" lon="7.01788">
        <ele>945.11</ele>
        <time>2011-05-29T09:03:46Z</time>
      </trkpt>
      <trkpt lat="43.75356" lon="7.01799">
        <ele>946.07</ele>
        <time>2011-05-29T09:04:02Z</time>
      </trkpt>
      <trkpt lat="43.75357" lon="7.018">
        <ele>945.59</ele>
        <time>2011-05-29T09:04:03Z</time>
      </trkpt>
      <trkpt lat="43.75371" lon="7.01799">
        <ele>946.07</ele>
        <time>2011-05-29T09:04:17Z</time>
      </trkpt>
      <trkpt lat="43.75383" lon="7.01794">
        <ele>947.04</ele>
        <time>2011-05-29T09:04:31Z</time>
      </trkpt>
      <trkpt lat="43.75394" lon="7.01793">
        <ele>947.04</ele>
        <time>2011-05-29T09:04:41Z</time>
      </trkpt>
      <trkpt lat="43.7541" lon="7.01791">
        <ele>948</ele>
        <time>2011-05-29T09:04:56Z</time>
      </trkpt>
      <trkpt lat="43.75419" lon="7.01791">
        <ele>947.52</ele>
        <time>2011-05-29T09:05:03Z</time>
      </trkpt>
      <trkpt lat="43.75434" lon="7.01794">
        <ele>948.96</ele>
        <time>2011-05-29T09:05:18Z</time>
      </trkpt>
      <trkpt lat="43.75447" lon="7.01802">
        <ele>949.44</ele>
        <time>2011-05-29T09:05:32Z</time>
      </trkpt>
      <trkpt lat="43.75458" lon="7.01806">
        <ele>949.92</ele>
        <time>2011-05-29T09:05:43Z</time>
      </trkpt>
      <trkpt lat="43.75466" lon="7.01806">
        <ele>949.44</ele>
        <time>2011-05-29T09:05:50Z</time>
      </trkpt>
      <trkpt lat="43.75476" lon="7.01808">
        <ele>949.44</ele>
        <time>2011-05-29T09:06:00Z</time>
      </trkpt>
      <trkpt lat="43.75488" lon="7.01812">
        <ele>949.44</ele>
        <time>2011-05-29T09:06:10Z</time>
      </trkpt>
      <trkpt lat="43.75505" lon="7.01816">
        <ele>949.92</ele>
        <time>2011-05-29T09:06:26Z</time>
      </trkpt>
      <trkpt lat="43.75521" lon="7.01821">
        <ele>948.96</ele>
        <time>2011-05-29T09:06:41Z</time>
      </trkpt>
      <trkpt lat="43.75531" lon="7.01823">
        <ele>948</ele>
        <time>2011-05-29T09:06:50Z</time>
      </trkpt>
      <trkpt lat="43.75543" lon="7.01825">
        <ele>947.52</ele>
        <time>2011-05-29T09:07:00Z</time>
      </trkpt>
      <trkpt lat="43.75562" lon="7.01828">
        <ele>946.07</ele>
        <time>2011-05-29T09:07:16Z</time>
      </trkpt>
      <trkpt lat="43.75573" lon="7.0183">
        <ele>946.07</ele>
        <time>2011-05-29T09:07:26Z</time>
      </trkpt>
      <trkpt lat="43.75581" lon="7.01832">
        <ele>946.07</ele>
        <time>2011-05-29T09:07:34Z</time>
      </trkpt>
      <trkpt lat="43.75583" lon="7.01834">
        <ele>946.07</ele>
        <time>2011-05-29T09:07:36Z</time>
      </trkpt>
      <trkpt lat="43.75601" lon="7.01835">
        <ele>946.56</ele>
        <time>2011-05-29T09:07:52Z</time>
      </trkpt>
      <trkpt lat="43.75617" lon="7.01838">
        <ele>948</ele>
        <time>2011-05-29T09:08:08Z</time>
      </trkpt>
      <trkpt lat="43.75617" lon="7.01839">
        <ele>947.52</ele>
        <time>2011-05-29T09:08:09Z</time>
      </trkpt>
      <trkpt lat="43.75619" lon="7.0184">
        <ele>948</ele>
        <time>2011-05-29T09:08:11Z</time>
      </trkpt>
      <trkpt lat="43.75625" lon="7.01841">
        <ele>948</ele>
        <time>2011-05-29T09:08:17Z</time>
      </trkpt>
      <trkpt lat="43.75638" lon="7.01845">
        <ele>949.44</ele>
        <time>2011-05-29T09:08:31Z</time>
      </trkpt>
      <trkpt lat="43.75641" lon="7.01846">
        <ele>949.44</ele>
        <time>2011-05-29T09:08:34Z</time>
      </trkpt>
      <trkpt lat="43.75657" lon="7.01852">
        <ele>950.4</ele>
        <time>2011-05-29T09:08:50Z</time>
      </trkpt>
      <trkpt lat="43.75666" lon="7.01854">
        <ele>950.88</ele>
        <time>2011-05-29T09:08:59Z</time>
      </trkpt>
      <trkpt lat="43.75672" lon="7.01856">
        <ele>950.88</ele>
        <time>2011-05-29T09:09:04Z</time>
      </trkpt>
      <trkpt lat="43.75688" lon="7.01862">
        <ele>950.88</ele>
        <time>2011-05-29T09:09:19Z</time>
      </trkpt>
      <trkpt lat="43.757" lon="7.01867">
        <ele>951.36</ele>
        <time>2011-05-29T09:09:30Z</time>
      </trkpt>
      <trkpt lat="43.75714" lon="7.01872">
        <ele>951.84</ele>
        <time>2011-05-29T09:09:43Z</time>
      </trkpt>
      <trkpt lat="43.75729" lon="7.01877">
        <ele>952.32</ele>
        <time>2011-05-29T09:09:57Z</time>
      </trkpt>
      <trkpt lat="43.75747" lon="7.01883">
        <ele>952.8</ele>
        <time>2011-05-29T09:10:14Z</time>
      </trkpt>
      <trkpt lat="43.75749" lon="7.01885">
        <ele>953.28</ele>
        <time>2011-05-29T09:10:16Z</time>
      </trkpt>
      <trkpt lat="43.75751" lon="7.01885">
        <ele>952.8</ele>
        <time>2011-05-29T09:10:18Z</time>
      </trkpt>
      <trkpt lat="43.75761" lon="7.01889">
        <ele>952.8</ele>
        <time>2011-05-29T09:10:27Z</time>
      </trkpt>
      <trkpt lat="43.75763" lon="7.01891">
        <ele>953.28</ele>
        <time>2011-05-29T09:10:30Z</time>
      </trkpt>
      <trkpt lat="43.75765" lon="7.01891">
        <ele>952.8</ele>
        <time>2011-05-29T09:10:32Z</time>
      </trkpt>
      <trkpt lat="43.75781" lon="7.01898">
        <ele>953.28</ele>
        <time>2011-05-29T09:10:47Z</time>
      </trkpt>
      <trkpt lat="43.75789" lon="7.01901">
        <ele>954.73</ele>
        <time>2011-05-29T09:10:55Z</time>
      </trkpt>
      <trkpt lat="43.75798" lon="7.01905">
        <ele>954.73</ele>
        <time>2011-05-29T09:11:05Z</time>
      </trkpt>
      <trkpt lat="43.7581" lon="7.01912">
        <ele>954.73</ele>
        <time>2011-05-29T09:11:21Z</time>
      </trkpt>
      <trkpt lat="43.7581" lon="7.01912">
        <ele>955.21</ele>
        <time>2011-05-29T09:11:34Z</time>
      </trkpt>
      <trkpt lat="43.7581" lon="7.01912">
        <ele>954.73</ele>
        <time>2011-05-29T09:11:55Z</time>
      </trkpt>
      <trkpt lat="43.75811" lon="7.01912">
        <ele>954.73</ele>
        <time>2011-05-29T09:12:05Z</time>
      </trkpt>
      <trkpt lat="43.75806" lon="7.01913">
        <ele>954.25</ele>
        <time>2011-05-29T09:12:12Z</time>
      </trkpt>
      <trkpt lat="43.75802" lon="7.0191">
        <ele>954.25</ele>
        <time>2011-05-29T09:12:28Z</time>
      </trkpt>
      <trkpt lat="43.75801" lon="7.01909">
        <ele>954.25</ele>
        <time>2011-05-29T09:12:46Z</time>
      </trkpt>
      <trkpt lat="43.75798" lon="7.01905">
        <ele>953.28</ele>
        <time>2011-05-29T09:13:06Z</time>
      </trkpt>
      <trkpt lat="43.75801" lon="7.01906">
        <ele>954.25</ele>
        <time>2011-05-29T09:13:21Z</time>
      </trkpt>
      <trkpt lat="43.75805" lon="7.01909">
        <ele>953.77</ele>
        <time>2011-05-29T09:13:34Z</time>
      </trkpt>
      <trkpt lat="43.75805" lon="7.01909">
        <ele>953.77</ele>
        <time>2011-05-29T09:13:59Z</time>
      </trkpt>
      <trkpt lat="43.75806" lon="7.0191">
        <ele>954.25</ele>
        <time>2011-05-29T09:14:19Z</time>
      </trkpt>
      <trkpt lat="43.75809" lon="7.01911">
        <ele>954.73</ele>
        <time>2011-05-29T09:14:31Z</time>
      </trkpt>
      <trkpt lat="43.75813" lon="7.01916">
        <ele>954.73</ele>
        <time>2011-05-29T09:14:39Z</time>
      </trkpt>
      <trkpt lat="43.75818" lon="7.01917">
        <ele>954.73</ele>
        <time>2011-05-29T09:14:43Z</time>
      </trkpt>
      <trkpt lat="43.75819" lon="7.01919">
        <ele>954.25</ele>
        <time>2011-05-29T09:14:45Z</time>
      </trkpt>
      <trkpt lat="43.75832" lon="7.01926">
        <ele>955.69</ele>
        <time>2011-05-29T09:15:00Z</time>
      </trkpt>
      <trkpt lat="43.7584" lon="7.01932">
        <ele>956.17</ele>
        <time>2011-05-29T09:15:12Z</time>
      </trkpt>
      <trkpt lat="43.75849" lon="7.01939">
        <ele>957.13</ele>
        <time>2011-05-29T09:15:23Z</time>
      </trkpt>
      <trkpt lat="43.75853" lon="7.01943">
        <ele>957.61</ele>
        <time>2011-05-29T09:15:27Z</time>
      </trkpt>
      <trkpt lat="43.75865" lon="7.0195">
        <ele>958.57</ele>
        <time>2011-05-29T09:15:37Z</time>
      </trkpt>
      <trkpt lat="43.75869" lon="7.01952">
        <ele>958.57</ele>
        <time>2011-05-29T09:15:41Z</time>
      </trkpt>
      <trkpt lat="43.75882" lon="7.01957">
        <ele>960.01</ele>
        <time>2011-05-29T09:15:55Z</time>
      </trkpt>
      <trkpt lat="43.75896" lon="7.01964">
        <ele>960.49</ele>
        <time>2011-05-29T09:16:09Z</time>
      </trkpt>
      <trkpt lat="43.759" lon="7.01966">
        <ele>960.98</ele>
        <time>2011-05-29T09:16:13Z</time>
      </trkpt>
      <trkpt lat="43.75901" lon="7.01966">
        <ele>961.46</ele>
        <time>2011-05-29T09:16:15Z</time>
      </trkpt>
      <trkpt lat="43.75916" lon="7.01973">
        <ele>962.42</ele>
        <time>2011-05-29T09:16:29Z</time>
      </trkpt>
      <trkpt lat="43.75917" lon="7.01973">
        <ele>961.94</ele>
        <time>2011-05-29T09:16:31Z</time>
      </trkpt>
      <trkpt lat="43.75921" lon="7.01976">
        <ele>962.42</ele>
        <time>2011-05-29T09:16:43Z</time>
      </trkpt>
      <trkpt lat="43.75923" lon="7.01976">
        <ele>962.42</ele>
        <time>2011-05-29T09:17:07Z</time>
      </trkpt>
      <trkpt lat="43.75935" lon="7.01983">
        <ele>961.46</ele>
        <time>2011-05-29T09:17:22Z</time>
      </trkpt>
      <trkpt lat="43.75949" lon="7.01991">
        <ele>961.94</ele>
        <time>2011-05-29T09:17:38Z</time>
      </trkpt>
      <trkpt lat="43.75966" lon="7.02">
        <ele>961.46</ele>
        <time>2011-05-29T09:17:54Z</time>
      </trkpt>
      <trkpt lat="43.75982" lon="7.02012">
        <ele>960.49</ele>
        <time>2011-05-29T09:18:10Z</time>
      </trkpt>
      <trkpt lat="43.75998" lon="7.02025">
        <ele>960.49</ele>
        <time>2011-05-29T09:18:27Z</time>
      </trkpt>
      <trkpt lat="43.76003" lon="7.02028">
        <ele>961.94</ele>
        <time>2011-05-29T09:18:31Z</time>
      </trkpt>
      <trkpt lat="43.76016" lon="7.02039">
        <ele>962.42</ele>
        <time>2011-05-29T09:18:46Z</time>
      </trkpt>
      <trkpt lat="43.76029" lon="7.02049">
        <ele>962.9</ele>
        <time>2011-05-29T09:19:00Z</time>
      </trkpt>
      <trkpt lat="43.7603" lon="7.0205">
        <ele>963.86</ele>
        <time>2011-05-29T09:19:01Z</time>
      </trkpt>
      <trkpt lat="43.76033" lon="7.02053">
        <ele>963.86</ele>
        <time>2011-05-29T09:19:05Z</time>
      </trkpt>
      <trkpt lat="43.76045" lon="7.02065">
        <ele>964.82</ele>
        <time>2011-05-29T09:19:20Z</time>
      </trkpt>
      <trkpt lat="43.76057" lon="7.02077">
        <ele>966.26</ele>
        <time>2011-05-29T09:19:35Z</time>
      </trkpt>
      <trkpt lat="43.76059" lon="7.02077">
        <ele>966.26</ele>
        <time>2011-05-29T09:19:36Z</time>
      </trkpt>
      <trkpt lat="43.76072" lon="7.02088">
        <ele>967.7</ele>
        <time>2011-05-29T09:19:51Z</time>
      </trkpt>
      <trkpt lat="43.7608" lon="7.02096">
        <ele>969.15</ele>
        <time>2011-05-29T09:20:03Z</time>
      </trkpt>
      <trkpt lat="43.76085" lon="7.02099">
        <ele>970.11</ele>
        <time>2011-05-29T09:20:09Z</time>
      </trkpt>
      <trkpt lat="43.76086" lon="7.02101">
        <ele>969.63</ele>
        <time>2011-05-29T09:20:11Z</time>
      </trkpt>
      <trkpt lat="43.76098" lon="7.02112">
        <ele>970.59</ele>
        <time>2011-05-29T09:20:26Z</time>
      </trkpt>
      <trkpt lat="43.76109" lon="7.02121">
        <ele>971.07</ele>
        <time>2011-05-29T09:20:39Z</time>
      </trkpt>
      <trkpt lat="43.76118" lon="7.02129">
        <ele>972.03</ele>
        <time>2011-05-29T09:20:50Z</time>
      </trkpt>
      <trkpt lat="43.76121" lon="7.02132">
        <ele>972.51</ele>
        <time>2011-05-29T09:20:54Z</time>
      </trkpt>
      <trkpt lat="43.76124" lon="7.02135">
        <ele>972.03</ele>
        <time>2011-05-29T09:20:57Z</time>
      </trkpt>
      <trkpt lat="43.76138" lon="7.02146">
        <ele>973.95</ele>
        <time>2011-05-29T09:21:13Z</time>
      </trkpt>
      <trkpt lat="43.76144" lon="7.02152">
        <ele>974.43</ele>
        <time>2011-05-29T09:21:21Z</time>
      </trkpt>
      <trkpt lat="43.76155" lon="7.0216">
        <ele>975.88</ele>
        <time>2011-05-29T09:21:35Z</time>
      </trkpt>
      <trkpt lat="43.76165" lon="7.02168">
        <ele>977.32</ele>
        <time>2011-05-29T09:21:47Z</time>
      </trkpt>
      <trkpt lat="43.76167" lon="7.02169">
        <ele>978.28</ele>
        <time>2011-05-29T09:21:49Z</time>
      </trkpt>
      <trkpt lat="43.76178" lon="7.02175">
        <ele>979.24</ele>
        <time>2011-05-29T09:22:03Z</time>
      </trkpt>
      <trkpt lat="43.7618" lon="7.02177">
        <ele>979.24</ele>
        <time>2011-05-29T09:22:06Z</time>
      </trkpt>
      <trkpt lat="43.76182" lon="7.02178">
        <ele>979.24</ele>
        <time>2011-05-29T09:22:09Z</time>
      </trkpt>
      <trkpt lat="43.7619" lon="7.02184">
        <ele>980.2</ele>
        <time>2011-05-29T09:22:18Z</time>
      </trkpt>
      <trkpt lat="43.76198" lon="7.0219">
        <ele>981.16</ele>
        <time>2011-05-29T09:22:28Z</time>
      </trkpt>
      <trkpt lat="43.76206" lon="7.02193">
        <ele>982.6</ele>
        <time>2011-05-29T09:22:37Z</time>
      </trkpt>
      <trkpt lat="43.76207" lon="7.02193">
        <ele>983.09</ele>
        <time>2011-05-29T09:22:38Z</time>
      </trkpt>
      <trkpt lat="43.7622" lon="7.02187">
        <ele>984.53</ele>
        <time>2011-05-29T09:22:53Z</time>
      </trkpt>
      <trkpt lat="43.7623" lon="7.02183">
        <ele>985.01</ele>
        <time>2011-05-29T09:23:07Z</time>
      </trkpt>
      <trkpt lat="43.76235" lon="7.02181">
        <ele>986.45</ele>
        <time>2011-05-29T09:23:13Z</time>
      </trkpt>
      <trkpt lat="43.76241" lon="7.02183">
        <ele>987.41</ele>
        <time>2011-05-29T09:23:21Z</time>
      </trkpt>
      <trkpt lat="43.76248" lon="7.02201">
        <ele>988.85</ele>
        <time>2011-05-29T09:23:36Z</time>
      </trkpt>
      <trkpt lat="43.76253" lon="7.02218">
        <ele>990.3</ele>
        <time>2011-05-29T09:23:50Z</time>
      </trkpt>
      <trkpt lat="43.76259" lon="7.02235">
        <ele>990.78</ele>
        <time>2011-05-29T09:24:03Z</time>
      </trkpt>
      <trkpt lat="43.76265" lon="7.02251">
        <ele>993.66</ele>
        <time>2011-05-29T09:24:18Z</time>
      </trkpt>
      <trkpt lat="43.76272" lon="7.02266">
        <ele>994.62</ele>
        <time>2011-05-29T09:24:31Z</time>
      </trkpt>
      <trkpt lat="43.76279" lon="7.02282">
        <ele>995.1</ele>
        <time>2011-05-29T09:24:44Z</time>
      </trkpt>
      <trkpt lat="43.76284" lon="7.02293">
        <ele>996.06</ele>
        <time>2011-05-29T09:24:52Z</time>
      </trkpt>
      <trkpt lat="43.76293" lon="7.02317">
        <ele>996.06</ele>
        <time>2011-05-29T09:25:08Z</time>
      </trkpt>
      <trkpt lat="43.763" lon="7.02338">
        <ele>996.54</ele>
        <time>2011-05-29T09:25:23Z</time>
      </trkpt>
      <trkpt lat="43.76303" lon="7.02348">
        <ele>996.06</ele>
        <time>2011-05-29T09:25:41Z</time>
      </trkpt>
      <trkpt lat="43.76303" lon="7.02348">
        <ele>995.58</ele>
        <time>2011-05-29T09:25:59Z</time>
      </trkpt>
      <trkpt lat="43.76303" lon="7.02348">
        <ele>996.54</ele>
        <time>2011-05-29T09:26:29Z</time>
      </trkpt>
      <trkpt lat="43.76303" lon="7.02347">
        <ele>996.06</ele>
        <time>2011-05-29T09:26:55Z</time>
      </trkpt>
      <trkpt lat="43.76303" lon="7.02347">
        <ele>996.54</ele>
        <time>2011-05-29T09:27:22Z</time>
      </trkpt>
      <trkpt lat="43.76304" lon="7.02348">
        <ele>996.54</ele>
        <time>2011-05-29T09:27:55Z</time>
      </trkpt>
      <trkpt lat="43.76304" lon="7.02347">
        <ele>995.58</ele>
        <time>2011-05-29T09:28:21Z</time>
      </trkpt>
      <trkpt lat="43.76304" lon="7.02347">
        <ele>996.06</ele>
        <time>2011-05-29T09:28:40Z</time>
      </trkpt>
      <trkpt lat="43.76308" lon="7.02358">
        <ele>997.02</ele>
        <time>2011-05-29T09:28:52Z</time>
      </trkpt>
      <trkpt lat="43.76311" lon="7.02363">
        <ele>996.06</ele>
        <time>2011-05-29T09:28:57Z</time>
      </trkpt>
      <trkpt lat="43.76315" lon="7.02366">
        <ele>997.02</ele>
        <time>2011-05-29T09:29:02Z</time>
      </trkpt>
      <trkpt lat="43.76328" lon="7.02379">
        <ele>998.47</ele>
        <time>2011-05-29T09:29:18Z</time>
      </trkpt>
      <trkpt lat="43.76339" lon="7.02389">
        <ele>998.95</ele>
        <time>2011-05-29T09:29:31Z</time>
      </trkpt>
      <trkpt lat="43.76352" lon="7.02399">
        <ele>1001.35</ele>
        <time>2011-05-29T09:29:46Z</time>
      </trkpt>
      <trkpt lat="43.76367" lon="7.0241">
        <ele>1000.39</ele>
        <time>2011-05-29T09:30:01Z</time>
      </trkpt>
      <trkpt lat="43.76369" lon="7.02411">
        <ele>1000.87</ele>
        <time>2011-05-29T09:30:03Z</time>
      </trkpt>
      <trkpt lat="43.76382" lon="7.02423">
        <ele>1003.27</ele>
        <time>2011-05-29T09:30:18Z</time>
      </trkpt>
      <trkpt lat="43.76395" lon="7.0243">
        <ele>1004.23</ele>
        <time>2011-05-29T09:30:32Z</time>
      </trkpt>
      <trkpt lat="43.76405" lon="7.02439">
        <ele>1006.16</ele>
        <time>2011-05-29T09:30:44Z</time>
      </trkpt>
      <trkpt lat="43.76412" lon="7.02446">
        <ele>1006.64</ele>
        <time>2011-05-29T09:30:53Z</time>
      </trkpt>
      <trkpt lat="43.76419" lon="7.02449">
        <ele>1008.08</ele>
        <time>2011-05-29T09:31:00Z</time>
      </trkpt>
      <trkpt lat="43.76431" lon="7.02457">
        <ele>1008.56</ele>
        <time>2011-05-29T09:31:13Z</time>
      </trkpt>
      <trkpt lat="43.76444" lon="7.02462">
        <ele>1010</ele>
        <time>2011-05-29T09:31:26Z</time>
      </trkpt>
      <trkpt lat="43.76458" lon="7.02466">
        <ele>1010.48</ele>
        <time>2011-05-29T09:31:40Z</time>
      </trkpt>
      <trkpt lat="43.76471" lon="7.02472">
        <ele>1012.89</ele>
        <time>2011-05-29T09:31:54Z</time>
      </trkpt>
      <trkpt lat="43.76474" lon="7.02473">
        <ele>1013.37</ele>
        <time>2011-05-29T09:31:57Z</time>
      </trkpt>
      <trkpt lat="43.76479" lon="7.02474">
        <ele>1013.37</ele>
        <time>2011-05-29T09:32:02Z</time>
      </trkpt>
      <trkpt lat="43.76481" lon="7.02475">
        <ele>1013.37</ele>
        <time>2011-05-29T09:32:04Z</time>
      </trkpt>
      <trkpt lat="43.76494" lon="7.02474">
        <ele>1014.81</ele>
        <time>2011-05-29T09:32:19Z</time>
      </trkpt>
      <trkpt lat="43.76504" lon="7.02474">
        <ele>1014.81</ele>
        <time>2011-05-29T09:32:33Z</time>
      </trkpt>
      <trkpt lat="43.76511" lon="7.02473">
        <ele>1013.37</ele>
        <time>2011-05-29T09:32:39Z</time>
      </trkpt>
      <trkpt lat="43.7653" lon="7.02472">
        <ele>1013.37</ele>
        <time>2011-05-29T09:32:55Z</time>
      </trkpt>
      <trkpt lat="43.76547" lon="7.02476">
        <ele>1014.33</ele>
        <time>2011-05-29T09:33:09Z</time>
      </trkpt>
      <trkpt lat="43.76561" lon="7.02486">
        <ele>1014.33</ele>
        <time>2011-05-29T09:33:22Z</time>
      </trkpt>
      <trkpt lat="43.76572" lon="7.02497">
        <ele>1015.29</ele>
        <time>2011-05-29T09:33:33Z</time>
      </trkpt>
      <trkpt lat="43.76574" lon="7.02498">
        <ele>1014.33</ele>
        <time>2011-05-29T09:33:35Z</time>
      </trkpt>
      <trkpt lat="43.76584" lon="7.02504">
        <ele>1015.29</ele>
        <time>2011-05-29T09:33:45Z</time>
      </trkpt>
      <trkpt lat="43.76602" lon="7.02518">
        <ele>1014.33</ele>
        <time>2011-05-29T09:34:02Z</time>
      </trkpt>
      <trkpt lat="43.76609" lon="7.02523">
        <ele>1014.81</ele>
        <time>2011-05-29T09:34:09Z</time>
      </trkpt>
      <trkpt lat="43.76625" lon="7.02535">
        <ele>1015.77</ele>
        <time>2011-05-29T09:34:24Z</time>
      </trkpt>
      <trkpt lat="43.7664" lon="7.02546">
        <ele>1016.25</ele>
        <time>2011-05-29T09:34:39Z</time>
      </trkpt>
      <trkpt lat="43.76641" lon="7.02547">
        <ele>1016.73</ele>
        <time>2011-05-29T09:34:40Z</time>
      </trkpt>
      <trkpt lat="43.76645" lon="7.0255">
        <ele>1017.21</ele>
        <time>2011-05-29T09:34:44Z</time>
      </trkpt>
      <trkpt lat="43.76651" lon="7.02555">
        <ele>1017.21</ele>
        <time>2011-05-29T09:34:55Z</time>
      </trkpt>
      <trkpt lat="43.76654" lon="7.02556">
        <ele>1017.21</ele>
        <time>2011-05-29T09:34:57Z</time>
      </trkpt>
      <trkpt lat="43.76658" lon="7.0256">
        <ele>1016.73</ele>
        <time>2011-05-29T09:35:01Z</time>
      </trkpt>
      <trkpt lat="43.76669" lon="7.02568">
        <ele>1018.17</ele>
        <time>2011-05-29T09:35:13Z</time>
      </trkpt>
      <trkpt lat="43.76678" lon="7.02574">
        <ele>1019.13</ele>
        <time>2011-05-29T09:35:21Z</time>
      </trkpt>
      <trkpt lat="43.76695" lon="7.02586">
        <ele>1018.17</ele>
        <time>2011-05-29T09:35:37Z</time>
      </trkpt>
      <trkpt lat="43.76709" lon="7.02598">
        <ele>1019.13</ele>
        <time>2011-05-29T09:35:52Z</time>
      </trkpt>
      <trkpt lat="43.76714" lon="7.02601">
        <ele>1018.65</ele>
        <time>2011-05-29T09:35:57Z</time>
      </trkpt>
      <trkpt lat="43.7672" lon="7.02606">
        <ele>1019.13</ele>
        <time>2011-05-29T09:36:03Z</time>
      </trkpt>
      <trkpt lat="43.76728" lon="7.02611">
        <ele>1018.65</ele>
        <time>2011-05-29T09:36:10Z</time>
      </trkpt>
      <trkpt lat="43.76733" lon="7.02615">
        <ele>1017.69</ele>
        <time>2011-05-29T09:36:15Z</time>
      </trkpt>
      <trkpt lat="43.76737" lon="7.02616">
        <ele>1019.13</ele>
        <time>2011-05-29T09:36:18Z</time>
      </trkpt>
      <trkpt lat="43.7675" lon="7.02627">
        <ele>1019.13</ele>
        <time>2011-05-29T09:36:32Z</time>
      </trkpt>
      <trkpt lat="43.76753" lon="7.02628">
        <ele>1018.17</ele>
        <time>2011-05-29T09:36:34Z</time>
      </trkpt>
      <trkpt lat="43.76766" lon="7.02636">
        <ele>1017.21</ele>
        <time>2011-05-29T09:36:46Z</time>
      </trkpt>
      <trkpt lat="43.76778" lon="7.02647">
        <ele>1018.17</ele>
        <time>2011-05-29T09:36:59Z</time>
      </trkpt>
      <trkpt lat="43.7678" lon="7.02648">
        <ele>1018.17</ele>
        <time>2011-05-29T09:37:01Z</time>
      </trkpt>
      <trkpt lat="43.76785" lon="7.02651">
        <ele>1019.13</ele>
        <time>2011-05-29T09:37:05Z</time>
      </trkpt>
      <trkpt lat="43.76801" lon="7.02664">
        <ele>1018.65</ele>
        <time>2011-05-29T09:37:20Z</time>
      </trkpt>
      <trkpt lat="43.76803" lon="7.02665">
        <ele>1019.62</ele>
        <time>2011-05-29T09:37:22Z</time>
      </trkpt>
      <trkpt lat="43.76806" lon="7.02668">
        <ele>1018.17</ele>
        <time>2011-05-29T09:37:25Z</time>
      </trkpt>
      <trkpt lat="43.76809" lon="7.0267">
        <ele>1019.13</ele>
        <time>2011-05-29T09:37:28Z</time>
      </trkpt>
      <trkpt lat="43.76825" lon="7.0268">
        <ele>1019.13</ele>
        <time>2011-05-29T09:37:44Z</time>
      </trkpt>
      <trkpt lat="43.76827" lon="7.0268">
        <ele>1019.13</ele>
        <time>2011-05-29T09:37:45Z</time>
      </trkpt>
      <trkpt lat="43.76828" lon="7.02681">
        <ele>1020.58</ele>
        <time>2011-05-29T09:37:47Z</time>
      </trkpt>
      <trkpt lat="43.7683" lon="7.02682">
        <ele>1020.1</ele>
        <time>2011-05-29T09:37:49Z</time>
      </trkpt>
      <trkpt lat="43.76833" lon="7.02684">
        <ele>1020.58</ele>
        <time>2011-05-29T09:37:53Z</time>
      </trkpt>
      <trkpt lat="43.76838" lon="7.02686">
        <ele>1021.54</ele>
        <time>2011-05-29T09:37:58Z</time>
      </trkpt>
      <trkpt lat="43.76839" lon="7.02687">
        <ele>1020.1</ele>
        <time>2011-05-29T09:38:00Z</time>
      </trkpt>
      <trkpt lat="43.7685" lon="7.0269">
        <ele>1022.02</ele>
        <time>2011-05-29T09:38:13Z</time>
      </trkpt>
      <trkpt lat="43.76851" lon="7.02689">
        <ele>1022.98</ele>
        <time>2011-05-29T09:38:15Z</time>
      </trkpt>
      <trkpt lat="43.76853" lon="7.02688">
        <ele>1021.06</ele>
        <time>2011-05-29T09:38:17Z</time>
      </trkpt>
      <trkpt lat="43.76855" lon="7.02687">
        <ele>1022.98</ele>
        <time>2011-05-29T09:38:19Z</time>
      </trkpt>
      <trkpt lat="43.76859" lon="7.02693">
        <ele>1022.98</ele>
        <time>2011-05-29T09:38:30Z</time>
      </trkpt>
      <trkpt lat="43.76863" lon="7.02694">
        <ele>1023.46</ele>
        <time>2011-05-29T09:38:37Z</time>
      </trkpt>
      <trkpt lat="43.76867" lon="7.02692">
        <ele>1023.94</ele>
        <time>2011-05-29T09:38:49Z</time>
      </trkpt>
      <trkpt lat="43.7687" lon="7.02692">
        <ele>1023.46</ele>
        <time>2011-05-29T09:39:00Z</time>
      </trkpt>
      <trkpt lat="43.7687" lon="7.02692">
        <ele>1024.9</ele>
        <time>2011-05-29T09:39:03Z</time>
      </trkpt>
      <trkpt lat="43.7687" lon="7.02692">
        <ele>1023.46</ele>
        <time>2011-05-29T09:39:08Z</time>
      </trkpt>
      <trkpt lat="43.7687" lon="7.02692">
        <ele>1023.46</ele>
        <time>2011-05-29T09:39:39Z</time>
      </trkpt>
      <trkpt lat="43.7687" lon="7.02693">
        <ele>1024.42</ele>
        <time>2011-05-29T09:39:54Z</time>
      </trkpt>
      <trkpt lat="43.76873" lon="7.02698">
        <ele>1023.94</ele>
        <time>2011-05-29T09:39:58Z</time>
      </trkpt>
      <trkpt lat="43.76875" lon="7.02698">
        <ele>1022.5</ele>
        <time>2011-05-29T09:39:59Z</time>
      </trkpt>
      <trkpt lat="43.76877" lon="7.02697">
        <ele>1024.42</ele>
        <time>2011-05-29T09:40:01Z</time>
      </trkpt>
      <trkpt lat="43.76883" lon="7.02698">
        <ele>1023.94</ele>
        <time>2011-05-29T09:40:06Z</time>
      </trkpt>
      <trkpt lat="43.76902" lon="7.02703">
        <ele>1024.9</ele>
        <time>2011-05-29T09:40:21Z</time>
      </trkpt>
      <trkpt lat="43.76909" lon="7.02703">
        <ele>1026.34</ele>
        <time>2011-05-29T09:40:27Z</time>
      </trkpt>
      <trkpt lat="43.76922" lon="7.02705">
        <ele>1027.31</ele>
        <time>2011-05-29T09:40:38Z</time>
      </trkpt>
      <trkpt lat="43.76927" lon="7.02706">
        <ele>1028.27</ele>
        <time>2011-05-29T09:40:42Z</time>
      </trkpt>
      <trkpt lat="43.76928" lon="7.02707">
        <ele>1026.83</ele>
        <time>2011-05-29T09:40:44Z</time>
      </trkpt>
      <trkpt lat="43.76931" lon="7.02707">
        <ele>1028.27</ele>
        <time>2011-05-29T09:40:46Z</time>
      </trkpt>
      <trkpt lat="43.76944" lon="7.02713">
        <ele>1028.75</ele>
        <time>2011-05-29T09:40:59Z</time>
      </trkpt>
      <trkpt lat="43.76947" lon="7.02713">
        <ele>1030.19</ele>
        <time>2011-05-29T09:41:01Z</time>
      </trkpt>
      <trkpt lat="43.76947" lon="7.02714">
        <ele>1028.75</ele>
        <time>2011-05-29T09:41:02Z</time>
      </trkpt>
      <trkpt lat="43.76951" lon="7.02714">
        <ele>1030.19</ele>
        <time>2011-05-29T09:41:06Z</time>
      </trkpt>
      <trkpt lat="43.76962" lon="7.02715">
        <ele>1031.15</ele>
        <time>2011-05-29T09:41:16Z</time>
      </trkpt>
      <trkpt lat="43.76965" lon="7.02715">
        <ele>1030.19</ele>
        <time>2011-05-29T09:41:19Z</time>
      </trkpt>
      <trkpt lat="43.76968" lon="7.02716">
        <ele>1032.11</ele>
        <time>2011-05-29T09:41:22Z</time>
      </trkpt>
      <trkpt lat="43.76976" lon="7.0272">
        <ele>1034.04</ele>
        <time>2011-05-29T09:41:31Z</time>
      </trkpt>
      <trkpt lat="43.76983" lon="7.02722">
        <ele>1035</ele>
        <time>2011-05-29T09:41:38Z</time>
      </trkpt>
      <trkpt lat="43.76989" lon="7.02723">
        <ele>1036.44</ele>
        <time>2011-05-29T09:41:47Z</time>
      </trkpt>
      <trkpt lat="43.76991" lon="7.02722">
        <ele>1036.44</ele>
        <time>2011-05-29T09:41:49Z</time>
      </trkpt>
      <trkpt lat="43.76992" lon="7.02723">
        <ele>1036.92</ele>
        <time>2011-05-29T09:41:51Z</time>
      </trkpt>
      <trkpt lat="43.76995" lon="7.02726">
        <ele>1036.92</ele>
        <time>2011-05-29T09:42:05Z</time>
      </trkpt>
      <trkpt lat="43.76996" lon="7.02728">
        <ele>1036.44</ele>
        <time>2011-05-29T09:42:07Z</time>
      </trkpt>
      <trkpt lat="43.76996" lon="7.02734">
        <ele>1037.88</ele>
        <time>2011-05-29T09:42:11Z</time>
      </trkpt>
      <trkpt lat="43.76996" lon="7.02741">
        <ele>1039.32</ele>
        <time>2011-05-29T09:42:15Z</time>
      </trkpt>
      <trkpt lat="43.76996" lon="7.02746">
        <ele>1039.32</ele>
        <time>2011-05-29T09:42:18Z</time>
      </trkpt>
      <trkpt lat="43.76995" lon="7.02748">
        <ele>1039.8</ele>
        <time>2011-05-29T09:42:20Z</time>
      </trkpt>
      <trkpt lat="43.76992" lon="7.02771">
        <ele>1041.73</ele>
        <time>2011-05-29T09:42:35Z</time>
      </trkpt>
      <trkpt lat="43.7699" lon="7.02778">
        <ele>1041.73</ele>
        <time>2011-05-29T09:42:40Z</time>
      </trkpt>
      <trkpt lat="43.76989" lon="7.02789">
        <ele>1041.73</ele>
        <time>2011-05-29T09:42:48Z</time>
      </trkpt>
      <trkpt lat="43.76992" lon="7.02792">
        <ele>1042.21</ele>
        <time>2011-05-29T09:42:52Z</time>
      </trkpt>
      <trkpt lat="43.76994" lon="7.02792">
        <ele>1043.17</ele>
        <time>2011-05-29T09:42:54Z</time>
      </trkpt>
      <trkpt lat="43.77002" lon="7.02787">
        <ele>1044.61</ele>
        <time>2011-05-29T09:43:03Z</time>
      </trkpt>
      <trkpt lat="43.77008" lon="7.02784">
        <ele>1043.65</ele>
        <time>2011-05-29T09:43:09Z</time>
      </trkpt>
      <trkpt lat="43.77015" lon="7.02781">
        <ele>1047.01</ele>
        <time>2011-05-29T09:43:16Z</time>
      </trkpt>
      <trkpt lat="43.77018" lon="7.02782">
        <ele>1045.57</ele>
        <time>2011-05-29T09:43:20Z</time>
      </trkpt>
      <trkpt lat="43.7702" lon="7.02784">
        <ele>1047.01</ele>
        <time>2011-05-29T09:43:22Z</time>
      </trkpt>
      <trkpt lat="43.7702" lon="7.02788">
        <ele>1047.01</ele>
        <time>2011-05-29T09:43:25Z</time>
      </trkpt>
      <trkpt lat="43.77019" lon="7.02795">
        <ele>1047.97</ele>
        <time>2011-05-29T09:43:30Z</time>
      </trkpt>
      <trkpt lat="43.77016" lon="7.02808">
        <ele>1049.9</ele>
        <time>2011-05-29T09:43:42Z</time>
      </trkpt>
      <trkpt lat="43.77015" lon="7.02816">
        <ele>1049.42</ele>
        <time>2011-05-29T09:43:52Z</time>
      </trkpt>
      <trkpt lat="43.77015" lon="7.02826">
        <ele>1051.34</ele>
        <time>2011-05-29T09:43:59Z</time>
      </trkpt>
      <trkpt lat="43.77012" lon="7.02845">
        <ele>1053.74</ele>
        <time>2011-05-29T09:44:12Z</time>
      </trkpt>
      <trkpt lat="43.7701" lon="7.02856">
        <ele>1053.74</ele>
        <time>2011-05-29T09:44:21Z</time>
      </trkpt>
      <trkpt lat="43.77013" lon="7.02864">
        <ele>1054.7</ele>
        <time>2011-05-29T09:44:29Z</time>
      </trkpt>
      <trkpt lat="43.77019" lon="7.0286">
        <ele>1055.18</ele>
        <time>2011-05-29T09:44:37Z</time>
      </trkpt>
      <trkpt lat="43.77023" lon="7.02857">
        <ele>1055.18</ele>
        <time>2011-05-29T09:44:42Z</time>
      </trkpt>
      <trkpt lat="43.77026" lon="7.02854">
        <ele>1057.11</ele>
        <time>2011-05-29T09:44:46Z</time>
      </trkpt>
      <trkpt lat="43.77036" lon="7.02846">
        <ele>1055.18</ele>
        <time>2011-05-29T09:44:59Z</time>
      </trkpt>
      <trkpt lat="43.77039" lon="7.02843">
        <ele>1058.55</ele>
        <time>2011-05-29T09:45:04Z</time>
      </trkpt>
      <trkpt lat="43.77043" lon="7.02841">
        <ele>1058.55</ele>
        <time>2011-05-29T09:45:08Z</time>
      </trkpt>
      <trkpt lat="43.77051" lon="7.02834">
        <ele>1060.47</ele>
        <time>2011-05-29T09:45:19Z</time>
      </trkpt>
      <trkpt lat="43.77058" lon="7.02833">
        <ele>1061.91</ele>
        <time>2011-05-29T09:45:27Z</time>
      </trkpt>
      <trkpt lat="43.77062" lon="7.02834">
        <ele>1061.91</ele>
        <time>2011-05-29T09:45:31Z</time>
      </trkpt>
      <trkpt lat="43.77065" lon="7.02837">
        <ele>1060.95</ele>
        <time>2011-05-29T09:45:47Z</time>
      </trkpt>
      <trkpt lat="43.77065" lon="7.02837">
        <ele>1061.43</ele>
        <time>2011-05-29T09:45:50Z</time>
      </trkpt>
      <trkpt lat="43.77065" lon="7.0284">
        <ele>1060.47</ele>
        <time>2011-05-29T09:45:52Z</time>
      </trkpt>
      <trkpt lat="43.77065" lon="7.02841">
        <ele>1063.84</ele>
        <time>2011-05-29T09:45:53Z</time>
      </trkpt>
      <trkpt lat="43.77065" lon="7.02854">
        <ele>1062.87</ele>
        <time>2011-05-29T09:46:05Z</time>
      </trkpt>
      <trkpt lat="43.77065" lon="7.02857">
        <ele>1065.76</ele>
        <time>2011-05-29T09:46:08Z</time>
      </trkpt>
      <trkpt lat="43.77066" lon="7.02873">
        <ele>1064.8</ele>
        <time>2011-05-29T09:46:21Z</time>
      </trkpt>
      <trkpt lat="43.77066" lon="7.02876">
        <ele>1068.64</ele>
        <time>2011-05-29T09:46:24Z</time>
      </trkpt>
      <trkpt lat="43.77066" lon="7.02878">
        <ele>1065.76</ele>
        <time>2011-05-29T09:46:25Z</time>
      </trkpt>
      <trkpt lat="43.77066" lon="7.02881">
        <ele>1069.12</ele>
        <time>2011-05-29T09:46:28Z</time>
      </trkpt>
      <trkpt lat="43.77066" lon="7.02882">
        <ele>1065.76</ele>
        <time>2011-05-29T09:46:29Z</time>
      </trkpt>
      <trkpt lat="43.77066" lon="7.02883">
        <ele>1069.12</ele>
        <time>2011-05-29T09:46:30Z</time>
      </trkpt>
      <trkpt lat="43.77068" lon="7.02896">
        <ele>1068.16</ele>
        <time>2011-05-29T09:46:44Z</time>
      </trkpt>
      <trkpt lat="43.77069" lon="7.02899">
        <ele>1071.53</ele>
        <time>2011-05-29T09:46:47Z</time>
      </trkpt>
      <trkpt lat="43.77069" lon="7.02899">
        <ele>1068.16</ele>
        <time>2011-05-29T09:46:48Z</time>
      </trkpt>
      <trkpt lat="43.77069" lon="7.029">
        <ele>1071.05</ele>
        <time>2011-05-29T09:46:49Z</time>
      </trkpt>
      <trkpt lat="43.77071" lon="7.02903">
        <ele>1068.16</ele>
        <time>2011-05-29T09:47:01Z</time>
      </trkpt>
      <trkpt lat="43.77071" lon="7.02903">
        <ele>1071.53</ele>
        <time>2011-05-29T09:47:02Z</time>
      </trkpt>
      <trkpt lat="43.77071" lon="7.02903">
        <ele>1068.16</ele>
        <time>2011-05-29T09:47:03Z</time>
      </trkpt>
      <trkpt lat="43.77071" lon="7.02903">
        <ele>1071.53</ele>
        <time>2011-05-29T09:47:19Z</time>
      </trkpt>
      <trkpt lat="43.77071" lon="7.02903">
        <ele>1068.16</ele>
        <time>2011-05-29T09:47:20Z</time>
      </trkpt>
      <trkpt lat="43.77071" lon="7.02903">
        <ele>1071.53</ele>
        <time>2011-05-29T09:47:21Z</time>
      </trkpt>
      <trkpt lat="43.77071" lon="7.02903">
        <ele>1068.16</ele>
        <time>2011-05-29T09:47:22Z</time>
      </trkpt>
      <trkpt lat="43.77071" lon="7.02903">
        <ele>1071.05</ele>
        <time>2011-05-29T09:47:26Z</time>
      </trkpt>
      <trkpt lat="43.77071" lon="7.02903">
        <ele>1068.16</ele>
        <time>2011-05-29T09:47:27Z</time>
      </trkpt>
      <trkpt lat="43.77071" lon="7.02903">
        <ele>1071.05</ele>
        <time>2011-05-29T09:47:28Z</time>
      </trkpt>
      <trkpt lat="43.77072" lon="7.02903">
        <ele>1069.6</ele>
        <time>2011-05-29T09:47:39Z</time>
      </trkpt>
      <trkpt lat="43.77073" lon="7.02909">
        <ele>1072.49</ele>
        <time>2011-05-29T09:47:55Z</time>
      </trkpt>
      <trkpt lat="43.77073" lon="7.02909">
        <ele>1069.12</ele>
        <time>2011-05-29T09:47:58Z</time>
      </trkpt>
      <trkpt lat="43.77073" lon="7.02909">
        <ele>1072.97</ele>
        <time>2011-05-29T09:48:03Z</time>
      </trkpt>
      <trkpt lat="43.77073" lon="7.02909">
        <ele>1069.6</ele>
        <time>2011-05-29T09:48:07Z</time>
      </trkpt>
      <trkpt lat="43.77073" lon="7.02909">
        <ele>1072.97</ele>
        <time>2011-05-29T09:48:16Z</time>
      </trkpt>
      <trkpt lat="43.77073" lon="7.02909">
        <ele>1068.64</ele>
        <time>2011-05-29T09:48:17Z</time>
      </trkpt>
      <trkpt lat="43.77073" lon="7.02909">
        <ele>1072.49</ele>
        <time>2011-05-29T09:48:18Z</time>
      </trkpt>
      <trkpt lat="43.77073" lon="7.02909">
        <ele>1069.12</ele>
        <time>2011-05-29T09:48:19Z</time>
      </trkpt>
      <trkpt lat="43.77073" lon="7.0291">
        <ele>1072.97</ele>
        <time>2011-05-29T09:48:20Z</time>
      </trkpt>
      <trkpt lat="43.77074" lon="7.02917">
        <ele>1070.57</ele>
        <time>2011-05-29T09:48:32Z</time>
      </trkpt>
      <trkpt lat="43.77074" lon="7.02917">
        <ele>1073.93</ele>
        <time>2011-05-29T09:48:33Z</time>
      </trkpt>
      <trkpt lat="43.77074" lon="7.02917">
        <ele>1070.57</ele>
        <time>2011-05-29T09:48:34Z</time>
      </trkpt>
      <trkpt lat="43.77074" lon="7.02917">
        <ele>1073.93</ele>
        <time>2011-05-29T09:48:35Z</time>
      </trkpt>
      <trkpt lat="43.77074" lon="7.02917">
        <ele>1070.08</ele>
        <time>2011-05-29T09:48:41Z</time>
      </trkpt>
      <trkpt lat="43.77074" lon="7.02917">
        <ele>1073.45</ele>
        <time>2011-05-29T09:48:44Z</time>
      </trkpt>
      <trkpt lat="43.77074" lon="7.02917">
        <ele>1069.6</ele>
        <time>2011-05-29T09:48:49Z</time>
      </trkpt>
      <trkpt lat="43.77074" lon="7.02917">
        <ele>1073.45</ele>
        <time>2011-05-29T09:48:50Z</time>
      </trkpt>
      <trkpt lat="43.77074" lon="7.02917">
        <ele>1070.08</ele>
        <time>2011-05-29T09:49:03Z</time>
      </trkpt>
      <trkpt lat="43.77074" lon="7.02917">
        <ele>1073.45</ele>
        <time>2011-05-29T09:49:04Z</time>
      </trkpt>
      <trkpt lat="43.77074" lon="7.02917">
        <ele>1069.6</ele>
        <time>2011-05-29T09:49:19Z</time>
      </trkpt>
      <trkpt lat="43.77074" lon="7.02917">
        <ele>1073.93</ele>
        <time>2011-05-29T09:49:20Z</time>
      </trkpt>
      <trkpt lat="43.77074" lon="7.02917">
        <ele>1070.08</ele>
        <time>2011-05-29T09:49:21Z</time>
      </trkpt>
      <trkpt lat="43.77074" lon="7.02917">
        <ele>1073.45</ele>
        <time>2011-05-29T09:49:22Z</time>
      </trkpt>
      <trkpt lat="43.77074" lon="7.02918">
        <ele>1070.57</ele>
        <time>2011-05-29T09:49:23Z</time>
      </trkpt>
      <trkpt lat="43.77074" lon="7.02918">
        <ele>1073.45</ele>
        <time>2011-05-29T09:49:29Z</time>
      </trkpt>
      <trkpt lat="43.77074" lon="7.02918">
        <ele>1070.08</ele>
        <time>2011-05-29T09:49:30Z</time>
      </trkpt>
      <trkpt lat="43.77074" lon="7.02918">
        <ele>1073.45</ele>
        <time>2011-05-29T09:49:31Z</time>
      </trkpt>
      <trkpt lat="43.77074" lon="7.02918">
        <ele>1070.57</ele>
        <time>2011-05-29T09:49:43Z</time>
      </trkpt>
      <trkpt lat="43.77074" lon="7.02916">
        <ele>1070.08</ele>
        <time>2011-05-29T09:49:47Z</time>
      </trkpt>
      <trkpt lat="43.77073" lon="7.02912">
        <ele>1071.53</ele>
        <time>2011-05-29T09:49:51Z</time>
      </trkpt>
      <trkpt lat="43.77073" lon="7.02912">
        <ele>1070.57</ele>
        <time>2011-05-29T09:50:08Z</time>
      </trkpt>
      <trkpt lat="43.77073" lon="7.02912">
        <ele>1073.45</ele>
        <time>2011-05-29T09:50:12Z</time>
      </trkpt>
      <trkpt lat="43.77073" lon="7.02912">
        <ele>1070.08</ele>
        <time>2011-05-29T09:50:13Z</time>
      </trkpt>
      <trkpt lat="43.77073" lon="7.02912">
        <ele>1073.45</ele>
        <time>2011-05-29T09:50:20Z</time>
      </trkpt>
      <trkpt lat="43.77073" lon="7.02912">
        <ele>1069.6</ele>
        <time>2011-05-29T09:50:43Z</time>
      </trkpt>
      <trkpt lat="43.77073" lon="7.02912">
        <ele>1072.97</ele>
        <time>2011-05-29T09:50:44Z</time>
      </trkpt>
      <trkpt lat="43.77073" lon="7.02912">
        <ele>1069.6</ele>
        <time>2011-05-29T09:50:47Z</time>
      </trkpt>
      <trkpt lat="43.77073" lon="7.02912">
        <ele>1072.97</ele>
        <time>2011-05-29T09:50:48Z</time>
      </trkpt>
      <trkpt lat="43.77073" lon="7.02912">
        <ele>1069.6</ele>
        <time>2011-05-29T09:50:54Z</time>
      </trkpt>
      <trkpt lat="43.77073" lon="7.02912">
        <ele>1072.97</ele>
        <time>2011-05-29T09:50:55Z</time>
      </trkpt>
      <trkpt lat="43.77073" lon="7.02912">
        <ele>1069.12</ele>
        <time>2011-05-29T09:51:00Z</time>
      </trkpt>
      <trkpt lat="43.77073" lon="7.02912">
        <ele>1072.49</ele>
        <time>2011-05-29T09:51:01Z</time>
      </trkpt>
      <trkpt lat="43.77073" lon="7.02912">
        <ele>1069.6</ele>
        <time>2011-05-29T09:51:02Z</time>
      </trkpt>
      <trkpt lat="43.77073" lon="7.02912">
        <ele>1072.97</ele>
        <time>2011-05-29T09:51:03Z</time>
      </trkpt>
      <trkpt lat="43.77073" lon="7.02912">
        <ele>1069.6</ele>
        <time>2011-05-29T09:51:04Z</time>
      </trkpt>
      <trkpt lat="43.77073" lon="7.02912">
        <ele>1072.97</ele>
        <time>2011-05-29T09:51:06Z</time>
      </trkpt>
      <trkpt lat="43.77074" lon="7.0291">
        <ele>1072.49</ele>
        <time>2011-05-29T09:51:08Z</time>
      </trkpt>
      <trkpt lat="43.77075" lon="7.02908">
        <ele>1072.97</ele>
        <time>2011-05-29T09:51:10Z</time>
      </trkpt>
      <trkpt lat="43.77085" lon="7.02896">
        <ele>1074.89</ele>
        <time>2011-05-29T09:51:23Z</time>
      </trkpt>
      <trkpt lat="43.77092" lon="7.02885">
        <ele>1072.97</ele>
        <time>2011-05-29T09:51:35Z</time>
      </trkpt>
      <trkpt lat="43.77104" lon="7.02873">
        <ele>1077.78</ele>
        <time>2011-05-29T09:51:48Z</time>
      </trkpt>
      <trkpt lat="43.77109" lon="7.02867">
        <ele>1073.93</ele>
        <time>2011-05-29T09:51:54Z</time>
      </trkpt>
      <trkpt lat="43.77111" lon="7.02865">
        <ele>1078.74</ele>
        <time>2011-05-29T09:51:58Z</time>
      </trkpt>
      <trkpt lat="43.77112" lon="7.02864">
        <ele>1074.89</ele>
        <time>2011-05-29T09:51:59Z</time>
      </trkpt>
      <trkpt lat="43.77113" lon="7.02862">
        <ele>1079.22</ele>
        <time>2011-05-29T09:52:01Z</time>
      </trkpt>
      <trkpt lat="43.77115" lon="7.02861">
        <ele>1074.89</ele>
        <time>2011-05-29T09:52:02Z</time>
      </trkpt>
      <trkpt lat="43.77116" lon="7.02859">
        <ele>1079.22</ele>
        <time>2011-05-29T09:52:04Z</time>
      </trkpt>
      <trkpt lat="43.77117" lon="7.02858">
        <ele>1075.85</ele>
        <time>2011-05-29T09:52:05Z</time>
      </trkpt>
      <trkpt lat="43.77119" lon="7.02856">
        <ele>1077.78</ele>
        <time>2011-05-29T09:52:08Z</time>
      </trkpt>
      <trkpt lat="43.7713" lon="7.02843">
        <ele>1078.26</ele>
        <time>2011-05-29T09:52:21Z</time>
      </trkpt>
      <trkpt lat="43.77134" lon="7.0284">
        <ele>1081.62</ele>
        <time>2011-05-29T09:52:28Z</time>
      </trkpt>
      <trkpt lat="43.77135" lon="7.02839">
        <ele>1077.78</ele>
        <time>2011-05-29T09:52:29Z</time>
      </trkpt>
      <trkpt lat="43.77136" lon="7.02838">
        <ele>1081.62</ele>
        <time>2011-05-29T09:52:31Z</time>
      </trkpt>
      <trkpt lat="43.77136" lon="7.02837">
        <ele>1077.29</ele>
        <time>2011-05-29T09:52:32Z</time>
      </trkpt>
      <trkpt lat="43.77138" lon="7.02836">
        <ele>1082.1</ele>
        <time>2011-05-29T09:52:34Z</time>
      </trkpt>
      <trkpt lat="43.77139" lon="7.02836">
        <ele>1078.74</ele>
        <time>2011-05-29T09:52:35Z</time>
      </trkpt>
      <trkpt lat="43.7714" lon="7.02834">
        <ele>1082.58</ele>
        <time>2011-05-29T09:52:37Z</time>
      </trkpt>
      <trkpt lat="43.77142" lon="7.02833">
        <ele>1081.14</ele>
        <time>2011-05-29T09:52:38Z</time>
      </trkpt>
      <trkpt lat="43.77151" lon="7.0282">
        <ele>1081.62</ele>
        <time>2011-05-29T09:52:51Z</time>
      </trkpt>
      <trkpt lat="43.77158" lon="7.0281">
        <ele>1084.99</ele>
        <time>2011-05-29T09:53:00Z</time>
      </trkpt>
      <trkpt lat="43.77158" lon="7.02809">
        <ele>1081.62</ele>
        <time>2011-05-29T09:53:01Z</time>
      </trkpt>
      <trkpt lat="43.77161" lon="7.02804">
        <ele>1084.99</ele>
        <time>2011-05-29T09:53:05Z</time>
      </trkpt>
      <trkpt lat="43.77162" lon="7.02802">
        <ele>1081.62</ele>
        <time>2011-05-29T09:53:06Z</time>
      </trkpt>
      <trkpt lat="43.77165" lon="7.02797">
        <ele>1084.99</ele>
        <time>2011-05-29T09:53:11Z</time>
      </trkpt>
      <trkpt lat="43.77166" lon="7.02796">
        <ele>1081.62</ele>
        <time>2011-05-29T09:53:12Z</time>
      </trkpt>
      <trkpt lat="43.77167" lon="7.02793">
        <ele>1085.47</ele>
        <time>2011-05-29T09:53:14Z</time>
      </trkpt>
      <trkpt lat="43.7717" lon="7.02789">
        <ele>1085.47</ele>
        <time>2011-05-29T09:53:20Z</time>
      </trkpt>
      <trkpt lat="43.77171" lon="7.02787">
        <ele>1083.54</ele>
        <time>2011-05-29T09:53:22Z</time>
      </trkpt>
      <trkpt lat="43.77173" lon="7.02785">
        <ele>1085.95</ele>
        <time>2011-05-29T09:53:24Z</time>
      </trkpt>
      <trkpt lat="43.77174" lon="7.02782">
        <ele>1086.43</ele>
        <time>2011-05-29T09:53:26Z</time>
      </trkpt>
      <trkpt lat="43.77176" lon="7.0278">
        <ele>1083.54</ele>
        <time>2011-05-29T09:53:28Z</time>
      </trkpt>
      <trkpt lat="43.77182" lon="7.02765">
        <ele>1087.87</ele>
        <time>2011-05-29T09:53:41Z</time>
      </trkpt>
      <trkpt lat="43.77184" lon="7.02764">
        <ele>1085.47</ele>
        <time>2011-05-29T09:53:43Z</time>
      </trkpt>
      <trkpt lat="43.77186" lon="7.02758">
        <ele>1089.79</ele>
        <time>2011-05-29T09:53:48Z</time>
      </trkpt>
      <trkpt lat="43.77187" lon="7.02754">
        <ele>1086.91</ele>
        <time>2011-05-29T09:53:51Z</time>
      </trkpt>
      <trkpt lat="43.77187" lon="7.02753">
        <ele>1090.75</ele>
        <time>2011-05-29T09:53:52Z</time>
      </trkpt>
      <trkpt lat="43.77188" lon="7.02752">
        <ele>1089.31</ele>
        <time>2011-05-29T09:53:53Z</time>
      </trkpt>
      <trkpt lat="43.77189" lon="7.0275">
        <ele>1087.87</ele>
        <time>2011-05-29T09:53:55Z</time>
      </trkpt>
      <trkpt lat="43.77189" lon="7.02745">
        <ele>1086.91</ele>
        <time>2011-05-29T09:53:58Z</time>
      </trkpt>
      <trkpt lat="43.77191" lon="7.02732">
        <ele>1091.23</ele>
        <time>2011-05-29T09:54:08Z</time>
      </trkpt>
      <trkpt lat="43.77192" lon="7.02729">
        <ele>1088.83</ele>
        <time>2011-05-29T09:54:10Z</time>
      </trkpt>
      <trkpt lat="43.77193" lon="7.02725">
        <ele>1088.35</ele>
        <time>2011-05-29T09:54:13Z</time>
      </trkpt>
      <trkpt lat="43.77194" lon="7.02724">
        <ele>1091.71</ele>
        <time>2011-05-29T09:54:14Z</time>
      </trkpt>
      <trkpt lat="43.77195" lon="7.02717">
        <ele>1093.16</ele>
        <time>2011-05-29T09:54:19Z</time>
      </trkpt>
      <trkpt lat="43.77195" lon="7.02714">
        <ele>1089.79</ele>
        <time>2011-05-29T09:54:21Z</time>
      </trkpt>
      <trkpt lat="43.77196" lon="7.02713">
        <ele>1093.16</ele>
        <time>2011-05-29T09:54:22Z</time>
      </trkpt>
      <trkpt lat="43.77197" lon="7.0271">
        <ele>1090.27</ele>
        <time>2011-05-29T09:54:24Z</time>
      </trkpt>
      <trkpt lat="43.77198" lon="7.02708">
        <ele>1095.08</ele>
        <time>2011-05-29T09:54:26Z</time>
      </trkpt>
      <trkpt lat="43.77199" lon="7.02706">
        <ele>1091.23</ele>
        <time>2011-05-29T09:54:28Z</time>
      </trkpt>
      <trkpt lat="43.772" lon="7.02705">
        <ele>1094.6</ele>
        <time>2011-05-29T09:54:29Z</time>
      </trkpt>
      <trkpt lat="43.77203" lon="7.02702">
        <ele>1092.68</ele>
        <time>2011-05-29T09:54:33Z</time>
      </trkpt>
      <trkpt lat="43.77205" lon="7.02701">
        <ele>1095.56</ele>
        <time>2011-05-29T09:54:35Z</time>
      </trkpt>
      <trkpt lat="43.77206" lon="7.027">
        <ele>1091.71</ele>
        <time>2011-05-29T09:54:36Z</time>
      </trkpt>
      <trkpt lat="43.77206" lon="7.02699">
        <ele>1094.12</ele>
        <time>2011-05-29T09:54:37Z</time>
      </trkpt>
      <trkpt lat="43.77213" lon="7.02693">
        <ele>1097.96</ele>
        <time>2011-05-29T09:54:46Z</time>
      </trkpt>
      <trkpt lat="43.77213" lon="7.02693">
        <ele>1095.08</ele>
        <time>2011-05-29T09:54:47Z</time>
      </trkpt>
      <trkpt lat="43.77215" lon="7.02691">
        <ele>1098.92</ele>
        <time>2011-05-29T09:54:49Z</time>
      </trkpt>
      <trkpt lat="43.77216" lon="7.02691">
        <ele>1097</ele>
        <time>2011-05-29T09:54:50Z</time>
      </trkpt>
      <trkpt lat="43.77222" lon="7.0269">
        <ele>1095.08</ele>
        <time>2011-05-29T09:54:56Z</time>
      </trkpt>
      <trkpt lat="43.77224" lon="7.02688">
        <ele>1099.4</ele>
        <time>2011-05-29T09:54:59Z</time>
      </trkpt>
      <trkpt lat="43.77225" lon="7.02688">
        <ele>1095.56</ele>
        <time>2011-05-29T09:55:00Z</time>
      </trkpt>
      <trkpt lat="43.77226" lon="7.02688">
        <ele>1099.4</ele>
        <time>2011-05-29T09:55:01Z</time>
      </trkpt>
      <trkpt lat="43.77228" lon="7.02687">
        <ele>1099.4</ele>
        <time>2011-05-29T09:55:03Z</time>
      </trkpt>
      <trkpt lat="43.7723" lon="7.02686">
        <ele>1096.04</ele>
        <time>2011-05-29T09:55:05Z</time>
      </trkpt>
      <trkpt lat="43.77232" lon="7.02686">
        <ele>1096.52</ele>
        <time>2011-05-29T09:55:07Z</time>
      </trkpt>
      <trkpt lat="43.77234" lon="7.02686">
        <ele>1101.33</ele>
        <time>2011-05-29T09:55:09Z</time>
      </trkpt>
      <trkpt lat="43.77234" lon="7.02685">
        <ele>1101.33</ele>
        <time>2011-05-29T09:55:10Z</time>
      </trkpt>
      <trkpt lat="43.77236" lon="7.02684">
        <ele>1097.96</ele>
        <time>2011-05-29T09:55:12Z</time>
      </trkpt>
      <trkpt lat="43.77238" lon="7.02683">
        <ele>1102.29</ele>
        <time>2011-05-29T09:55:14Z</time>
      </trkpt>
      <trkpt lat="43.7724" lon="7.02682">
        <ele>1097</ele>
        <time>2011-05-29T09:55:16Z</time>
      </trkpt>
      <trkpt lat="43.77242" lon="7.02681">
        <ele>1098.44</ele>
        <time>2011-05-29T09:55:17Z</time>
      </trkpt>
      <trkpt lat="43.77243" lon="7.0268">
        <ele>1101.81</ele>
        <time>2011-05-29T09:55:18Z</time>
      </trkpt>
      <trkpt lat="43.77243" lon="7.0268">
        <ele>1099.4</ele>
        <time>2011-05-29T09:55:19Z</time>
      </trkpt>
      <trkpt lat="43.77245" lon="7.02679">
        <ele>1098.44</ele>
        <time>2011-05-29T09:55:21Z</time>
      </trkpt>
      <trkpt lat="43.77247" lon="7.02678">
        <ele>1101.81</ele>
        <time>2011-05-29T09:55:22Z</time>
      </trkpt>
      <trkpt lat="43.77247" lon="7.02678">
        <ele>1101.33</ele>
        <time>2011-05-29T09:55:23Z</time>
      </trkpt>
      <trkpt lat="43.77248" lon="7.02677">
        <ele>1097.96</ele>
        <time>2011-05-29T09:55:24Z</time>
      </trkpt>
      <trkpt lat="43.7725" lon="7.02676">
        <ele>1099.4</ele>
        <time>2011-05-29T09:55:26Z</time>
      </trkpt>
      <trkpt lat="43.77252" lon="7.02675">
        <ele>1097.48</ele>
        <time>2011-05-29T09:55:28Z</time>
      </trkpt>
      <trkpt lat="43.77254" lon="7.02674">
        <ele>1102.77</ele>
        <time>2011-05-29T09:55:30Z</time>
      </trkpt>
      <trkpt lat="43.77255" lon="7.02673">
        <ele>1098.44</ele>
        <time>2011-05-29T09:55:31Z</time>
      </trkpt>
      <trkpt lat="43.77256" lon="7.02673">
        <ele>1102.29</ele>
        <time>2011-05-29T09:55:32Z</time>
      </trkpt>
      <trkpt lat="43.77258" lon="7.02673">
        <ele>1098.92</ele>
        <time>2011-05-29T09:55:34Z</time>
      </trkpt>
      <trkpt lat="43.7726" lon="7.02671">
        <ele>1102.29</ele>
        <time>2011-05-29T09:55:36Z</time>
      </trkpt>
      <trkpt lat="43.77261" lon="7.02671">
        <ele>1101.81</ele>
        <time>2011-05-29T09:55:37Z</time>
      </trkpt>
      <trkpt lat="43.77262" lon="7.0267">
        <ele>1097.96</ele>
        <time>2011-05-29T09:55:38Z</time>
      </trkpt>
      <trkpt lat="43.77263" lon="7.0267">
        <ele>1101.33</ele>
        <time>2011-05-29T09:55:39Z</time>
      </trkpt>
      <trkpt lat="43.77269" lon="7.02667">
        <ele>1097.96</ele>
        <time>2011-05-29T09:55:45Z</time>
      </trkpt>
      <trkpt lat="43.7727" lon="7.02667">
        <ele>1102.29</ele>
        <time>2011-05-29T09:55:46Z</time>
      </trkpt>
      <trkpt lat="43.77271" lon="7.02667">
        <ele>1102.29</ele>
        <time>2011-05-29T09:55:47Z</time>
      </trkpt>
      <trkpt lat="43.77272" lon="7.02666">
        <ele>1098.44</ele>
        <time>2011-05-29T09:55:48Z</time>
      </trkpt>
      <trkpt lat="43.77273" lon="7.02666">
        <ele>1100.37</ele>
        <time>2011-05-29T09:55:49Z</time>
      </trkpt>
      <trkpt lat="43.77274" lon="7.02665">
        <ele>1103.73</ele>
        <time>2011-05-29T09:55:50Z</time>
      </trkpt>
      <trkpt lat="43.77275" lon="7.02665">
        <ele>1102.29</ele>
        <time>2011-05-29T09:55:51Z</time>
      </trkpt>
      <trkpt lat="43.77276" lon="7.02665">
        <ele>1098.92</ele>
        <time>2011-05-29T09:55:52Z</time>
      </trkpt>
      <trkpt lat="43.77277" lon="7.02664">
        <ele>1102.77</ele>
        <time>2011-05-29T09:55:53Z</time>
      </trkpt>
      <trkpt lat="43.77279" lon="7.02664">
        <ele>1099.89</ele>
        <time>2011-05-29T09:55:55Z</time>
      </trkpt>
      <trkpt lat="43.7728" lon="7.02663">
        <ele>1103.25</ele>
        <time>2011-05-29T09:55:56Z</time>
      </trkpt>
      <trkpt lat="43.77282" lon="7.02662">
        <ele>1099.4</ele>
        <time>2011-05-29T09:55:58Z</time>
      </trkpt>
      <trkpt lat="43.77283" lon="7.02662">
        <ele>1103.25</ele>
        <time>2011-05-29T09:55:59Z</time>
      </trkpt>
      <trkpt lat="43.77285" lon="7.02661">
        <ele>1099.4</ele>
        <time>2011-05-29T09:56:01Z</time>
      </trkpt>
      <trkpt lat="43.77286" lon="7.0266">
        <ele>1103.25</ele>
        <time>2011-05-29T09:56:02Z</time>
      </trkpt>
      <trkpt lat="43.77293" lon="7.02655">
        <ele>1100.37</ele>
        <time>2011-05-29T09:56:10Z</time>
      </trkpt>
      <trkpt lat="43.77295" lon="7.02655">
        <ele>1103.73</ele>
        <time>2011-05-29T09:56:11Z</time>
      </trkpt>
      <trkpt lat="43.77296" lon="7.02654">
        <ele>1103.25</ele>
        <time>2011-05-29T09:56:12Z</time>
      </trkpt>
      <trkpt lat="43.77298" lon="7.02653">
        <ele>1104.69</ele>
        <time>2011-05-29T09:56:14Z</time>
      </trkpt>
      <trkpt lat="43.77301" lon="7.02652">
        <ele>1100.85</ele>
        <time>2011-05-29T09:56:17Z</time>
      </trkpt>
      <trkpt lat="43.77302" lon="7.02652">
        <ele>1105.17</ele>
        <time>2011-05-29T09:56:18Z</time>
      </trkpt>
      <trkpt lat="43.77311" lon="7.02648">
        <ele>1101.81</ele>
        <time>2011-05-29T09:56:26Z</time>
      </trkpt>
      <trkpt lat="43.77313" lon="7.02648">
        <ele>1103.73</ele>
        <time>2011-05-29T09:56:27Z</time>
      </trkpt>
      <trkpt lat="43.77314" lon="7.02646">
        <ele>1102.29</ele>
        <time>2011-05-29T09:56:29Z</time>
      </trkpt>
      <trkpt lat="43.77328" lon="7.02638">
        <ele>1108.54</ele>
        <time>2011-05-29T09:56:44Z</time>
      </trkpt>
      <trkpt lat="43.77329" lon="7.02637">
        <ele>1105.17</ele>
        <time>2011-05-29T09:56:45Z</time>
      </trkpt>
      <trkpt lat="43.77331" lon="7.02636">
        <ele>1109.02</ele>
        <time>2011-05-29T09:56:47Z</time>
      </trkpt>
      <trkpt lat="43.77332" lon="7.02635">
        <ele>1103.73</ele>
        <time>2011-05-29T09:56:48Z</time>
      </trkpt>
      <trkpt lat="43.77334" lon="7.02634">
        <ele>1109.5</ele>
        <time>2011-05-29T09:56:50Z</time>
      </trkpt>
      <trkpt lat="43.77335" lon="7.02634">
        <ele>1106.61</ele>
        <time>2011-05-29T09:56:51Z</time>
      </trkpt>
      <trkpt lat="43.77339" lon="7.02631">
        <ele>1109.98</ele>
        <time>2011-05-29T09:56:56Z</time>
      </trkpt>
      <trkpt lat="43.7734" lon="7.0263">
        <ele>1106.61</ele>
        <time>2011-05-29T09:56:57Z</time>
      </trkpt>
      <trkpt lat="43.77342" lon="7.0263">
        <ele>1109.98</ele>
        <time>2011-05-29T09:56:58Z</time>
      </trkpt>
      <trkpt lat="43.77343" lon="7.0263">
        <ele>1106.13</ele>
        <time>2011-05-29T09:56:59Z</time>
      </trkpt>
      <trkpt lat="43.77345" lon="7.02628">
        <ele>1110.46</ele>
        <time>2011-05-29T09:57:01Z</time>
      </trkpt>
      <trkpt lat="43.77346" lon="7.02628">
        <ele>1106.61</ele>
        <time>2011-05-29T09:57:02Z</time>
      </trkpt>
      <trkpt lat="43.77349" lon="7.02626">
        <ele>1106.13</ele>
        <time>2011-05-29T09:57:06Z</time>
      </trkpt>
      <trkpt lat="43.7735" lon="7.02625">
        <ele>1110.46</ele>
        <time>2011-05-29T09:57:07Z</time>
      </trkpt>
      <trkpt lat="43.77351" lon="7.02625">
        <ele>1106.13</ele>
        <time>2011-05-29T09:57:08Z</time>
      </trkpt>
      <trkpt lat="43.77353" lon="7.02623">
        <ele>1108.54</ele>
        <time>2011-05-29T09:57:10Z</time>
      </trkpt>
      <trkpt lat="43.77355" lon="7.02622">
        <ele>1110.46</ele>
        <time>2011-05-29T09:57:12Z</time>
      </trkpt>
      <trkpt lat="43.77358" lon="7.0262">
        <ele>1110.46</ele>
        <time>2011-05-29T09:57:15Z</time>
      </trkpt>
      <trkpt lat="43.77358" lon="7.0262">
        <ele>1106.13</ele>
        <time>2011-05-29T09:57:16Z</time>
      </trkpt>
      <trkpt lat="43.77359" lon="7.02619">
        <ele>1109.98</ele>
        <time>2011-05-29T09:57:17Z</time>
      </trkpt>
      <trkpt lat="43.7737" lon="7.02613">
        <ele>1112.38</ele>
        <time>2011-05-29T09:57:30Z</time>
      </trkpt>
      <trkpt lat="43.77371" lon="7.02612">
        <ele>1108.54</ele>
        <time>2011-05-29T09:57:32Z</time>
      </trkpt>
      <trkpt lat="43.77374" lon="7.0261">
        <ele>1113.34</ele>
        <time>2011-05-29T09:57:35Z</time>
      </trkpt>
      <trkpt lat="43.77375" lon="7.02609">
        <ele>1109.98</ele>
        <time>2011-05-29T09:57:36Z</time>
      </trkpt>
      <trkpt lat="43.77381" lon="7.02608">
        <ele>1112.86</ele>
        <time>2011-05-29T09:57:43Z</time>
      </trkpt>
      <trkpt lat="43.77382" lon="7.02608">
        <ele>1109.98</ele>
        <time>2011-05-29T09:57:44Z</time>
      </trkpt>
      <trkpt lat="43.77383" lon="7.02607">
        <ele>1114.79</ele>
        <time>2011-05-29T09:57:45Z</time>
      </trkpt>
      <trkpt lat="43.77384" lon="7.02607">
        <ele>1110.46</ele>
        <time>2011-05-29T09:57:46Z</time>
      </trkpt>
      <trkpt lat="43.77385" lon="7.02606">
        <ele>1114.79</ele>
        <time>2011-05-29T09:57:47Z</time>
      </trkpt>
      <trkpt lat="43.77387" lon="7.02606">
        <ele>1109.98</ele>
        <time>2011-05-29T09:57:48Z</time>
      </trkpt>
      <trkpt lat="43.77388" lon="7.02606">
        <ele>1114.31</ele>
        <time>2011-05-29T09:57:49Z</time>
      </trkpt>
      <trkpt lat="43.77389" lon="7.02606">
        <ele>1109.98</ele>
        <time>2011-05-29T09:57:50Z</time>
      </trkpt>
      <trkpt lat="43.77391" lon="7.02605">
        <ele>1114.79</ele>
        <time>2011-05-29T09:57:52Z</time>
      </trkpt>
      <trkpt lat="43.77392" lon="7.02605">
        <ele>1110.94</ele>
        <time>2011-05-29T09:57:53Z</time>
      </trkpt>
      <trkpt lat="43.77393" lon="7.02605">
        <ele>1114.31</ele>
        <time>2011-05-29T09:57:54Z</time>
      </trkpt>
      <trkpt lat="43.77401" lon="7.02604">
        <ele>1111.9</ele>
        <time>2011-05-29T09:58:01Z</time>
      </trkpt>
      <trkpt lat="43.77403" lon="7.02605">
        <ele>1111.9</ele>
        <time>2011-05-29T09:58:03Z</time>
      </trkpt>
      <trkpt lat="43.77404" lon="7.02606">
        <ele>1116.23</ele>
        <time>2011-05-29T09:58:04Z</time>
      </trkpt>
      <trkpt lat="43.77406" lon="7.02606">
        <ele>1114.31</ele>
        <time>2011-05-29T09:58:05Z</time>
      </trkpt>
      <trkpt lat="43.77412" lon="7.02609">
        <ele>1117.19</ele>
        <time>2011-05-29T09:58:12Z</time>
      </trkpt>
      <trkpt lat="43.77413" lon="7.0261">
        <ele>1113.82</ele>
        <time>2011-05-29T09:58:13Z</time>
      </trkpt>
      <trkpt lat="43.77414" lon="7.02611">
        <ele>1117.19</ele>
        <time>2011-05-29T09:58:14Z</time>
      </trkpt>
      <trkpt lat="43.77416" lon="7.02611">
        <ele>1113.34</ele>
        <time>2011-05-29T09:58:15Z</time>
      </trkpt>
      <trkpt lat="43.77417" lon="7.02611">
        <ele>1117.67</ele>
        <time>2011-05-29T09:58:16Z</time>
      </trkpt>
      <trkpt lat="43.77417" lon="7.02612">
        <ele>1114.31</ele>
        <time>2011-05-29T09:58:17Z</time>
      </trkpt>
      <trkpt lat="43.77418" lon="7.02612">
        <ele>1118.15</ele>
        <time>2011-05-29T09:58:18Z</time>
      </trkpt>
      <trkpt lat="43.77421" lon="7.02613">
        <ele>1117.67</ele>
        <time>2011-05-29T09:58:22Z</time>
      </trkpt>
      <trkpt lat="43.77423" lon="7.02613">
        <ele>1119.11</ele>
        <time>2011-05-29T09:58:24Z</time>
      </trkpt>
      <trkpt lat="43.77425" lon="7.02614">
        <ele>1119.11</ele>
        <time>2011-05-29T09:58:26Z</time>
      </trkpt>
      <trkpt lat="43.7743" lon="7.02618">
        <ele>1119.59</ele>
        <time>2011-05-29T09:58:32Z</time>
      </trkpt>
      <trkpt lat="43.77433" lon="7.0262">
        <ele>1118.63</ele>
        <time>2011-05-29T09:58:35Z</time>
      </trkpt>
      <trkpt lat="43.77434" lon="7.02621">
        <ele>1118.63</ele>
        <time>2011-05-29T09:58:36Z</time>
      </trkpt>
      <trkpt lat="43.77441" lon="7.0263">
        <ele>1122.48</ele>
        <time>2011-05-29T09:58:47Z</time>
      </trkpt>
      <trkpt lat="43.77442" lon="7.0263">
        <ele>1118.63</ele>
        <time>2011-05-29T09:58:48Z</time>
      </trkpt>
      <trkpt lat="43.77443" lon="7.02633">
        <ele>1122</ele>
        <time>2011-05-29T09:58:51Z</time>
      </trkpt>
      <trkpt lat="43.77445" lon="7.02634">
        <ele>1118.63</ele>
        <time>2011-05-29T09:58:55Z</time>
      </trkpt>
      <trkpt lat="43.77445" lon="7.02634">
        <ele>1123.44</ele>
        <time>2011-05-29T09:58:56Z</time>
      </trkpt>
      <trkpt lat="43.77445" lon="7.02634">
        <ele>1120.07</ele>
        <time>2011-05-29T09:58:57Z</time>
      </trkpt>
      <trkpt lat="43.77445" lon="7.02634">
        <ele>1123.44</ele>
        <time>2011-05-29T09:58:59Z</time>
      </trkpt>
      <trkpt lat="43.77445" lon="7.02634">
        <ele>1120.07</ele>
        <time>2011-05-29T09:59:00Z</time>
      </trkpt>
      <trkpt lat="43.77445" lon="7.02634">
        <ele>1123.44</ele>
        <time>2011-05-29T09:59:02Z</time>
      </trkpt>
      <trkpt lat="43.77445" lon="7.02634">
        <ele>1119.59</ele>
        <time>2011-05-29T09:59:03Z</time>
      </trkpt>
      <trkpt lat="43.77445" lon="7.02634">
        <ele>1122.96</ele>
        <time>2011-05-29T09:59:07Z</time>
      </trkpt>
      <trkpt lat="43.77445" lon="7.02634">
        <ele>1119.11</ele>
        <time>2011-05-29T09:59:09Z</time>
      </trkpt>
      <trkpt lat="43.77445" lon="7.02634">
        <ele>1123.44</ele>
        <time>2011-05-29T09:59:10Z</time>
      </trkpt>
      <trkpt lat="43.77445" lon="7.02634">
        <ele>1118.63</ele>
        <time>2011-05-29T09:59:11Z</time>
      </trkpt>
      <trkpt lat="43.77445" lon="7.02634">
        <ele>1123.92</ele>
        <time>2011-05-29T09:59:12Z</time>
      </trkpt>
      <trkpt lat="43.77445" lon="7.02634">
        <ele>1119.59</ele>
        <time>2011-05-29T09:59:13Z</time>
      </trkpt>
      <trkpt lat="43.77445" lon="7.02634">
        <ele>1123.92</ele>
        <time>2011-05-29T09:59:15Z</time>
      </trkpt>
      <trkpt lat="43.77445" lon="7.02634">
        <ele>1120.55</ele>
        <time>2011-05-29T09:59:16Z</time>
      </trkpt>
      <trkpt lat="43.77445" lon="7.02634">
        <ele>1123.44</ele>
        <time>2011-05-29T09:59:18Z</time>
      </trkpt>
      <trkpt lat="43.77445" lon="7.02634">
        <ele>1120.07</ele>
        <time>2011-05-29T09:59:19Z</time>
      </trkpt>
      <trkpt lat="43.77445" lon="7.02634">
        <ele>1122.96</ele>
        <time>2011-05-29T09:59:23Z</time>
      </trkpt>
      <trkpt lat="43.77446" lon="7.02637">
        <ele>1119.59</ele>
        <time>2011-05-29T09:59:25Z</time>
      </trkpt>
      <trkpt lat="43.77447" lon="7.02639">
        <ele>1123.92</ele>
        <time>2011-05-29T09:59:27Z</time>
      </trkpt>
      <trkpt lat="43.77448" lon="7.0264">
        <ele>1122.48</ele>
        <time>2011-05-29T09:59:28Z</time>
      </trkpt>
      <trkpt lat="43.77453" lon="7.02645">
        <ele>1123.44</ele>
        <time>2011-05-29T09:59:34Z</time>
      </trkpt>
      <trkpt lat="43.77454" lon="7.02646">
        <ele>1120.07</ele>
        <time>2011-05-29T09:59:35Z</time>
      </trkpt>
      <trkpt lat="43.77454" lon="7.02647">
        <ele>1124.4</ele>
        <time>2011-05-29T09:59:36Z</time>
      </trkpt>
      <trkpt lat="43.77456" lon="7.02648">
        <ele>1121.03</ele>
        <time>2011-05-29T09:59:38Z</time>
      </trkpt>
      <trkpt lat="43.77457" lon="7.02649">
        <ele>1122</ele>
        <time>2011-05-29T09:59:39Z</time>
      </trkpt>
      <trkpt lat="43.77458" lon="7.0265">
        <ele>1125.84</ele>
        <time>2011-05-29T09:59:41Z</time>
      </trkpt>
      <trkpt lat="43.77459" lon="7.02651">
        <ele>1122</ele>
        <time>2011-05-29T09:59:42Z</time>
      </trkpt>
      <trkpt lat="43.7746" lon="7.02653">
        <ele>1125.36</ele>
        <time>2011-05-29T09:59:44Z</time>
      </trkpt>
      <trkpt lat="43.77461" lon="7.02653">
        <ele>1125.84</ele>
        <time>2011-05-29T09:59:45Z</time>
      </trkpt>
      <trkpt lat="43.77462" lon="7.02654">
        <ele>1122</ele>
        <time>2011-05-29T09:59:46Z</time>
      </trkpt>
      <trkpt lat="43.77463" lon="7.02655">
        <ele>1122.96</ele>
        <time>2011-05-29T09:59:47Z</time>
      </trkpt>
      <trkpt lat="43.77464" lon="7.02656">
        <ele>1126.32</ele>
        <time>2011-05-29T09:59:48Z</time>
      </trkpt>
      <trkpt lat="43.77465" lon="7.02657">
        <ele>1124.4</ele>
        <time>2011-05-29T09:59:49Z</time>
      </trkpt>
      <trkpt lat="43.77475" lon="7.02665">
        <ele>1127.76</ele>
        <time>2011-05-29T10:00:01Z</time>
      </trkpt>
      <trkpt lat="43.77475" lon="7.02666">
        <ele>1126.8</ele>
        <time>2011-05-29T10:00:02Z</time>
      </trkpt>
      <trkpt lat="43.77477" lon="7.02669">
        <ele>1125.36</ele>
        <time>2011-05-29T10:00:05Z</time>
      </trkpt>
      <trkpt lat="43.77478" lon="7.0267">
        <ele>1127.76</ele>
        <time>2011-05-29T10:00:07Z</time>
      </trkpt>
      <trkpt lat="43.77479" lon="7.02671">
        <ele>1124.4</ele>
        <time>2011-05-29T10:00:08Z</time>
      </trkpt>
      <trkpt lat="43.7748" lon="7.02672">
        <ele>1126.32</ele>
        <time>2011-05-29T10:00:09Z</time>
      </trkpt>
      <trkpt lat="43.77482" lon="7.02673">
        <ele>1128.24</ele>
        <time>2011-05-29T10:00:11Z</time>
      </trkpt>
      <trkpt lat="43.77483" lon="7.02675">
        <ele>1127.28</ele>
        <time>2011-05-29T10:00:13Z</time>
      </trkpt>
      <trkpt lat="43.77485" lon="7.02677">
        <ele>1129.21</ele>
        <time>2011-05-29T10:00:15Z</time>
      </trkpt>
      <trkpt lat="43.77486" lon="7.02679">
        <ele>1125.36</ele>
        <time>2011-05-29T10:00:17Z</time>
      </trkpt>
      <trkpt lat="43.77488" lon="7.02681">
        <ele>1130.17</ele>
        <time>2011-05-29T10:00:19Z</time>
      </trkpt>
      <trkpt lat="43.7749" lon="7.02683">
        <ele>1126.8</ele>
        <time>2011-05-29T10:00:21Z</time>
      </trkpt>
      <trkpt lat="43.77491" lon="7.02685">
        <ele>1129.69</ele>
        <time>2011-05-29T10:00:23Z</time>
      </trkpt>
      <trkpt lat="43.77492" lon="7.02686">
        <ele>1126.8</ele>
        <time>2011-05-29T10:00:24Z</time>
      </trkpt>
      <trkpt lat="43.77493" lon="7.02687">
        <ele>1127.28</ele>
        <time>2011-05-29T10:00:25Z</time>
      </trkpt>
      <trkpt lat="43.77495" lon="7.02691">
        <ele>1131.13</ele>
        <time>2011-05-29T10:00:28Z</time>
      </trkpt>
      <trkpt lat="43.77496" lon="7.02692">
        <ele>1127.28</ele>
        <time>2011-05-29T10:00:30Z</time>
      </trkpt>
      <trkpt lat="43.77498" lon="7.02694">
        <ele>1131.13</ele>
        <time>2011-05-29T10:00:32Z</time>
      </trkpt>
      <trkpt lat="43.77499" lon="7.02695">
        <ele>1131.13</ele>
        <time>2011-05-29T10:00:33Z</time>
      </trkpt>
      <trkpt lat="43.775" lon="7.02695">
        <ele>1127.28</ele>
        <time>2011-05-29T10:00:34Z</time>
      </trkpt>
      <trkpt lat="43.77501" lon="7.02696">
        <ele>1128.73</ele>
        <time>2011-05-29T10:00:35Z</time>
      </trkpt>
      <trkpt lat="43.77502" lon="7.02696">
        <ele>1132.09</ele>
        <time>2011-05-29T10:00:36Z</time>
      </trkpt>
      <trkpt lat="43.77502" lon="7.02697">
        <ele>1131.13</ele>
        <time>2011-05-29T10:00:37Z</time>
      </trkpt>
      <trkpt lat="43.77506" lon="7.027">
        <ele>1127.28</ele>
        <time>2011-05-29T10:00:41Z</time>
      </trkpt>
      <trkpt lat="43.77508" lon="7.02701">
        <ele>1131.61</ele>
        <time>2011-05-29T10:00:43Z</time>
      </trkpt>
      <trkpt lat="43.77512" lon="7.02703">
        <ele>1128.73</ele>
        <time>2011-05-29T10:00:47Z</time>
      </trkpt>
      <trkpt lat="43.77513" lon="7.02704">
        <ele>1133.05</ele>
        <time>2011-05-29T10:00:49Z</time>
      </trkpt>
      <trkpt lat="43.77514" lon="7.02705">
        <ele>1133.05</ele>
        <time>2011-05-29T10:00:50Z</time>
      </trkpt>
      <trkpt lat="43.77519" lon="7.02707">
        <ele>1130.65</ele>
        <time>2011-05-29T10:00:55Z</time>
      </trkpt>
      <trkpt lat="43.77522" lon="7.02709">
        <ele>1134.49</ele>
        <time>2011-05-29T10:00:59Z</time>
      </trkpt>
      <trkpt lat="43.7753" lon="7.02715">
        <ele>1131.13</ele>
        <time>2011-05-29T10:01:11Z</time>
      </trkpt>
      <trkpt lat="43.77531" lon="7.02716">
        <ele>1130.65</ele>
        <time>2011-05-29T10:01:12Z</time>
      </trkpt>
      <trkpt lat="43.77534" lon="7.02718">
        <ele>1134.49</ele>
        <time>2011-05-29T10:01:15Z</time>
      </trkpt>
      <trkpt lat="43.77537" lon="7.0272">
        <ele>1129.69</ele>
        <time>2011-05-29T10:01:18Z</time>
      </trkpt>
      <trkpt lat="43.77538" lon="7.02721">
        <ele>1134.49</ele>
        <time>2011-05-29T10:01:19Z</time>
      </trkpt>
      <trkpt lat="43.77539" lon="7.02722">
        <ele>1130.17</ele>
        <time>2011-05-29T10:01:20Z</time>
      </trkpt>
      <trkpt lat="43.77542" lon="7.02727">
        <ele>1133.53</ele>
        <time>2011-05-29T10:01:24Z</time>
      </trkpt>
      <trkpt lat="43.77543" lon="7.02728">
        <ele>1132.57</ele>
        <time>2011-05-29T10:01:25Z</time>
      </trkpt>
      <trkpt lat="43.77544" lon="7.02729">
        <ele>1129.21</ele>
        <time>2011-05-29T10:01:26Z</time>
      </trkpt>
      <trkpt lat="43.77552" lon="7.02738">
        <ele>1132.57</ele>
        <time>2011-05-29T10:01:35Z</time>
      </trkpt>
      <trkpt lat="43.77554" lon="7.0274">
        <ele>1128.24</ele>
        <time>2011-05-29T10:01:37Z</time>
      </trkpt>
      <trkpt lat="43.77554" lon="7.02741">
        <ele>1129.21</ele>
        <time>2011-05-29T10:01:38Z</time>
      </trkpt>
      <trkpt lat="43.77557" lon="7.02743">
        <ele>1132.57</ele>
        <time>2011-05-29T10:01:40Z</time>
      </trkpt>
      <trkpt lat="43.77557" lon="7.02744">
        <ele>1132.09</ele>
        <time>2011-05-29T10:01:41Z</time>
      </trkpt>
      <trkpt lat="43.77559" lon="7.02746">
        <ele>1132.57</ele>
        <time>2011-05-29T10:01:43Z</time>
      </trkpt>
      <trkpt lat="43.77566" lon="7.02752">
        <ele>1132.57</ele>
        <time>2011-05-29T10:01:51Z</time>
      </trkpt>
      <trkpt lat="43.7757" lon="7.02754">
        <ele>1130.65</ele>
        <time>2011-05-29T10:01:54Z</time>
      </trkpt>
      <trkpt lat="43.77572" lon="7.02755">
        <ele>1132.57</ele>
        <time>2011-05-29T10:01:56Z</time>
      </trkpt>
      <trkpt lat="43.77572" lon="7.02755">
        <ele>1130.17</ele>
        <time>2011-05-29T10:01:57Z</time>
      </trkpt>
      <trkpt lat="43.7758" lon="7.02759">
        <ele>1130.65</ele>
        <time>2011-05-29T10:02:05Z</time>
      </trkpt>
      <trkpt lat="43.77583" lon="7.02759">
        <ele>1129.21</ele>
        <time>2011-05-29T10:02:08Z</time>
      </trkpt>
      <trkpt lat="43.77585" lon="7.0276">
        <ele>1129.21</ele>
        <time>2011-05-29T10:02:21Z</time>
      </trkpt>
      <trkpt lat="43.77585" lon="7.0276">
        <ele>1128.73</ele>
        <time>2011-05-29T10:02:23Z</time>
      </trkpt>
      <trkpt lat="43.77585" lon="7.0276">
        <ele>1131.13</ele>
        <time>2011-05-29T10:02:28Z</time>
      </trkpt>
      <trkpt lat="43.77585" lon="7.0276">
        <ele>1129.69</ele>
        <time>2011-05-29T10:02:32Z</time>
      </trkpt>
      <trkpt lat="43.77585" lon="7.0276">
        <ele>1132.57</ele>
        <time>2011-05-29T10:02:44Z</time>
      </trkpt>
      <trkpt lat="43.77585" lon="7.0276">
        <ele>1128.73</ele>
        <time>2011-05-29T10:02:56Z</time>
      </trkpt>
      <trkpt lat="43.77585" lon="7.0276">
        <ele>1129.21</ele>
        <time>2011-05-29T10:02:57Z</time>
      </trkpt>
      <trkpt lat="43.77585" lon="7.0276">
        <ele>1132.57</ele>
        <time>2011-05-29T10:03:08Z</time>
      </trkpt>
      <trkpt lat="43.77585" lon="7.0276">
        <ele>1132.57</ele>
        <time>2011-05-29T10:03:09Z</time>
      </trkpt>
      <trkpt lat="43.77585" lon="7.0276">
        <ele>1128.73</ele>
        <time>2011-05-29T10:03:10Z</time>
      </trkpt>
      <trkpt lat="43.77585" lon="7.0276">
        <ele>1128.73</ele>
        <time>2011-05-29T10:03:11Z</time>
      </trkpt>
      <trkpt lat="43.77585" lon="7.0276">
        <ele>1132.09</ele>
        <time>2011-05-29T10:03:19Z</time>
      </trkpt>
      <trkpt lat="43.77585" lon="7.0276">
        <ele>1132.09</ele>
        <time>2011-05-29T10:03:20Z</time>
      </trkpt>
      <trkpt lat="43.77585" lon="7.0276">
        <ele>1128.73</ele>
        <time>2011-05-29T10:03:23Z</time>
      </trkpt>
      <trkpt lat="43.77585" lon="7.0276">
        <ele>1129.21</ele>
        <time>2011-05-29T10:03:24Z</time>
      </trkpt>
      <trkpt lat="43.77585" lon="7.0276">
        <ele>1132.09</ele>
        <time>2011-05-29T10:03:32Z</time>
      </trkpt>
      <trkpt lat="43.77585" lon="7.0276">
        <ele>1128.24</ele>
        <time>2011-05-29T10:03:34Z</time>
      </trkpt>
      <trkpt lat="43.77585" lon="7.0276">
        <ele>1128.73</ele>
        <time>2011-05-29T10:03:35Z</time>
      </trkpt>
      <trkpt lat="43.77585" lon="7.0276">
        <ele>1133.05</ele>
        <time>2011-05-29T10:03:42Z</time>
      </trkpt>
      <trkpt lat="43.77585" lon="7.0276">
        <ele>1132.57</ele>
        <time>2011-05-29T10:03:43Z</time>
      </trkpt>
      <trkpt lat="43.77585" lon="7.0276">
        <ele>1128.24</ele>
        <time>2011-05-29T10:03:46Z</time>
      </trkpt>
      <trkpt lat="43.77585" lon="7.0276">
        <ele>1128.73</ele>
        <time>2011-05-29T10:03:47Z</time>
      </trkpt>
      <trkpt lat="43.77585" lon="7.0276">
        <ele>1130.17</ele>
        <time>2011-05-29T10:03:50Z</time>
      </trkpt>
      <trkpt lat="43.77586" lon="7.0276">
        <ele>1133.05</ele>
        <time>2011-05-29T10:03:54Z</time>
      </trkpt>
      <trkpt lat="43.77586" lon="7.0276">
        <ele>1129.21</ele>
        <time>2011-05-29T10:03:58Z</time>
      </trkpt>
      <trkpt lat="43.77586" lon="7.0276">
        <ele>1133.05</ele>
        <time>2011-05-29T10:03:59Z</time>
      </trkpt>
      <trkpt lat="43.77586" lon="7.0276">
        <ele>1133.05</ele>
        <time>2011-05-29T10:04:00Z</time>
      </trkpt>
      <trkpt lat="43.77586" lon="7.0276">
        <ele>1130.17</ele>
        <time>2011-05-29T10:04:05Z</time>
      </trkpt>
      <trkpt lat="43.77586" lon="7.0276">
        <ele>1131.61</ele>
        <time>2011-05-29T10:04:10Z</time>
      </trkpt>
      <trkpt lat="43.77586" lon="7.0276">
        <ele>1128.73</ele>
        <time>2011-05-29T10:04:16Z</time>
      </trkpt>
      <trkpt lat="43.77586" lon="7.0276">
        <ele>1133.05</ele>
        <time>2011-05-29T10:04:19Z</time>
      </trkpt>
      <trkpt lat="43.77586" lon="7.0276">
        <ele>1133.05</ele>
        <time>2011-05-29T10:04:20Z</time>
      </trkpt>
      <trkpt lat="43.77586" lon="7.0276">
        <ele>1129.69</ele>
        <time>2011-05-29T10:04:23Z</time>
      </trkpt>
      <trkpt lat="43.77586" lon="7.0276">
        <ele>1131.13</ele>
        <time>2011-05-29T10:04:24Z</time>
      </trkpt>
      <trkpt lat="43.77586" lon="7.0276">
        <ele>1132.57</ele>
        <time>2011-05-29T10:04:26Z</time>
      </trkpt>
      <trkpt lat="43.77586" lon="7.0276">
        <ele>1131.61</ele>
        <time>2011-05-29T10:04:32Z</time>
      </trkpt>
      <trkpt lat="43.77586" lon="7.02759">
        <ele>1129.69</ele>
        <time>2011-05-29T10:04:35Z</time>
      </trkpt>
      <trkpt lat="43.77586" lon="7.02759">
        <ele>1133.05</ele>
        <time>2011-05-29T10:04:38Z</time>
      </trkpt>
      <trkpt lat="43.77586" lon="7.02759">
        <ele>1133.05</ele>
        <time>2011-05-29T10:04:39Z</time>
      </trkpt>
      <trkpt lat="43.77586" lon="7.02759">
        <ele>1129.69</ele>
        <time>2011-05-29T10:04:44Z</time>
      </trkpt>
      <trkpt lat="43.77587" lon="7.0276">
        <ele>1131.61</ele>
        <time>2011-05-29T10:04:48Z</time>
      </trkpt>
      <trkpt lat="43.77589" lon="7.02762">
        <ele>1129.69</ele>
        <time>2011-05-29T10:04:50Z</time>
      </trkpt>
      <trkpt lat="43.7759" lon="7.02762">
        <ele>1133.05</ele>
        <time>2011-05-29T10:04:52Z</time>
      </trkpt>
      <trkpt lat="43.77592" lon="7.02764">
        <ele>1132.57</ele>
        <time>2011-05-29T10:04:54Z</time>
      </trkpt>
      <trkpt lat="43.77595" lon="7.02765">
        <ele>1129.69</ele>
        <time>2011-05-29T10:04:57Z</time>
      </trkpt>
      <trkpt lat="43.77601" lon="7.02768">
        <ele>1134.49</ele>
        <time>2011-05-29T10:05:02Z</time>
      </trkpt>
      <trkpt lat="43.77602" lon="7.02768">
        <ele>1134.49</ele>
        <time>2011-05-29T10:05:03Z</time>
      </trkpt>
      <trkpt lat="43.77604" lon="7.02769">
        <ele>1134.01</ele>
        <time>2011-05-29T10:05:09Z</time>
      </trkpt>
      <trkpt lat="43.77604" lon="7.02769">
        <ele>1130.65</ele>
        <time>2011-05-29T10:05:10Z</time>
      </trkpt>
      <trkpt lat="43.77604" lon="7.02769">
        <ele>1134.01</ele>
        <time>2011-05-29T10:05:17Z</time>
      </trkpt>
      <trkpt lat="43.77604" lon="7.02769">
        <ele>1134.49</ele>
        <time>2011-05-29T10:05:18Z</time>
      </trkpt>
      <trkpt lat="43.77605" lon="7.02769">
        <ele>1131.13</ele>
        <time>2011-05-29T10:05:20Z</time>
      </trkpt>
      <trkpt lat="43.77606" lon="7.02769">
        <ele>1134.97</ele>
        <time>2011-05-29T10:05:22Z</time>
      </trkpt>
      <trkpt lat="43.77607" lon="7.02771">
        <ele>1131.61</ele>
        <time>2011-05-29T10:05:24Z</time>
      </trkpt>
      <trkpt lat="43.77607" lon="7.02771">
        <ele>1131.61</ele>
        <time>2011-05-29T10:05:25Z</time>
      </trkpt>
      <trkpt lat="43.77611" lon="7.0277">
        <ele>1131.61</ele>
        <time>2011-05-29T10:05:32Z</time>
      </trkpt>
      <trkpt lat="43.77611" lon="7.0277">
        <ele>1131.61</ele>
        <time>2011-05-29T10:05:36Z</time>
      </trkpt>
      <trkpt lat="43.7761" lon="7.0277">
        <ele>1133.53</ele>
        <time>2011-05-29T10:05:39Z</time>
      </trkpt>
      <trkpt lat="43.77606" lon="7.0277">
        <ele>1130.65</ele>
        <time>2011-05-29T10:05:43Z</time>
      </trkpt>
      <trkpt lat="43.77604" lon="7.02769">
        <ele>1134.01</ele>
        <time>2011-05-29T10:05:45Z</time>
      </trkpt>
      <trkpt lat="43.77602" lon="7.02769">
        <ele>1130.65</ele>
        <time>2011-05-29T10:05:47Z</time>
      </trkpt>
      <trkpt lat="43.77601" lon="7.02767">
        <ele>1131.13</ele>
        <time>2011-05-29T10:05:49Z</time>
      </trkpt>
      <trkpt lat="43.77602" lon="7.0276">
        <ele>1130.17</ele>
        <time>2011-05-29T10:05:55Z</time>
      </trkpt>
      <trkpt lat="43.77604" lon="7.02754">
        <ele>1129.69</ele>
        <time>2011-05-29T10:06:06Z</time>
      </trkpt>
      <trkpt lat="43.77604" lon="7.02754">
        <ele>1131.61</ele>
        <time>2011-05-29T10:06:08Z</time>
      </trkpt>
      <trkpt lat="43.77604" lon="7.02754">
        <ele>1129.69</ele>
        <time>2011-05-29T10:06:10Z</time>
      </trkpt>
      <trkpt lat="43.77604" lon="7.02754">
        <ele>1131.13</ele>
        <time>2011-05-29T10:06:12Z</time>
      </trkpt>
      <trkpt lat="43.77604" lon="7.02754">
        <ele>1131.61</ele>
        <time>2011-05-29T10:06:18Z</time>
      </trkpt>
      <trkpt lat="43.77604" lon="7.02754">
        <ele>1128.24</ele>
        <time>2011-05-29T10:06:20Z</time>
      </trkpt>
      <trkpt lat="43.77604" lon="7.02754">
        <ele>1132.09</ele>
        <time>2011-05-29T10:06:22Z</time>
      </trkpt>
      <trkpt lat="43.77604" lon="7.02754">
        <ele>1130.17</ele>
        <time>2011-05-29T10:06:23Z</time>
      </trkpt>
      <trkpt lat="43.77604" lon="7.02754">
        <ele>1128.24</ele>
        <time>2011-05-29T10:06:25Z</time>
      </trkpt>
      <trkpt lat="43.77604" lon="7.02754">
        <ele>1130.17</ele>
        <time>2011-05-29T10:06:29Z</time>
      </trkpt>
      <trkpt lat="43.77604" lon="7.02754">
        <ele>1128.73</ele>
        <time>2011-05-29T10:06:31Z</time>
      </trkpt>
      <trkpt lat="43.77604" lon="7.02754">
        <ele>1130.17</ele>
        <time>2011-05-29T10:06:33Z</time>
      </trkpt>
      <trkpt lat="43.77604" lon="7.02754">
        <ele>1129.21</ele>
        <time>2011-05-29T10:06:35Z</time>
      </trkpt>
      <trkpt lat="43.77604" lon="7.02754">
        <ele>1130.65</ele>
        <time>2011-05-29T10:06:37Z</time>
      </trkpt>
      <trkpt lat="43.77604" lon="7.02754">
        <ele>1129.21</ele>
        <time>2011-05-29T10:06:39Z</time>
      </trkpt>
      <trkpt lat="43.77604" lon="7.02753">
        <ele>1128.24</ele>
        <time>2011-05-29T10:07:15Z</time>
      </trkpt>
      <trkpt lat="43.77604" lon="7.02753">
        <ele>1131.13</ele>
        <time>2011-05-29T10:07:17Z</time>
      </trkpt>
      <trkpt lat="43.77604" lon="7.02753">
        <ele>1128.24</ele>
        <time>2011-05-29T10:07:18Z</time>
      </trkpt>
      <trkpt lat="43.77604" lon="7.02753">
        <ele>1130.17</ele>
        <time>2011-05-29T10:07:53Z</time>
      </trkpt>
      <trkpt lat="43.77608" lon="7.02755">
        <ele>1132.09</ele>
        <time>2011-05-29T10:08:05Z</time>
      </trkpt>
      <trkpt lat="43.77608" lon="7.02756">
        <ele>1131.13</ele>
        <time>2011-05-29T10:08:08Z</time>
      </trkpt>
      <trkpt lat="43.77603" lon="7.02761">
        <ele>1128.73</ele>
        <time>2011-05-29T10:08:13Z</time>
      </trkpt>
      <trkpt lat="43.77602" lon="7.02762">
        <ele>1132.09</ele>
        <time>2011-05-29T10:08:14Z</time>
      </trkpt>
      <trkpt lat="43.77602" lon="7.02765">
        <ele>1133.05</ele>
        <time>2011-05-29T10:08:16Z</time>
      </trkpt>
      <trkpt lat="43.77603" lon="7.02768">
        <ele>1131.13</ele>
        <time>2011-05-29T10:08:28Z</time>
      </trkpt>
      <trkpt lat="43.77603" lon="7.02769">
        <ele>1131.13</ele>
        <time>2011-05-29T10:08:56Z</time>
      </trkpt>
      <trkpt lat="43.77603" lon="7.02769">
        <ele>1134.49</ele>
        <time>2011-05-29T10:09:17Z</time>
      </trkpt>
      <trkpt lat="43.77603" lon="7.02769">
        <ele>1131.13</ele>
        <time>2011-05-29T10:09:18Z</time>
      </trkpt>
      <trkpt lat="43.77603" lon="7.02769">
        <ele>1134.49</ele>
        <time>2011-05-29T10:09:26Z</time>
      </trkpt>
      <trkpt lat="43.77603" lon="7.02769">
        <ele>1130.65</ele>
        <time>2011-05-29T10:09:36Z</time>
      </trkpt>
      <trkpt lat="43.77603" lon="7.02769">
        <ele>1134.01</ele>
        <time>2011-05-29T10:09:38Z</time>
      </trkpt>
      <trkpt lat="43.77603" lon="7.02769">
        <ele>1133.05</ele>
        <time>2011-05-29T10:09:39Z</time>
      </trkpt>
      <trkpt lat="43.77603" lon="7.02769">
        <ele>1134.49</ele>
        <time>2011-05-29T10:09:58Z</time>
      </trkpt>
      <trkpt lat="43.77603" lon="7.02769">
        <ele>1131.13</ele>
        <time>2011-05-29T10:10:03Z</time>
      </trkpt>
      <trkpt lat="43.77603" lon="7.02768">
        <ele>1134.49</ele>
        <time>2011-05-29T10:10:04Z</time>
      </trkpt>
      <trkpt lat="43.77602" lon="7.02769">
        <ele>1131.13</ele>
        <time>2011-05-29T10:10:05Z</time>
      </trkpt>
      <trkpt lat="43.77602" lon="7.02769">
        <ele>1134.01</ele>
        <time>2011-05-29T10:10:07Z</time>
      </trkpt>
      <trkpt lat="43.77602" lon="7.02769">
        <ele>1132.57</ele>
        <time>2011-05-29T10:10:08Z</time>
      </trkpt>
      <trkpt lat="43.77602" lon="7.02769">
        <ele>1131.61</ele>
        <time>2011-05-29T10:10:10Z</time>
      </trkpt>
      <trkpt lat="43.77602" lon="7.02769">
        <ele>1133.53</ele>
        <time>2011-05-29T10:10:12Z</time>
      </trkpt>
      <trkpt lat="43.77602" lon="7.02769">
        <ele>1134.01</ele>
        <time>2011-05-29T10:10:28Z</time>
      </trkpt>
      <trkpt lat="43.77602" lon="7.02769">
        <ele>1131.61</ele>
        <time>2011-05-29T10:10:33Z</time>
      </trkpt>
      <trkpt lat="43.77602" lon="7.02769">
        <ele>1133.53</ele>
        <time>2011-05-29T10:10:36Z</time>
      </trkpt>
      <trkpt lat="43.77608" lon="7.0277">
        <ele>1134.01</ele>
        <time>2011-05-29T10:10:59Z</time>
      </trkpt>
      <trkpt lat="43.7761" lon="7.0277">
        <ele>1132.57</ele>
        <time>2011-05-29T10:11:02Z</time>
      </trkpt>
      <trkpt lat="43.77618" lon="7.02772">
        <ele>1131.61</ele>
        <time>2011-05-29T10:11:13Z</time>
      </trkpt>
      <trkpt lat="43.77628" lon="7.02775">
        <ele>1134.97</ele>
        <time>2011-05-29T10:11:25Z</time>
      </trkpt>
      <trkpt lat="43.77638" lon="7.02777">
        <ele>1135.94</ele>
        <time>2011-05-29T10:11:35Z</time>
      </trkpt>
      <trkpt lat="43.77639" lon="7.02778">
        <ele>1134.49</ele>
        <time>2011-05-29T10:11:37Z</time>
      </trkpt>
      <trkpt lat="43.77654" lon="7.02782">
        <ele>1133.05</ele>
        <time>2011-05-29T10:11:53Z</time>
      </trkpt>
      <trkpt lat="43.77667" lon="7.02784">
        <ele>1136.42</ele>
        <time>2011-05-29T10:12:04Z</time>
      </trkpt>
      <trkpt lat="43.77671" lon="7.02783">
        <ele>1134.01</ele>
        <time>2011-05-29T10:12:08Z</time>
      </trkpt>
      <trkpt lat="43.77675" lon="7.02782">
        <ele>1135.45</ele>
        <time>2011-05-29T10:12:11Z</time>
      </trkpt>
      <trkpt lat="43.77682" lon="7.02779">
        <ele>1134.49</ele>
        <time>2011-05-29T10:12:18Z</time>
      </trkpt>
      <trkpt lat="43.77683" lon="7.02779">
        <ele>1137.86</ele>
        <time>2011-05-29T10:12:19Z</time>
      </trkpt>
      <trkpt lat="43.77684" lon="7.02778">
        <ele>1137.38</ele>
        <time>2011-05-29T10:12:20Z</time>
      </trkpt>
      <trkpt lat="43.77686" lon="7.02777">
        <ele>1135.94</ele>
        <time>2011-05-29T10:12:22Z</time>
      </trkpt>
      <trkpt lat="43.77696" lon="7.02774">
        <ele>1137.38</ele>
        <time>2011-05-29T10:12:33Z</time>
      </trkpt>
      <trkpt lat="43.77708" lon="7.0277">
        <ele>1136.42</ele>
        <time>2011-05-29T10:12:46Z</time>
      </trkpt>
      <trkpt lat="43.77712" lon="7.0277">
        <ele>1136.9</ele>
        <time>2011-05-29T10:12:50Z</time>
      </trkpt>
      <trkpt lat="43.77718" lon="7.02769">
        <ele>1133.53</ele>
        <time>2011-05-29T10:12:56Z</time>
      </trkpt>
      <trkpt lat="43.77718" lon="7.02769">
        <ele>1134.49</ele>
        <time>2011-05-29T10:12:57Z</time>
      </trkpt>
      <trkpt lat="43.77721" lon="7.02769">
        <ele>1135.94</ele>
        <time>2011-05-29T10:12:59Z</time>
      </trkpt>
      <trkpt lat="43.77723" lon="7.02769">
        <ele>1134.49</ele>
        <time>2011-05-29T10:13:01Z</time>
      </trkpt>
      <trkpt lat="43.77726" lon="7.02768">
        <ele>1134.97</ele>
        <time>2011-05-29T10:13:05Z</time>
      </trkpt>
      <trkpt lat="43.77729" lon="7.02769">
        <ele>1135.94</ele>
        <time>2011-05-29T10:13:09Z</time>
      </trkpt>
      <trkpt lat="43.7774" lon="7.02764">
        <ele>1131.13</ele>
        <time>2011-05-29T10:13:21Z</time>
      </trkpt>
      <trkpt lat="43.77743" lon="7.02764">
        <ele>1132.57</ele>
        <time>2011-05-29T10:13:24Z</time>
      </trkpt>
      <trkpt lat="43.77748" lon="7.02762">
        <ele>1130.65</ele>
        <time>2011-05-29T10:13:29Z</time>
      </trkpt>
      <trkpt lat="43.77753" lon="7.02761">
        <ele>1132.57</ele>
        <time>2011-05-29T10:13:34Z</time>
      </trkpt>
      <trkpt lat="43.77765" lon="7.02758">
        <ele>1129.21</ele>
        <time>2011-05-29T10:13:43Z</time>
      </trkpt>
      <trkpt lat="43.77771" lon="7.02755">
        <ele>1128.24</ele>
        <time>2011-05-29T10:13:49Z</time>
      </trkpt>
      <trkpt lat="43.77776" lon="7.02753">
        <ele>1130.17</ele>
        <time>2011-05-29T10:13:54Z</time>
      </trkpt>
      <trkpt lat="43.77778" lon="7.02753">
        <ele>1128.24</ele>
        <time>2011-05-29T10:13:56Z</time>
      </trkpt>
      <trkpt lat="43.7779" lon="7.02755">
        <ele>1125.36</ele>
        <time>2011-05-29T10:14:10Z</time>
      </trkpt>
      <trkpt lat="43.77791" lon="7.02755">
        <ele>1125.84</ele>
        <time>2011-05-29T10:14:11Z</time>
      </trkpt>
      <trkpt lat="43.77804" lon="7.0276">
        <ele>1123.44</ele>
        <time>2011-05-29T10:14:25Z</time>
      </trkpt>
      <trkpt lat="43.7781" lon="7.02763">
        <ele>1123.44</ele>
        <time>2011-05-29T10:14:30Z</time>
      </trkpt>
      <trkpt lat="43.77814" lon="7.02765">
        <ele>1125.36</ele>
        <time>2011-05-29T10:14:35Z</time>
      </trkpt>
      <trkpt lat="43.77821" lon="7.02767">
        <ele>1124.88</ele>
        <time>2011-05-29T10:14:43Z</time>
      </trkpt>
      <trkpt lat="43.77832" lon="7.02772">
        <ele>1119.59</ele>
        <time>2011-05-29T10:14:55Z</time>
      </trkpt>
      <trkpt lat="43.77832" lon="7.02773">
        <ele>1123.44</ele>
        <time>2011-05-29T10:14:56Z</time>
      </trkpt>
      <trkpt lat="43.77834" lon="7.02774">
        <ele>1119.59</ele>
        <time>2011-05-29T10:14:58Z</time>
      </trkpt>
      <trkpt lat="43.77835" lon="7.02774">
        <ele>1121.03</ele>
        <time>2011-05-29T10:14:59Z</time>
      </trkpt>
      <trkpt lat="43.7784" lon="7.02779">
        <ele>1120.07</ele>
        <time>2011-05-29T10:15:05Z</time>
      </trkpt>
      <trkpt lat="43.77853" lon="7.02788">
        <ele>1118.63</ele>
        <time>2011-05-29T10:15:21Z</time>
      </trkpt>
      <trkpt lat="43.77855" lon="7.02789">
        <ele>1120.55</ele>
        <time>2011-05-29T10:15:23Z</time>
      </trkpt>
      <trkpt lat="43.77857" lon="7.02792">
        <ele>1116.71</ele>
        <time>2011-05-29T10:15:25Z</time>
      </trkpt>
      <trkpt lat="43.77858" lon="7.02792">
        <ele>1120.07</ele>
        <time>2011-05-29T10:15:26Z</time>
      </trkpt>
      <trkpt lat="43.77859" lon="7.02793">
        <ele>1116.71</ele>
        <time>2011-05-29T10:15:27Z</time>
      </trkpt>
      <trkpt lat="43.77868" lon="7.02803">
        <ele>1114.79</ele>
        <time>2011-05-29T10:15:42Z</time>
      </trkpt>
      <trkpt lat="43.77871" lon="7.02806">
        <ele>1114.31</ele>
        <time>2011-05-29T10:15:46Z</time>
      </trkpt>
      <trkpt lat="43.77879" lon="7.0282">
        <ele>1112.86</ele>
        <time>2011-05-29T10:16:01Z</time>
      </trkpt>
      <trkpt lat="43.77886" lon="7.02829">
        <ele>1110.94</ele>
        <time>2011-05-29T10:16:11Z</time>
      </trkpt>
      <trkpt lat="43.77888" lon="7.02832">
        <ele>1109.98</ele>
        <time>2011-05-29T10:16:13Z</time>
      </trkpt>
      <trkpt lat="43.77889" lon="7.02833">
        <ele>1113.82</ele>
        <time>2011-05-29T10:16:14Z</time>
      </trkpt>
      <trkpt lat="43.7789" lon="7.02834">
        <ele>1110.94</ele>
        <time>2011-05-29T10:16:15Z</time>
      </trkpt>
      <trkpt lat="43.77897" lon="7.02843">
        <ele>1110.46</ele>
        <time>2011-05-29T10:16:29Z</time>
      </trkpt>
      <trkpt lat="43.77906" lon="7.02853">
        <ele>1108.54</ele>
        <time>2011-05-29T10:16:35Z</time>
      </trkpt>
      <trkpt lat="43.77914" lon="7.02859">
        <ele>1109.5</ele>
        <time>2011-05-29T10:16:41Z</time>
      </trkpt>
      <trkpt lat="43.7792" lon="7.02866">
        <ele>1110.46</ele>
        <time>2011-05-29T10:16:48Z</time>
      </trkpt>
      <trkpt lat="43.77921" lon="7.02866">
        <ele>1107.1</ele>
        <time>2011-05-29T10:16:49Z</time>
      </trkpt>
      <trkpt lat="43.77926" lon="7.02873">
        <ele>1106.13</ele>
        <time>2011-05-29T10:16:58Z</time>
      </trkpt>
      <trkpt lat="43.77927" lon="7.02874">
        <ele>1108.54</ele>
        <time>2011-05-29T10:17:00Z</time>
      </trkpt>
      <trkpt lat="43.77937" lon="7.02884">
        <ele>1105.65</ele>
        <time>2011-05-29T10:17:13Z</time>
      </trkpt>
      <trkpt lat="43.77943" lon="7.02871">
        <ele>1104.69</ele>
        <time>2011-05-29T10:17:29Z</time>
      </trkpt>
      <trkpt lat="43.77948" lon="7.02862">
        <ele>1101.33</ele>
        <time>2011-05-29T10:17:43Z</time>
      </trkpt>
      <trkpt lat="43.77959" lon="7.02869">
        <ele>1098.44</ele>
        <time>2011-05-29T10:17:59Z</time>
      </trkpt>
      <trkpt lat="43.77966" lon="7.02876">
        <ele>1097.96</ele>
        <time>2011-05-29T10:18:09Z</time>
      </trkpt>
      <trkpt lat="43.77972" lon="7.02882">
        <ele>1095.56</ele>
        <time>2011-05-29T10:18:18Z</time>
      </trkpt>
      <trkpt lat="43.77979" lon="7.0289">
        <ele>1096.52</ele>
        <time>2011-05-29T10:18:35Z</time>
      </trkpt>
      <trkpt lat="43.77984" lon="7.02896">
        <ele>1094.12</ele>
        <time>2011-05-29T10:18:41Z</time>
      </trkpt>
      <trkpt lat="43.77991" lon="7.02904">
        <ele>1092.2</ele>
        <time>2011-05-29T10:18:52Z</time>
      </trkpt>
      <trkpt lat="43.77994" lon="7.02911">
        <ele>1093.16</ele>
        <time>2011-05-29T10:19:00Z</time>
      </trkpt>
      <trkpt lat="43.77995" lon="7.02913">
        <ele>1091.23</ele>
        <time>2011-05-29T10:19:02Z</time>
      </trkpt>
      <trkpt lat="43.78" lon="7.02919">
        <ele>1090.27</ele>
        <time>2011-05-29T10:19:09Z</time>
      </trkpt>
      <trkpt lat="43.78003" lon="7.02924">
        <ele>1089.31</ele>
        <time>2011-05-29T10:19:14Z</time>
      </trkpt>
      <trkpt lat="43.78007" lon="7.02928">
        <ele>1087.87</ele>
        <time>2011-05-29T10:19:18Z</time>
      </trkpt>
      <trkpt lat="43.78008" lon="7.02929">
        <ele>1091.23</ele>
        <time>2011-05-29T10:19:19Z</time>
      </trkpt>
      <trkpt lat="43.78012" lon="7.02933">
        <ele>1088.83</ele>
        <time>2011-05-29T10:19:24Z</time>
      </trkpt>
      <trkpt lat="43.78018" lon="7.02934">
        <ele>1086.43</ele>
        <time>2011-05-29T10:19:30Z</time>
      </trkpt>
      <trkpt lat="43.78019" lon="7.02935">
        <ele>1088.35</ele>
        <time>2011-05-29T10:19:31Z</time>
      </trkpt>
      <trkpt lat="43.78027" lon="7.02935">
        <ele>1087.87</ele>
        <time>2011-05-29T10:19:44Z</time>
      </trkpt>
      <trkpt lat="43.78029" lon="7.02939">
        <ele>1085.47</ele>
        <time>2011-05-29T10:19:48Z</time>
      </trkpt>
      <trkpt lat="43.78031" lon="7.02958">
        <ele>1085.47</ele>
        <time>2011-05-29T10:20:03Z</time>
      </trkpt>
      <trkpt lat="43.78034" lon="7.02963">
        <ele>1085.95</ele>
        <time>2011-05-29T10:20:09Z</time>
      </trkpt>
      <trkpt lat="43.78036" lon="7.02965">
        <ele>1086.43</ele>
        <time>2011-05-29T10:20:11Z</time>
      </trkpt>
      <trkpt lat="43.78039" lon="7.02967">
        <ele>1083.06</ele>
        <time>2011-05-29T10:20:15Z</time>
      </trkpt>
      <trkpt lat="43.78044" lon="7.02972">
        <ele>1084.99</ele>
        <time>2011-05-29T10:20:21Z</time>
      </trkpt>
      <trkpt lat="43.78049" lon="7.02982">
        <ele>1083.54</ele>
        <time>2011-05-29T10:20:36Z</time>
      </trkpt>
      <trkpt lat="43.78051" lon="7.02986">
        <ele>1079.7</ele>
        <time>2011-05-29T10:20:41Z</time>
      </trkpt>
      <trkpt lat="43.78059" lon="7.02997">
        <ele>1079.7</ele>
        <time>2011-05-29T10:20:56Z</time>
      </trkpt>
      <trkpt lat="43.78071" lon="7.03013">
        <ele>1080.18</ele>
        <time>2011-05-29T10:21:11Z</time>
      </trkpt>
      <trkpt lat="43.78075" lon="7.03019">
        <ele>1078.74</ele>
        <time>2011-05-29T10:21:18Z</time>
      </trkpt>
      <trkpt lat="43.78084" lon="7.03031">
        <ele>1077.29</ele>
        <time>2011-05-29T10:21:32Z</time>
      </trkpt>
      <trkpt lat="43.78093" lon="7.03044">
        <ele>1073.45</ele>
        <time>2011-05-29T10:21:47Z</time>
      </trkpt>
      <trkpt lat="43.78099" lon="7.03048">
        <ele>1073.93</ele>
        <time>2011-05-29T10:21:54Z</time>
      </trkpt>
      <trkpt lat="43.78105" lon="7.03055">
        <ele>1072.49</ele>
        <time>2011-05-29T10:22:03Z</time>
      </trkpt>
      <trkpt lat="43.78109" lon="7.03059">
        <ele>1072.01</ele>
        <time>2011-05-29T10:22:08Z</time>
      </trkpt>
      <trkpt lat="43.78114" lon="7.03065">
        <ele>1072.97</ele>
        <time>2011-05-29T10:22:15Z</time>
      </trkpt>
      <trkpt lat="43.78119" lon="7.03067">
        <ele>1072.49</ele>
        <time>2011-05-29T10:22:29Z</time>
      </trkpt>
      <trkpt lat="43.78125" lon="7.03072">
        <ele>1069.12</ele>
        <time>2011-05-29T10:22:38Z</time>
      </trkpt>
      <trkpt lat="43.78135" lon="7.03081">
        <ele>1068.16</ele>
        <time>2011-05-29T10:22:50Z</time>
      </trkpt>
      <trkpt lat="43.78147" lon="7.0309">
        <ele>1066.24</ele>
        <time>2011-05-29T10:23:06Z</time>
      </trkpt>
      <trkpt lat="43.7815" lon="7.03091">
        <ele>1065.76</ele>
        <time>2011-05-29T10:23:14Z</time>
      </trkpt>
      <trkpt lat="43.78163" lon="7.03102">
        <ele>1065.28</ele>
        <time>2011-05-29T10:23:29Z</time>
      </trkpt>
      <trkpt lat="43.78168" lon="7.03105">
        <ele>1062.39</ele>
        <time>2011-05-29T10:23:37Z</time>
      </trkpt>
      <trkpt lat="43.78172" lon="7.03107">
        <ele>1062.87</ele>
        <time>2011-05-29T10:23:41Z</time>
      </trkpt>
      <trkpt lat="43.78183" lon="7.03115">
        <ele>1060.47</ele>
        <time>2011-05-29T10:23:55Z</time>
      </trkpt>
      <trkpt lat="43.78185" lon="7.03118">
        <ele>1061.91</ele>
        <time>2011-05-29T10:23:57Z</time>
      </trkpt>
      <trkpt lat="43.78194" lon="7.0314">
        <ele>1059.99</ele>
        <time>2011-05-29T10:24:14Z</time>
      </trkpt>
      <trkpt lat="43.78196" lon="7.03149">
        <ele>1059.03</ele>
        <time>2011-05-29T10:24:21Z</time>
      </trkpt>
      <trkpt lat="43.78199" lon="7.03157">
        <ele>1057.59</ele>
        <time>2011-05-29T10:24:29Z</time>
      </trkpt>
      <trkpt lat="43.78201" lon="7.03169">
        <ele>1057.59</ele>
        <time>2011-05-29T10:24:41Z</time>
      </trkpt>
      <trkpt lat="43.78202" lon="7.03178">
        <ele>1055.67</ele>
        <time>2011-05-29T10:24:48Z</time>
      </trkpt>
      <trkpt lat="43.78203" lon="7.03179">
        <ele>1056.63</ele>
        <time>2011-05-29T10:24:50Z</time>
      </trkpt>
      <trkpt lat="43.78209" lon="7.03188">
        <ele>1054.7</ele>
        <time>2011-05-29T10:25:00Z</time>
      </trkpt>
      <trkpt lat="43.78221" lon="7.03203">
        <ele>1053.74</ele>
        <time>2011-05-29T10:25:15Z</time>
      </trkpt>
      <trkpt lat="43.7823" lon="7.03209">
        <ele>1052.78</ele>
        <time>2011-05-29T10:25:28Z</time>
      </trkpt>
      <trkpt lat="43.78235" lon="7.03212">
        <ele>1052.3</ele>
        <time>2011-05-29T10:25:33Z</time>
      </trkpt>
      <trkpt lat="43.7824" lon="7.03215">
        <ele>1051.82</ele>
        <time>2011-05-29T10:25:40Z</time>
      </trkpt>
      <trkpt lat="43.78246" lon="7.03217">
        <ele>1051.34</ele>
        <time>2011-05-29T10:25:47Z</time>
      </trkpt>
      <trkpt lat="43.78251" lon="7.03219">
        <ele>1052.3</ele>
        <time>2011-05-29T10:25:52Z</time>
      </trkpt>
      <trkpt lat="43.78255" lon="7.03221">
        <ele>1051.82</ele>
        <time>2011-05-29T10:25:56Z</time>
      </trkpt>
      <trkpt lat="43.78259" lon="7.03223">
        <ele>1050.86</ele>
        <time>2011-05-29T10:26:01Z</time>
      </trkpt>
      <trkpt lat="43.78271" lon="7.03229">
        <ele>1048.94</ele>
        <time>2011-05-29T10:26:16Z</time>
      </trkpt>
      <trkpt lat="43.78283" lon="7.03239">
        <ele>1047.49</ele>
        <time>2011-05-29T10:26:33Z</time>
      </trkpt>
      <trkpt lat="43.78284" lon="7.0324">
        <ele>1048.45</ele>
        <time>2011-05-29T10:26:35Z</time>
      </trkpt>
      <trkpt lat="43.78288" lon="7.03255">
        <ele>1045.57</ele>
        <time>2011-05-29T10:26:52Z</time>
      </trkpt>
      <trkpt lat="43.78289" lon="7.03257">
        <ele>1044.61</ele>
        <time>2011-05-29T10:26:54Z</time>
      </trkpt>
      <trkpt lat="43.7829" lon="7.03261">
        <ele>1044.61</ele>
        <time>2011-05-29T10:26:57Z</time>
      </trkpt>
      <trkpt lat="43.78297" lon="7.03271">
        <ele>1043.17</ele>
        <time>2011-05-29T10:27:09Z</time>
      </trkpt>
      <trkpt lat="43.78303" lon="7.0328">
        <ele>1042.21</ele>
        <time>2011-05-29T10:27:22Z</time>
      </trkpt>
      <trkpt lat="43.78308" lon="7.03288">
        <ele>1040.76</ele>
        <time>2011-05-29T10:27:34Z</time>
      </trkpt>
      <trkpt lat="43.78315" lon="7.03301">
        <ele>1039.32</ele>
        <time>2011-05-29T10:27:50Z</time>
      </trkpt>
      <trkpt lat="43.78316" lon="7.03307">
        <ele>1037.88</ele>
        <time>2011-05-29T10:27:55Z</time>
      </trkpt>
      <trkpt lat="43.78317" lon="7.03313">
        <ele>1037.88</ele>
        <time>2011-05-29T10:28:01Z</time>
      </trkpt>
      <trkpt lat="43.78318" lon="7.03318">
        <ele>1037.4</ele>
        <time>2011-05-29T10:28:06Z</time>
      </trkpt>
      <trkpt lat="43.7832" lon="7.03322">
        <ele>1037.4</ele>
        <time>2011-05-29T10:28:09Z</time>
      </trkpt>
      <trkpt lat="43.7832" lon="7.03324">
        <ele>1035.96</ele>
        <time>2011-05-29T10:28:11Z</time>
      </trkpt>
      <trkpt lat="43.78324" lon="7.0333">
        <ele>1036.92</ele>
        <time>2011-05-29T10:28:17Z</time>
      </trkpt>
      <trkpt lat="43.78325" lon="7.03333">
        <ele>1034.52</ele>
        <time>2011-05-29T10:28:20Z</time>
      </trkpt>
      <trkpt lat="43.7833" lon="7.03343">
        <ele>1033.55</ele>
        <time>2011-05-29T10:28:34Z</time>
      </trkpt>
      <trkpt lat="43.78337" lon="7.03358">
        <ele>1032.59</ele>
        <time>2011-05-29T10:28:51Z</time>
      </trkpt>
      <trkpt lat="43.78343" lon="7.03372">
        <ele>1031.63</ele>
        <time>2011-05-29T10:29:05Z</time>
      </trkpt>
      <trkpt lat="43.78351" lon="7.03378">
        <ele>1030.19</ele>
        <time>2011-05-29T10:29:19Z</time>
      </trkpt>
      <trkpt lat="43.78366" lon="7.03396">
        <ele>1027.79</ele>
        <time>2011-05-29T10:29:35Z</time>
      </trkpt>
      <trkpt lat="43.78381" lon="7.03406">
        <ele>1025.86</ele>
        <time>2011-05-29T10:29:53Z</time>
      </trkpt>
      <trkpt lat="43.78394" lon="7.03412">
        <ele>1024.9</ele>
        <time>2011-05-29T10:30:07Z</time>
      </trkpt>
      <trkpt lat="43.78408" lon="7.03423">
        <ele>1023.46</ele>
        <time>2011-05-29T10:30:23Z</time>
      </trkpt>
      <trkpt lat="43.78419" lon="7.03428">
        <ele>1020.58</ele>
        <time>2011-05-29T10:30:39Z</time>
      </trkpt>
      <trkpt lat="43.78429" lon="7.03431">
        <ele>1019.13</ele>
        <time>2011-05-29T10:30:52Z</time>
      </trkpt>
      <trkpt lat="43.78432" lon="7.03433">
        <ele>1018.65</ele>
        <time>2011-05-29T10:30:55Z</time>
      </trkpt>
      <trkpt lat="43.78447" lon="7.03441">
        <ele>1015.77</ele>
        <time>2011-05-29T10:31:09Z</time>
      </trkpt>
      <trkpt lat="43.78458" lon="7.03446">
        <ele>1014.33</ele>
        <time>2011-05-29T10:31:24Z</time>
      </trkpt>
      <trkpt lat="43.78471" lon="7.03447">
        <ele>1011.93</ele>
        <time>2011-05-29T10:31:39Z</time>
      </trkpt>
      <trkpt lat="43.78482" lon="7.03446">
        <ele>1010</ele>
        <time>2011-05-29T10:31:54Z</time>
      </trkpt>
      <trkpt lat="43.78494" lon="7.03443">
        <ele>1008.56</ele>
        <time>2011-05-29T10:32:08Z</time>
      </trkpt>
      <trkpt lat="43.78494" lon="7.03443">
        <ele>1008.08</ele>
        <time>2011-05-29T10:32:09Z</time>
      </trkpt>
      <trkpt lat="43.78502" lon="7.03443">
        <ele>1007.12</ele>
        <time>2011-05-29T10:32:21Z</time>
      </trkpt>
      <trkpt lat="43.78505" lon="7.03441">
        <ele>1006.64</ele>
        <time>2011-05-29T10:32:25Z</time>
      </trkpt>
      <trkpt lat="43.78513" lon="7.03444">
        <ele>1005.68</ele>
        <time>2011-05-29T10:32:32Z</time>
      </trkpt>
      <trkpt lat="43.78519" lon="7.03448">
        <ele>1005.2</ele>
        <time>2011-05-29T10:32:38Z</time>
      </trkpt>
      <trkpt lat="43.78529" lon="7.03449">
        <ele>1004.72</ele>
        <time>2011-05-29T10:32:46Z</time>
      </trkpt>
      <trkpt lat="43.78545" lon="7.03448">
        <ele>1001.83</ele>
        <time>2011-05-29T10:33:04Z</time>
      </trkpt>
      <trkpt lat="43.78555" lon="7.03449">
        <ele>999.91</ele>
        <time>2011-05-29T10:33:17Z</time>
      </trkpt>
      <trkpt lat="43.78562" lon="7.03449">
        <ele>996.06</ele>
        <time>2011-05-29T10:33:26Z</time>
      </trkpt>
      <trkpt lat="43.78563" lon="7.03449">
        <ele>1000.39</ele>
        <time>2011-05-29T10:33:27Z</time>
      </trkpt>
      <trkpt lat="43.78566" lon="7.03449">
        <ele>996.54</ele>
        <time>2011-05-29T10:33:32Z</time>
      </trkpt>
      <trkpt lat="43.78578" lon="7.03448">
        <ele>997.51</ele>
        <time>2011-05-29T10:33:47Z</time>
      </trkpt>
      <trkpt lat="43.78579" lon="7.03448">
        <ele>997.51</ele>
        <time>2011-05-29T10:33:48Z</time>
      </trkpt>
      <trkpt lat="43.78586" lon="7.03447">
        <ele>992.7</ele>
        <time>2011-05-29T10:33:53Z</time>
      </trkpt>
      <trkpt lat="43.78587" lon="7.03447">
        <ele>998.47</ele>
        <time>2011-05-29T10:33:54Z</time>
      </trkpt>
      <trkpt lat="43.78588" lon="7.03446">
        <ele>997.02</ele>
        <time>2011-05-29T10:33:55Z</time>
      </trkpt>
      <trkpt lat="43.78597" lon="7.03434">
        <ele>994.62</ele>
        <time>2011-05-29T10:34:09Z</time>
      </trkpt>
      <trkpt lat="43.78604" lon="7.03425">
        <ele>995.1</ele>
        <time>2011-05-29T10:34:19Z</time>
      </trkpt>
      <trkpt lat="43.78608" lon="7.03417">
        <ele>994.62</ele>
        <time>2011-05-29T10:34:27Z</time>
      </trkpt>
      <trkpt lat="43.78611" lon="7.03413">
        <ele>993.18</ele>
        <time>2011-05-29T10:34:31Z</time>
      </trkpt>
      <trkpt lat="43.78624" lon="7.034">
        <ele>992.7</ele>
        <time>2011-05-29T10:34:49Z</time>
      </trkpt>
      <trkpt lat="43.78634" lon="7.03393">
        <ele>991.74</ele>
        <time>2011-05-29T10:35:03Z</time>
      </trkpt>
      <trkpt lat="43.78635" lon="7.03393">
        <ele>991.26</ele>
        <time>2011-05-29T10:35:04Z</time>
      </trkpt>
      <trkpt lat="43.78639" lon="7.0339">
        <ele>991.74</ele>
        <time>2011-05-29T10:35:19Z</time>
      </trkpt>
      <trkpt lat="43.78639" lon="7.0339">
        <ele>991.26</ele>
        <time>2011-05-29T10:35:37Z</time>
      </trkpt>
      <trkpt lat="43.78639" lon="7.0339">
        <ele>990.78</ele>
        <time>2011-05-29T10:35:59Z</time>
      </trkpt>
      <trkpt lat="43.78639" lon="7.0339">
        <ele>991.74</ele>
        <time>2011-05-29T10:36:18Z</time>
      </trkpt>
      <trkpt lat="43.78639" lon="7.0339">
        <ele>990.3</ele>
        <time>2011-05-29T10:36:42Z</time>
      </trkpt>
      <trkpt lat="43.78639" lon="7.03389">
        <ele>991.74</ele>
        <time>2011-05-29T10:36:58Z</time>
      </trkpt>
      <trkpt lat="43.78639" lon="7.03389">
        <ele>990.3</ele>
        <time>2011-05-29T10:37:18Z</time>
      </trkpt>
      <trkpt lat="43.78637" lon="7.03389">
        <ele>991.26</ele>
        <time>2011-05-29T10:37:22Z</time>
      </trkpt>
      <trkpt lat="43.78629" lon="7.03396">
        <ele>991.26</ele>
        <time>2011-05-29T10:37:29Z</time>
      </trkpt>
      <trkpt lat="43.78615" lon="7.03405">
        <ele>992.22</ele>
        <time>2011-05-29T10:37:42Z</time>
      </trkpt>
      <trkpt lat="43.78606" lon="7.03416">
        <ele>992.7</ele>
        <time>2011-05-29T10:37:56Z</time>
      </trkpt>
      <trkpt lat="43.78596" lon="7.0343">
        <ele>994.14</ele>
        <time>2011-05-29T10:38:09Z</time>
      </trkpt>
      <trkpt lat="43.78578" lon="7.03429">
        <ele>994.14</ele>
        <time>2011-05-29T10:38:25Z</time>
      </trkpt>
      <trkpt lat="43.78574" lon="7.03429">
        <ele>994.14</ele>
        <time>2011-05-29T10:38:28Z</time>
      </trkpt>
      <trkpt lat="43.7856" lon="7.03431">
        <ele>995.1</ele>
        <time>2011-05-29T10:38:42Z</time>
      </trkpt>
      <trkpt lat="43.78557" lon="7.03435">
        <ele>994.62</ele>
        <time>2011-05-29T10:39:00Z</time>
      </trkpt>
      <trkpt lat="43.78557" lon="7.03435">
        <ele>1004.72</ele>
        <time>2011-05-29T10:39:11Z</time>
      </trkpt>
      <trkpt lat="43.78557" lon="7.03435">
        <ele>995.58</ele>
        <time>2011-05-29T10:39:12Z</time>
      </trkpt>
      <trkpt lat="43.78557" lon="7.03435">
        <ele>995.1</ele>
        <time>2011-05-29T10:39:34Z</time>
      </trkpt>
      <trkpt lat="43.78557" lon="7.03435">
        <ele>994.14</ele>
        <time>2011-05-29T10:39:58Z</time>
      </trkpt>
      <trkpt lat="43.78557" lon="7.03435">
        <ele>994.14</ele>
        <time>2011-05-29T10:40:26Z</time>
      </trkpt>
      <trkpt lat="43.78558" lon="7.03435">
        <ele>994.62</ele>
        <time>2011-05-29T10:40:55Z</time>
      </trkpt>
      <trkpt lat="43.78558" lon="7.03435">
        <ele>994.14</ele>
        <time>2011-05-29T10:41:32Z</time>
      </trkpt>
      <trkpt lat="43.78558" lon="7.03435">
        <ele>994.14</ele>
        <time>2011-05-29T10:42:07Z</time>
      </trkpt>
      <trkpt lat="43.78558" lon="7.03436">
        <ele>994.14</ele>
        <time>2011-05-29T10:42:43Z</time>
      </trkpt>
      <trkpt lat="43.78558" lon="7.03437">
        <ele>994.14</ele>
        <time>2011-05-29T10:43:14Z</time>
      </trkpt>
      <trkpt lat="43.78558" lon="7.03437">
        <ele>994.62</ele>
        <time>2011-05-29T10:43:48Z</time>
      </trkpt>
      <trkpt lat="43.78558" lon="7.03436">
        <ele>993.66</ele>
        <time>2011-05-29T10:44:25Z</time>
      </trkpt>
      <trkpt lat="43.78558" lon="7.03436">
        <ele>993.66</ele>
        <time>2011-05-29T10:44:54Z</time>
      </trkpt>
      <trkpt lat="43.78558" lon="7.03436">
        <ele>993.66</ele>
        <time>2011-05-29T10:45:31Z</time>
      </trkpt>
      <trkpt lat="43.78558" lon="7.03436">
        <ele>994.14</ele>
        <time>2011-05-29T10:45:50Z</time>
      </trkpt>
      <trkpt lat="43.78558" lon="7.03436">
        <ele>994.62</ele>
        <time>2011-05-29T10:46:20Z</time>
      </trkpt>
      <trkpt lat="43.78558" lon="7.03436">
        <ele>994.14</ele>
        <time>2011-05-29T10:46:28Z</time>
      </trkpt>
      <trkpt lat="43.78558" lon="7.03436">
        <ele>992.7</ele>
        <time>2011-05-29T10:46:55Z</time>
      </trkpt>
      <trkpt lat="43.78558" lon="7.03436">
        <ele>993.66</ele>
        <time>2011-05-29T10:47:25Z</time>
      </trkpt>
      <trkpt lat="43.78558" lon="7.03436">
        <ele>991.74</ele>
        <time>2011-05-29T10:47:36Z</time>
      </trkpt>
      <trkpt lat="43.78558" lon="7.03436">
        <ele>992.7</ele>
        <time>2011-05-29T10:48:09Z</time>
      </trkpt>
      <trkpt lat="43.78558" lon="7.03436">
        <ele>992.22</ele>
        <time>2011-05-29T10:48:33Z</time>
      </trkpt>
      <trkpt lat="43.78558" lon="7.03436">
        <ele>993.18</ele>
        <time>2011-05-29T10:49:03Z</time>
      </trkpt>
      <trkpt lat="43.78558" lon="7.03436">
        <ele>993.18</ele>
        <time>2011-05-29T10:49:25Z</time>
      </trkpt>
      <trkpt lat="43.78558" lon="7.03436">
        <ele>992.7</ele>
        <time>2011-05-29T10:49:33Z</time>
      </trkpt>
      <trkpt lat="43.78558" lon="7.03436">
        <ele>991.74</ele>
        <time>2011-05-29T10:49:59Z</time>
      </trkpt>
      <trkpt lat="43.78558" lon="7.03436">
        <ele>991.74</ele>
        <time>2011-05-29T10:50:27Z</time>
      </trkpt>
      <trkpt lat="43.78558" lon="7.03436">
        <ele>992.22</ele>
        <time>2011-05-29T10:50:58Z</time>
      </trkpt>
      <trkpt lat="43.78558" lon="7.03436">
        <ele>991.26</ele>
        <time>2011-05-29T10:51:28Z</time>
      </trkpt>
      <trkpt lat="43.78558" lon="7.03436">
        <ele>991.74</ele>
        <time>2011-05-29T10:51:56Z</time>
      </trkpt>
      <trkpt lat="43.78559" lon="7.03434">
        <ele>991.26</ele>
        <time>2011-05-29T10:52:17Z</time>
      </trkpt>
      <trkpt lat="43.78558" lon="7.03435">
        <ele>991.74</ele>
        <time>2011-05-29T10:52:43Z</time>
      </trkpt>
      <trkpt lat="43.78558" lon="7.03435">
        <ele>991.74</ele>
        <time>2011-05-29T10:53:08Z</time>
      </trkpt>
      <trkpt lat="43.78558" lon="7.03436">
        <ele>991.74</ele>
        <time>2011-05-29T10:53:36Z</time>
      </trkpt>
      <trkpt lat="43.78557" lon="7.03436">
        <ele>991.26</ele>
        <time>2011-05-29T10:54:08Z</time>
      </trkpt>
      <trkpt lat="43.78557" lon="7.03436">
        <ele>991.74</ele>
        <time>2011-05-29T10:54:39Z</time>
      </trkpt>
      <trkpt lat="43.78557" lon="7.03435">
        <ele>991.26</ele>
        <time>2011-05-29T10:55:11Z</time>
      </trkpt>
      <trkpt lat="43.78557" lon="7.03436">
        <ele>991.26</ele>
        <time>2011-05-29T10:55:40Z</time>
      </trkpt>
      <trkpt lat="43.78557" lon="7.03435">
        <ele>991.26</ele>
        <time>2011-05-29T10:56:16Z</time>
      </trkpt>
      <trkpt lat="43.78558" lon="7.03436">
        <ele>991.74</ele>
        <time>2011-05-29T10:56:50Z</time>
      </trkpt>
      <trkpt lat="43.78558" lon="7.03435">
        <ele>991.26</ele>
        <time>2011-05-29T10:57:26Z</time>
      </trkpt>
      <trkpt lat="43.78558" lon="7.03435">
        <ele>991.74</ele>
        <time>2011-05-29T10:57:55Z</time>
      </trkpt>
      <trkpt lat="43.78558" lon="7.03435">
        <ele>991.74</ele>
        <time>2011-05-29T10:58:37Z</time>
      </trkpt>
      <trkpt lat="43.78558" lon="7.03435">
        <ele>991.26</ele>
        <time>2011-05-29T10:59:16Z</time>
      </trkpt>
      <trkpt lat="43.78558" lon="7.03434">
        <ele>991.26</ele>
        <time>2011-05-29T10:59:52Z</time>
      </trkpt>
      <trkpt lat="43.78559" lon="7.03434">
        <ele>991.26</ele>
        <time>2011-05-29T11:00:26Z</time>
      </trkpt>
      <trkpt lat="43.78559" lon="7.03435">
        <ele>990.78</ele>
        <time>2011-05-29T11:00:57Z</time>
      </trkpt>
      <trkpt lat="43.78559" lon="7.03434">
        <ele>990.78</ele>
        <time>2011-05-29T11:01:33Z</time>
      </trkpt>
      <trkpt lat="43.78559" lon="7.03435">
        <ele>990.3</ele>
        <time>2011-05-29T11:02:08Z</time>
      </trkpt>
      <trkpt lat="43.78559" lon="7.03435">
        <ele>990.78</ele>
        <time>2011-05-29T11:02:41Z</time>
      </trkpt>
      <trkpt lat="43.78558" lon="7.03435">
        <ele>990.3</ele>
        <time>2011-05-29T11:03:15Z</time>
      </trkpt>
      <trkpt lat="43.78558" lon="7.03435">
        <ele>991.74</ele>
        <time>2011-05-29T11:03:47Z</time>
      </trkpt>
      <trkpt lat="43.78559" lon="7.03435">
        <ele>990.3</ele>
        <time>2011-05-29T11:04:10Z</time>
      </trkpt>
      <trkpt lat="43.78559" lon="7.03435">
        <ele>990.78</ele>
        <time>2011-05-29T11:04:46Z</time>
      </trkpt>
      <trkpt lat="43.78559" lon="7.03435">
        <ele>990.78</ele>
        <time>2011-05-29T11:05:18Z</time>
      </trkpt>
      <trkpt lat="43.78559" lon="7.03435">
        <ele>990.3</ele>
        <time>2011-05-29T11:05:48Z</time>
      </trkpt>
      <trkpt lat="43.78559" lon="7.03435">
        <ele>991.26</ele>
        <time>2011-05-29T11:06:18Z</time>
      </trkpt>
      <trkpt lat="43.78559" lon="7.03435">
        <ele>990.78</ele>
        <time>2011-05-29T11:06:48Z</time>
      </trkpt>
      <trkpt lat="43.78559" lon="7.03435">
        <ele>989.81</ele>
        <time>2011-05-29T11:07:21Z</time>
      </trkpt>
      <trkpt lat="43.78559" lon="7.03435">
        <ele>990.3</ele>
        <time>2011-05-29T11:07:59Z</time>
      </trkpt>
      <trkpt lat="43.78559" lon="7.03435">
        <ele>990.78</ele>
        <time>2011-05-29T11:08:34Z</time>
      </trkpt>
      <trkpt lat="43.78559" lon="7.03436">
        <ele>990.3</ele>
        <time>2011-05-29T11:09:14Z</time>
      </trkpt>
      <trkpt lat="43.78559" lon="7.03436">
        <ele>990.3</ele>
        <time>2011-05-29T11:09:52Z</time>
      </trkpt>
      <trkpt lat="43.78558" lon="7.03436">
        <ele>990.3</ele>
        <time>2011-05-29T11:10:14Z</time>
      </trkpt>
      <trkpt lat="43.78558" lon="7.03436">
        <ele>989.81</ele>
        <time>2011-05-29T11:10:47Z</time>
      </trkpt>
      <trkpt lat="43.78558" lon="7.03436">
        <ele>990.3</ele>
        <time>2011-05-29T11:11:24Z</time>
      </trkpt>
      <trkpt lat="43.78558" lon="7.03436">
        <ele>990.3</ele>
        <time>2011-05-29T11:11:56Z</time>
      </trkpt>
      <trkpt lat="43.78558" lon="7.03436">
        <ele>989.81</ele>
        <time>2011-05-29T11:12:25Z</time>
      </trkpt>
      <trkpt lat="43.78558" lon="7.03436">
        <ele>989.33</ele>
        <time>2011-05-29T11:12:53Z</time>
      </trkpt>
      <trkpt lat="43.78559" lon="7.03436">
        <ele>989.33</ele>
        <time>2011-05-29T11:13:27Z</time>
      </trkpt>
      <trkpt lat="43.78559" lon="7.03436">
        <ele>989.33</ele>
        <time>2011-05-29T11:14:03Z</time>
      </trkpt>
      <trkpt lat="43.78559" lon="7.03436">
        <ele>989.33</ele>
        <time>2011-05-29T11:14:38Z</time>
      </trkpt>
      <trkpt lat="43.78559" lon="7.03436">
        <ele>988.85</ele>
        <time>2011-05-29T11:15:13Z</time>
      </trkpt>
      <trkpt lat="43.78559" lon="7.03436">
        <ele>988.85</ele>
        <time>2011-05-29T11:15:47Z</time>
      </trkpt>
      <trkpt lat="43.78559" lon="7.03436">
        <ele>989.33</ele>
        <time>2011-05-29T11:16:23Z</time>
      </trkpt>
      <trkpt lat="43.78559" lon="7.03436">
        <ele>988.85</ele>
        <time>2011-05-29T11:16:51Z</time>
      </trkpt>
      <trkpt lat="43.78558" lon="7.03435">
        <ele>989.33</ele>
        <time>2011-05-29T11:17:26Z</time>
      </trkpt>
      <trkpt lat="43.78558" lon="7.03435">
        <ele>989.33</ele>
        <time>2011-05-29T11:17:46Z</time>
      </trkpt>
      <trkpt lat="43.78558" lon="7.03435">
        <ele>989.33</ele>
        <time>2011-05-29T11:18:12Z</time>
      </trkpt>
      <trkpt lat="43.78558" lon="7.03435">
        <ele>989.33</ele>
        <time>2011-05-29T11:18:44Z</time>
      </trkpt>
      <trkpt lat="43.78558" lon="7.03435">
        <ele>989.33</ele>
        <time>2011-05-29T11:19:09Z</time>
      </trkpt>
      <trkpt lat="43.78558" lon="7.03435">
        <ele>988.85</ele>
        <time>2011-05-29T11:19:39Z</time>
      </trkpt>
      <trkpt lat="43.78558" lon="7.03436">
        <ele>988.85</ele>
        <time>2011-05-29T11:20:14Z</time>
      </trkpt>
      <trkpt lat="43.78558" lon="7.03435">
        <ele>988.85</ele>
        <time>2011-05-29T11:20:43Z</time>
      </trkpt>
      <trkpt lat="43.78558" lon="7.03435">
        <ele>988.37</ele>
        <time>2011-05-29T11:21:16Z</time>
      </trkpt>
      <trkpt lat="43.78558" lon="7.03435">
        <ele>988.37</ele>
        <time>2011-05-29T11:21:50Z</time>
      </trkpt>
      <trkpt lat="43.78558" lon="7.03435">
        <ele>988.37</ele>
        <time>2011-05-29T11:22:21Z</time>
      </trkpt>
      <trkpt lat="43.78558" lon="7.03435">
        <ele>988.37</ele>
        <time>2011-05-29T11:22:51Z</time>
      </trkpt>
      <trkpt lat="43.78558" lon="7.03435">
        <ele>988.85</ele>
        <time>2011-05-29T11:23:21Z</time>
      </trkpt>
      <trkpt lat="43.78558" lon="7.03435">
        <ele>988.85</ele>
        <time>2011-05-29T11:23:47Z</time>
      </trkpt>
      <trkpt lat="43.78558" lon="7.03435">
        <ele>987.41</ele>
        <time>2011-05-29T11:24:17Z</time>
      </trkpt>
      <trkpt lat="43.78558" lon="7.03436">
        <ele>987.89</ele>
        <time>2011-05-29T11:24:49Z</time>
      </trkpt>
      <trkpt lat="43.78558" lon="7.03436">
        <ele>988.37</ele>
        <time>2011-05-29T11:25:17Z</time>
      </trkpt>
      <trkpt lat="43.78558" lon="7.03435">
        <ele>987.89</ele>
        <time>2011-05-29T11:25:44Z</time>
      </trkpt>
      <trkpt lat="43.78558" lon="7.03435">
        <ele>988.37</ele>
        <time>2011-05-29T11:26:21Z</time>
      </trkpt>
      <trkpt lat="43.78558" lon="7.03435">
        <ele>988.85</ele>
        <time>2011-05-29T11:26:47Z</time>
      </trkpt>
      <trkpt lat="43.78558" lon="7.03435">
        <ele>989.33</ele>
        <time>2011-05-29T11:27:13Z</time>
      </trkpt>
      <trkpt lat="43.78558" lon="7.03435">
        <ele>988.37</ele>
        <time>2011-05-29T11:27:44Z</time>
      </trkpt>
      <trkpt lat="43.78558" lon="7.03435">
        <ele>988.85</ele>
        <time>2011-05-29T11:28:18Z</time>
      </trkpt>
      <trkpt lat="43.78558" lon="7.03435">
        <ele>987.89</ele>
        <time>2011-05-29T11:28:49Z</time>
      </trkpt>
      <trkpt lat="43.78558" lon="7.03435">
        <ele>988.85</ele>
        <time>2011-05-29T11:29:26Z</time>
      </trkpt>
      <trkpt lat="43.78558" lon="7.03434">
        <ele>979.72</ele>
        <time>2011-05-29T11:29:35Z</time>
      </trkpt>
      <trkpt lat="43.78558" lon="7.03434">
        <ele>994.62</ele>
        <time>2011-05-29T11:29:36Z</time>
      </trkpt>
      <trkpt lat="43.78558" lon="7.03434">
        <ele>989.81</ele>
        <time>2011-05-29T11:29:37Z</time>
      </trkpt>
      <trkpt lat="43.78558" lon="7.03434">
        <ele>988.37</ele>
        <time>2011-05-29T11:29:39Z</time>
      </trkpt>
      <trkpt lat="43.78558" lon="7.03435">
        <ele>988.85</ele>
        <time>2011-05-29T11:30:10Z</time>
      </trkpt>
      <trkpt lat="43.78558" lon="7.03435">
        <ele>988.85</ele>
        <time>2011-05-29T11:30:45Z</time>
      </trkpt>
      <trkpt lat="43.78558" lon="7.03435">
        <ele>988.37</ele>
        <time>2011-05-29T11:31:20Z</time>
      </trkpt>
      <trkpt lat="43.78558" lon="7.03435">
        <ele>988.37</ele>
        <time>2011-05-29T11:31:58Z</time>
      </trkpt>
      <trkpt lat="43.78558" lon="7.03436">
        <ele>987.89</ele>
        <time>2011-05-29T11:32:35Z</time>
      </trkpt>
      <trkpt lat="43.78558" lon="7.03437">
        <ele>987.89</ele>
        <time>2011-05-29T11:33:09Z</time>
      </trkpt>
      <trkpt lat="43.78558" lon="7.03437">
        <ele>988.37</ele>
        <time>2011-05-29T11:33:43Z</time>
      </trkpt>
      <trkpt lat="43.78558" lon="7.03437">
        <ele>987.89</ele>
        <time>2011-05-29T11:34:17Z</time>
      </trkpt>
      <trkpt lat="43.78558" lon="7.03437">
        <ele>987.89</ele>
        <time>2011-05-29T11:34:47Z</time>
      </trkpt>
      <trkpt lat="43.78559" lon="7.03437">
        <ele>988.85</ele>
        <time>2011-05-29T11:35:12Z</time>
      </trkpt>
      <trkpt lat="43.78558" lon="7.03437">
        <ele>988.37</ele>
        <time>2011-05-29T11:35:46Z</time>
      </trkpt>
      <trkpt lat="43.78559" lon="7.03437">
        <ele>987.89</ele>
        <time>2011-05-29T11:36:16Z</time>
      </trkpt>
      <trkpt lat="43.78559" lon="7.03437">
        <ele>987.89</ele>
        <time>2011-05-29T11:36:48Z</time>
      </trkpt>
      <trkpt lat="43.78559" lon="7.03437">
        <ele>987.89</ele>
        <time>2011-05-29T11:37:27Z</time>
      </trkpt>
      <trkpt lat="43.78559" lon="7.03437">
        <ele>987.89</ele>
        <time>2011-05-29T11:38:06Z</time>
      </trkpt>
      <trkpt lat="43.78559" lon="7.03437">
        <ele>987.89</ele>
        <time>2011-05-29T11:38:44Z</time>
      </trkpt>
      <trkpt lat="43.7856" lon="7.03437">
        <ele>988.37</ele>
        <time>2011-05-29T11:39:05Z</time>
      </trkpt>
      <trkpt lat="43.7856" lon="7.03437">
        <ele>988.37</ele>
        <time>2011-05-29T11:39:38Z</time>
      </trkpt>
      <trkpt lat="43.7856" lon="7.03437">
        <ele>988.85</ele>
        <time>2011-05-29T11:40:17Z</time>
      </trkpt>
      <trkpt lat="43.7856" lon="7.03436">
        <ele>988.37</ele>
        <time>2011-05-29T11:40:54Z</time>
      </trkpt>
      <trkpt lat="43.7856" lon="7.03436">
        <ele>988.85</ele>
        <time>2011-05-29T11:41:25Z</time>
      </trkpt>
      <trkpt lat="43.7856" lon="7.03436">
        <ele>988.37</ele>
        <time>2011-05-29T11:42:01Z</time>
      </trkpt>
      <trkpt lat="43.7856" lon="7.03436">
        <ele>988.85</ele>
        <time>2011-05-29T11:42:31Z</time>
      </trkpt>
      <trkpt lat="43.7856" lon="7.03435">
        <ele>988.37</ele>
        <time>2011-05-29T11:43:02Z</time>
      </trkpt>
      <trkpt lat="43.7856" lon="7.03435">
        <ele>988.85</ele>
        <time>2011-05-29T11:43:33Z</time>
      </trkpt>
      <trkpt lat="43.7856" lon="7.03435">
        <ele>988.85</ele>
        <time>2011-05-29T11:44:04Z</time>
      </trkpt>
      <trkpt lat="43.7856" lon="7.03436">
        <ele>989.33</ele>
        <time>2011-05-29T11:44:40Z</time>
      </trkpt>
      <trkpt lat="43.7856" lon="7.03435">
        <ele>989.33</ele>
        <time>2011-05-29T11:45:09Z</time>
      </trkpt>
      <trkpt lat="43.7856" lon="7.03436">
        <ele>990.3</ele>
        <time>2011-05-29T11:45:37Z</time>
      </trkpt>
      <trkpt lat="43.7856" lon="7.03436">
        <ele>989.81</ele>
        <time>2011-05-29T11:45:57Z</time>
      </trkpt>
      <trkpt lat="43.7856" lon="7.03436">
        <ele>989.81</ele>
        <time>2011-05-29T11:46:28Z</time>
      </trkpt>
      <trkpt lat="43.7856" lon="7.03436">
        <ele>989.33</ele>
        <time>2011-05-29T11:47:03Z</time>
      </trkpt>
      <trkpt lat="43.7856" lon="7.03436">
        <ele>990.3</ele>
        <time>2011-05-29T11:47:29Z</time>
      </trkpt>
      <trkpt lat="43.7856" lon="7.03436">
        <ele>990.3</ele>
        <time>2011-05-29T11:47:53Z</time>
      </trkpt>
      <trkpt lat="43.78561" lon="7.03436">
        <ele>990.3</ele>
        <time>2011-05-29T11:48:18Z</time>
      </trkpt>
      <trkpt lat="43.78561" lon="7.03436">
        <ele>990.78</ele>
        <time>2011-05-29T11:48:40Z</time>
      </trkpt>
      <trkpt lat="43.7856" lon="7.03435">
        <ele>990.3</ele>
        <time>2011-05-29T11:48:57Z</time>
      </trkpt>
      <trkpt lat="43.7856" lon="7.03435">
        <ele>990.3</ele>
        <time>2011-05-29T11:49:26Z</time>
      </trkpt>
      <trkpt lat="43.7856" lon="7.03435">
        <ele>990.78</ele>
        <time>2011-05-29T11:49:50Z</time>
      </trkpt>
      <trkpt lat="43.7856" lon="7.03435">
        <ele>989.81</ele>
        <time>2011-05-29T11:50:10Z</time>
      </trkpt>
      <trkpt lat="43.7856" lon="7.03435">
        <ele>989.81</ele>
        <time>2011-05-29T11:50:35Z</time>
      </trkpt>
      <trkpt lat="43.7856" lon="7.03435">
        <ele>990.3</ele>
        <time>2011-05-29T11:50:57Z</time>
      </trkpt>
      <trkpt lat="43.7856" lon="7.03435">
        <ele>985.49</ele>
        <time>2011-05-29T11:51:26Z</time>
      </trkpt>
      <trkpt lat="43.7856" lon="7.03435">
        <ele>990.78</ele>
        <time>2011-05-29T11:51:27Z</time>
      </trkpt>
      <trkpt lat="43.7856" lon="7.03437">
        <ele>990.78</ele>
        <time>2011-05-29T11:51:45Z</time>
      </trkpt>
      <trkpt lat="43.7856" lon="7.03437">
        <ele>990.78</ele>
        <time>2011-05-29T11:52:09Z</time>
      </trkpt>
      <trkpt lat="43.7856" lon="7.03436">
        <ele>990.78</ele>
        <time>2011-05-29T11:52:33Z</time>
      </trkpt>
      <trkpt lat="43.7856" lon="7.03436">
        <ele>990.78</ele>
        <time>2011-05-29T11:52:51Z</time>
      </trkpt>
      <trkpt lat="43.7856" lon="7.03436">
        <ele>990.78</ele>
        <time>2011-05-29T11:53:20Z</time>
      </trkpt>
      <trkpt lat="43.78572" lon="7.03438">
        <ele>989.33</ele>
        <time>2011-05-29T11:53:36Z</time>
      </trkpt>
      <trkpt lat="43.78574" lon="7.03446">
        <ele>990.78</ele>
        <time>2011-05-29T11:53:48Z</time>
      </trkpt>
      <trkpt lat="43.78571" lon="7.03447">
        <ele>992.22</ele>
        <time>2011-05-29T11:54:00Z</time>
      </trkpt>
      <trkpt lat="43.78562" lon="7.03448">
        <ele>992.7</ele>
        <time>2011-05-29T11:54:14Z</time>
      </trkpt>
      <trkpt lat="43.78555" lon="7.03447">
        <ele>994.62</ele>
        <time>2011-05-29T11:54:23Z</time>
      </trkpt>
      <trkpt lat="43.78544" lon="7.03447">
        <ele>995.58</ele>
        <time>2011-05-29T11:54:37Z</time>
      </trkpt>
      <trkpt lat="43.78534" lon="7.03448">
        <ele>997.02</ele>
        <time>2011-05-29T11:54:51Z</time>
      </trkpt>
      <trkpt lat="43.78524" lon="7.03448">
        <ele>997.51</ele>
        <time>2011-05-29T11:55:03Z</time>
      </trkpt>
      <trkpt lat="43.78511" lon="7.03446">
        <ele>1000.39</ele>
        <time>2011-05-29T11:55:18Z</time>
      </trkpt>
      <trkpt lat="43.78502" lon="7.03446">
        <ele>1001.83</ele>
        <time>2011-05-29T11:55:30Z</time>
      </trkpt>
      <trkpt lat="43.78489" lon="7.03444">
        <ele>1004.23</ele>
        <time>2011-05-29T11:55:46Z</time>
      </trkpt>
      <trkpt lat="43.78481" lon="7.03443">
        <ele>1004.72</ele>
        <time>2011-05-29T11:55:56Z</time>
      </trkpt>
      <trkpt lat="43.78473" lon="7.03446">
        <ele>1006.16</ele>
        <time>2011-05-29T11:56:03Z</time>
      </trkpt>
      <trkpt lat="43.78463" lon="7.03444">
        <ele>1008.56</ele>
        <time>2011-05-29T11:56:18Z</time>
      </trkpt>
      <trkpt lat="43.78456" lon="7.03442">
        <ele>1009.52</ele>
        <time>2011-05-29T11:56:31Z</time>
      </trkpt>
      <trkpt lat="43.78442" lon="7.03435">
        <ele>1011.93</ele>
        <time>2011-05-29T11:56:44Z</time>
      </trkpt>
      <trkpt lat="43.78435" lon="7.0343">
        <ele>1014.33</ele>
        <time>2011-05-29T11:56:58Z</time>
      </trkpt>
      <trkpt lat="43.78423" lon="7.03423">
        <ele>1016.25</ele>
        <time>2011-05-29T11:57:10Z</time>
      </trkpt>
      <trkpt lat="43.78415" lon="7.03418">
        <ele>1017.69</ele>
        <time>2011-05-29T11:57:24Z</time>
      </trkpt>
      <trkpt lat="43.78407" lon="7.03414">
        <ele>1018.65</ele>
        <time>2011-05-29T11:57:32Z</time>
      </trkpt>
      <trkpt lat="43.78394" lon="7.03407">
        <ele>1020.1</ele>
        <time>2011-05-29T11:57:46Z</time>
      </trkpt>
      <trkpt lat="43.78392" lon="7.03404">
        <ele>1022.02</ele>
        <time>2011-05-29T11:58:00Z</time>
      </trkpt>
      <trkpt lat="43.78392" lon="7.03404">
        <ele>1022.02</ele>
        <time>2011-05-29T11:58:02Z</time>
      </trkpt>
      <trkpt lat="43.78378" lon="7.03399">
        <ele>1023.46</ele>
        <time>2011-05-29T11:58:13Z</time>
      </trkpt>
      <trkpt lat="43.78364" lon="7.0338">
        <ele>1024.9</ele>
        <time>2011-05-29T11:58:29Z</time>
      </trkpt>
      <trkpt lat="43.78354" lon="7.03367">
        <ele>1026.83</ele>
        <time>2011-05-29T11:58:45Z</time>
      </trkpt>
      <trkpt lat="43.78346" lon="7.03356">
        <ele>1027.79</ele>
        <time>2011-05-29T11:58:59Z</time>
      </trkpt>
      <trkpt lat="43.78344" lon="7.03342">
        <ele>1029.71</ele>
        <time>2011-05-29T11:59:13Z</time>
      </trkpt>
      <trkpt lat="43.78344" lon="7.03341">
        <ele>1029.71</ele>
        <time>2011-05-29T11:59:14Z</time>
      </trkpt>
      <trkpt lat="43.78332" lon="7.03329">
        <ele>1031.63</ele>
        <time>2011-05-29T11:59:29Z</time>
      </trkpt>
      <trkpt lat="43.78322" lon="7.03315">
        <ele>1034.04</ele>
        <time>2011-05-29T11:59:46Z</time>
      </trkpt>
      <trkpt lat="43.7832" lon="7.03303">
        <ele>1034.52</ele>
        <time>2011-05-29T11:59:59Z</time>
      </trkpt>
      <trkpt lat="43.78312" lon="7.03292">
        <ele>1036.44</ele>
        <time>2011-05-29T12:00:12Z</time>
      </trkpt>
      <trkpt lat="43.78306" lon="7.0328">
        <ele>1037.88</ele>
        <time>2011-05-29T12:00:25Z</time>
      </trkpt>
      <trkpt lat="43.78297" lon="7.03269">
        <ele>1040.28</ele>
        <time>2011-05-29T12:00:41Z</time>
      </trkpt>
      <trkpt lat="43.7829" lon="7.03254">
        <ele>1041.73</ele>
        <time>2011-05-29T12:00:56Z</time>
      </trkpt>
      <trkpt lat="43.78287" lon="7.03242">
        <ele>1043.65</ele>
        <time>2011-05-29T12:01:08Z</time>
      </trkpt>
      <trkpt lat="43.78278" lon="7.03231">
        <ele>1045.09</ele>
        <time>2011-05-29T12:01:21Z</time>
      </trkpt>
      <trkpt lat="43.7827" lon="7.03226">
        <ele>1046.53</ele>
        <time>2011-05-29T12:01:33Z</time>
      </trkpt>
      <trkpt lat="43.78258" lon="7.0322">
        <ele>1047.01</ele>
        <time>2011-05-29T12:01:47Z</time>
      </trkpt>
      <trkpt lat="43.7825" lon="7.03217">
        <ele>1047.49</ele>
        <time>2011-05-29T12:01:55Z</time>
      </trkpt>
      <trkpt lat="43.78237" lon="7.0321">
        <ele>1048.94</ele>
        <time>2011-05-29T12:02:10Z</time>
      </trkpt>
      <trkpt lat="43.78224" lon="7.03201">
        <ele>1049.9</ele>
        <time>2011-05-29T12:02:25Z</time>
      </trkpt>
      <trkpt lat="43.78214" lon="7.03192">
        <ele>1050.86</ele>
        <time>2011-05-29T12:02:37Z</time>
      </trkpt>
      <trkpt lat="43.78206" lon="7.03177">
        <ele>1052.3</ele>
        <time>2011-05-29T12:02:51Z</time>
      </trkpt>
      <trkpt lat="43.782" lon="7.0316">
        <ele>1053.74</ele>
        <time>2011-05-29T12:03:07Z</time>
      </trkpt>
      <trkpt lat="43.78197" lon="7.03144">
        <ele>1055.18</ele>
        <time>2011-05-29T12:03:20Z</time>
      </trkpt>
      <trkpt lat="43.78191" lon="7.03129">
        <ele>1056.15</ele>
        <time>2011-05-29T12:03:33Z</time>
      </trkpt>
      <trkpt lat="43.7819" lon="7.03126">
        <ele>1056.63</ele>
        <time>2011-05-29T12:03:36Z</time>
      </trkpt>
      <trkpt lat="43.78182" lon="7.03113">
        <ele>1058.55</ele>
        <time>2011-05-29T12:03:48Z</time>
      </trkpt>
      <trkpt lat="43.78176" lon="7.03103">
        <ele>1059.51</ele>
        <time>2011-05-29T12:04:02Z</time>
      </trkpt>
      <trkpt lat="43.78169" lon="7.031">
        <ele>1060.95</ele>
        <time>2011-05-29T12:04:10Z</time>
      </trkpt>
      <trkpt lat="43.78167" lon="7.03099">
        <ele>1061.43</ele>
        <time>2011-05-29T12:04:12Z</time>
      </trkpt>
      <trkpt lat="43.78157" lon="7.03095">
        <ele>1062.87</ele>
        <time>2011-05-29T12:04:22Z</time>
      </trkpt>
      <trkpt lat="43.78154" lon="7.03093">
        <ele>1062.87</ele>
        <time>2011-05-29T12:04:25Z</time>
      </trkpt>
      <trkpt lat="43.78147" lon="7.03083">
        <ele>1064.8</ele>
        <time>2011-05-29T12:04:38Z</time>
      </trkpt>
      <trkpt lat="43.78141" lon="7.03076">
        <ele>1066.72</ele>
        <time>2011-05-29T12:04:53Z</time>
      </trkpt>
      <trkpt lat="43.78135" lon="7.03074">
        <ele>1066.72</ele>
        <time>2011-05-29T12:05:01Z</time>
      </trkpt>
      <trkpt lat="43.78123" lon="7.03064">
        <ele>1068.64</ele>
        <time>2011-05-29T12:05:14Z</time>
      </trkpt>
      <trkpt lat="43.78121" lon="7.03063">
        <ele>1068.64</ele>
        <time>2011-05-29T12:05:16Z</time>
      </trkpt>
      <trkpt lat="43.78111" lon="7.03059">
        <ele>1070.57</ele>
        <time>2011-05-29T12:05:28Z</time>
      </trkpt>
      <trkpt lat="43.78106" lon="7.03054">
        <ele>1071.05</ele>
        <time>2011-05-29T12:05:34Z</time>
      </trkpt>
      <trkpt lat="43.78099" lon="7.03043">
        <ele>1072.49</ele>
        <time>2011-05-29T12:05:48Z</time>
      </trkpt>
      <trkpt lat="43.7809" lon="7.0303">
        <ele>1074.41</ele>
        <time>2011-05-29T12:06:05Z</time>
      </trkpt>
      <trkpt lat="43.78085" lon="7.03022">
        <ele>1075.37</ele>
        <time>2011-05-29T12:06:13Z</time>
      </trkpt>
      <trkpt lat="43.7808" lon="7.03009">
        <ele>1076.81</ele>
        <time>2011-05-29T12:06:26Z</time>
      </trkpt>
      <trkpt lat="43.78075" lon="7.03">
        <ele>1078.26</ele>
        <time>2011-05-29T12:06:39Z</time>
      </trkpt>
      <trkpt lat="43.78067" lon="7.02995">
        <ele>1078.74</ele>
        <time>2011-05-29T12:06:44Z</time>
      </trkpt>
      <trkpt lat="43.78059" lon="7.02979">
        <ele>1080.66</ele>
        <time>2011-05-29T12:07:00Z</time>
      </trkpt>
      <trkpt lat="43.78058" lon="7.02978">
        <ele>1081.14</ele>
        <time>2011-05-29T12:07:01Z</time>
      </trkpt>
      <trkpt lat="43.78047" lon="7.02965">
        <ele>1083.06</ele>
        <time>2011-05-29T12:07:15Z</time>
      </trkpt>
      <trkpt lat="43.78046" lon="7.02964">
        <ele>1082.58</ele>
        <time>2011-05-29T12:07:17Z</time>
      </trkpt>
      <trkpt lat="43.78042" lon="7.0296">
        <ele>1083.06</ele>
        <time>2011-05-29T12:07:20Z</time>
      </trkpt>
      <trkpt lat="43.78039" lon="7.02957">
        <ele>1083.54</ele>
        <time>2011-05-29T12:07:22Z</time>
      </trkpt>
      <trkpt lat="43.78043" lon="7.02937">
        <ele>1085.47</ele>
        <time>2011-05-29T12:07:37Z</time>
      </trkpt>
      <trkpt lat="43.7804" lon="7.02934">
        <ele>1085.47</ele>
        <time>2011-05-29T12:07:43Z</time>
      </trkpt>
      <trkpt lat="43.78032" lon="7.02935">
        <ele>1086.91</ele>
        <time>2011-05-29T12:07:49Z</time>
      </trkpt>
      <trkpt lat="43.78017" lon="7.0293">
        <ele>1088.35</ele>
        <time>2011-05-29T12:08:03Z</time>
      </trkpt>
      <trkpt lat="43.78013" lon="7.02929">
        <ele>1089.31</ele>
        <time>2011-05-29T12:08:08Z</time>
      </trkpt>
      <trkpt lat="43.78006" lon="7.02917">
        <ele>1091.23</ele>
        <time>2011-05-29T12:08:24Z</time>
      </trkpt>
      <trkpt lat="43.78003" lon="7.02915">
        <ele>1091.71</ele>
        <time>2011-05-29T12:08:27Z</time>
      </trkpt>
      <trkpt lat="43.77998" lon="7.02912">
        <ele>1091.71</ele>
        <time>2011-05-29T12:08:31Z</time>
      </trkpt>
      <trkpt lat="43.77997" lon="7.02911">
        <ele>1092.2</ele>
        <time>2011-05-29T12:08:33Z</time>
      </trkpt>
      <trkpt lat="43.7799" lon="7.02898">
        <ele>1094.6</ele>
        <time>2011-05-29T12:08:49Z</time>
      </trkpt>
      <trkpt lat="43.77988" lon="7.02887">
        <ele>1096.52</ele>
        <time>2011-05-29T12:09:02Z</time>
      </trkpt>
      <trkpt lat="43.77983" lon="7.02877">
        <ele>1097.96</ele>
        <time>2011-05-29T12:09:15Z</time>
      </trkpt>
      <trkpt lat="43.77979" lon="7.02872">
        <ele>1098.44</ele>
        <time>2011-05-29T12:09:27Z</time>
      </trkpt>
      <trkpt lat="43.77978" lon="7.02868">
        <ele>1099.89</ele>
        <time>2011-05-29T12:09:33Z</time>
      </trkpt>
      <trkpt lat="43.77959" lon="7.0286">
        <ele>1101.81</ele>
        <time>2011-05-29T12:09:46Z</time>
      </trkpt>
      <trkpt lat="43.77945" lon="7.02873">
        <ele>1103.73</ele>
        <time>2011-05-29T12:09:59Z</time>
      </trkpt>
      <trkpt lat="43.77939" lon="7.02882">
        <ele>1104.69</ele>
        <time>2011-05-29T12:10:10Z</time>
      </trkpt>
      <trkpt lat="43.77934" lon="7.02884">
        <ele>1105.65</ele>
        <time>2011-05-29T12:10:17Z</time>
      </trkpt>
      <trkpt lat="43.77929" lon="7.02875">
        <ele>1107.58</ele>
        <time>2011-05-29T12:10:31Z</time>
      </trkpt>
      <trkpt lat="43.77927" lon="7.02872">
        <ele>1107.58</ele>
        <time>2011-05-29T12:10:36Z</time>
      </trkpt>
      <trkpt lat="43.77921" lon="7.02867">
        <ele>1108.54</ele>
        <time>2011-05-29T12:10:43Z</time>
      </trkpt>
      <trkpt lat="43.7791" lon="7.02857">
        <ele>1109.02</ele>
        <time>2011-05-29T12:10:58Z</time>
      </trkpt>
      <trkpt lat="43.77905" lon="7.02847">
        <ele>1110.94</ele>
        <time>2011-05-29T12:11:11Z</time>
      </trkpt>
      <trkpt lat="43.779" lon="7.02836">
        <ele>1113.34</ele>
        <time>2011-05-29T12:11:27Z</time>
      </trkpt>
      <trkpt lat="43.77894" lon="7.02831">
        <ele>1114.31</ele>
        <time>2011-05-29T12:11:34Z</time>
      </trkpt>
      <trkpt lat="43.77889" lon="7.02822">
        <ele>1116.23</ele>
        <time>2011-05-29T12:11:46Z</time>
      </trkpt>
      <trkpt lat="43.77879" lon="7.02808">
        <ele>1116.71</ele>
        <time>2011-05-29T12:12:01Z</time>
      </trkpt>
      <trkpt lat="43.77873" lon="7.02796">
        <ele>1118.63</ele>
        <time>2011-05-29T12:12:14Z</time>
      </trkpt>
      <trkpt lat="43.77867" lon="7.02793">
        <ele>1119.11</ele>
        <time>2011-05-29T12:12:19Z</time>
      </trkpt>
      <trkpt lat="43.7786" lon="7.02787">
        <ele>1121.03</ele>
        <time>2011-05-29T12:12:32Z</time>
      </trkpt>
      <trkpt lat="43.77857" lon="7.02785">
        <ele>1122.48</ele>
        <time>2011-05-29T12:12:43Z</time>
      </trkpt>
      <trkpt lat="43.77845" lon="7.02775">
        <ele>1123.44</ele>
        <time>2011-05-29T12:12:58Z</time>
      </trkpt>
      <trkpt lat="43.77834" lon="7.0277">
        <ele>1124.4</ele>
        <time>2011-05-29T12:13:06Z</time>
      </trkpt>
      <trkpt lat="43.77831" lon="7.02768">
        <ele>1124.4</ele>
        <time>2011-05-29T12:13:09Z</time>
      </trkpt>
      <trkpt lat="43.77814" lon="7.02762">
        <ele>1127.28</ele>
        <time>2011-05-29T12:13:23Z</time>
      </trkpt>
      <trkpt lat="43.77805" lon="7.02758">
        <ele>1128.24</ele>
        <time>2011-05-29T12:13:36Z</time>
      </trkpt>
      <trkpt lat="43.77798" lon="7.02755">
        <ele>1128.24</ele>
        <time>2011-05-29T12:13:44Z</time>
      </trkpt>
      <trkpt lat="43.77796" lon="7.02754">
        <ele>1128.73</ele>
        <time>2011-05-29T12:13:46Z</time>
      </trkpt>
      <trkpt lat="43.77785" lon="7.02753">
        <ele>1130.65</ele>
        <time>2011-05-29T12:13:59Z</time>
      </trkpt>
      <trkpt lat="43.77774" lon="7.02756">
        <ele>1131.13</ele>
        <time>2011-05-29T12:14:10Z</time>
      </trkpt>
      <trkpt lat="43.77768" lon="7.02758">
        <ele>1131.61</ele>
        <time>2011-05-29T12:14:19Z</time>
      </trkpt>
      <trkpt lat="43.77758" lon="7.02761">
        <ele>1133.05</ele>
        <time>2011-05-29T12:14:34Z</time>
      </trkpt>
      <trkpt lat="43.77756" lon="7.02762">
        <ele>1133.53</ele>
        <time>2011-05-29T12:14:37Z</time>
      </trkpt>
      <trkpt lat="43.77747" lon="7.02762">
        <ele>1134.97</ele>
        <time>2011-05-29T12:14:47Z</time>
      </trkpt>
      <trkpt lat="43.77733" lon="7.02766">
        <ele>1137.38</ele>
        <time>2011-05-29T12:15:02Z</time>
      </trkpt>
      <trkpt lat="43.77728" lon="7.02768">
        <ele>1136.42</ele>
        <time>2011-05-29T12:15:07Z</time>
      </trkpt>
      <trkpt lat="43.77715" lon="7.02769">
        <ele>1138.82</ele>
        <time>2011-05-29T12:15:22Z</time>
      </trkpt>
      <trkpt lat="43.77707" lon="7.02771">
        <ele>1138.82</ele>
        <time>2011-05-29T12:15:35Z</time>
      </trkpt>
      <trkpt lat="43.77707" lon="7.02772">
        <ele>1139.3</ele>
        <time>2011-05-29T12:15:56Z</time>
      </trkpt>
      <trkpt lat="43.77707" lon="7.02772">
        <ele>1139.3</ele>
        <time>2011-05-29T12:16:20Z</time>
      </trkpt>
      <trkpt lat="43.77707" lon="7.02772">
        <ele>1138.82</ele>
        <time>2011-05-29T12:16:34Z</time>
      </trkpt>
      <trkpt lat="43.77707" lon="7.02772">
        <ele>1139.3</ele>
        <time>2011-05-29T12:16:52Z</time>
      </trkpt>
      <trkpt lat="43.77707" lon="7.02772">
        <ele>1138.82</ele>
        <time>2011-05-29T12:17:07Z</time>
      </trkpt>
      <trkpt lat="43.77707" lon="7.02772">
        <ele>1138.82</ele>
        <time>2011-05-29T12:17:30Z</time>
      </trkpt>
      <trkpt lat="43.77707" lon="7.02772">
        <ele>1139.3</ele>
        <time>2011-05-29T12:17:58Z</time>
      </trkpt>
      <trkpt lat="43.77707" lon="7.02772">
        <ele>1139.78</ele>
        <time>2011-05-29T12:18:19Z</time>
      </trkpt>
      <trkpt lat="43.77707" lon="7.02772">
        <ele>1138.82</ele>
        <time>2011-05-29T12:18:49Z</time>
      </trkpt>
      <trkpt lat="43.77706" lon="7.02772">
        <ele>1138.34</ele>
        <time>2011-05-29T12:19:15Z</time>
      </trkpt>
      <trkpt lat="43.77705" lon="7.02775">
        <ele>1139.78</ele>
        <time>2011-05-29T12:19:33Z</time>
      </trkpt>
      <trkpt lat="43.77705" lon="7.0278">
        <ele>1140.74</ele>
        <time>2011-05-29T12:19:37Z</time>
      </trkpt>
      <trkpt lat="43.77707" lon="7.02793">
        <ele>1140.26</ele>
        <time>2011-05-29T12:19:52Z</time>
      </trkpt>
      <trkpt lat="43.77709" lon="7.02805">
        <ele>1141.22</ele>
        <time>2011-05-29T12:20:05Z</time>
      </trkpt>
      <trkpt lat="43.77707" lon="7.02823">
        <ele>1144.11</ele>
        <time>2011-05-29T12:20:23Z</time>
      </trkpt>
      <trkpt lat="43.77706" lon="7.02832">
        <ele>1145.55</ele>
        <time>2011-05-29T12:20:32Z</time>
      </trkpt>
      <trkpt lat="43.77699" lon="7.02845">
        <ele>1147.95</ele>
        <time>2011-05-29T12:20:47Z</time>
      </trkpt>
      <trkpt lat="43.77693" lon="7.0285">
        <ele>1148.43</ele>
        <time>2011-05-29T12:20:55Z</time>
      </trkpt>
      <trkpt lat="43.77693" lon="7.02851">
        <ele>1147.95</ele>
        <time>2011-05-29T12:20:56Z</time>
      </trkpt>
      <trkpt lat="43.77692" lon="7.02854">
        <ele>1147.95</ele>
        <time>2011-05-29T12:20:59Z</time>
      </trkpt>
      <trkpt lat="43.77686" lon="7.02857">
        <ele>1148.43</ele>
        <time>2011-05-29T12:21:11Z</time>
      </trkpt>
      <trkpt lat="43.77682" lon="7.02855">
        <ele>1148.91</ele>
        <time>2011-05-29T12:21:22Z</time>
      </trkpt>
      <trkpt lat="43.77679" lon="7.02862">
        <ele>1148.91</ele>
        <time>2011-05-29T12:21:28Z</time>
      </trkpt>
      <trkpt lat="43.77671" lon="7.02874">
        <ele>1150.35</ele>
        <time>2011-05-29T12:21:42Z</time>
      </trkpt>
      <trkpt lat="43.77668" lon="7.02881">
        <ele>1152.76</ele>
        <time>2011-05-29T12:21:54Z</time>
      </trkpt>
      <trkpt lat="43.77666" lon="7.02887">
        <ele>1152.76</ele>
        <time>2011-05-29T12:22:00Z</time>
      </trkpt>
      <trkpt lat="43.77664" lon="7.02891">
        <ele>1154.2</ele>
        <time>2011-05-29T12:22:04Z</time>
      </trkpt>
      <trkpt lat="43.77657" lon="7.02902">
        <ele>1156.12</ele>
        <time>2011-05-29T12:22:17Z</time>
      </trkpt>
      <trkpt lat="43.77657" lon="7.02903">
        <ele>1155.16</ele>
        <time>2011-05-29T12:22:18Z</time>
      </trkpt>
      <trkpt lat="43.77649" lon="7.02905">
        <ele>1157.08</ele>
        <time>2011-05-29T12:22:29Z</time>
      </trkpt>
      <trkpt lat="43.77644" lon="7.02913">
        <ele>1156.6</ele>
        <time>2011-05-29T12:22:38Z</time>
      </trkpt>
      <trkpt lat="43.77638" lon="7.02918">
        <ele>1158.53</ele>
        <time>2011-05-29T12:22:46Z</time>
      </trkpt>
      <trkpt lat="43.77634" lon="7.0292">
        <ele>1159.01</ele>
        <time>2011-05-29T12:22:50Z</time>
      </trkpt>
      <trkpt lat="43.7763" lon="7.02924">
        <ele>1159.49</ele>
        <time>2011-05-29T12:22:55Z</time>
      </trkpt>
      <trkpt lat="43.77623" lon="7.02933">
        <ele>1159.97</ele>
        <time>2011-05-29T12:23:04Z</time>
      </trkpt>
      <trkpt lat="43.77621" lon="7.02947">
        <ele>1162.37</ele>
        <time>2011-05-29T12:23:16Z</time>
      </trkpt>
      <trkpt lat="43.7762" lon="7.02949">
        <ele>1163.81</ele>
        <time>2011-05-29T12:23:22Z</time>
      </trkpt>
      <trkpt lat="43.77618" lon="7.0295">
        <ele>1163.33</ele>
        <time>2011-05-29T12:23:24Z</time>
      </trkpt>
      <trkpt lat="43.77604" lon="7.0296">
        <ele>1163.33</ele>
        <time>2011-05-29T12:23:41Z</time>
      </trkpt>
      <trkpt lat="43.77602" lon="7.02964">
        <ele>1165.74</ele>
        <time>2011-05-29T12:23:44Z</time>
      </trkpt>
      <trkpt lat="43.77602" lon="7.02973">
        <ele>1166.7</ele>
        <time>2011-05-29T12:23:54Z</time>
      </trkpt>
      <trkpt lat="43.77604" lon="7.02988">
        <ele>1167.66</ele>
        <time>2011-05-29T12:24:11Z</time>
      </trkpt>
      <trkpt lat="43.77603" lon="7.02997">
        <ele>1169.58</ele>
        <time>2011-05-29T12:24:18Z</time>
      </trkpt>
      <trkpt lat="43.77606" lon="7.02998">
        <ele>1169.58</ele>
        <time>2011-05-29T12:24:31Z</time>
      </trkpt>
      <trkpt lat="43.77606" lon="7.02998">
        <ele>1168.62</ele>
        <time>2011-05-29T12:24:56Z</time>
      </trkpt>
      <trkpt lat="43.77606" lon="7.02998">
        <ele>1169.1</ele>
        <time>2011-05-29T12:24:57Z</time>
      </trkpt>
      <trkpt lat="43.77606" lon="7.02998">
        <ele>1168.14</ele>
        <time>2011-05-29T12:25:15Z</time>
      </trkpt>
      <trkpt lat="43.77604" lon="7.03001">
        <ele>1168.14</ele>
        <time>2011-05-29T12:25:41Z</time>
      </trkpt>
      <trkpt lat="43.77604" lon="7.03001">
        <ele>1168.62</ele>
        <time>2011-05-29T12:25:57Z</time>
      </trkpt>
      <trkpt lat="43.77602" lon="7.02998">
        <ele>1169.1</ele>
        <time>2011-05-29T12:26:12Z</time>
      </trkpt>
      <trkpt lat="43.77603" lon="7.02996">
        <ele>1169.58</ele>
        <time>2011-05-29T12:26:28Z</time>
      </trkpt>
      <trkpt lat="43.77603" lon="7.02996">
        <ele>1168.62</ele>
        <time>2011-05-29T12:26:34Z</time>
      </trkpt>
      <trkpt lat="43.77602" lon="7.03002">
        <ele>1170.54</ele>
        <time>2011-05-29T12:26:39Z</time>
      </trkpt>
      <trkpt lat="43.77596" lon="7.03018">
        <ele>1171.5</ele>
        <time>2011-05-29T12:26:50Z</time>
      </trkpt>
      <trkpt lat="43.77589" lon="7.03026">
        <ele>1172.95</ele>
        <time>2011-05-29T12:27:00Z</time>
      </trkpt>
      <trkpt lat="43.77587" lon="7.03034">
        <ele>1173.43</ele>
        <time>2011-05-29T12:27:06Z</time>
      </trkpt>
      <trkpt lat="43.77584" lon="7.03042">
        <ele>1174.39</ele>
        <time>2011-05-29T12:27:12Z</time>
      </trkpt>
      <trkpt lat="43.77582" lon="7.03049">
        <ele>1174.87</ele>
        <time>2011-05-29T12:27:18Z</time>
      </trkpt>
      <trkpt lat="43.77582" lon="7.03066">
        <ele>1175.83</ele>
        <time>2011-05-29T12:27:32Z</time>
      </trkpt>
      <trkpt lat="43.77579" lon="7.03068">
        <ele>1177.27</ele>
        <time>2011-05-29T12:27:36Z</time>
      </trkpt>
      <trkpt lat="43.77577" lon="7.0307">
        <ele>1177.75</ele>
        <time>2011-05-29T12:27:38Z</time>
      </trkpt>
      <trkpt lat="43.77567" lon="7.03074">
        <ele>1178.23</ele>
        <time>2011-05-29T12:27:52Z</time>
      </trkpt>
      <trkpt lat="43.77561" lon="7.0308">
        <ele>1180.16</ele>
        <time>2011-05-29T12:28:02Z</time>
      </trkpt>
      <trkpt lat="43.77552" lon="7.03094">
        <ele>1181.12</ele>
        <time>2011-05-29T12:28:14Z</time>
      </trkpt>
      <trkpt lat="43.77539" lon="7.03105">
        <ele>1182.56</ele>
        <time>2011-05-29T12:28:27Z</time>
      </trkpt>
      <trkpt lat="43.77538" lon="7.03106">
        <ele>1182.08</ele>
        <time>2011-05-29T12:28:29Z</time>
      </trkpt>
      <trkpt lat="43.77527" lon="7.03115">
        <ele>1183.04</ele>
        <time>2011-05-29T12:28:41Z</time>
      </trkpt>
      <trkpt lat="43.77523" lon="7.03113">
        <ele>1182.08</ele>
        <time>2011-05-29T12:28:44Z</time>
      </trkpt>
      <trkpt lat="43.77521" lon="7.03113">
        <ele>1182.08</ele>
        <time>2011-05-29T12:28:46Z</time>
      </trkpt>
      <trkpt lat="43.77516" lon="7.03118">
        <ele>1183.04</ele>
        <time>2011-05-29T12:28:51Z</time>
      </trkpt>
      <trkpt lat="43.77514" lon="7.0312">
        <ele>1182.08</ele>
        <time>2011-05-29T12:28:53Z</time>
      </trkpt>
      <trkpt lat="43.77502" lon="7.03135">
        <ele>1182.08</ele>
        <time>2011-05-29T12:29:08Z</time>
      </trkpt>
      <trkpt lat="43.77493" lon="7.03139">
        <ele>1183.04</ele>
        <time>2011-05-29T12:29:16Z</time>
      </trkpt>
      <trkpt lat="43.77486" lon="7.03147">
        <ele>1182.08</ele>
        <time>2011-05-29T12:29:27Z</time>
      </trkpt>
      <trkpt lat="43.77483" lon="7.03147">
        <ele>1182.56</ele>
        <time>2011-05-29T12:29:31Z</time>
      </trkpt>
      <trkpt lat="43.7748" lon="7.03141">
        <ele>1182.56</ele>
        <time>2011-05-29T12:29:36Z</time>
      </trkpt>
      <trkpt lat="43.77475" lon="7.03136">
        <ele>1183.04</ele>
        <time>2011-05-29T12:29:43Z</time>
      </trkpt>
      <trkpt lat="43.77472" lon="7.03136">
        <ele>1182.56</ele>
        <time>2011-05-29T12:29:56Z</time>
      </trkpt>
      <trkpt lat="43.7747" lon="7.03131">
        <ele>1183.04</ele>
        <time>2011-05-29T12:30:12Z</time>
      </trkpt>
      <trkpt lat="43.77469" lon="7.03132">
        <ele>1183.52</ele>
        <time>2011-05-29T12:30:21Z</time>
      </trkpt>
      <trkpt lat="43.77464" lon="7.03133">
        <ele>1183.52</ele>
        <time>2011-05-29T12:30:32Z</time>
      </trkpt>
      <trkpt lat="43.77464" lon="7.03134">
        <ele>1181.6</ele>
        <time>2011-05-29T12:30:42Z</time>
      </trkpt>
      <trkpt lat="43.77467" lon="7.03136">
        <ele>1181.6</ele>
        <time>2011-05-29T12:30:45Z</time>
      </trkpt>
      <trkpt lat="43.77472" lon="7.03143">
        <ele>1181.6</ele>
        <time>2011-05-29T12:30:51Z</time>
      </trkpt>
      <trkpt lat="43.77482" lon="7.03155">
        <ele>1181.6</ele>
        <time>2011-05-29T12:31:03Z</time>
      </trkpt>
      <trkpt lat="43.77484" lon="7.0316">
        <ele>1181.6</ele>
        <time>2011-05-29T12:31:08Z</time>
      </trkpt>
      <trkpt lat="43.77482" lon="7.0317">
        <ele>1182.08</ele>
        <time>2011-05-29T12:31:18Z</time>
      </trkpt>
      <trkpt lat="43.77479" lon="7.03176">
        <ele>1179.67</ele>
        <time>2011-05-29T12:31:23Z</time>
      </trkpt>
      <trkpt lat="43.77475" lon="7.03184">
        <ele>1179.67</ele>
        <time>2011-05-29T12:31:30Z</time>
      </trkpt>
      <trkpt lat="43.77475" lon="7.03188">
        <ele>1181.12</ele>
        <time>2011-05-29T12:31:34Z</time>
      </trkpt>
      <trkpt lat="43.77473" lon="7.0319">
        <ele>1179.67</ele>
        <time>2011-05-29T12:31:36Z</time>
      </trkpt>
      <trkpt lat="43.77465" lon="7.03202">
        <ele>1179.19</ele>
        <time>2011-05-29T12:31:51Z</time>
      </trkpt>
      <trkpt lat="43.77461" lon="7.03207">
        <ele>1178.23</ele>
        <time>2011-05-29T12:32:01Z</time>
      </trkpt>
      <trkpt lat="43.77454" lon="7.0321">
        <ele>1176.79</ele>
        <time>2011-05-29T12:32:13Z</time>
      </trkpt>
      <trkpt lat="43.77444" lon="7.03208">
        <ele>1176.79</ele>
        <time>2011-05-29T12:32:26Z</time>
      </trkpt>
      <trkpt lat="43.77442" lon="7.03206">
        <ele>1176.79</ele>
        <time>2011-05-29T12:32:28Z</time>
      </trkpt>
      <trkpt lat="43.77428" lon="7.03203">
        <ele>1174.87</ele>
        <time>2011-05-29T12:32:40Z</time>
      </trkpt>
      <trkpt lat="43.7742" lon="7.03205">
        <ele>1176.31</ele>
        <time>2011-05-29T12:32:48Z</time>
      </trkpt>
      <trkpt lat="43.77414" lon="7.03203">
        <ele>1175.35</ele>
        <time>2011-05-29T12:32:54Z</time>
      </trkpt>
      <trkpt lat="43.7741" lon="7.03203">
        <ele>1174.87</ele>
        <time>2011-05-29T12:32:57Z</time>
      </trkpt>
      <trkpt lat="43.77402" lon="7.03211">
        <ele>1173.91</ele>
        <time>2011-05-29T12:33:09Z</time>
      </trkpt>
      <trkpt lat="43.774" lon="7.03213">
        <ele>1175.83</ele>
        <time>2011-05-29T12:33:24Z</time>
      </trkpt>
      <trkpt lat="43.77396" lon="7.03213">
        <ele>1173.43</ele>
        <time>2011-05-29T12:33:44Z</time>
      </trkpt>
      <trkpt lat="43.7739" lon="7.03212">
        <ele>1171.98</ele>
        <time>2011-05-29T12:33:49Z</time>
      </trkpt>
      <trkpt lat="43.77386" lon="7.03213">
        <ele>1170.54</ele>
        <time>2011-05-29T12:33:53Z</time>
      </trkpt>
      <trkpt lat="43.77383" lon="7.03211">
        <ele>1170.06</ele>
        <time>2011-05-29T12:33:56Z</time>
      </trkpt>
      <trkpt lat="43.77376" lon="7.03212">
        <ele>1169.58</ele>
        <time>2011-05-29T12:34:03Z</time>
      </trkpt>
      <trkpt lat="43.77374" lon="7.03212">
        <ele>1169.1</ele>
        <time>2011-05-29T12:34:05Z</time>
      </trkpt>
      <trkpt lat="43.77372" lon="7.03213">
        <ele>1169.1</ele>
        <time>2011-05-29T12:34:07Z</time>
      </trkpt>
      <trkpt lat="43.77362" lon="7.03214">
        <ele>1166.22</ele>
        <time>2011-05-29T12:34:22Z</time>
      </trkpt>
      <trkpt lat="43.77362" lon="7.03214">
        <ele>1166.7</ele>
        <time>2011-05-29T12:34:37Z</time>
      </trkpt>
      <trkpt lat="43.77361" lon="7.03213">
        <ele>1166.7</ele>
        <time>2011-05-29T12:35:04Z</time>
      </trkpt>
      <trkpt lat="43.77358" lon="7.0321">
        <ele>1165.26</ele>
        <time>2011-05-29T12:35:29Z</time>
      </trkpt>
      <trkpt lat="43.77353" lon="7.03207">
        <ele>1165.26</ele>
        <time>2011-05-29T12:35:33Z</time>
      </trkpt>
      <trkpt lat="43.77351" lon="7.03205">
        <ele>1165.74</ele>
        <time>2011-05-29T12:35:35Z</time>
      </trkpt>
      <trkpt lat="43.77341" lon="7.03208">
        <ele>1162.37</ele>
        <time>2011-05-29T12:35:45Z</time>
      </trkpt>
      <trkpt lat="43.7734" lon="7.03209">
        <ele>1162.85</ele>
        <time>2011-05-29T12:35:46Z</time>
      </trkpt>
      <trkpt lat="43.77335" lon="7.03207">
        <ele>1161.41</ele>
        <time>2011-05-29T12:35:51Z</time>
      </trkpt>
      <trkpt lat="43.77329" lon="7.03204">
        <ele>1158.05</ele>
        <time>2011-05-29T12:36:05Z</time>
      </trkpt>
      <trkpt lat="43.77329" lon="7.03204">
        <ele>1158.53</ele>
        <time>2011-05-29T12:36:28Z</time>
      </trkpt>
      <trkpt lat="43.77324" lon="7.03211">
        <ele>1159.49</ele>
        <time>2011-05-29T12:36:42Z</time>
      </trkpt>
      <trkpt lat="43.77322" lon="7.03218">
        <ele>1158.05</ele>
        <time>2011-05-29T12:36:47Z</time>
      </trkpt>
      <trkpt lat="43.77319" lon="7.03222">
        <ele>1157.56</ele>
        <time>2011-05-29T12:36:51Z</time>
      </trkpt>
      <trkpt lat="43.77318" lon="7.03226">
        <ele>1157.56</ele>
        <time>2011-05-29T12:36:54Z</time>
      </trkpt>
      <trkpt lat="43.77314" lon="7.03235">
        <ele>1157.56</ele>
        <time>2011-05-29T12:37:01Z</time>
      </trkpt>
      <trkpt lat="43.77306" lon="7.03255">
        <ele>1155.16</ele>
        <time>2011-05-29T12:37:16Z</time>
      </trkpt>
      <trkpt lat="43.773" lon="7.03273">
        <ele>1152.76</ele>
        <time>2011-05-29T12:37:31Z</time>
      </trkpt>
      <trkpt lat="43.77297" lon="7.0328">
        <ele>1151.32</ele>
        <time>2011-05-29T12:37:35Z</time>
      </trkpt>
      <trkpt lat="43.77289" lon="7.03297">
        <ele>1151.32</ele>
        <time>2011-05-29T12:37:50Z</time>
      </trkpt>
      <trkpt lat="43.77285" lon="7.03309">
        <ele>1149.39</ele>
        <time>2011-05-29T12:38:02Z</time>
      </trkpt>
      <trkpt lat="43.7728" lon="7.03321">
        <ele>1148.91</ele>
        <time>2011-05-29T12:38:11Z</time>
      </trkpt>
      <trkpt lat="43.77279" lon="7.03323">
        <ele>1148.43</ele>
        <time>2011-05-29T12:38:13Z</time>
      </trkpt>
      <trkpt lat="43.77273" lon="7.03332">
        <ele>1146.03</ele>
        <time>2011-05-29T12:38:22Z</time>
      </trkpt>
      <trkpt lat="43.77269" lon="7.0334">
        <ele>1144.59</ele>
        <time>2011-05-29T12:38:30Z</time>
      </trkpt>
      <trkpt lat="43.77263" lon="7.03346">
        <ele>1143.63</ele>
        <time>2011-05-29T12:38:43Z</time>
      </trkpt>
      <trkpt lat="43.77263" lon="7.03345">
        <ele>1143.14</ele>
        <time>2011-05-29T12:38:48Z</time>
      </trkpt>
      <trkpt lat="43.77259" lon="7.03344">
        <ele>1142.66</ele>
        <time>2011-05-29T12:38:52Z</time>
      </trkpt>
      <trkpt lat="43.77252" lon="7.03341">
        <ele>1142.66</ele>
        <time>2011-05-29T12:39:00Z</time>
      </trkpt>
      <trkpt lat="43.77248" lon="7.03338">
        <ele>1141.7</ele>
        <time>2011-05-29T12:39:05Z</time>
      </trkpt>
      <trkpt lat="43.77245" lon="7.03337">
        <ele>1140.74</ele>
        <time>2011-05-29T12:39:08Z</time>
      </trkpt>
      <trkpt lat="43.77244" lon="7.03337">
        <ele>1140.74</ele>
        <time>2011-05-29T12:39:10Z</time>
      </trkpt>
      <trkpt lat="43.77232" lon="7.03326">
        <ele>1139.3</ele>
        <time>2011-05-29T12:39:24Z</time>
      </trkpt>
      <trkpt lat="43.77226" lon="7.03324">
        <ele>1138.34</ele>
        <time>2011-05-29T12:39:30Z</time>
      </trkpt>
      <trkpt lat="43.77222" lon="7.03325">
        <ele>1136.9</ele>
        <time>2011-05-29T12:39:34Z</time>
      </trkpt>
      <trkpt lat="43.77219" lon="7.03328">
        <ele>1137.86</ele>
        <time>2011-05-29T12:39:37Z</time>
      </trkpt>
      <trkpt lat="43.77208" lon="7.0334">
        <ele>1134.49</ele>
        <time>2011-05-29T12:39:51Z</time>
      </trkpt>
      <trkpt lat="43.77203" lon="7.03344">
        <ele>1134.01</ele>
        <time>2011-05-29T12:39:57Z</time>
      </trkpt>
      <trkpt lat="43.77198" lon="7.03363">
        <ele>1132.09</ele>
        <time>2011-05-29T12:40:11Z</time>
      </trkpt>
      <trkpt lat="43.77198" lon="7.03367">
        <ele>1132.57</ele>
        <time>2011-05-29T12:40:15Z</time>
      </trkpt>
      <trkpt lat="43.77203" lon="7.03388">
        <ele>1130.17</ele>
        <time>2011-05-29T12:40:31Z</time>
      </trkpt>
      <trkpt lat="43.77208" lon="7.03404">
        <ele>1131.13</ele>
        <time>2011-05-29T12:40:45Z</time>
      </trkpt>
      <trkpt lat="43.7722" lon="7.03419">
        <ele>1129.21</ele>
        <time>2011-05-29T12:41:00Z</time>
      </trkpt>
      <trkpt lat="43.77227" lon="7.03424">
        <ele>1128.24</ele>
        <time>2011-05-29T12:41:07Z</time>
      </trkpt>
      <trkpt lat="43.77244" lon="7.03433">
        <ele>1125.84</ele>
        <time>2011-05-29T12:41:24Z</time>
      </trkpt>
      <trkpt lat="43.77251" lon="7.03451">
        <ele>1124.88</ele>
        <time>2011-05-29T12:41:38Z</time>
      </trkpt>
      <trkpt lat="43.77245" lon="7.03477">
        <ele>1123.44</ele>
        <time>2011-05-29T12:41:55Z</time>
      </trkpt>
      <trkpt lat="43.77237" lon="7.03502">
        <ele>1122.96</ele>
        <time>2011-05-29T12:42:11Z</time>
      </trkpt>
      <trkpt lat="43.7723" lon="7.03524">
        <ele>1122</ele>
        <time>2011-05-29T12:42:26Z</time>
      </trkpt>
      <trkpt lat="43.77228" lon="7.03531">
        <ele>1121.52</ele>
        <time>2011-05-29T12:42:30Z</time>
      </trkpt>
      <trkpt lat="43.77222" lon="7.03551">
        <ele>1120.55</ele>
        <time>2011-05-29T12:42:44Z</time>
      </trkpt>
      <trkpt lat="43.77215" lon="7.0357">
        <ele>1119.59</ele>
        <time>2011-05-29T12:42:58Z</time>
      </trkpt>
      <trkpt lat="43.77208" lon="7.03583">
        <ele>1117.67</ele>
        <time>2011-05-29T12:43:09Z</time>
      </trkpt>
      <trkpt lat="43.77205" lon="7.03589">
        <ele>1118.15</ele>
        <time>2011-05-29T12:43:14Z</time>
      </trkpt>
      <trkpt lat="43.77194" lon="7.03599">
        <ele>1117.67</ele>
        <time>2011-05-29T12:43:26Z</time>
      </trkpt>
      <trkpt lat="43.77185" lon="7.03605">
        <ele>1115.75</ele>
        <time>2011-05-29T12:43:35Z</time>
      </trkpt>
      <trkpt lat="43.7717" lon="7.03613">
        <ele>1116.23</ele>
        <time>2011-05-29T12:43:50Z</time>
      </trkpt>
      <trkpt lat="43.77168" lon="7.03611">
        <ele>1116.23</ele>
        <time>2011-05-29T12:43:53Z</time>
      </trkpt>
      <trkpt lat="43.77165" lon="7.036">
        <ele>1116.23</ele>
        <time>2011-05-29T12:44:01Z</time>
      </trkpt>
      <trkpt lat="43.77161" lon="7.03591">
        <ele>1115.75</ele>
        <time>2011-05-29T12:44:08Z</time>
      </trkpt>
      <trkpt lat="43.7715" lon="7.03572">
        <ele>1116.23</ele>
        <time>2011-05-29T12:44:25Z</time>
      </trkpt>
      <trkpt lat="43.77149" lon="7.03571">
        <ele>1115.27</ele>
        <time>2011-05-29T12:44:26Z</time>
      </trkpt>
      <trkpt lat="43.77148" lon="7.03569">
        <ele>1115.75</ele>
        <time>2011-05-29T12:44:41Z</time>
      </trkpt>
      <trkpt lat="43.7715" lon="7.03573">
        <ele>1114.79</ele>
        <time>2011-05-29T12:44:54Z</time>
      </trkpt>
      <trkpt lat="43.77152" lon="7.03577">
        <ele>1115.75</ele>
        <time>2011-05-29T12:44:58Z</time>
      </trkpt>
      <trkpt lat="43.77154" lon="7.03581">
        <ele>1114.79</ele>
        <time>2011-05-29T12:45:01Z</time>
      </trkpt>
      <trkpt lat="43.77163" lon="7.03587">
        <ele>1115.27</ele>
        <time>2011-05-29T12:45:14Z</time>
      </trkpt>
      <trkpt lat="43.77168" lon="7.0358">
        <ele>1115.75</ele>
        <time>2011-05-29T12:45:23Z</time>
      </trkpt>
      <trkpt lat="43.77169" lon="7.03572">
        <ele>1115.27</ele>
        <time>2011-05-29T12:45:29Z</time>
      </trkpt>
      <trkpt lat="43.77171" lon="7.03567">
        <ele>1114.79</ele>
        <time>2011-05-29T12:45:32Z</time>
      </trkpt>
      <trkpt lat="43.77176" lon="7.03543">
        <ele>1114.79</ele>
        <time>2011-05-29T12:45:48Z</time>
      </trkpt>
      <trkpt lat="43.77179" lon="7.03523">
        <ele>1114.79</ele>
        <time>2011-05-29T12:46:01Z</time>
      </trkpt>
      <trkpt lat="43.77179" lon="7.03501">
        <ele>1114.79</ele>
        <time>2011-05-29T12:46:15Z</time>
      </trkpt>
      <trkpt lat="43.77177" lon="7.03496">
        <ele>1114.79</ele>
        <time>2011-05-29T12:46:28Z</time>
      </trkpt>
      <trkpt lat="43.77174" lon="7.03494">
        <ele>1113.34</ele>
        <time>2011-05-29T12:46:41Z</time>
      </trkpt>
      <trkpt lat="43.77172" lon="7.03494">
        <ele>1113.34</ele>
        <time>2011-05-29T12:46:43Z</time>
      </trkpt>
      <trkpt lat="43.77164" lon="7.03494">
        <ele>1110.94</ele>
        <time>2011-05-29T12:46:56Z</time>
      </trkpt>
      <trkpt lat="43.77153" lon="7.03493">
        <ele>1108.06</ele>
        <time>2011-05-29T12:47:09Z</time>
      </trkpt>
      <trkpt lat="43.77151" lon="7.03493">
        <ele>1107.58</ele>
        <time>2011-05-29T12:47:12Z</time>
      </trkpt>
      <trkpt lat="43.77143" lon="7.03491">
        <ele>1106.13</ele>
        <time>2011-05-29T12:47:22Z</time>
      </trkpt>
      <trkpt lat="43.77141" lon="7.0349">
        <ele>1105.65</ele>
        <time>2011-05-29T12:47:24Z</time>
      </trkpt>
      <trkpt lat="43.77139" lon="7.03487">
        <ele>1105.65</ele>
        <time>2011-05-29T12:47:28Z</time>
      </trkpt>
      <trkpt lat="43.77129" lon="7.03473">
        <ele>1103.25</ele>
        <time>2011-05-29T12:47:44Z</time>
      </trkpt>
      <trkpt lat="43.77125" lon="7.03466">
        <ele>1101.81</ele>
        <time>2011-05-29T12:47:51Z</time>
      </trkpt>
      <trkpt lat="43.77115" lon="7.03451">
        <ele>1098.92</ele>
        <time>2011-05-29T12:48:06Z</time>
      </trkpt>
      <trkpt lat="43.7711" lon="7.03444">
        <ele>1097</ele>
        <time>2011-05-29T12:48:18Z</time>
      </trkpt>
      <trkpt lat="43.77103" lon="7.03435">
        <ele>1094.12</ele>
        <time>2011-05-29T12:48:31Z</time>
      </trkpt>
      <trkpt lat="43.77095" lon="7.03426">
        <ele>1092.68</ele>
        <time>2011-05-29T12:48:45Z</time>
      </trkpt>
      <trkpt lat="43.77089" lon="7.0342">
        <ele>1090.75</ele>
        <time>2011-05-29T12:48:53Z</time>
      </trkpt>
      <trkpt lat="43.77081" lon="7.03413">
        <ele>1088.83</ele>
        <time>2011-05-29T12:49:07Z</time>
      </trkpt>
      <trkpt lat="43.77079" lon="7.03411">
        <ele>1087.87</ele>
        <time>2011-05-29T12:49:10Z</time>
      </trkpt>
      <trkpt lat="43.77076" lon="7.03409">
        <ele>1087.39</ele>
        <time>2011-05-29T12:49:13Z</time>
      </trkpt>
      <trkpt lat="43.77073" lon="7.03408">
        <ele>1086.91</ele>
        <time>2011-05-29T12:49:30Z</time>
      </trkpt>
      <trkpt lat="43.77068" lon="7.03405">
        <ele>1085.47</ele>
        <time>2011-05-29T12:49:36Z</time>
      </trkpt>
      <trkpt lat="43.77059" lon="7.03398">
        <ele>1083.54</ele>
        <time>2011-05-29T12:49:50Z</time>
      </trkpt>
      <trkpt lat="43.77052" lon="7.03394">
        <ele>1081.62</ele>
        <time>2011-05-29T12:50:02Z</time>
      </trkpt>
      <trkpt lat="43.77044" lon="7.03388">
        <ele>1078.74</ele>
        <time>2011-05-29T12:50:15Z</time>
      </trkpt>
      <trkpt lat="43.77037" lon="7.03383">
        <ele>1076.81</ele>
        <time>2011-05-29T12:50:24Z</time>
      </trkpt>
      <trkpt lat="43.77033" lon="7.03381">
        <ele>1075.37</ele>
        <time>2011-05-29T12:50:32Z</time>
      </trkpt>
      <trkpt lat="43.77025" lon="7.03375">
        <ele>1072.01</ele>
        <time>2011-05-29T12:50:41Z</time>
      </trkpt>
      <trkpt lat="43.77023" lon="7.03375">
        <ele>1071.53</ele>
        <time>2011-05-29T12:50:44Z</time>
      </trkpt>
      <trkpt lat="43.77021" lon="7.03374">
        <ele>1072.01</ele>
        <time>2011-05-29T12:50:46Z</time>
      </trkpt>
      <trkpt lat="43.77012" lon="7.03366">
        <ele>1068.64</ele>
        <time>2011-05-29T12:51:01Z</time>
      </trkpt>
      <trkpt lat="43.77003" lon="7.0336">
        <ele>1066.24</ele>
        <time>2011-05-29T12:51:14Z</time>
      </trkpt>
      <trkpt lat="43.76999" lon="7.03363">
        <ele>1064.8</ele>
        <time>2011-05-29T12:51:24Z</time>
      </trkpt>
      <trkpt lat="43.76984" lon="7.03358">
        <ele>1062.87</ele>
        <time>2011-05-29T12:51:34Z</time>
      </trkpt>
      <trkpt lat="43.76973" lon="7.0334">
        <ele>1059.51</ele>
        <time>2011-05-29T12:51:46Z</time>
      </trkpt>
      <trkpt lat="43.76971" lon="7.03335">
        <ele>1059.03</ele>
        <time>2011-05-29T12:52:00Z</time>
      </trkpt>
      <trkpt lat="43.76968" lon="7.03334">
        <ele>1057.59</ele>
        <time>2011-05-29T12:52:14Z</time>
      </trkpt>
      <trkpt lat="43.76963" lon="7.03331">
        <ele>1055.67</ele>
        <time>2011-05-29T12:52:20Z</time>
      </trkpt>
      <trkpt lat="43.76955" lon="7.03319">
        <ele>1052.78</ele>
        <time>2011-05-29T12:52:31Z</time>
      </trkpt>
      <trkpt lat="43.76951" lon="7.03315">
        <ele>1052.3</ele>
        <time>2011-05-29T12:52:43Z</time>
      </trkpt>
      <trkpt lat="43.76948" lon="7.03314">
        <ele>1051.82</ele>
        <time>2011-05-29T12:52:57Z</time>
      </trkpt>
      <trkpt lat="43.7694" lon="7.03304">
        <ele>1048.45</ele>
        <time>2011-05-29T12:53:11Z</time>
      </trkpt>
      <trkpt lat="43.76931" lon="7.03293">
        <ele>1045.57</ele>
        <time>2011-05-29T12:53:24Z</time>
      </trkpt>
      <trkpt lat="43.76926" lon="7.03284">
        <ele>1043.17</ele>
        <time>2011-05-29T12:53:33Z</time>
      </trkpt>
      <trkpt lat="43.76914" lon="7.03272">
        <ele>1039.8</ele>
        <time>2011-05-29T12:53:46Z</time>
      </trkpt>
      <trkpt lat="43.76908" lon="7.03265">
        <ele>1037.4</ele>
        <time>2011-05-29T12:53:58Z</time>
      </trkpt>
      <trkpt lat="43.76904" lon="7.03254">
        <ele>1035</ele>
        <time>2011-05-29T12:54:10Z</time>
      </trkpt>
      <trkpt lat="43.76903" lon="7.03249">
        <ele>1035</ele>
        <time>2011-05-29T12:54:23Z</time>
      </trkpt>
      <trkpt lat="43.76903" lon="7.03249">
        <ele>1034.52</ele>
        <time>2011-05-29T12:54:38Z</time>
      </trkpt>
      <trkpt lat="43.76902" lon="7.0325">
        <ele>1034.52</ele>
        <time>2011-05-29T12:54:41Z</time>
      </trkpt>
      <trkpt lat="43.76899" lon="7.03258">
        <ele>1036.44</ele>
        <time>2011-05-29T12:54:52Z</time>
      </trkpt>
      <trkpt lat="43.76894" lon="7.0326">
        <ele>1035.96</ele>
        <time>2011-05-29T12:55:03Z</time>
      </trkpt>
      <trkpt lat="43.76894" lon="7.0326">
        <ele>1035.96</ele>
        <time>2011-05-29T12:55:24Z</time>
      </trkpt>
      <trkpt lat="43.76893" lon="7.03258">
        <ele>1035.48</ele>
        <time>2011-05-29T12:55:28Z</time>
      </trkpt>
      <trkpt lat="43.76888" lon="7.0325">
        <ele>1032.59</ele>
        <time>2011-05-29T12:55:37Z</time>
      </trkpt>
      <trkpt lat="43.76886" lon="7.03244">
        <ele>1031.63</ele>
        <time>2011-05-29T12:55:42Z</time>
      </trkpt>
      <trkpt lat="43.7688" lon="7.03241">
        <ele>1031.15</ele>
        <time>2011-05-29T12:55:50Z</time>
      </trkpt>
      <trkpt lat="43.7687" lon="7.03234">
        <ele>1028.75</ele>
        <time>2011-05-29T12:56:05Z</time>
      </trkpt>
      <trkpt lat="43.76868" lon="7.03233">
        <ele>1028.27</ele>
        <time>2011-05-29T12:56:06Z</time>
      </trkpt>
      <trkpt lat="43.76866" lon="7.03231">
        <ele>1027.79</ele>
        <time>2011-05-29T12:56:09Z</time>
      </trkpt>
      <trkpt lat="43.76856" lon="7.0323">
        <ele>1025.38</ele>
        <time>2011-05-29T12:56:24Z</time>
      </trkpt>
      <trkpt lat="43.76848" lon="7.03222">
        <ele>1023.46</ele>
        <time>2011-05-29T12:56:36Z</time>
      </trkpt>
      <trkpt lat="43.76843" lon="7.03219">
        <ele>1022.98</ele>
        <time>2011-05-29T12:56:41Z</time>
      </trkpt>
      <trkpt lat="43.76827" lon="7.03218">
        <ele>1022.5</ele>
        <time>2011-05-29T12:56:55Z</time>
      </trkpt>
      <trkpt lat="43.76818" lon="7.03218">
        <ele>1021.54</ele>
        <time>2011-05-29T12:57:04Z</time>
      </trkpt>
      <trkpt lat="43.76804" lon="7.03217">
        <ele>1019.62</ele>
        <time>2011-05-29T12:57:19Z</time>
      </trkpt>
      <trkpt lat="43.76794" lon="7.03215">
        <ele>1017.21</ele>
        <time>2011-05-29T12:57:32Z</time>
      </trkpt>
      <trkpt lat="43.76791" lon="7.03216">
        <ele>1016.73</ele>
        <time>2011-05-29T12:57:36Z</time>
      </trkpt>
      <trkpt lat="43.76788" lon="7.03218">
        <ele>1015.29</ele>
        <time>2011-05-29T12:57:39Z</time>
      </trkpt>
      <trkpt lat="43.76772" lon="7.03225">
        <ele>1014.33</ele>
        <time>2011-05-29T12:57:54Z</time>
      </trkpt>
      <trkpt lat="43.76766" lon="7.0323">
        <ele>1014.33</ele>
        <time>2011-05-29T12:58:01Z</time>
      </trkpt>
      <trkpt lat="43.76762" lon="7.03233">
        <ele>1012.41</ele>
        <time>2011-05-29T12:58:07Z</time>
      </trkpt>
      <trkpt lat="43.76751" lon="7.03241">
        <ele>1010</ele>
        <time>2011-05-29T12:58:22Z</time>
      </trkpt>
      <trkpt lat="43.76747" lon="7.03242">
        <ele>1008.08</ele>
        <time>2011-05-29T12:58:28Z</time>
      </trkpt>
      <trkpt lat="43.76745" lon="7.03242">
        <ele>1008.08</ele>
        <time>2011-05-29T12:58:30Z</time>
      </trkpt>
      <trkpt lat="43.76737" lon="7.03251">
        <ele>1007.12</ele>
        <time>2011-05-29T12:58:41Z</time>
      </trkpt>
      <trkpt lat="43.76728" lon="7.0326">
        <ele>1006.16</ele>
        <time>2011-05-29T12:58:51Z</time>
      </trkpt>
      <trkpt lat="43.76725" lon="7.03265">
        <ele>1005.68</ele>
        <time>2011-05-29T12:58:57Z</time>
      </trkpt>
      <trkpt lat="43.76712" lon="7.03274">
        <ele>1003.27</ele>
        <time>2011-05-29T12:59:13Z</time>
      </trkpt>
      <trkpt lat="43.76701" lon="7.03285">
        <ele>1002.31</ele>
        <time>2011-05-29T12:59:27Z</time>
      </trkpt>
      <trkpt lat="43.76695" lon="7.03294">
        <ele>1001.35</ele>
        <time>2011-05-29T12:59:39Z</time>
      </trkpt>
      <trkpt lat="43.76692" lon="7.03299">
        <ele>1000.87</ele>
        <time>2011-05-29T12:59:56Z</time>
      </trkpt>
      <trkpt lat="43.76691" lon="7.03301">
        <ele>1000.39</ele>
        <time>2011-05-29T13:00:02Z</time>
      </trkpt>
      <trkpt lat="43.76685" lon="7.03304">
        <ele>998.95</ele>
        <time>2011-05-29T13:00:13Z</time>
      </trkpt>
      <trkpt lat="43.76682" lon="7.03307">
        <ele>997.99</ele>
        <time>2011-05-29T13:00:16Z</time>
      </trkpt>
      <trkpt lat="43.76669" lon="7.03318">
        <ele>996.54</ele>
        <time>2011-05-29T13:00:27Z</time>
      </trkpt>
      <trkpt lat="43.76663" lon="7.03326">
        <ele>996.06</ele>
        <time>2011-05-29T13:00:34Z</time>
      </trkpt>
      <trkpt lat="43.76656" lon="7.03335">
        <ele>995.58</ele>
        <time>2011-05-29T13:00:50Z</time>
      </trkpt>
      <trkpt lat="43.76644" lon="7.03349">
        <ele>993.18</ele>
        <time>2011-05-29T13:01:04Z</time>
      </trkpt>
      <trkpt lat="43.76642" lon="7.0335">
        <ele>992.7</ele>
        <time>2011-05-29T13:01:06Z</time>
      </trkpt>
      <trkpt lat="43.7664" lon="7.03352">
        <ele>992.7</ele>
        <time>2011-05-29T13:01:08Z</time>
      </trkpt>
      <trkpt lat="43.76625" lon="7.03368">
        <ele>991.26</ele>
        <time>2011-05-29T13:01:25Z</time>
      </trkpt>
      <trkpt lat="43.76624" lon="7.03369">
        <ele>990.78</ele>
        <time>2011-05-29T13:01:26Z</time>
      </trkpt>
      <trkpt lat="43.76621" lon="7.03371">
        <ele>989.33</ele>
        <time>2011-05-29T13:01:29Z</time>
      </trkpt>
      <trkpt lat="43.76608" lon="7.03374">
        <ele>987.89</ele>
        <time>2011-05-29T13:01:41Z</time>
      </trkpt>
      <trkpt lat="43.76606" lon="7.03378">
        <ele>987.41</ele>
        <time>2011-05-29T13:01:48Z</time>
      </trkpt>
      <trkpt lat="43.76604" lon="7.0338">
        <ele>986.93</ele>
        <time>2011-05-29T13:01:51Z</time>
      </trkpt>
      <trkpt lat="43.76601" lon="7.03376">
        <ele>985.01</ele>
        <time>2011-05-29T13:02:04Z</time>
      </trkpt>
      <trkpt lat="43.76595" lon="7.03375">
        <ele>983.57</ele>
        <time>2011-05-29T13:02:17Z</time>
      </trkpt>
      <trkpt lat="43.76595" lon="7.03376">
        <ele>983.57</ele>
        <time>2011-05-29T13:02:19Z</time>
      </trkpt>
      <trkpt lat="43.7659" lon="7.03384">
        <ele>983.57</ele>
        <time>2011-05-29T13:02:25Z</time>
      </trkpt>
      <trkpt lat="43.76583" lon="7.03401">
        <ele>983.09</ele>
        <time>2011-05-29T13:02:39Z</time>
      </trkpt>
      <trkpt lat="43.76577" lon="7.03416">
        <ele>982.6</ele>
        <time>2011-05-29T13:02:49Z</time>
      </trkpt>
      <trkpt lat="43.76575" lon="7.03422">
        <ele>982.12</ele>
        <time>2011-05-29T13:02:54Z</time>
      </trkpt>
      <trkpt lat="43.76572" lon="7.03431">
        <ele>982.12</ele>
        <time>2011-05-29T13:03:00Z</time>
      </trkpt>
      <trkpt lat="43.7657" lon="7.03434">
        <ele>980.2</ele>
        <time>2011-05-29T13:03:02Z</time>
      </trkpt>
      <trkpt lat="43.76569" lon="7.03435">
        <ele>981.16</ele>
        <time>2011-05-29T13:03:04Z</time>
      </trkpt>
      <trkpt lat="43.7656" lon="7.03455">
        <ele>979.72</ele>
        <time>2011-05-29T13:03:18Z</time>
      </trkpt>
      <trkpt lat="43.76558" lon="7.0346">
        <ele>980.2</ele>
        <time>2011-05-29T13:03:22Z</time>
      </trkpt>
      <trkpt lat="43.76556" lon="7.03466">
        <ele>978.76</ele>
        <time>2011-05-29T13:03:26Z</time>
      </trkpt>
      <trkpt lat="43.76551" lon="7.03482">
        <ele>977.8</ele>
        <time>2011-05-29T13:03:34Z</time>
      </trkpt>
      <trkpt lat="43.7655" lon="7.03486">
        <ele>978.28</ele>
        <time>2011-05-29T13:03:48Z</time>
      </trkpt>
      <trkpt lat="43.7655" lon="7.03486">
        <ele>978.28</ele>
        <time>2011-05-29T13:04:03Z</time>
      </trkpt>
      <trkpt lat="43.7655" lon="7.03486">
        <ele>978.28</ele>
        <time>2011-05-29T13:04:21Z</time>
      </trkpt>
      <trkpt lat="43.7655" lon="7.03486">
        <ele>978.28</ele>
        <time>2011-05-29T13:04:48Z</time>
      </trkpt>
      <trkpt lat="43.7655" lon="7.03486">
        <ele>978.28</ele>
        <time>2011-05-29T13:05:20Z</time>
      </trkpt>
      <trkpt lat="43.7655" lon="7.03486">
        <ele>977.8</ele>
        <time>2011-05-29T13:05:50Z</time>
      </trkpt>
      <trkpt lat="43.76551" lon="7.03487">
        <ele>978.28</ele>
        <time>2011-05-29T13:06:08Z</time>
      </trkpt>
      <trkpt lat="43.76551" lon="7.03486">
        <ele>977.32</ele>
        <time>2011-05-29T13:06:30Z</time>
      </trkpt>
      <trkpt lat="43.76552" lon="7.03487">
        <ele>977.32</ele>
        <time>2011-05-29T13:06:48Z</time>
      </trkpt>
      <trkpt lat="43.76552" lon="7.03487">
        <ele>977.8</ele>
        <time>2011-05-29T13:07:13Z</time>
      </trkpt>
      <trkpt lat="43.76552" lon="7.03488">
        <ele>977.32</ele>
        <time>2011-05-29T13:07:33Z</time>
      </trkpt>
      <trkpt lat="43.76549" lon="7.03498">
        <ele>976.84</ele>
        <time>2011-05-29T13:07:50Z</time>
      </trkpt>
      <trkpt lat="43.76549" lon="7.03498">
        <ele>976.84</ele>
        <time>2011-05-29T13:08:03Z</time>
      </trkpt>
      <trkpt lat="43.7655" lon="7.03505">
        <ele>976.84</ele>
        <time>2011-05-29T13:08:20Z</time>
      </trkpt>
      <trkpt lat="43.76549" lon="7.03518">
        <ele>976.36</ele>
        <time>2011-05-29T13:08:31Z</time>
      </trkpt>
      <trkpt lat="43.76543" lon="7.03537">
        <ele>976.36</ele>
        <time>2011-05-29T13:08:46Z</time>
      </trkpt>
      <trkpt lat="43.76534" lon="7.03554">
        <ele>976.36</ele>
        <time>2011-05-29T13:09:01Z</time>
      </trkpt>
      <trkpt lat="43.76524" lon="7.03572">
        <ele>976.36</ele>
        <time>2011-05-29T13:09:15Z</time>
      </trkpt>
      <trkpt lat="43.76516" lon="7.03591">
        <ele>975.88</ele>
        <time>2011-05-29T13:09:30Z</time>
      </trkpt>
      <trkpt lat="43.76514" lon="7.03596">
        <ele>974.91</ele>
        <time>2011-05-29T13:09:34Z</time>
      </trkpt>
      <trkpt lat="43.76511" lon="7.03604">
        <ele>975.39</ele>
        <time>2011-05-29T13:09:42Z</time>
      </trkpt>
      <trkpt lat="43.76509" lon="7.03608">
        <ele>975.39</ele>
        <time>2011-05-29T13:09:45Z</time>
      </trkpt>
      <trkpt lat="43.76507" lon="7.03613">
        <ele>975.39</ele>
        <time>2011-05-29T13:09:49Z</time>
      </trkpt>
      <trkpt lat="43.76503" lon="7.03622">
        <ele>974.91</ele>
        <time>2011-05-29T13:09:55Z</time>
      </trkpt>
      <trkpt lat="43.765" lon="7.03649">
        <ele>973.47</ele>
        <time>2011-05-29T13:10:12Z</time>
      </trkpt>
      <trkpt lat="43.76504" lon="7.03671">
        <ele>972.99</ele>
        <time>2011-05-29T13:10:26Z</time>
      </trkpt>
      <trkpt lat="43.76503" lon="7.03679">
        <ele>972.99</ele>
        <time>2011-05-29T13:10:32Z</time>
      </trkpt>
      <trkpt lat="43.76499" lon="7.03696">
        <ele>971.07</ele>
        <time>2011-05-29T13:10:44Z</time>
      </trkpt>
      <trkpt lat="43.7649" lon="7.03722">
        <ele>971.07</ele>
        <time>2011-05-29T13:11:02Z</time>
      </trkpt>
      <trkpt lat="43.76488" lon="7.03751">
        <ele>968.67</ele>
        <time>2011-05-29T13:11:19Z</time>
      </trkpt>
      <trkpt lat="43.76487" lon="7.0377">
        <ele>968.18</ele>
        <time>2011-05-29T13:11:31Z</time>
      </trkpt>
      <trkpt lat="43.76481" lon="7.03795">
        <ele>967.22</ele>
        <time>2011-05-29T13:11:49Z</time>
      </trkpt>
      <trkpt lat="43.76471" lon="7.03816">
        <ele>966.74</ele>
        <time>2011-05-29T13:12:04Z</time>
      </trkpt>
      <trkpt lat="43.76463" lon="7.03832">
        <ele>966.74</ele>
        <time>2011-05-29T13:12:18Z</time>
      </trkpt>
      <trkpt lat="43.76449" lon="7.03842">
        <ele>966.26</ele>
        <time>2011-05-29T13:12:31Z</time>
      </trkpt>
      <trkpt lat="43.76438" lon="7.03839">
        <ele>966.74</ele>
        <time>2011-05-29T13:12:45Z</time>
      </trkpt>
      <trkpt lat="43.76436" lon="7.03843">
        <ele>967.22</ele>
        <time>2011-05-29T13:12:59Z</time>
      </trkpt>
      <trkpt lat="43.76426" lon="7.03847">
        <ele>967.22</ele>
        <time>2011-05-29T13:13:13Z</time>
      </trkpt>
      <trkpt lat="43.76425" lon="7.03847">
        <ele>966.74</ele>
        <time>2011-05-29T13:13:14Z</time>
      </trkpt>
      <trkpt lat="43.76415" lon="7.03848">
        <ele>966.74</ele>
        <time>2011-05-29T13:13:21Z</time>
      </trkpt>
      <trkpt lat="43.76403" lon="7.0385">
        <ele>966.26</ele>
        <time>2011-05-29T13:13:32Z</time>
      </trkpt>
      <trkpt lat="43.76386" lon="7.03859">
        <ele>966.26</ele>
        <time>2011-05-29T13:13:47Z</time>
      </trkpt>
      <trkpt lat="43.76383" lon="7.03863">
        <ele>966.74</ele>
        <time>2011-05-29T13:13:52Z</time>
      </trkpt>
      <trkpt lat="43.76369" lon="7.03886">
        <ele>966.26</ele>
        <time>2011-05-29T13:14:06Z</time>
      </trkpt>
      <trkpt lat="43.76366" lon="7.03894">
        <ele>965.78</ele>
        <time>2011-05-29T13:14:10Z</time>
      </trkpt>
      <trkpt lat="43.76365" lon="7.03903">
        <ele>964.82</ele>
        <time>2011-05-29T13:14:14Z</time>
      </trkpt>
      <trkpt lat="43.76374" lon="7.03911">
        <ele>966.26</ele>
        <time>2011-05-29T13:14:26Z</time>
      </trkpt>
      <trkpt lat="43.76374" lon="7.03911">
        <ele>966.26</ele>
        <time>2011-05-29T13:15:03Z</time>
      </trkpt>
      <trkpt lat="43.76374" lon="7.03911">
        <ele>965.78</ele>
        <time>2011-05-29T13:15:40Z</time>
      </trkpt>
      <trkpt lat="43.76374" lon="7.03911">
        <ele>965.3</ele>
        <time>2011-05-29T13:16:11Z</time>
      </trkpt>
      <trkpt lat="43.76374" lon="7.0391">
        <ele>965.3</ele>
        <time>2011-05-29T13:16:38Z</time>
      </trkpt>
      <trkpt lat="43.76374" lon="7.0391">
        <ele>966.74</ele>
        <time>2011-05-29T13:17:12Z</time>
      </trkpt>
      <trkpt lat="43.76374" lon="7.0391">
        <ele>966.74</ele>
        <time>2011-05-29T13:17:41Z</time>
      </trkpt>
      <trkpt lat="43.76374" lon="7.0391">
        <ele>966.26</ele>
        <time>2011-05-29T13:18:06Z</time>
      </trkpt>
      <trkpt lat="43.76373" lon="7.0391">
        <ele>965.78</ele>
        <time>2011-05-29T13:18:40Z</time>
      </trkpt>
      <trkpt lat="43.7637" lon="7.03909">
        <ele>965.3</ele>
        <time>2011-05-29T13:18:47Z</time>
      </trkpt>
      <trkpt lat="43.76366" lon="7.03895">
        <ele>966.26</ele>
        <time>2011-05-29T13:18:59Z</time>
      </trkpt>
      <trkpt lat="43.76365" lon="7.03897">
        <ele>965.78</ele>
        <time>2011-05-29T13:19:01Z</time>
      </trkpt>
      <trkpt lat="43.7636" lon="7.03921">
        <ele>966.26</ele>
        <time>2011-05-29T13:19:15Z</time>
      </trkpt>
      <trkpt lat="43.76356" lon="7.03929">
        <ele>964.82</ele>
        <time>2011-05-29T13:19:21Z</time>
      </trkpt>
      <trkpt lat="43.76354" lon="7.03931">
        <ele>965.78</ele>
        <time>2011-05-29T13:19:23Z</time>
      </trkpt>
      <trkpt lat="43.76351" lon="7.03934">
        <ele>966.26</ele>
        <time>2011-05-29T13:19:26Z</time>
      </trkpt>
      <trkpt lat="43.76341" lon="7.03948">
        <ele>965.78</ele>
        <time>2011-05-29T13:19:41Z</time>
      </trkpt>
      <trkpt lat="43.76324" lon="7.03968">
        <ele>965.78</ele>
        <time>2011-05-29T13:19:57Z</time>
      </trkpt>
      <trkpt lat="43.76311" lon="7.03985">
        <ele>965.3</ele>
        <time>2011-05-29T13:20:13Z</time>
      </trkpt>
      <trkpt lat="43.76311" lon="7.03984">
        <ele>965.78</ele>
        <time>2011-05-29T13:20:14Z</time>
      </trkpt>
      <trkpt lat="43.76313" lon="7.03977">
        <ele>965.78</ele>
        <time>2011-05-29T13:20:19Z</time>
      </trkpt>
      <trkpt lat="43.76327" lon="7.03959">
        <ele>965.3</ele>
        <time>2011-05-29T13:20:34Z</time>
      </trkpt>
      <trkpt lat="43.76338" lon="7.03943">
        <ele>964.82</ele>
        <time>2011-05-29T13:20:48Z</time>
      </trkpt>
      <trkpt lat="43.76354" lon="7.03927">
        <ele>965.78</ele>
        <time>2011-05-29T13:21:03Z</time>
      </trkpt>
      <trkpt lat="43.76361" lon="7.03914">
        <ele>965.78</ele>
        <time>2011-05-29T13:21:17Z</time>
      </trkpt>
      <trkpt lat="43.76362" lon="7.03914">
        <ele>966.26</ele>
        <time>2011-05-29T13:21:48Z</time>
      </trkpt>
      <trkpt lat="43.76362" lon="7.03914">
        <ele>964.34</ele>
        <time>2011-05-29T13:21:58Z</time>
      </trkpt>
      <trkpt lat="43.76362" lon="7.03914">
        <ele>969.63</ele>
        <time>2011-05-29T13:22:02Z</time>
      </trkpt>
      <trkpt lat="43.76362" lon="7.03914">
        <ele>966.26</ele>
        <time>2011-05-29T13:22:03Z</time>
      </trkpt>
      <trkpt lat="43.76362" lon="7.03914">
        <ele>960.01</ele>
        <time>2011-05-29T13:22:14Z</time>
      </trkpt>
      <trkpt lat="43.76362" lon="7.03914">
        <ele>975.39</ele>
        <time>2011-05-29T13:22:15Z</time>
      </trkpt>
      <trkpt lat="43.76362" lon="7.03914">
        <ele>967.7</ele>
        <time>2011-05-29T13:22:16Z</time>
      </trkpt>
      <trkpt lat="43.76362" lon="7.03914">
        <ele>964.82</ele>
        <time>2011-05-29T13:22:18Z</time>
      </trkpt>
      <trkpt lat="43.76363" lon="7.03912">
        <ele>965.78</ele>
        <time>2011-05-29T13:22:41Z</time>
      </trkpt>
      <trkpt lat="43.76363" lon="7.03912">
        <ele>966.74</ele>
        <time>2011-05-29T13:23:04Z</time>
      </trkpt>
      <trkpt lat="43.76363" lon="7.03911">
        <ele>967.22</ele>
        <time>2011-05-29T13:23:40Z</time>
      </trkpt>
      <trkpt lat="43.76363" lon="7.03911">
        <ele>965.3</ele>
        <time>2011-05-29T13:23:45Z</time>
      </trkpt>
      <trkpt lat="43.76363" lon="7.03911">
        <ele>966.74</ele>
        <time>2011-05-29T13:23:50Z</time>
      </trkpt>
      <trkpt lat="43.76363" lon="7.03911">
        <ele>965.78</ele>
        <time>2011-05-29T13:24:06Z</time>
      </trkpt>
      <trkpt lat="43.76363" lon="7.03911">
        <ele>967.7</ele>
        <time>2011-05-29T13:24:10Z</time>
      </trkpt>
      <trkpt lat="43.76371" lon="7.0391">
        <ele>967.7</ele>
        <time>2011-05-29T13:24:26Z</time>
      </trkpt>
      <trkpt lat="43.76371" lon="7.0391">
        <ele>967.22</ele>
        <time>2011-05-29T13:25:01Z</time>
      </trkpt>
      <trkpt lat="43.76372" lon="7.03909">
        <ele>967.22</ele>
        <time>2011-05-29T13:25:31Z</time>
      </trkpt>
      <trkpt lat="43.76372" lon="7.03909">
        <ele>966.74</ele>
        <time>2011-05-29T13:26:06Z</time>
      </trkpt>
      <trkpt lat="43.76372" lon="7.03909">
        <ele>967.22</ele>
        <time>2011-05-29T13:26:28Z</time>
      </trkpt>
      <trkpt lat="43.76372" lon="7.03909">
        <ele>966.26</ele>
        <time>2011-05-29T13:26:57Z</time>
      </trkpt>
      <trkpt lat="43.76372" lon="7.03909">
        <ele>967.22</ele>
        <time>2011-05-29T13:27:33Z</time>
      </trkpt>
      <trkpt lat="43.76373" lon="7.03909">
        <ele>968.18</ele>
        <time>2011-05-29T13:27:48Z</time>
      </trkpt>
      <trkpt lat="43.76373" lon="7.03909">
        <ele>966.74</ele>
        <time>2011-05-29T13:28:04Z</time>
      </trkpt>
      <trkpt lat="43.76373" lon="7.03909">
        <ele>966.26</ele>
        <time>2011-05-29T13:28:08Z</time>
      </trkpt>
      <trkpt lat="43.76373" lon="7.0391">
        <ele>967.22</ele>
        <time>2011-05-29T13:28:33Z</time>
      </trkpt>
      <trkpt lat="43.76373" lon="7.0391">
        <ele>966.74</ele>
        <time>2011-05-29T13:28:51Z</time>
      </trkpt>
      <trkpt lat="43.76373" lon="7.0391">
        <ele>966.74</ele>
        <time>2011-05-29T13:29:21Z</time>
      </trkpt>
      <trkpt lat="43.76373" lon="7.0391">
        <ele>967.22</ele>
        <time>2011-05-29T13:29:58Z</time>
      </trkpt>
      <trkpt lat="43.76373" lon="7.0391">
        <ele>967.22</ele>
        <time>2011-05-29T13:30:08Z</time>
      </trkpt>
      <trkpt lat="43.76373" lon="7.0391">
        <ele>968.67</ele>
        <time>2011-05-29T13:30:33Z</time>
      </trkpt>
      <trkpt lat="43.76371" lon="7.0391">
        <ele>966.74</ele>
        <time>2011-05-29T13:30:40Z</time>
      </trkpt>
      <trkpt lat="43.76362" lon="7.03909">
        <ele>965.78</ele>
        <time>2011-05-29T13:30:50Z</time>
      </trkpt>
      <trkpt lat="43.76358" lon="7.03913">
        <ele>966.26</ele>
        <time>2011-05-29T13:30:53Z</time>
      </trkpt>
      <trkpt lat="43.76347" lon="7.03934">
        <ele>966.26</ele>
        <time>2011-05-29T13:31:11Z</time>
      </trkpt>
      <trkpt lat="43.76335" lon="7.03949">
        <ele>966.26</ele>
        <time>2011-05-29T13:31:26Z</time>
      </trkpt>
      <trkpt lat="43.76322" lon="7.03963">
        <ele>965.78</ele>
        <time>2011-05-29T13:31:41Z</time>
      </trkpt>
      <trkpt lat="43.76306" lon="7.0398">
        <ele>967.22</ele>
        <time>2011-05-29T13:31:57Z</time>
      </trkpt>
      <trkpt lat="43.76295" lon="7.03993">
        <ele>966.74</ele>
        <time>2011-05-29T13:32:12Z</time>
      </trkpt>
      <trkpt lat="43.76284" lon="7.04006">
        <ele>967.7</ele>
        <time>2011-05-29T13:32:27Z</time>
      </trkpt>
      <trkpt lat="43.7627" lon="7.04017">
        <ele>969.15</ele>
        <time>2011-05-29T13:32:44Z</time>
      </trkpt>
      <trkpt lat="43.76252" lon="7.04027">
        <ele>969.63</ele>
        <time>2011-05-29T13:33:00Z</time>
      </trkpt>
      <trkpt lat="43.76234" lon="7.04033">
        <ele>969.15</ele>
        <time>2011-05-29T13:33:15Z</time>
      </trkpt>
      <trkpt lat="43.76228" lon="7.04038">
        <ele>970.59</ele>
        <time>2011-05-29T13:33:23Z</time>
      </trkpt>
      <trkpt lat="43.76216" lon="7.04053">
        <ele>970.11</ele>
        <time>2011-05-29T13:33:37Z</time>
      </trkpt>
      <trkpt lat="43.76204" lon="7.04061">
        <ele>970.59</ele>
        <time>2011-05-29T13:33:46Z</time>
      </trkpt>
      <trkpt lat="43.76194" lon="7.04072">
        <ele>970.59</ele>
        <time>2011-05-29T13:33:56Z</time>
      </trkpt>
      <trkpt lat="43.76183" lon="7.04091">
        <ele>970.11</ele>
        <time>2011-05-29T13:34:11Z</time>
      </trkpt>
      <trkpt lat="43.76178" lon="7.041">
        <ele>969.15</ele>
        <time>2011-05-29T13:34:18Z</time>
      </trkpt>
      <trkpt lat="43.7617" lon="7.04113">
        <ele>969.15</ele>
        <time>2011-05-29T13:34:29Z</time>
      </trkpt>
      <trkpt lat="43.76157" lon="7.04131">
        <ele>970.59</ele>
        <time>2011-05-29T13:34:43Z</time>
      </trkpt>
      <trkpt lat="43.76138" lon="7.04151">
        <ele>970.11</ele>
        <time>2011-05-29T13:35:00Z</time>
      </trkpt>
      <trkpt lat="43.76125" lon="7.0416">
        <ele>970.59</ele>
        <time>2011-05-29T13:35:09Z</time>
      </trkpt>
      <trkpt lat="43.76107" lon="7.04175">
        <ele>968.18</ele>
        <time>2011-05-29T13:35:24Z</time>
      </trkpt>
      <trkpt lat="43.76091" lon="7.04197">
        <ele>969.15</ele>
        <time>2011-05-29T13:35:39Z</time>
      </trkpt>
      <trkpt lat="43.7607" lon="7.04216">
        <ele>969.15</ele>
        <time>2011-05-29T13:35:55Z</time>
      </trkpt>
      <trkpt lat="43.76056" lon="7.04236">
        <ele>968.18</ele>
        <time>2011-05-29T13:36:10Z</time>
      </trkpt>
      <trkpt lat="43.76038" lon="7.04254">
        <ele>970.11</ele>
        <time>2011-05-29T13:36:26Z</time>
      </trkpt>
      <trkpt lat="43.76024" lon="7.04272">
        <ele>970.59</ele>
        <time>2011-05-29T13:36:41Z</time>
      </trkpt>
      <trkpt lat="43.7601" lon="7.04289">
        <ele>972.03</ele>
        <time>2011-05-29T13:36:55Z</time>
      </trkpt>
      <trkpt lat="43.75997" lon="7.0431">
        <ele>972.51</ele>
        <time>2011-05-29T13:37:10Z</time>
      </trkpt>
      <trkpt lat="43.7598" lon="7.04332">
        <ele>972.99</ele>
        <time>2011-05-29T13:37:26Z</time>
      </trkpt>
      <trkpt lat="43.75961" lon="7.04345">
        <ele>972.51</ele>
        <time>2011-05-29T13:37:41Z</time>
      </trkpt>
      <trkpt lat="43.75942" lon="7.04351">
        <ele>972.51</ele>
        <time>2011-05-29T13:37:55Z</time>
      </trkpt>
      <trkpt lat="43.75929" lon="7.04356">
        <ele>972.51</ele>
        <time>2011-05-29T13:38:08Z</time>
      </trkpt>
      <trkpt lat="43.75925" lon="7.04358">
        <ele>973.95</ele>
        <time>2011-05-29T13:38:16Z</time>
      </trkpt>
      <trkpt lat="43.75914" lon="7.0436">
        <ele>972.99</ele>
        <time>2011-05-29T13:38:23Z</time>
      </trkpt>
      <trkpt lat="43.75892" lon="7.04367">
        <ele>974.43</ele>
        <time>2011-05-29T13:38:38Z</time>
      </trkpt>
      <trkpt lat="43.75871" lon="7.04377">
        <ele>973.47</ele>
        <time>2011-05-29T13:38:53Z</time>
      </trkpt>
      <trkpt lat="43.75853" lon="7.04389">
        <ele>973.47</ele>
        <time>2011-05-29T13:39:09Z</time>
      </trkpt>
      <trkpt lat="43.75844" lon="7.044">
        <ele>972.99</ele>
        <time>2011-05-29T13:39:18Z</time>
      </trkpt>
      <trkpt lat="43.75841" lon="7.04403">
        <ele>973.47</ele>
        <time>2011-05-29T13:39:22Z</time>
      </trkpt>
      <trkpt lat="43.75824" lon="7.0442">
        <ele>972.51</ele>
        <time>2011-05-29T13:39:38Z</time>
      </trkpt>
      <trkpt lat="43.75811" lon="7.0444">
        <ele>972.99</ele>
        <time>2011-05-29T13:39:52Z</time>
      </trkpt>
      <trkpt lat="43.75801" lon="7.04458">
        <ele>973.47</ele>
        <time>2011-05-29T13:40:06Z</time>
      </trkpt>
      <trkpt lat="43.75784" lon="7.0448">
        <ele>973.47</ele>
        <time>2011-05-29T13:40:22Z</time>
      </trkpt>
      <trkpt lat="43.75766" lon="7.04503">
        <ele>974.43</ele>
        <time>2011-05-29T13:40:40Z</time>
      </trkpt>
      <trkpt lat="43.75753" lon="7.04522">
        <ele>974.91</ele>
        <time>2011-05-29T13:40:55Z</time>
      </trkpt>
      <trkpt lat="43.75748" lon="7.04532">
        <ele>974.43</ele>
        <time>2011-05-29T13:41:09Z</time>
      </trkpt>
      <trkpt lat="43.75748" lon="7.04532">
        <ele>973.47</ele>
        <time>2011-05-29T13:41:32Z</time>
      </trkpt>
      <trkpt lat="43.75748" lon="7.04532">
        <ele>972.99</ele>
        <time>2011-05-29T13:41:49Z</time>
      </trkpt>
      <trkpt lat="43.75748" lon="7.04532">
        <ele>972.51</ele>
        <time>2011-05-29T13:42:12Z</time>
      </trkpt>
      <trkpt lat="43.75748" lon="7.04532">
        <ele>972.99</ele>
        <time>2011-05-29T13:42:44Z</time>
      </trkpt>
      <trkpt lat="43.75748" lon="7.04532">
        <ele>972.99</ele>
        <time>2011-05-29T13:43:11Z</time>
      </trkpt>
      <trkpt lat="43.75748" lon="7.04532">
        <ele>973.95</ele>
        <time>2011-05-29T13:43:13Z</time>
      </trkpt>
      <trkpt lat="43.75748" lon="7.04532">
        <ele>970.59</ele>
        <time>2011-05-29T13:43:32Z</time>
      </trkpt>
      <trkpt lat="43.75748" lon="7.04532">
        <ele>973.95</ele>
        <time>2011-05-29T13:43:33Z</time>
      </trkpt>
      <trkpt lat="43.75748" lon="7.04532">
        <ele>972.51</ele>
        <time>2011-05-29T13:43:39Z</time>
      </trkpt>
      <trkpt lat="43.75748" lon="7.04532">
        <ele>974.43</ele>
        <time>2011-05-29T13:44:16Z</time>
      </trkpt>
      <trkpt lat="43.75748" lon="7.04532">
        <ele>972.51</ele>
        <time>2011-05-29T13:44:19Z</time>
      </trkpt>
      <trkpt lat="43.75748" lon="7.04532">
        <ele>972.99</ele>
        <time>2011-05-29T13:44:23Z</time>
      </trkpt>
      <trkpt lat="43.75745" lon="7.04534">
        <ele>972.51</ele>
        <time>2011-05-29T13:44:35Z</time>
      </trkpt>
      <trkpt lat="43.75726" lon="7.04554">
        <ele>972.03</ele>
        <time>2011-05-29T13:44:52Z</time>
      </trkpt>
      <trkpt lat="43.75715" lon="7.04562">
        <ele>972.99</ele>
        <time>2011-05-29T13:45:06Z</time>
      </trkpt>
      <trkpt lat="43.7571" lon="7.04567">
        <ele>972.03</ele>
        <time>2011-05-29T13:45:11Z</time>
      </trkpt>
      <trkpt lat="43.75698" lon="7.04575">
        <ele>971.55</ele>
        <time>2011-05-29T13:45:22Z</time>
      </trkpt>
      <trkpt lat="43.75694" lon="7.04583">
        <ele>972.03</ele>
        <time>2011-05-29T13:45:26Z</time>
      </trkpt>
      <trkpt lat="43.75693" lon="7.04587">
        <ele>972.03</ele>
        <time>2011-05-29T13:45:28Z</time>
      </trkpt>
      <trkpt lat="43.7568" lon="7.04607">
        <ele>971.55</ele>
        <time>2011-05-29T13:45:42Z</time>
      </trkpt>
      <trkpt lat="43.75665" lon="7.04625">
        <ele>970.59</ele>
        <time>2011-05-29T13:45:56Z</time>
      </trkpt>
      <trkpt lat="43.75652" lon="7.04639">
        <ele>968.67</ele>
        <time>2011-05-29T13:46:11Z</time>
      </trkpt>
      <trkpt lat="43.75633" lon="7.04657">
        <ele>968.67</ele>
        <time>2011-05-29T13:46:26Z</time>
      </trkpt>
      <trkpt lat="43.75615" lon="7.04675">
        <ele>968.67</ele>
        <time>2011-05-29T13:46:41Z</time>
      </trkpt>
      <trkpt lat="43.75598" lon="7.04694">
        <ele>967.22</ele>
        <time>2011-05-29T13:46:55Z</time>
      </trkpt>
      <trkpt lat="43.75584" lon="7.04712">
        <ele>966.74</ele>
        <time>2011-05-29T13:47:08Z</time>
      </trkpt>
      <trkpt lat="43.75574" lon="7.04724">
        <ele>966.26</ele>
        <time>2011-05-29T13:47:19Z</time>
      </trkpt>
      <trkpt lat="43.7557" lon="7.0473">
        <ele>965.3</ele>
        <time>2011-05-29T13:47:23Z</time>
      </trkpt>
      <trkpt lat="43.75548" lon="7.04743">
        <ele>965.78</ele>
        <time>2011-05-29T13:47:39Z</time>
      </trkpt>
      <trkpt lat="43.7553" lon="7.04743">
        <ele>968.67</ele>
        <time>2011-05-29T13:47:55Z</time>
      </trkpt>
      <trkpt lat="43.75528" lon="7.04743">
        <ele>968.18</ele>
        <time>2011-05-29T13:47:57Z</time>
      </trkpt>
      <trkpt lat="43.75526" lon="7.04745">
        <ele>969.15</ele>
        <time>2011-05-29T13:48:00Z</time>
      </trkpt>
      <trkpt lat="43.75518" lon="7.04747">
        <ele>969.63</ele>
        <time>2011-05-29T13:48:07Z</time>
      </trkpt>
      <trkpt lat="43.75517" lon="7.04746">
        <ele>970.59</ele>
        <time>2011-05-29T13:48:09Z</time>
      </trkpt>
      <trkpt lat="43.75508" lon="7.04743">
        <ele>970.11</ele>
        <time>2011-05-29T13:48:16Z</time>
      </trkpt>
      <trkpt lat="43.75493" lon="7.04739">
        <ele>970.11</ele>
        <time>2011-05-29T13:48:31Z</time>
      </trkpt>
      <trkpt lat="43.7549" lon="7.04736">
        <ele>970.11</ele>
        <time>2011-05-29T13:48:35Z</time>
      </trkpt>
      <trkpt lat="43.75485" lon="7.04737">
        <ele>969.63</ele>
        <time>2011-05-29T13:48:46Z</time>
      </trkpt>
      <trkpt lat="43.75468" lon="7.04723">
        <ele>969.15</ele>
        <time>2011-05-29T13:49:01Z</time>
      </trkpt>
      <trkpt lat="43.75466" lon="7.0472">
        <ele>970.59</ele>
        <time>2011-05-29T13:49:07Z</time>
      </trkpt>
      <trkpt lat="43.75465" lon="7.04719">
        <ele>970.11</ele>
        <time>2011-05-29T13:49:09Z</time>
      </trkpt>
      <trkpt lat="43.75456" lon="7.04717">
        <ele>970.59</ele>
        <time>2011-05-29T13:49:20Z</time>
      </trkpt>
      <trkpt lat="43.75454" lon="7.04718">
        <ele>970.59</ele>
        <time>2011-05-29T13:49:22Z</time>
      </trkpt>
      <trkpt lat="43.75451" lon="7.04718">
        <ele>971.07</ele>
        <time>2011-05-29T13:49:26Z</time>
      </trkpt>
      <trkpt lat="43.75449" lon="7.04718">
        <ele>971.07</ele>
        <time>2011-05-29T13:49:28Z</time>
      </trkpt>
      <trkpt lat="43.75443" lon="7.04719">
        <ele>971.07</ele>
        <time>2011-05-29T13:49:34Z</time>
      </trkpt>
      <trkpt lat="43.75438" lon="7.0472">
        <ele>971.55</ele>
        <time>2011-05-29T13:49:51Z</time>
      </trkpt>
      <trkpt lat="43.75437" lon="7.04719">
        <ele>972.03</ele>
        <time>2011-05-29T13:50:07Z</time>
      </trkpt>
      <trkpt lat="43.75436" lon="7.0472">
        <ele>971.55</ele>
        <time>2011-05-29T13:50:09Z</time>
      </trkpt>
      <trkpt lat="43.75428" lon="7.04714">
        <ele>972.03</ele>
        <time>2011-05-29T13:50:19Z</time>
      </trkpt>
      <trkpt lat="43.75426" lon="7.04714">
        <ele>972.03</ele>
        <time>2011-05-29T13:50:21Z</time>
      </trkpt>
      <trkpt lat="43.75422" lon="7.04714">
        <ele>972.03</ele>
        <time>2011-05-29T13:50:25Z</time>
      </trkpt>
      <trkpt lat="43.75419" lon="7.04711">
        <ele>972.99</ele>
        <time>2011-05-29T13:50:39Z</time>
      </trkpt>
      <trkpt lat="43.75419" lon="7.04714">
        <ele>971.55</ele>
        <time>2011-05-29T13:50:59Z</time>
      </trkpt>
      <trkpt lat="43.75418" lon="7.04715">
        <ele>972.03</ele>
        <time>2011-05-29T13:51:04Z</time>
      </trkpt>
      <trkpt lat="43.75406" lon="7.04703">
        <ele>972.99</ele>
        <time>2011-05-29T13:51:17Z</time>
      </trkpt>
      <trkpt lat="43.75404" lon="7.04702">
        <ele>972.99</ele>
        <time>2011-05-29T13:51:19Z</time>
      </trkpt>
      <trkpt lat="43.75403" lon="7.047">
        <ele>972.99</ele>
        <time>2011-05-29T13:51:21Z</time>
      </trkpt>
      <trkpt lat="43.75398" lon="7.04699">
        <ele>973.47</ele>
        <time>2011-05-29T13:51:35Z</time>
      </trkpt>
      <trkpt lat="43.75394" lon="7.047">
        <ele>972.99</ele>
        <time>2011-05-29T13:51:38Z</time>
      </trkpt>
      <trkpt lat="43.75386" lon="7.04699">
        <ele>972.51</ele>
        <time>2011-05-29T13:51:46Z</time>
      </trkpt>
      <trkpt lat="43.75384" lon="7.04701">
        <ele>972.99</ele>
        <time>2011-05-29T13:51:48Z</time>
      </trkpt>
      <trkpt lat="43.75382" lon="7.04705">
        <ele>972.03</ele>
        <time>2011-05-29T13:51:52Z</time>
      </trkpt>
      <trkpt lat="43.75377" lon="7.04702">
        <ele>971.55</ele>
        <time>2011-05-29T13:51:56Z</time>
      </trkpt>
      <trkpt lat="43.75369" lon="7.04698">
        <ele>971.07</ele>
        <time>2011-05-29T13:52:10Z</time>
      </trkpt>
      <trkpt lat="43.75367" lon="7.04698">
        <ele>971.07</ele>
        <time>2011-05-29T13:52:12Z</time>
      </trkpt>
      <trkpt lat="43.75363" lon="7.04706">
        <ele>969.63</ele>
        <time>2011-05-29T13:52:25Z</time>
      </trkpt>
      <trkpt lat="43.75369" lon="7.0471">
        <ele>969.63</ele>
        <time>2011-05-29T13:52:39Z</time>
      </trkpt>
      <trkpt lat="43.75369" lon="7.0471">
        <ele>970.11</ele>
        <time>2011-05-29T13:52:49Z</time>
      </trkpt>
      <trkpt lat="43.75366" lon="7.04708">
        <ele>970.11</ele>
        <time>2011-05-29T13:52:53Z</time>
      </trkpt>
      <trkpt lat="43.75363" lon="7.04707">
        <ele>969.15</ele>
        <time>2011-05-29T13:52:57Z</time>
      </trkpt>
      <trkpt lat="43.75349" lon="7.04706">
        <ele>968.67</ele>
        <time>2011-05-29T13:53:10Z</time>
      </trkpt>
      <trkpt lat="43.75343" lon="7.04704">
        <ele>968.67</ele>
        <time>2011-05-29T13:53:16Z</time>
      </trkpt>
      <trkpt lat="43.75337" lon="7.04706">
        <ele>969.15</ele>
        <time>2011-05-29T13:53:22Z</time>
      </trkpt>
      <trkpt lat="43.75332" lon="7.047">
        <ele>968.67</ele>
        <time>2011-05-29T13:53:28Z</time>
      </trkpt>
      <trkpt lat="43.75325" lon="7.04698">
        <ele>968.18</ele>
        <time>2011-05-29T13:53:39Z</time>
      </trkpt>
      <trkpt lat="43.7532" lon="7.04699">
        <ele>968.18</ele>
        <time>2011-05-29T13:53:43Z</time>
      </trkpt>
      <trkpt lat="43.75311" lon="7.04694">
        <ele>966.74</ele>
        <time>2011-05-29T13:53:56Z</time>
      </trkpt>
      <trkpt lat="43.75309" lon="7.04693">
        <ele>965.78</ele>
        <time>2011-05-29T13:53:59Z</time>
      </trkpt>
      <trkpt lat="43.75307" lon="7.04692">
        <ele>965.78</ele>
        <time>2011-05-29T13:54:01Z</time>
      </trkpt>
      <trkpt lat="43.75293" lon="7.04695">
        <ele>966.74</ele>
        <time>2011-05-29T13:54:16Z</time>
      </trkpt>
      <trkpt lat="43.7529" lon="7.04697">
        <ele>967.7</ele>
        <time>2011-05-29T13:54:20Z</time>
      </trkpt>
      <trkpt lat="43.75283" lon="7.04703">
        <ele>968.18</ele>
        <time>2011-05-29T13:54:31Z</time>
      </trkpt>
      <trkpt lat="43.75282" lon="7.04705">
        <ele>968.67</ele>
        <time>2011-05-29T13:54:33Z</time>
      </trkpt>
      <trkpt lat="43.75279" lon="7.04707">
        <ele>969.15</ele>
        <time>2011-05-29T13:54:36Z</time>
      </trkpt>
      <trkpt lat="43.75274" lon="7.0471">
        <ele>968.18</ele>
        <time>2011-05-29T13:54:42Z</time>
      </trkpt>
      <trkpt lat="43.75269" lon="7.04709">
        <ele>968.18</ele>
        <time>2011-05-29T13:54:47Z</time>
      </trkpt>
      <trkpt lat="43.75267" lon="7.04707">
        <ele>968.18</ele>
        <time>2011-05-29T13:54:49Z</time>
      </trkpt>
      <trkpt lat="43.75263" lon="7.04701">
        <ele>968.18</ele>
        <time>2011-05-29T13:54:53Z</time>
      </trkpt>
      <trkpt lat="43.7525" lon="7.04695">
        <ele>968.18</ele>
        <time>2011-05-29T13:55:06Z</time>
      </trkpt>
      <trkpt lat="43.75247" lon="7.04695">
        <ele>967.7</ele>
        <time>2011-05-29T13:55:10Z</time>
      </trkpt>
      <trkpt lat="43.75243" lon="7.04691">
        <ele>967.22</ele>
        <time>2011-05-29T13:55:15Z</time>
      </trkpt>
      <trkpt lat="43.75229" lon="7.04691">
        <ele>967.7</ele>
        <time>2011-05-29T13:55:29Z</time>
      </trkpt>
      <trkpt lat="43.7522" lon="7.04685">
        <ele>967.22</ele>
        <time>2011-05-29T13:55:38Z</time>
      </trkpt>
      <trkpt lat="43.75205" lon="7.04673">
        <ele>967.22</ele>
        <time>2011-05-29T13:55:52Z</time>
      </trkpt>
      <trkpt lat="43.75197" lon="7.04668">
        <ele>967.7</ele>
        <time>2011-05-29T13:56:00Z</time>
      </trkpt>
      <trkpt lat="43.75184" lon="7.04664">
        <ele>969.15</ele>
        <time>2011-05-29T13:56:14Z</time>
      </trkpt>
      <trkpt lat="43.75172" lon="7.04659">
        <ele>970.11</ele>
        <time>2011-05-29T13:56:26Z</time>
      </trkpt>
      <trkpt lat="43.75163" lon="7.0466">
        <ele>971.07</ele>
        <time>2011-05-29T13:56:35Z</time>
      </trkpt>
      <trkpt lat="43.75161" lon="7.04659">
        <ele>970.11</ele>
        <time>2011-05-29T13:56:37Z</time>
      </trkpt>
      <trkpt lat="43.7516" lon="7.0466">
        <ele>970.59</ele>
        <time>2011-05-29T13:56:39Z</time>
      </trkpt>
      <trkpt lat="43.75158" lon="7.0466">
        <ele>971.07</ele>
        <time>2011-05-29T13:56:41Z</time>
      </trkpt>
      <trkpt lat="43.75153" lon="7.04658">
        <ele>971.55</ele>
        <time>2011-05-29T13:56:47Z</time>
      </trkpt>
      <trkpt lat="43.75151" lon="7.04656">
        <ele>972.03</ele>
        <time>2011-05-29T13:56:49Z</time>
      </trkpt>
      <trkpt lat="43.75139" lon="7.0465">
        <ele>974.43</ele>
        <time>2011-05-29T13:57:02Z</time>
      </trkpt>
      <trkpt lat="43.75134" lon="7.04649">
        <ele>974.43</ele>
        <time>2011-05-29T13:57:06Z</time>
      </trkpt>
      <trkpt lat="43.7513" lon="7.04646">
        <ele>974.91</ele>
        <time>2011-05-29T13:57:10Z</time>
      </trkpt>
      <trkpt lat="43.75126" lon="7.04641">
        <ele>974.91</ele>
        <time>2011-05-29T13:57:15Z</time>
      </trkpt>
      <trkpt lat="43.75124" lon="7.04639">
        <ele>975.88</ele>
        <time>2011-05-29T13:57:18Z</time>
      </trkpt>
      <trkpt lat="43.75122" lon="7.04634">
        <ele>976.84</ele>
        <time>2011-05-29T13:57:23Z</time>
      </trkpt>
      <trkpt lat="43.7511" lon="7.04634">
        <ele>978.76</ele>
        <time>2011-05-29T13:57:37Z</time>
      </trkpt>
      <trkpt lat="43.7511" lon="7.0463">
        <ele>978.28</ele>
        <time>2011-05-29T13:57:50Z</time>
      </trkpt>
      <trkpt lat="43.75108" lon="7.04626">
        <ele>979.24</ele>
        <time>2011-05-29T13:57:57Z</time>
      </trkpt>
      <trkpt lat="43.75105" lon="7.04621">
        <ele>979.72</ele>
        <time>2011-05-29T13:58:01Z</time>
      </trkpt>
      <trkpt lat="43.75097" lon="7.04606">
        <ele>981.16</ele>
        <time>2011-05-29T13:58:14Z</time>
      </trkpt>
      <trkpt lat="43.75095" lon="7.04603">
        <ele>981.64</ele>
        <time>2011-05-29T13:58:18Z</time>
      </trkpt>
      <trkpt lat="43.75093" lon="7.04597">
        <ele>982.12</ele>
        <time>2011-05-29T13:58:30Z</time>
      </trkpt>
      <trkpt lat="43.75091" lon="7.04599">
        <ele>982.6</ele>
        <time>2011-05-29T13:58:32Z</time>
      </trkpt>
      <trkpt lat="43.7508" lon="7.04602">
        <ele>985.01</ele>
        <time>2011-05-29T13:58:45Z</time>
      </trkpt>
      <trkpt lat="43.75078" lon="7.04602">
        <ele>985.01</ele>
        <time>2011-05-29T13:58:48Z</time>
      </trkpt>
      <trkpt lat="43.75068" lon="7.04606">
        <ele>986.93</ele>
        <time>2011-05-29T13:59:02Z</time>
      </trkpt>
      <trkpt lat="43.75065" lon="7.04606">
        <ele>986.93</ele>
        <time>2011-05-29T13:59:05Z</time>
      </trkpt>
      <trkpt lat="43.75059" lon="7.04606">
        <ele>987.89</ele>
        <time>2011-05-29T13:59:16Z</time>
      </trkpt>
      <trkpt lat="43.75059" lon="7.04604">
        <ele>988.37</ele>
        <time>2011-05-29T13:59:32Z</time>
      </trkpt>
      <trkpt lat="43.75052" lon="7.04606">
        <ele>990.3</ele>
        <time>2011-05-29T13:59:46Z</time>
      </trkpt>
      <trkpt lat="43.75045" lon="7.04607">
        <ele>991.26</ele>
        <time>2011-05-29T14:00:00Z</time>
      </trkpt>
      <trkpt lat="43.75043" lon="7.04608">
        <ele>992.22</ele>
        <time>2011-05-29T14:00:04Z</time>
      </trkpt>
      <trkpt lat="43.75038" lon="7.04617">
        <ele>991.74</ele>
        <time>2011-05-29T14:00:16Z</time>
      </trkpt>
      <trkpt lat="43.75036" lon="7.04619">
        <ele>991.74</ele>
        <time>2011-05-29T14:00:19Z</time>
      </trkpt>
      <trkpt lat="43.75027" lon="7.04623">
        <ele>992.7</ele>
        <time>2011-05-29T14:00:30Z</time>
      </trkpt>
      <trkpt lat="43.75023" lon="7.04626">
        <ele>993.18</ele>
        <time>2011-05-29T14:00:34Z</time>
      </trkpt>
      <trkpt lat="43.75016" lon="7.04623">
        <ele>995.1</ele>
        <time>2011-05-29T14:00:47Z</time>
      </trkpt>
      <trkpt lat="43.75016" lon="7.04623">
        <ele>994.62</ele>
        <time>2011-05-29T14:01:06Z</time>
      </trkpt>
      <trkpt lat="43.75016" lon="7.04623">
        <ele>995.1</ele>
        <time>2011-05-29T14:01:35Z</time>
      </trkpt>
      <trkpt lat="43.75016" lon="7.04624">
        <ele>995.1</ele>
        <time>2011-05-29T14:01:52Z</time>
      </trkpt>
      <trkpt lat="43.75016" lon="7.04624">
        <ele>995.1</ele>
        <time>2011-05-29T14:02:12Z</time>
      </trkpt>
      <trkpt lat="43.7501" lon="7.04623">
        <ele>997.02</ele>
        <time>2011-05-29T14:02:31Z</time>
      </trkpt>
      <trkpt lat="43.75008" lon="7.04622">
        <ele>997.51</ele>
        <time>2011-05-29T14:02:37Z</time>
      </trkpt>
      <trkpt lat="43.75004" lon="7.04619">
        <ele>998.95</ele>
        <time>2011-05-29T14:02:44Z</time>
      </trkpt>
      <trkpt lat="43.74997" lon="7.04618">
        <ele>1000.39</ele>
        <time>2011-05-29T14:02:56Z</time>
      </trkpt>
      <trkpt lat="43.74992" lon="7.04615">
        <ele>1001.83</ele>
        <time>2011-05-29T14:03:02Z</time>
      </trkpt>
      <trkpt lat="43.74989" lon="7.04615">
        <ele>1002.79</ele>
        <time>2011-05-29T14:03:07Z</time>
      </trkpt>
      <trkpt lat="43.74986" lon="7.04616">
        <ele>1002.79</ele>
        <time>2011-05-29T14:03:10Z</time>
      </trkpt>
      <trkpt lat="43.7497" lon="7.04624">
        <ele>1001.35</ele>
        <time>2011-05-29T14:03:26Z</time>
      </trkpt>
      <trkpt lat="43.74967" lon="7.04626">
        <ele>1001.83</ele>
        <time>2011-05-29T14:03:28Z</time>
      </trkpt>
      <trkpt lat="43.74965" lon="7.04628">
        <ele>1002.31</ele>
        <time>2011-05-29T14:03:31Z</time>
      </trkpt>
      <trkpt lat="43.74963" lon="7.0463">
        <ele>1002.31</ele>
        <time>2011-05-29T14:03:33Z</time>
      </trkpt>
      <trkpt lat="43.74955" lon="7.04632">
        <ele>1003.75</ele>
        <time>2011-05-29T14:03:41Z</time>
      </trkpt>
      <trkpt lat="43.74952" lon="7.04631">
        <ele>1004.72</ele>
        <time>2011-05-29T14:03:54Z</time>
      </trkpt>
      <trkpt lat="43.74951" lon="7.04625">
        <ele>1005.68</ele>
        <time>2011-05-29T14:04:01Z</time>
      </trkpt>
      <trkpt lat="43.7495" lon="7.04623">
        <ele>1005.68</ele>
        <time>2011-05-29T14:04:03Z</time>
      </trkpt>
      <trkpt lat="43.74948" lon="7.04613">
        <ele>1007.12</ele>
        <time>2011-05-29T14:04:15Z</time>
      </trkpt>
      <trkpt lat="43.74947" lon="7.04611">
        <ele>1008.56</ele>
        <time>2011-05-29T14:04:21Z</time>
      </trkpt>
      <trkpt lat="43.74947" lon="7.04608">
        <ele>1008.56</ele>
        <time>2011-05-29T14:04:23Z</time>
      </trkpt>
      <trkpt lat="43.74939" lon="7.04597">
        <ele>1009.04</ele>
        <time>2011-05-29T14:04:36Z</time>
      </trkpt>
      <trkpt lat="43.74935" lon="7.04593">
        <ele>1010.96</ele>
        <time>2011-05-29T14:04:45Z</time>
      </trkpt>
      <trkpt lat="43.74928" lon="7.04588">
        <ele>1012.89</ele>
        <time>2011-05-29T14:04:57Z</time>
      </trkpt>
      <trkpt lat="43.74921" lon="7.04589">
        <ele>1013.37</ele>
        <time>2011-05-29T14:05:10Z</time>
      </trkpt>
      <trkpt lat="43.74919" lon="7.0459">
        <ele>1013.85</ele>
        <time>2011-05-29T14:05:12Z</time>
      </trkpt>
      <trkpt lat="43.74918" lon="7.04593">
        <ele>1014.33</ele>
        <time>2011-05-29T14:05:14Z</time>
      </trkpt>
      <trkpt lat="43.74914" lon="7.046">
        <ele>1013.85</ele>
        <time>2011-05-29T14:05:20Z</time>
      </trkpt>
      <trkpt lat="43.74905" lon="7.04606">
        <ele>1014.33</ele>
        <time>2011-05-29T14:05:30Z</time>
      </trkpt>
      <trkpt lat="43.74903" lon="7.04605">
        <ele>1014.81</ele>
        <time>2011-05-29T14:05:32Z</time>
      </trkpt>
      <trkpt lat="43.74901" lon="7.04606">
        <ele>1015.77</ele>
        <time>2011-05-29T14:05:35Z</time>
      </trkpt>
      <trkpt lat="43.74896" lon="7.04605">
        <ele>1016.25</ele>
        <time>2011-05-29T14:05:40Z</time>
      </trkpt>
      <trkpt lat="43.74884" lon="7.04616">
        <ele>1017.69</ele>
        <time>2011-05-29T14:05:55Z</time>
      </trkpt>
      <trkpt lat="43.74881" lon="7.04611">
        <ele>1019.62</ele>
        <time>2011-05-29T14:06:08Z</time>
      </trkpt>
      <trkpt lat="43.74877" lon="7.04606">
        <ele>1022.02</ele>
        <time>2011-05-29T14:06:21Z</time>
      </trkpt>
      <trkpt lat="43.74877" lon="7.04605">
        <ele>1022.02</ele>
        <time>2011-05-29T14:06:22Z</time>
      </trkpt>
      <trkpt lat="43.74875" lon="7.046">
        <ele>1022.5</ele>
        <time>2011-05-29T14:06:27Z</time>
      </trkpt>
      <trkpt lat="43.74868" lon="7.04589">
        <ele>1024.9</ele>
        <time>2011-05-29T14:06:40Z</time>
      </trkpt>
      <trkpt lat="43.74865" lon="7.04588">
        <ele>1024.42</ele>
        <time>2011-05-29T14:06:42Z</time>
      </trkpt>
      <trkpt lat="43.74854" lon="7.04577">
        <ele>1026.34</ele>
        <time>2011-05-29T14:06:57Z</time>
      </trkpt>
      <trkpt lat="43.74849" lon="7.04575">
        <ele>1028.27</ele>
        <time>2011-05-29T14:07:11Z</time>
      </trkpt>
      <trkpt lat="43.74843" lon="7.04573">
        <ele>1030.19</ele>
        <time>2011-05-29T14:07:22Z</time>
      </trkpt>
      <trkpt lat="43.74838" lon="7.04571">
        <ele>1031.15</ele>
        <time>2011-05-29T14:07:27Z</time>
      </trkpt>
      <trkpt lat="43.74828" lon="7.04568">
        <ele>1034.52</ele>
        <time>2011-05-29T14:07:42Z</time>
      </trkpt>
      <trkpt lat="43.74821" lon="7.04566">
        <ele>1036.92</ele>
        <time>2011-05-29T14:07:56Z</time>
      </trkpt>
      <trkpt lat="43.74818" lon="7.04562">
        <ele>1037.4</ele>
        <time>2011-05-29T14:08:06Z</time>
      </trkpt>
      <trkpt lat="43.74813" lon="7.04544">
        <ele>1038.84</ele>
        <time>2011-05-29T14:08:20Z</time>
      </trkpt>
      <trkpt lat="43.74806" lon="7.0454">
        <ele>1039.32</ele>
        <time>2011-05-29T14:08:27Z</time>
      </trkpt>
      <trkpt lat="43.74803" lon="7.04538">
        <ele>1039.32</ele>
        <time>2011-05-29T14:08:31Z</time>
      </trkpt>
      <trkpt lat="43.74794" lon="7.04532">
        <ele>1042.21</ele>
        <time>2011-05-29T14:08:42Z</time>
      </trkpt>
      <trkpt lat="43.74787" lon="7.04524">
        <ele>1041.73</ele>
        <time>2011-05-29T14:08:57Z</time>
      </trkpt>
      <trkpt lat="43.74786" lon="7.04524">
        <ele>1041.73</ele>
        <time>2011-05-29T14:09:25Z</time>
      </trkpt>
      <trkpt lat="43.74787" lon="7.04524">
        <ele>1041.73</ele>
        <time>2011-05-29T14:09:45Z</time>
      </trkpt>
      <trkpt lat="43.74786" lon="7.04524">
        <ele>1043.17</ele>
        <time>2011-05-29T14:10:19Z</time>
      </trkpt>
      <trkpt lat="43.74786" lon="7.04524">
        <ele>1042.69</ele>
        <time>2011-05-29T14:10:49Z</time>
      </trkpt>
      <trkpt lat="43.74787" lon="7.04524">
        <ele>1042.69</ele>
        <time>2011-05-29T14:11:14Z</time>
      </trkpt>
      <trkpt lat="43.74787" lon="7.04524">
        <ele>1043.17</ele>
        <time>2011-05-29T14:11:34Z</time>
      </trkpt>
      <trkpt lat="43.74787" lon="7.04524">
        <ele>1042.69</ele>
        <time>2011-05-29T14:12:02Z</time>
      </trkpt>
      <trkpt lat="43.74787" lon="7.04524">
        <ele>1039.32</ele>
        <time>2011-05-29T14:12:23Z</time>
      </trkpt>
      <trkpt lat="43.74787" lon="7.04524">
        <ele>1043.17</ele>
        <time>2011-05-29T14:12:24Z</time>
      </trkpt>
      <trkpt lat="43.74787" lon="7.04524">
        <ele>1042.21</ele>
        <time>2011-05-29T14:12:25Z</time>
      </trkpt>
      <trkpt lat="43.74787" lon="7.04524">
        <ele>1041.73</ele>
        <time>2011-05-29T14:12:45Z</time>
      </trkpt>
      <trkpt lat="43.74788" lon="7.04524">
        <ele>1042.21</ele>
        <time>2011-05-29T14:13:18Z</time>
      </trkpt>
      <trkpt lat="43.74788" lon="7.04524">
        <ele>1041.73</ele>
        <time>2011-05-29T14:13:49Z</time>
      </trkpt>
      <trkpt lat="43.74788" lon="7.04523">
        <ele>1042.21</ele>
        <time>2011-05-29T14:14:08Z</time>
      </trkpt>
      <trkpt lat="43.74788" lon="7.04523">
        <ele>1042.21</ele>
        <time>2011-05-29T14:14:38Z</time>
      </trkpt>
      <trkpt lat="43.74785" lon="7.04523">
        <ele>1042.69</ele>
        <time>2011-05-29T14:14:51Z</time>
      </trkpt>
      <trkpt lat="43.74785" lon="7.04523">
        <ele>1042.69</ele>
        <time>2011-05-29T14:15:13Z</time>
      </trkpt>
      <trkpt lat="43.74777" lon="7.04521">
        <ele>1045.09</ele>
        <time>2011-05-29T14:15:26Z</time>
      </trkpt>
      <trkpt lat="43.74769" lon="7.04512">
        <ele>1047.01</ele>
        <time>2011-05-29T14:15:39Z</time>
      </trkpt>
      <trkpt lat="43.74765" lon="7.04502">
        <ele>1049.42</ele>
        <time>2011-05-29T14:15:52Z</time>
      </trkpt>
      <trkpt lat="43.74762" lon="7.04495">
        <ele>1052.3</ele>
        <time>2011-05-29T14:16:04Z</time>
      </trkpt>
      <trkpt lat="43.74754" lon="7.0449">
        <ele>1052.78</ele>
        <time>2011-05-29T14:16:18Z</time>
      </trkpt>
      <trkpt lat="43.74753" lon="7.0449">
        <ele>1052.78</ele>
        <time>2011-05-29T14:16:19Z</time>
      </trkpt>
      <trkpt lat="43.74738" lon="7.04487">
        <ele>1054.22</ele>
        <time>2011-05-29T14:16:34Z</time>
      </trkpt>
      <trkpt lat="43.74729" lon="7.04472">
        <ele>1056.63</ele>
        <time>2011-05-29T14:16:51Z</time>
      </trkpt>
      <trkpt lat="43.74717" lon="7.0447">
        <ele>1058.07</ele>
        <time>2011-05-29T14:17:05Z</time>
      </trkpt>
      <trkpt lat="43.74701" lon="7.0447">
        <ele>1059.03</ele>
        <time>2011-05-29T14:17:20Z</time>
      </trkpt>
      <trkpt lat="43.74698" lon="7.04468">
        <ele>1059.99</ele>
        <time>2011-05-29T14:17:24Z</time>
      </trkpt>
      <trkpt lat="43.74684" lon="7.04465">
        <ele>1061.91</ele>
        <time>2011-05-29T14:17:41Z</time>
      </trkpt>
      <trkpt lat="43.74678" lon="7.04454">
        <ele>1063.36</ele>
        <time>2011-05-29T14:17:55Z</time>
      </trkpt>
      <trkpt lat="43.74671" lon="7.04453">
        <ele>1063.36</ele>
        <time>2011-05-29T14:18:08Z</time>
      </trkpt>
      <trkpt lat="43.74669" lon="7.04453">
        <ele>1062.87</ele>
        <time>2011-05-29T14:18:11Z</time>
      </trkpt>
      <trkpt lat="43.74668" lon="7.04451">
        <ele>1063.36</ele>
        <time>2011-05-29T14:18:13Z</time>
      </trkpt>
      <trkpt lat="43.74659" lon="7.04443">
        <ele>1063.84</ele>
        <time>2011-05-29T14:18:24Z</time>
      </trkpt>
      <trkpt lat="43.74656" lon="7.0444">
        <ele>1063.36</ele>
        <time>2011-05-29T14:18:27Z</time>
      </trkpt>
      <trkpt lat="43.74648" lon="7.04442">
        <ele>1063.84</ele>
        <time>2011-05-29T14:18:34Z</time>
      </trkpt>
      <trkpt lat="43.74643" lon="7.04444">
        <ele>1064.32</ele>
        <time>2011-05-29T14:18:40Z</time>
      </trkpt>
      <trkpt lat="43.74639" lon="7.04444">
        <ele>1064.8</ele>
        <time>2011-05-29T14:18:43Z</time>
      </trkpt>
      <trkpt lat="43.74635" lon="7.04445">
        <ele>1064.8</ele>
        <time>2011-05-29T14:18:47Z</time>
      </trkpt>
      <trkpt lat="43.74626" lon="7.04445">
        <ele>1066.24</ele>
        <time>2011-05-29T14:18:57Z</time>
      </trkpt>
      <trkpt lat="43.74622" lon="7.04445">
        <ele>1066.24</ele>
        <time>2011-05-29T14:19:01Z</time>
      </trkpt>
      <trkpt lat="43.7461" lon="7.04449">
        <ele>1068.64</ele>
        <time>2011-05-29T14:19:16Z</time>
      </trkpt>
      <trkpt lat="43.74606" lon="7.04445">
        <ele>1070.08</ele>
        <time>2011-05-29T14:19:28Z</time>
      </trkpt>
      <trkpt lat="43.74596" lon="7.04436">
        <ele>1073.45</ele>
        <time>2011-05-29T14:19:43Z</time>
      </trkpt>
      <trkpt lat="43.74588" lon="7.04426">
        <ele>1075.37</ele>
        <time>2011-05-29T14:19:57Z</time>
      </trkpt>
      <trkpt lat="43.74582" lon="7.04418">
        <ele>1077.78</ele>
        <time>2011-05-29T14:20:11Z</time>
      </trkpt>
      <trkpt lat="43.74578" lon="7.04414">
        <ele>1080.18</ele>
        <time>2011-05-29T14:20:24Z</time>
      </trkpt>
      <trkpt lat="43.74573" lon="7.04406">
        <ele>1081.62</ele>
        <time>2011-05-29T14:20:46Z</time>
      </trkpt>
      <trkpt lat="43.74573" lon="7.04405">
        <ele>1082.1</ele>
        <time>2011-05-29T14:20:48Z</time>
      </trkpt>
      <trkpt lat="43.74566" lon="7.04394">
        <ele>1084.99</ele>
        <time>2011-05-29T14:21:01Z</time>
      </trkpt>
      <trkpt lat="43.7456" lon="7.04389">
        <ele>1087.87</ele>
        <time>2011-05-29T14:21:14Z</time>
      </trkpt>
      <trkpt lat="43.74558" lon="7.04382">
        <ele>1089.31</ele>
        <time>2011-05-29T14:21:26Z</time>
      </trkpt>
      <trkpt lat="43.74557" lon="7.04366">
        <ele>1092.68</ele>
        <time>2011-05-29T14:21:42Z</time>
      </trkpt>
      <trkpt lat="43.74556" lon="7.04359">
        <ele>1094.12</ele>
        <time>2011-05-29T14:21:55Z</time>
      </trkpt>
      <trkpt lat="43.74551" lon="7.04353">
        <ele>1095.56</ele>
        <time>2011-05-29T14:22:10Z</time>
      </trkpt>
      <trkpt lat="43.74546" lon="7.04348">
        <ele>1097.48</ele>
        <time>2011-05-29T14:22:23Z</time>
      </trkpt>
      <trkpt lat="43.7454" lon="7.04351">
        <ele>1097.96</ele>
        <time>2011-05-29T14:22:38Z</time>
      </trkpt>
      <trkpt lat="43.74534" lon="7.04354">
        <ele>1099.4</ele>
        <time>2011-05-29T14:22:45Z</time>
      </trkpt>
      <trkpt lat="43.7453" lon="7.04361">
        <ele>1099.4</ele>
        <time>2011-05-29T14:23:01Z</time>
      </trkpt>
      <trkpt lat="43.74529" lon="7.04361">
        <ele>1099.4</ele>
        <time>2011-05-29T14:23:49Z</time>
      </trkpt>
      <trkpt lat="43.74529" lon="7.04361">
        <ele>1103.73</ele>
        <time>2011-05-29T14:23:54Z</time>
      </trkpt>
      <trkpt lat="43.74529" lon="7.04361">
        <ele>1099.89</ele>
        <time>2011-05-29T14:23:56Z</time>
      </trkpt>
      <trkpt lat="43.74529" lon="7.04361">
        <ele>1099.89</ele>
        <time>2011-05-29T14:23:57Z</time>
      </trkpt>
      <trkpt lat="43.74529" lon="7.04359">
        <ele>1100.85</ele>
        <time>2011-05-29T14:24:15Z</time>
      </trkpt>
      <trkpt lat="43.74524" lon="7.04348">
        <ele>1102.29</ele>
        <time>2011-05-29T14:24:24Z</time>
      </trkpt>
      <trkpt lat="43.74523" lon="7.04342">
        <ele>1102.77</ele>
        <time>2011-05-29T14:24:29Z</time>
      </trkpt>
      <trkpt lat="43.74517" lon="7.04333">
        <ele>1105.17</ele>
        <time>2011-05-29T14:24:41Z</time>
      </trkpt>
      <trkpt lat="43.74515" lon="7.04331">
        <ele>1107.1</ele>
        <time>2011-05-29T14:24:45Z</time>
      </trkpt>
      <trkpt lat="43.74514" lon="7.04328">
        <ele>1106.61</ele>
        <time>2011-05-29T14:24:47Z</time>
      </trkpt>
      <trkpt lat="43.74513" lon="7.04319">
        <ele>1108.06</ele>
        <time>2011-05-29T14:24:55Z</time>
      </trkpt>
      <trkpt lat="43.74509" lon="7.0431">
        <ele>1109.02</ele>
        <time>2011-05-29T14:25:06Z</time>
      </trkpt>
      <trkpt lat="43.74504" lon="7.04309">
        <ele>1111.9</ele>
        <time>2011-05-29T14:25:14Z</time>
      </trkpt>
      <trkpt lat="43.74496" lon="7.04305">
        <ele>1114.79</ele>
        <time>2011-05-29T14:25:27Z</time>
      </trkpt>
      <trkpt lat="43.74491" lon="7.04305">
        <ele>1116.23</ele>
        <time>2011-05-29T14:25:42Z</time>
      </trkpt>
      <trkpt lat="43.74485" lon="7.04298">
        <ele>1119.11</ele>
        <time>2011-05-29T14:25:55Z</time>
      </trkpt>
      <trkpt lat="43.74482" lon="7.04297">
        <ele>1120.07</ele>
        <time>2011-05-29T14:26:08Z</time>
      </trkpt>
      <trkpt lat="43.7448" lon="7.04297">
        <ele>1121.52</ele>
        <time>2011-05-29T14:26:20Z</time>
      </trkpt>
      <trkpt lat="43.74476" lon="7.04298">
        <ele>1121.52</ele>
        <time>2011-05-29T14:26:31Z</time>
      </trkpt>
      <trkpt lat="43.74476" lon="7.04298">
        <ele>1121.52</ele>
        <time>2011-05-29T14:26:56Z</time>
      </trkpt>
      <trkpt lat="43.74475" lon="7.04297">
        <ele>1122.96</ele>
        <time>2011-05-29T14:27:19Z</time>
      </trkpt>
      <trkpt lat="43.7447" lon="7.04295">
        <ele>1124.88</ele>
        <time>2011-05-29T14:27:31Z</time>
      </trkpt>
      <trkpt lat="43.74461" lon="7.04288">
        <ele>1128.24</ele>
        <time>2011-05-29T14:27:44Z</time>
      </trkpt>
      <trkpt lat="43.7446" lon="7.04287">
        <ele>1128.24</ele>
        <time>2011-05-29T14:27:45Z</time>
      </trkpt>
      <trkpt lat="43.74456" lon="7.0428">
        <ele>1129.69</ele>
        <time>2011-05-29T14:27:56Z</time>
      </trkpt>
      <trkpt lat="43.74454" lon="7.04274">
        <ele>1131.61</ele>
        <time>2011-05-29T14:28:10Z</time>
      </trkpt>
      <trkpt lat="43.74451" lon="7.0427">
        <ele>1133.05</ele>
        <time>2011-05-29T14:28:21Z</time>
      </trkpt>
      <trkpt lat="43.74447" lon="7.04263">
        <ele>1135.45</ele>
        <time>2011-05-29T14:28:38Z</time>
      </trkpt>
      <trkpt lat="43.74441" lon="7.04258">
        <ele>1138.82</ele>
        <time>2011-05-29T14:28:51Z</time>
      </trkpt>
      <trkpt lat="43.74434" lon="7.0425">
        <ele>1141.7</ele>
        <time>2011-05-29T14:29:03Z</time>
      </trkpt>
      <trkpt lat="43.74429" lon="7.04244">
        <ele>1143.63</ele>
        <time>2011-05-29T14:29:15Z</time>
      </trkpt>
      <trkpt lat="43.74424" lon="7.04242">
        <ele>1146.03</ele>
        <time>2011-05-29T14:29:31Z</time>
      </trkpt>
      <trkpt lat="43.74423" lon="7.04242">
        <ele>1145.07</ele>
        <time>2011-05-29T14:29:39Z</time>
      </trkpt>
      <trkpt lat="43.74418" lon="7.04252">
        <ele>1144.59</ele>
        <time>2011-05-29T14:29:46Z</time>
      </trkpt>
      <trkpt lat="43.74412" lon="7.04259">
        <ele>1143.14</ele>
        <time>2011-05-29T14:30:01Z</time>
      </trkpt>
      <trkpt lat="43.74412" lon="7.04259">
        <ele>1142.66</ele>
        <time>2011-05-29T14:30:21Z</time>
      </trkpt>
      <trkpt lat="43.74412" lon="7.04259">
        <ele>1142.66</ele>
        <time>2011-05-29T14:30:41Z</time>
      </trkpt>
      <trkpt lat="43.74412" lon="7.0426">
        <ele>1142.66</ele>
        <time>2011-05-29T14:30:55Z</time>
      </trkpt>
      <trkpt lat="43.74415" lon="7.04255">
        <ele>1143.63</ele>
        <time>2011-05-29T14:31:07Z</time>
      </trkpt>
      <trkpt lat="43.74415" lon="7.04254">
        <ele>1144.11</ele>
        <time>2011-05-29T14:31:35Z</time>
      </trkpt>
      <trkpt lat="43.7441" lon="7.04251">
        <ele>1144.59</ele>
        <time>2011-05-29T14:31:43Z</time>
      </trkpt>
      <trkpt lat="43.74407" lon="7.04237">
        <ele>1148.91</ele>
        <time>2011-05-29T14:31:57Z</time>
      </trkpt>
      <trkpt lat="43.74403" lon="7.04232">
        <ele>1151.8</ele>
        <time>2011-05-29T14:32:06Z</time>
      </trkpt>
      <trkpt lat="43.74402" lon="7.04224">
        <ele>1154.2</ele>
        <time>2011-05-29T14:32:19Z</time>
      </trkpt>
      <trkpt lat="43.74402" lon="7.04223">
        <ele>1154.2</ele>
        <time>2011-05-29T14:32:35Z</time>
      </trkpt>
      <trkpt lat="43.74392" lon="7.04219">
        <ele>1156.6</ele>
        <time>2011-05-29T14:32:49Z</time>
      </trkpt>
      <trkpt lat="43.74383" lon="7.04216">
        <ele>1159.01</ele>
        <time>2011-05-29T14:33:02Z</time>
      </trkpt>
      <trkpt lat="43.74377" lon="7.04216">
        <ele>1160.45</ele>
        <time>2011-05-29T14:33:15Z</time>
      </trkpt>
      <trkpt lat="43.74375" lon="7.04218">
        <ele>1159.49</ele>
        <time>2011-05-29T14:33:31Z</time>
      </trkpt>
      <trkpt lat="43.74376" lon="7.04218">
        <ele>1157.56</ele>
        <time>2011-05-29T14:33:47Z</time>
      </trkpt>
      <trkpt lat="43.74376" lon="7.04218">
        <ele>1157.56</ele>
        <time>2011-05-29T14:34:10Z</time>
      </trkpt>
      <trkpt lat="43.74376" lon="7.04218">
        <ele>1157.56</ele>
        <time>2011-05-29T14:34:44Z</time>
      </trkpt>
      <trkpt lat="43.74376" lon="7.04218">
        <ele>1158.05</ele>
        <time>2011-05-29T14:35:08Z</time>
      </trkpt>
      <trkpt lat="43.74376" lon="7.04218">
        <ele>1158.53</ele>
        <time>2011-05-29T14:35:37Z</time>
      </trkpt>
      <trkpt lat="43.74376" lon="7.04218">
        <ele>1159.01</ele>
        <time>2011-05-29T14:36:00Z</time>
      </trkpt>
      <trkpt lat="43.74376" lon="7.04218">
        <ele>1158.05</ele>
        <time>2011-05-29T14:36:20Z</time>
      </trkpt>
      <trkpt lat="43.74375" lon="7.04217">
        <ele>1159.97</ele>
        <time>2011-05-29T14:36:26Z</time>
      </trkpt>
      <trkpt lat="43.74371" lon="7.04213">
        <ele>1160.45</ele>
        <time>2011-05-29T14:36:40Z</time>
      </trkpt>
      <trkpt lat="43.74371" lon="7.04212">
        <ele>1160.93</ele>
        <time>2011-05-29T14:36:44Z</time>
      </trkpt>
      <trkpt lat="43.74369" lon="7.04207">
        <ele>1162.37</ele>
        <time>2011-05-29T14:36:48Z</time>
      </trkpt>
      <trkpt lat="43.74369" lon="7.04202">
        <ele>1162.85</ele>
        <time>2011-05-29T14:36:52Z</time>
      </trkpt>
      <trkpt lat="43.74368" lon="7.04198">
        <ele>1164.29</ele>
        <time>2011-05-29T14:36:56Z</time>
      </trkpt>
      <trkpt lat="43.74364" lon="7.04191">
        <ele>1166.22</ele>
        <time>2011-05-29T14:37:03Z</time>
      </trkpt>
      <trkpt lat="43.74364" lon="7.04189">
        <ele>1167.18</ele>
        <time>2011-05-29T14:37:05Z</time>
      </trkpt>
      <trkpt lat="43.74363" lon="7.04188">
        <ele>1166.22</ele>
        <time>2011-05-29T14:37:07Z</time>
      </trkpt>
      <trkpt lat="43.74358" lon="7.04176">
        <ele>1170.06</ele>
        <time>2011-05-29T14:37:20Z</time>
      </trkpt>
      <trkpt lat="43.74358" lon="7.04168">
        <ele>1171.02</ele>
        <time>2011-05-29T14:37:28Z</time>
      </trkpt>
      <trkpt lat="43.74358" lon="7.04157">
        <ele>1172.95</ele>
        <time>2011-05-29T14:37:41Z</time>
      </trkpt>
      <trkpt lat="43.74358" lon="7.04155">
        <ele>1173.43</ele>
        <time>2011-05-29T14:37:43Z</time>
      </trkpt>
      <trkpt lat="43.7436" lon="7.04143">
        <ele>1175.83</ele>
        <time>2011-05-29T14:37:55Z</time>
      </trkpt>
      <trkpt lat="43.7436" lon="7.04129">
        <ele>1177.75</ele>
        <time>2011-05-29T14:38:07Z</time>
      </trkpt>
      <trkpt lat="43.74359" lon="7.04121">
        <ele>1179.67</ele>
        <time>2011-05-29T14:38:14Z</time>
      </trkpt>
      <trkpt lat="43.74358" lon="7.04108">
        <ele>1180.64</ele>
        <time>2011-05-29T14:38:25Z</time>
      </trkpt>
      <trkpt lat="43.74357" lon="7.04105">
        <ele>1182.56</ele>
        <time>2011-05-29T14:38:28Z</time>
      </trkpt>
      <trkpt lat="43.74355" lon="7.04104">
        <ele>1183.04</ele>
        <time>2011-05-29T14:38:31Z</time>
      </trkpt>
      <trkpt lat="43.74351" lon="7.04105">
        <ele>1183.52</ele>
        <time>2011-05-29T14:38:36Z</time>
      </trkpt>
      <trkpt lat="43.74337" lon="7.04106">
        <ele>1186.4</ele>
        <time>2011-05-29T14:38:50Z</time>
      </trkpt>
      <trkpt lat="43.74331" lon="7.04107">
        <ele>1185.92</ele>
        <time>2011-05-29T14:38:55Z</time>
      </trkpt>
      <trkpt lat="43.74321" lon="7.04111">
        <ele>1184.96</ele>
        <time>2011-05-29T14:39:05Z</time>
      </trkpt>
      <trkpt lat="43.74316" lon="7.04112">
        <ele>1185.92</ele>
        <time>2011-05-29T14:39:09Z</time>
      </trkpt>
      <trkpt lat="43.74306" lon="7.04117">
        <ele>1186.4</ele>
        <time>2011-05-29T14:39:18Z</time>
      </trkpt>
      <trkpt lat="43.74302" lon="7.04118">
        <ele>1185.92</ele>
        <time>2011-05-29T14:39:22Z</time>
      </trkpt>
      <trkpt lat="43.74295" lon="7.04123">
        <ele>1184.96</ele>
        <time>2011-05-29T14:39:36Z</time>
      </trkpt>
      <trkpt lat="43.74288" lon="7.04122">
        <ele>1186.4</ele>
        <time>2011-05-29T14:39:49Z</time>
      </trkpt>
      <trkpt lat="43.74284" lon="7.04123">
        <ele>1186.4</ele>
        <time>2011-05-29T14:39:53Z</time>
      </trkpt>
      <trkpt lat="43.74276" lon="7.04128">
        <ele>1186.4</ele>
        <time>2011-05-29T14:40:04Z</time>
      </trkpt>
      <trkpt lat="43.74274" lon="7.04129">
        <ele>1186.4</ele>
        <time>2011-05-29T14:40:07Z</time>
      </trkpt>
      <trkpt lat="43.74266" lon="7.04134">
        <ele>1185.92</ele>
        <time>2011-05-29T14:40:18Z</time>
      </trkpt>
      <trkpt lat="43.7426" lon="7.0414">
        <ele>1186.88</ele>
        <time>2011-05-29T14:40:24Z</time>
      </trkpt>
      <trkpt lat="43.74255" lon="7.04143">
        <ele>1185.44</ele>
        <time>2011-05-29T14:40:31Z</time>
      </trkpt>
      <trkpt lat="43.74253" lon="7.04144">
        <ele>1184.96</ele>
        <time>2011-05-29T14:40:33Z</time>
      </trkpt>
      <trkpt lat="43.74249" lon="7.04147">
        <ele>1185.44</ele>
        <time>2011-05-29T14:40:45Z</time>
      </trkpt>
      <trkpt lat="43.74245" lon="7.04148">
        <ele>1185.44</ele>
        <time>2011-05-29T14:40:50Z</time>
      </trkpt>
      <trkpt lat="43.74242" lon="7.04149">
        <ele>1185.44</ele>
        <time>2011-05-29T14:40:53Z</time>
      </trkpt>
      <trkpt lat="43.74235" lon="7.04147">
        <ele>1185.44</ele>
        <time>2011-05-29T14:41:00Z</time>
      </trkpt>
      <trkpt lat="43.7423" lon="7.04148">
        <ele>1185.44</ele>
        <time>2011-05-29T14:41:05Z</time>
      </trkpt>
      <trkpt lat="43.74225" lon="7.04146">
        <ele>1186.4</ele>
        <time>2011-05-29T14:41:19Z</time>
      </trkpt>
      <trkpt lat="43.74229" lon="7.04146">
        <ele>1184.96</ele>
        <time>2011-05-29T14:41:27Z</time>
      </trkpt>
      <trkpt lat="43.74232" lon="7.04143">
        <ele>1185.92</ele>
        <time>2011-05-29T14:41:40Z</time>
      </trkpt>
      <trkpt lat="43.74233" lon="7.04141">
        <ele>1187.85</ele>
        <time>2011-05-29T14:41:45Z</time>
      </trkpt>
      <trkpt lat="43.74234" lon="7.04137">
        <ele>1187.37</ele>
        <time>2011-05-29T14:41:57Z</time>
      </trkpt>
      <trkpt lat="43.74235" lon="7.04127">
        <ele>1189.29</ele>
        <time>2011-05-29T14:42:09Z</time>
      </trkpt>
      <trkpt lat="43.74234" lon="7.04119">
        <ele>1191.69</ele>
        <time>2011-05-29T14:42:20Z</time>
      </trkpt>
      <trkpt lat="43.74233" lon="7.04114">
        <ele>1193.61</ele>
        <time>2011-05-29T14:42:27Z</time>
      </trkpt>
      <trkpt lat="43.74228" lon="7.04108">
        <ele>1195.06</ele>
        <time>2011-05-29T14:42:40Z</time>
      </trkpt>
      <trkpt lat="43.74222" lon="7.04107">
        <ele>1196.02</ele>
        <time>2011-05-29T14:42:51Z</time>
      </trkpt>
      <trkpt lat="43.7422" lon="7.04105">
        <ele>1196.02</ele>
        <time>2011-05-29T14:43:03Z</time>
      </trkpt>
      <trkpt lat="43.7422" lon="7.04105">
        <ele>1195.54</ele>
        <time>2011-05-29T14:43:29Z</time>
      </trkpt>
      <trkpt lat="43.7422" lon="7.04105">
        <ele>1194.58</ele>
        <time>2011-05-29T14:43:43Z</time>
      </trkpt>
      <trkpt lat="43.7422" lon="7.04105">
        <ele>1195.54</ele>
        <time>2011-05-29T14:44:08Z</time>
      </trkpt>
      <trkpt lat="43.7422" lon="7.04105">
        <ele>1194.58</ele>
        <time>2011-05-29T14:44:38Z</time>
      </trkpt>
      <trkpt lat="43.7422" lon="7.04104">
        <ele>1196.02</ele>
        <time>2011-05-29T14:45:04Z</time>
      </trkpt>
      <trkpt lat="43.74222" lon="7.04102">
        <ele>1196.5</ele>
        <time>2011-05-29T14:45:21Z</time>
      </trkpt>
      <trkpt lat="43.74228" lon="7.04097">
        <ele>1197.94</ele>
        <time>2011-05-29T14:45:29Z</time>
      </trkpt>
      <trkpt lat="43.74238" lon="7.0409">
        <ele>1197.46</ele>
        <time>2011-05-29T14:45:41Z</time>
      </trkpt>
      <trkpt lat="43.74248" lon="7.04072">
        <ele>1199.38</ele>
        <time>2011-05-29T14:45:58Z</time>
      </trkpt>
      <trkpt lat="43.74248" lon="7.04071">
        <ele>1199.38</ele>
        <time>2011-05-29T14:45:59Z</time>
      </trkpt>
      <trkpt lat="43.74249" lon="7.04069">
        <ele>1200.34</ele>
        <time>2011-05-29T14:46:01Z</time>
      </trkpt>
      <trkpt lat="43.74255" lon="7.04056">
        <ele>1202.27</ele>
        <time>2011-05-29T14:46:14Z</time>
      </trkpt>
      <trkpt lat="43.74257" lon="7.04051">
        <ele>1203.23</ele>
        <time>2011-05-29T14:46:19Z</time>
      </trkpt>
      <trkpt lat="43.74257" lon="7.04042">
        <ele>1206.59</ele>
        <time>2011-05-29T14:46:29Z</time>
      </trkpt>
      <trkpt lat="43.74259" lon="7.04035">
        <ele>1206.11</ele>
        <time>2011-05-29T14:46:43Z</time>
      </trkpt>
      <trkpt lat="43.74259" lon="7.04036">
        <ele>1207.55</ele>
        <time>2011-05-29T14:46:59Z</time>
      </trkpt>
      <trkpt lat="43.74265" lon="7.04026">
        <ele>1209.96</ele>
        <time>2011-05-29T14:47:11Z</time>
      </trkpt>
      <trkpt lat="43.7426" lon="7.04019">
        <ele>1212.36</ele>
        <time>2011-05-29T14:47:22Z</time>
      </trkpt>
      <trkpt lat="43.74265" lon="7.04011">
        <ele>1215.72</ele>
        <time>2011-05-29T14:47:36Z</time>
      </trkpt>
      <trkpt lat="43.74264" lon="7.04009">
        <ele>1216.21</ele>
        <time>2011-05-29T14:47:41Z</time>
      </trkpt>
      <trkpt lat="43.74265" lon="7.04003">
        <ele>1217.65</ele>
        <time>2011-05-29T14:47:48Z</time>
      </trkpt>
      <trkpt lat="43.74266" lon="7.04">
        <ele>1219.09</ele>
        <time>2011-05-29T14:47:52Z</time>
      </trkpt>
      <trkpt lat="43.74264" lon="7.03991">
        <ele>1221.01</ele>
        <time>2011-05-29T14:48:04Z</time>
      </trkpt>
      <trkpt lat="43.74264" lon="7.03983">
        <ele>1221.97</ele>
        <time>2011-05-29T14:48:15Z</time>
      </trkpt>
      <trkpt lat="43.74264" lon="7.03979">
        <ele>1224.38</ele>
        <time>2011-05-29T14:48:22Z</time>
      </trkpt>
      <trkpt lat="43.74262" lon="7.0397">
        <ele>1224.38</ele>
        <time>2011-05-29T14:48:34Z</time>
      </trkpt>
      <trkpt lat="43.7426" lon="7.03965">
        <ele>1227.74</ele>
        <time>2011-05-29T14:48:41Z</time>
      </trkpt>
      <trkpt lat="43.74257" lon="7.03963">
        <ele>1228.22</ele>
        <time>2011-05-29T14:48:47Z</time>
      </trkpt>
      <trkpt lat="43.74258" lon="7.03957">
        <ele>1229.18</ele>
        <time>2011-05-29T14:48:52Z</time>
      </trkpt>
      <trkpt lat="43.74258" lon="7.03946">
        <ele>1231.59</ele>
        <time>2011-05-29T14:49:05Z</time>
      </trkpt>
      <trkpt lat="43.74257" lon="7.03937">
        <ele>1233.51</ele>
        <time>2011-05-29T14:49:20Z</time>
      </trkpt>
      <trkpt lat="43.74257" lon="7.03935">
        <ele>1232.55</ele>
        <time>2011-05-29T14:49:33Z</time>
      </trkpt>
      <trkpt lat="43.74257" lon="7.03935">
        <ele>1232.55</ele>
        <time>2011-05-29T14:50:16Z</time>
      </trkpt>
      <trkpt lat="43.74257" lon="7.03935">
        <ele>1233.99</ele>
        <time>2011-05-29T14:50:56Z</time>
      </trkpt>
      <trkpt lat="43.74257" lon="7.03935">
        <ele>1234.47</ele>
        <time>2011-05-29T14:51:30Z</time>
      </trkpt>
      <trkpt lat="43.74257" lon="7.03935">
        <ele>1234.47</ele>
        <time>2011-05-29T14:51:47Z</time>
      </trkpt>
      <trkpt lat="43.74257" lon="7.03935">
        <ele>1234.47</ele>
        <time>2011-05-29T14:52:12Z</time>
      </trkpt>
      <trkpt lat="43.74257" lon="7.03935">
        <ele>1233.03</ele>
        <time>2011-05-29T14:52:23Z</time>
      </trkpt>
      <trkpt lat="43.74257" lon="7.03935">
        <ele>1236.39</ele>
        <time>2011-05-29T14:52:41Z</time>
      </trkpt>
      <trkpt lat="43.74257" lon="7.03935">
        <ele>1234.95</ele>
        <time>2011-05-29T14:52:42Z</time>
      </trkpt>
      <trkpt lat="43.74257" lon="7.03935">
        <ele>1240.72</ele>
        <time>2011-05-29T14:52:48Z</time>
      </trkpt>
      <trkpt lat="43.74257" lon="7.03935">
        <ele>1236.87</ele>
        <time>2011-05-29T14:52:49Z</time>
      </trkpt>
      <trkpt lat="43.74257" lon="7.03935">
        <ele>1233.03</ele>
        <time>2011-05-29T14:52:52Z</time>
      </trkpt>
      <trkpt lat="43.74257" lon="7.03935">
        <ele>1233.03</ele>
        <time>2011-05-29T14:52:53Z</time>
      </trkpt>
      <trkpt lat="43.74257" lon="7.03932">
        <ele>1236.39</ele>
        <time>2011-05-29T14:53:03Z</time>
      </trkpt>
      <trkpt lat="43.7426" lon="7.03923">
        <ele>1237.35</ele>
        <time>2011-05-29T14:53:12Z</time>
      </trkpt>
      <trkpt lat="43.74264" lon="7.03917">
        <ele>1236.87</ele>
        <time>2011-05-29T14:53:26Z</time>
      </trkpt>
      <trkpt lat="43.74265" lon="7.03916">
        <ele>1236.87</ele>
        <time>2011-05-29T14:53:38Z</time>
      </trkpt>
      <trkpt lat="43.74265" lon="7.03916">
        <ele>1236.87</ele>
        <time>2011-05-29T14:53:46Z</time>
      </trkpt>
      <trkpt lat="43.74266" lon="7.03913">
        <ele>1238.32</ele>
        <time>2011-05-29T14:54:09Z</time>
      </trkpt>
      <trkpt lat="43.74268" lon="7.03909">
        <ele>1237.83</ele>
        <time>2011-05-29T14:54:13Z</time>
      </trkpt>
      <trkpt lat="43.74267" lon="7.03903">
        <ele>1240.24</ele>
        <time>2011-05-29T14:54:17Z</time>
      </trkpt>
      <trkpt lat="43.74268" lon="7.03897">
        <ele>1239.28</ele>
        <time>2011-05-29T14:54:21Z</time>
      </trkpt>
      <trkpt lat="43.74268" lon="7.03888">
        <ele>1242.64</ele>
        <time>2011-05-29T14:54:27Z</time>
      </trkpt>
      <trkpt lat="43.74268" lon="7.03886">
        <ele>1242.64</ele>
        <time>2011-05-29T14:54:28Z</time>
      </trkpt>
      <trkpt lat="43.74269" lon="7.0388">
        <ele>1243.6</ele>
        <time>2011-05-29T14:54:32Z</time>
      </trkpt>
      <trkpt lat="43.74266" lon="7.03873">
        <ele>1244.08</ele>
        <time>2011-05-29T14:54:38Z</time>
      </trkpt>
      <trkpt lat="43.74265" lon="7.03868">
        <ele>1245.53</ele>
        <time>2011-05-29T14:54:42Z</time>
      </trkpt>
      <trkpt lat="43.74265" lon="7.03852">
        <ele>1247.93</ele>
        <time>2011-05-29T14:54:54Z</time>
      </trkpt>
      <trkpt lat="43.74264" lon="7.03847">
        <ele>1248.89</ele>
        <time>2011-05-29T14:54:58Z</time>
      </trkpt>
      <trkpt lat="43.74265" lon="7.03844">
        <ele>1248.41</ele>
        <time>2011-05-29T14:55:00Z</time>
      </trkpt>
      <trkpt lat="43.74262" lon="7.03834">
        <ele>1249.37</ele>
        <time>2011-05-29T14:55:14Z</time>
      </trkpt>
      <trkpt lat="43.74261" lon="7.03833">
        <ele>1249.85</ele>
        <time>2011-05-29T14:55:31Z</time>
      </trkpt>
      <trkpt lat="43.74261" lon="7.03833">
        <ele>1249.85</ele>
        <time>2011-05-29T14:55:56Z</time>
      </trkpt>
      <trkpt lat="43.7426" lon="7.03832">
        <ele>1250.81</ele>
        <time>2011-05-29T14:56:32Z</time>
      </trkpt>
      <trkpt lat="43.7426" lon="7.03832">
        <ele>1250.33</ele>
        <time>2011-05-29T14:56:59Z</time>
      </trkpt>
      <trkpt lat="43.7426" lon="7.03832">
        <ele>1250.81</ele>
        <time>2011-05-29T14:57:18Z</time>
      </trkpt>
      <trkpt lat="43.74259" lon="7.03834">
        <ele>1249.85</ele>
        <time>2011-05-29T14:57:36Z</time>
      </trkpt>
      <trkpt lat="43.74257" lon="7.03836">
        <ele>1250.81</ele>
        <time>2011-05-29T14:57:39Z</time>
      </trkpt>
      <trkpt lat="43.74249" lon="7.03834">
        <ele>1250.81</ele>
        <time>2011-05-29T14:57:53Z</time>
      </trkpt>
      <trkpt lat="43.74249" lon="7.03834">
        <ele>1249.37</ele>
        <time>2011-05-29T14:58:03Z</time>
      </trkpt>
      <trkpt lat="43.74247" lon="7.03835">
        <ele>1249.85</ele>
        <time>2011-05-29T14:58:06Z</time>
      </trkpt>
      <trkpt lat="43.74234" lon="7.03833">
        <ele>1248.89</ele>
        <time>2011-05-29T14:58:18Z</time>
      </trkpt>
      <trkpt lat="43.74226" lon="7.03827">
        <ele>1246.49</ele>
        <time>2011-05-29T14:58:29Z</time>
      </trkpt>
      <trkpt lat="43.7422" lon="7.03822">
        <ele>1246.49</ele>
        <time>2011-05-29T14:58:42Z</time>
      </trkpt>
      <trkpt lat="43.74218" lon="7.03821">
        <ele>1246.97</ele>
        <time>2011-05-29T14:58:53Z</time>
      </trkpt>
      <trkpt lat="43.7421" lon="7.03816">
        <ele>1247.45</ele>
        <time>2011-05-29T14:59:01Z</time>
      </trkpt>
      <trkpt lat="43.74206" lon="7.03813">
        <ele>1247.93</ele>
        <time>2011-05-29T14:59:06Z</time>
      </trkpt>
      <trkpt lat="43.74201" lon="7.03802">
        <ele>1247.93</ele>
        <time>2011-05-29T14:59:17Z</time>
      </trkpt>
      <trkpt lat="43.74195" lon="7.03797">
        <ele>1248.89</ele>
        <time>2011-05-29T14:59:25Z</time>
      </trkpt>
      <trkpt lat="43.74194" lon="7.03796">
        <ele>1249.37</ele>
        <time>2011-05-29T14:59:27Z</time>
      </trkpt>
      <trkpt lat="43.74191" lon="7.03787">
        <ele>1250.81</ele>
        <time>2011-05-29T14:59:36Z</time>
      </trkpt>
      <trkpt lat="43.74191" lon="7.03787">
        <ele>1249.37</ele>
        <time>2011-05-29T14:59:54Z</time>
      </trkpt>
      <trkpt lat="43.74191" lon="7.03787">
        <ele>1250.33</ele>
        <time>2011-05-29T14:59:55Z</time>
      </trkpt>
      <trkpt lat="43.74189" lon="7.0378">
        <ele>1251.29</ele>
        <time>2011-05-29T15:00:01Z</time>
      </trkpt>
      <trkpt lat="43.74182" lon="7.03769">
        <ele>1248.89</ele>
        <time>2011-05-29T15:00:11Z</time>
      </trkpt>
      <trkpt lat="43.74181" lon="7.03768">
        <ele>1249.37</ele>
        <time>2011-05-29T15:00:15Z</time>
      </trkpt>
      <trkpt lat="43.74174" lon="7.03758">
        <ele>1249.85</ele>
        <time>2011-05-29T15:00:28Z</time>
      </trkpt>
      <trkpt lat="43.74168" lon="7.03753">
        <ele>1247.93</ele>
        <time>2011-05-29T15:00:43Z</time>
      </trkpt>
      <trkpt lat="43.7417" lon="7.0375">
        <ele>1248.41</ele>
        <time>2011-05-29T15:00:56Z</time>
      </trkpt>
      <trkpt lat="43.7417" lon="7.03744">
        <ele>1248.89</ele>
        <time>2011-05-29T15:01:06Z</time>
      </trkpt>
      <trkpt lat="43.74173" lon="7.03734">
        <ele>1249.37</ele>
        <time>2011-05-29T15:01:10Z</time>
      </trkpt>
      <trkpt lat="43.74174" lon="7.03724">
        <ele>1248.41</ele>
        <time>2011-05-29T15:01:24Z</time>
      </trkpt>
      <trkpt lat="43.74174" lon="7.03724">
        <ele>1248.89</ele>
        <time>2011-05-29T15:01:39Z</time>
      </trkpt>
      <trkpt lat="43.74174" lon="7.03724">
        <ele>1247.93</ele>
        <time>2011-05-29T15:01:55Z</time>
      </trkpt>
      <trkpt lat="43.74174" lon="7.03724">
        <ele>1248.41</ele>
        <time>2011-05-29T15:01:56Z</time>
      </trkpt>
      <trkpt lat="43.74186" lon="7.03722">
        <ele>1250.81</ele>
        <time>2011-05-29T15:02:07Z</time>
      </trkpt>
      <trkpt lat="43.74187" lon="7.03722">
        <ele>1249.37</ele>
        <time>2011-05-29T15:02:08Z</time>
      </trkpt>
      <trkpt lat="43.7419" lon="7.03718">
        <ele>1249.37</ele>
        <time>2011-05-29T15:02:12Z</time>
      </trkpt>
      <trkpt lat="43.74194" lon="7.03714">
        <ele>1249.37</ele>
        <time>2011-05-29T15:02:16Z</time>
      </trkpt>
      <trkpt lat="43.74197" lon="7.03716">
        <ele>1248.41</ele>
        <time>2011-05-29T15:02:20Z</time>
      </trkpt>
      <trkpt lat="43.74199" lon="7.03716">
        <ele>1247.93</ele>
        <time>2011-05-29T15:02:34Z</time>
      </trkpt>
      <trkpt lat="43.74199" lon="7.03716">
        <ele>1248.41</ele>
        <time>2011-05-29T15:02:41Z</time>
      </trkpt>
      <trkpt lat="43.74195" lon="7.03713">
        <ele>1249.85</ele>
        <time>2011-05-29T15:02:46Z</time>
      </trkpt>
      <trkpt lat="43.74192" lon="7.03711">
        <ele>1249.85</ele>
        <time>2011-05-29T15:02:49Z</time>
      </trkpt>
      <trkpt lat="43.74191" lon="7.03708">
        <ele>1248.89</ele>
        <time>2011-05-29T15:02:51Z</time>
      </trkpt>
      <trkpt lat="43.74189" lon="7.03702">
        <ele>1248.41</ele>
        <time>2011-05-29T15:02:56Z</time>
      </trkpt>
      <trkpt lat="43.74188" lon="7.03693">
        <ele>1248.41</ele>
        <time>2011-05-29T15:03:01Z</time>
      </trkpt>
      <trkpt lat="43.74188" lon="7.03685">
        <ele>1248.41</ele>
        <time>2011-05-29T15:03:06Z</time>
      </trkpt>
      <trkpt lat="43.74188" lon="7.03672">
        <ele>1246.49</ele>
        <time>2011-05-29T15:03:15Z</time>
      </trkpt>
      <trkpt lat="43.74194" lon="7.03656">
        <ele>1244.08</ele>
        <time>2011-05-29T15:03:25Z</time>
      </trkpt>
      <trkpt lat="43.74194" lon="7.03653">
        <ele>1245.04</ele>
        <time>2011-05-29T15:03:27Z</time>
      </trkpt>
      <trkpt lat="43.74203" lon="7.03639">
        <ele>1244.08</ele>
        <time>2011-05-29T15:03:37Z</time>
      </trkpt>
      <trkpt lat="43.7421" lon="7.03635">
        <ele>1242.64</ele>
        <time>2011-05-29T15:03:44Z</time>
      </trkpt>
      <trkpt lat="43.7422" lon="7.03634">
        <ele>1243.12</ele>
        <time>2011-05-29T15:03:57Z</time>
      </trkpt>
      <trkpt lat="43.74227" lon="7.03631">
        <ele>1241.2</ele>
        <time>2011-05-29T15:04:09Z</time>
      </trkpt>
      <trkpt lat="43.74229" lon="7.0363">
        <ele>1241.2</ele>
        <time>2011-05-29T15:04:13Z</time>
      </trkpt>
      <trkpt lat="43.74235" lon="7.03628">
        <ele>1240.72</ele>
        <time>2011-05-29T15:04:18Z</time>
      </trkpt>
      <trkpt lat="43.74239" lon="7.03626">
        <ele>1241.2</ele>
        <time>2011-05-29T15:04:22Z</time>
      </trkpt>
      <trkpt lat="43.74242" lon="7.03625">
        <ele>1239.76</ele>
        <time>2011-05-29T15:04:28Z</time>
      </trkpt>
      <trkpt lat="43.74242" lon="7.03625">
        <ele>1241.2</ele>
        <time>2011-05-29T15:04:32Z</time>
      </trkpt>
      <trkpt lat="43.74252" lon="7.03624">
        <ele>1238.8</ele>
        <time>2011-05-29T15:04:44Z</time>
      </trkpt>
      <trkpt lat="43.74258" lon="7.03622">
        <ele>1240.72</ele>
        <time>2011-05-29T15:04:49Z</time>
      </trkpt>
      <trkpt lat="43.74261" lon="7.03617">
        <ele>1240.24</ele>
        <time>2011-05-29T15:04:54Z</time>
      </trkpt>
      <trkpt lat="43.74263" lon="7.03608">
        <ele>1240.72</ele>
        <time>2011-05-29T15:05:06Z</time>
      </trkpt>
      <trkpt lat="43.74264" lon="7.03605">
        <ele>1240.72</ele>
        <time>2011-05-29T15:05:08Z</time>
      </trkpt>
      <trkpt lat="43.74268" lon="7.03604">
        <ele>1241.2</ele>
        <time>2011-05-29T15:05:22Z</time>
      </trkpt>
      <trkpt lat="43.74269" lon="7.03603">
        <ele>1241.2</ele>
        <time>2011-05-29T15:05:24Z</time>
      </trkpt>
      <trkpt lat="43.74271" lon="7.03605">
        <ele>1239.76</ele>
        <time>2011-05-29T15:05:26Z</time>
      </trkpt>
      <trkpt lat="43.74273" lon="7.03611">
        <ele>1239.28</ele>
        <time>2011-05-29T15:05:31Z</time>
      </trkpt>
      <trkpt lat="43.74274" lon="7.03613">
        <ele>1240.72</ele>
        <time>2011-05-29T15:05:33Z</time>
      </trkpt>
      <trkpt lat="43.74276" lon="7.03616">
        <ele>1241.2</ele>
        <time>2011-05-29T15:05:35Z</time>
      </trkpt>
      <trkpt lat="43.74281" lon="7.03619">
        <ele>1241.68</ele>
        <time>2011-05-29T15:05:39Z</time>
      </trkpt>
      <trkpt lat="43.74286" lon="7.0363">
        <ele>1241.2</ele>
        <time>2011-05-29T15:05:46Z</time>
      </trkpt>
      <trkpt lat="43.74287" lon="7.03637">
        <ele>1241.2</ele>
        <time>2011-05-29T15:05:49Z</time>
      </trkpt>
      <trkpt lat="43.74289" lon="7.03657">
        <ele>1243.12</ele>
        <time>2011-05-29T15:05:59Z</time>
      </trkpt>
      <trkpt lat="43.74285" lon="7.03683">
        <ele>1243.12</ele>
        <time>2011-05-29T15:06:15Z</time>
      </trkpt>
      <trkpt lat="43.74285" lon="7.03684">
        <ele>1244.08</ele>
        <time>2011-05-29T15:06:23Z</time>
      </trkpt>
      <trkpt lat="43.74285" lon="7.03685">
        <ele>1242.64</ele>
        <time>2011-05-29T15:06:36Z</time>
      </trkpt>
      <trkpt lat="43.74285" lon="7.03685">
        <ele>1241.68</ele>
        <time>2011-05-29T15:06:38Z</time>
      </trkpt>
      <trkpt lat="43.74285" lon="7.03685">
        <ele>1241.68</ele>
        <time>2011-05-29T15:06:42Z</time>
      </trkpt>
      <trkpt lat="43.74285" lon="7.03685">
        <ele>1242.64</ele>
        <time>2011-05-29T15:06:44Z</time>
      </trkpt>
      <trkpt lat="43.74285" lon="7.03685">
        <ele>1243.12</ele>
        <time>2011-05-29T15:07:11Z</time>
      </trkpt>
      <trkpt lat="43.74286" lon="7.03683">
        <ele>1243.6</ele>
        <time>2011-05-29T15:07:26Z</time>
      </trkpt>
      <trkpt lat="43.74286" lon="7.03679">
        <ele>1244.08</ele>
        <time>2011-05-29T15:07:29Z</time>
      </trkpt>
      <trkpt lat="43.74287" lon="7.03672">
        <ele>1243.6</ele>
        <time>2011-05-29T15:07:35Z</time>
      </trkpt>
      <trkpt lat="43.74287" lon="7.03669">
        <ele>1244.08</ele>
        <time>2011-05-29T15:07:37Z</time>
      </trkpt>
      <trkpt lat="43.7429" lon="7.03657">
        <ele>1243.6</ele>
        <time>2011-05-29T15:07:49Z</time>
      </trkpt>
      <trkpt lat="43.74291" lon="7.03652">
        <ele>1242.64</ele>
        <time>2011-05-29T15:07:52Z</time>
      </trkpt>
      <trkpt lat="43.74296" lon="7.03633">
        <ele>1243.12</ele>
        <time>2011-05-29T15:08:07Z</time>
      </trkpt>
      <trkpt lat="43.74303" lon="7.03615">
        <ele>1240.72</ele>
        <time>2011-05-29T15:08:21Z</time>
      </trkpt>
      <trkpt lat="43.74305" lon="7.03612">
        <ele>1241.2</ele>
        <time>2011-05-29T15:08:23Z</time>
      </trkpt>
      <trkpt lat="43.74307" lon="7.03608">
        <ele>1240.72</ele>
        <time>2011-05-29T15:08:26Z</time>
      </trkpt>
      <trkpt lat="43.7431" lon="7.03598">
        <ele>1239.76</ele>
        <time>2011-05-29T15:08:34Z</time>
      </trkpt>
      <trkpt lat="43.74311" lon="7.03589">
        <ele>1239.76</ele>
        <time>2011-05-29T15:08:41Z</time>
      </trkpt>
      <trkpt lat="43.74313" lon="7.03573">
        <ele>1238.32</ele>
        <time>2011-05-29T15:08:52Z</time>
      </trkpt>
      <trkpt lat="43.7431" lon="7.0357">
        <ele>1239.28</ele>
        <time>2011-05-29T15:08:56Z</time>
      </trkpt>
      <trkpt lat="43.74304" lon="7.03563">
        <ele>1239.28</ele>
        <time>2011-05-29T15:09:04Z</time>
      </trkpt>
      <trkpt lat="43.74299" lon="7.03557">
        <ele>1238.32</ele>
        <time>2011-05-29T15:09:16Z</time>
      </trkpt>
      <trkpt lat="43.74298" lon="7.03557">
        <ele>1236.87</ele>
        <time>2011-05-29T15:09:25Z</time>
      </trkpt>
      <trkpt lat="43.74295" lon="7.03552">
        <ele>1237.83</ele>
        <time>2011-05-29T15:09:34Z</time>
      </trkpt>
      <trkpt lat="43.74289" lon="7.03548">
        <ele>1238.8</ele>
        <time>2011-05-29T15:09:42Z</time>
      </trkpt>
      <trkpt lat="43.74284" lon="7.03546">
        <ele>1238.8</ele>
        <time>2011-05-29T15:09:49Z</time>
      </trkpt>
      <trkpt lat="43.74281" lon="7.03542">
        <ele>1238.32</ele>
        <time>2011-05-29T15:09:54Z</time>
      </trkpt>
      <trkpt lat="43.74276" lon="7.0354">
        <ele>1237.35</ele>
        <time>2011-05-29T15:10:00Z</time>
      </trkpt>
      <trkpt lat="43.74274" lon="7.03541">
        <ele>1238.32</ele>
        <time>2011-05-29T15:10:02Z</time>
      </trkpt>
      <trkpt lat="43.74273" lon="7.03541">
        <ele>1237.83</ele>
        <time>2011-05-29T15:10:03Z</time>
      </trkpt>
      <trkpt lat="43.74269" lon="7.03539">
        <ele>1238.8</ele>
        <time>2011-05-29T15:10:07Z</time>
      </trkpt>
      <trkpt lat="43.74263" lon="7.03545">
        <ele>1240.24</ele>
        <time>2011-05-29T15:10:14Z</time>
      </trkpt>
      <trkpt lat="43.74257" lon="7.03544">
        <ele>1239.28</ele>
        <time>2011-05-29T15:10:24Z</time>
      </trkpt>
      <trkpt lat="43.74255" lon="7.03542">
        <ele>1240.72</ele>
        <time>2011-05-29T15:10:26Z</time>
      </trkpt>
      <trkpt lat="43.74241" lon="7.03537">
        <ele>1239.28</ele>
        <time>2011-05-29T15:10:42Z</time>
      </trkpt>
      <trkpt lat="43.7424" lon="7.03536">
        <ele>1238.8</ele>
        <time>2011-05-29T15:10:44Z</time>
      </trkpt>
      <trkpt lat="43.74234" lon="7.03531">
        <ele>1237.83</ele>
        <time>2011-05-29T15:10:57Z</time>
      </trkpt>
      <trkpt lat="43.74233" lon="7.03529">
        <ele>1236.39</ele>
        <time>2011-05-29T15:11:00Z</time>
      </trkpt>
      <trkpt lat="43.74233" lon="7.03526">
        <ele>1236.39</ele>
        <time>2011-05-29T15:11:03Z</time>
      </trkpt>
      <trkpt lat="43.74233" lon="7.0352">
        <ele>1234.95</ele>
        <time>2011-05-29T15:11:07Z</time>
      </trkpt>
      <trkpt lat="43.7423" lon="7.03507">
        <ele>1234.95</ele>
        <time>2011-05-29T15:11:19Z</time>
      </trkpt>
      <trkpt lat="43.74228" lon="7.03491">
        <ele>1230.62</ele>
        <time>2011-05-29T15:11:33Z</time>
      </trkpt>
      <trkpt lat="43.74224" lon="7.03483">
        <ele>1230.62</ele>
        <time>2011-05-29T15:11:47Z</time>
      </trkpt>
      <trkpt lat="43.74217" lon="7.03473">
        <ele>1228.7</ele>
        <time>2011-05-29T15:11:59Z</time>
      </trkpt>
      <trkpt lat="43.74212" lon="7.03464">
        <ele>1227.26</ele>
        <time>2011-05-29T15:12:06Z</time>
      </trkpt>
      <trkpt lat="43.74205" lon="7.03448">
        <ele>1225.34</ele>
        <time>2011-05-29T15:12:20Z</time>
      </trkpt>
      <trkpt lat="43.742" lon="7.03436">
        <ele>1223.9</ele>
        <time>2011-05-29T15:12:28Z</time>
      </trkpt>
      <trkpt lat="43.74196" lon="7.03428">
        <ele>1223.9</ele>
        <time>2011-05-29T15:12:34Z</time>
      </trkpt>
      <trkpt lat="43.74191" lon="7.03413">
        <ele>1222.93</ele>
        <time>2011-05-29T15:12:47Z</time>
      </trkpt>
      <trkpt lat="43.74191" lon="7.0341">
        <ele>1222.93</ele>
        <time>2011-05-29T15:12:49Z</time>
      </trkpt>
      <trkpt lat="43.74187" lon="7.03388">
        <ele>1219.57</ele>
        <time>2011-05-29T15:13:04Z</time>
      </trkpt>
      <trkpt lat="43.74187" lon="7.0338">
        <ele>1219.57</ele>
        <time>2011-05-29T15:13:09Z</time>
      </trkpt>
      <trkpt lat="43.74182" lon="7.03363">
        <ele>1220.05</ele>
        <time>2011-05-29T15:13:24Z</time>
      </trkpt>
      <trkpt lat="43.7418" lon="7.03359">
        <ele>1218.13</ele>
        <time>2011-05-29T15:13:27Z</time>
      </trkpt>
      <trkpt lat="43.74175" lon="7.03353">
        <ele>1218.61</ele>
        <time>2011-05-29T15:13:33Z</time>
      </trkpt>
      <trkpt lat="43.74172" lon="7.03343">
        <ele>1218.61</ele>
        <time>2011-05-29T15:13:40Z</time>
      </trkpt>
      <trkpt lat="43.74172" lon="7.03334">
        <ele>1218.61</ele>
        <time>2011-05-29T15:13:46Z</time>
      </trkpt>
      <trkpt lat="43.74173" lon="7.03331">
        <ele>1218.61</ele>
        <time>2011-05-29T15:13:48Z</time>
      </trkpt>
      <trkpt lat="43.74172" lon="7.03329">
        <ele>1219.57</ele>
        <time>2011-05-29T15:13:50Z</time>
      </trkpt>
      <trkpt lat="43.74169" lon="7.03325">
        <ele>1219.09</ele>
        <time>2011-05-29T15:13:54Z</time>
      </trkpt>
      <trkpt lat="43.74168" lon="7.03323">
        <ele>1217.65</ele>
        <time>2011-05-29T15:13:56Z</time>
      </trkpt>
      <trkpt lat="43.74166" lon="7.03319">
        <ele>1220.05</ele>
        <time>2011-05-29T15:13:59Z</time>
      </trkpt>
      <trkpt lat="43.74165" lon="7.03315">
        <ele>1220.05</ele>
        <time>2011-05-29T15:14:02Z</time>
      </trkpt>
      <trkpt lat="43.74164" lon="7.03314">
        <ele>1218.61</ele>
        <time>2011-05-29T15:14:04Z</time>
      </trkpt>
      <trkpt lat="43.74163" lon="7.0331">
        <ele>1219.57</ele>
        <time>2011-05-29T15:14:06Z</time>
      </trkpt>
      <trkpt lat="43.74161" lon="7.03305">
        <ele>1219.09</ele>
        <time>2011-05-29T15:14:10Z</time>
      </trkpt>
      <trkpt lat="43.74159" lon="7.03301">
        <ele>1218.61</ele>
        <time>2011-05-29T15:14:14Z</time>
      </trkpt>
      <trkpt lat="43.74157" lon="7.033">
        <ele>1218.61</ele>
        <time>2011-05-29T15:14:16Z</time>
      </trkpt>
      <trkpt lat="43.74152" lon="7.03281">
        <ele>1221.49</ele>
        <time>2011-05-29T15:14:31Z</time>
      </trkpt>
      <trkpt lat="43.7415" lon="7.03276">
        <ele>1220.53</ele>
        <time>2011-05-29T15:14:44Z</time>
      </trkpt>
      <trkpt lat="43.7415" lon="7.03276">
        <ele>1221.01</ele>
        <time>2011-05-29T15:14:58Z</time>
      </trkpt>
      <trkpt lat="43.74149" lon="7.03276">
        <ele>1220.53</ele>
        <time>2011-05-29T15:15:14Z</time>
      </trkpt>
      <trkpt lat="43.74147" lon="7.03273">
        <ele>1221.01</ele>
        <time>2011-05-29T15:15:18Z</time>
      </trkpt>
      <trkpt lat="43.74145" lon="7.03272">
        <ele>1220.53</ele>
        <time>2011-05-29T15:15:20Z</time>
      </trkpt>
      <trkpt lat="43.74141" lon="7.03272">
        <ele>1221.97</ele>
        <time>2011-05-29T15:15:24Z</time>
      </trkpt>
      <trkpt lat="43.74139" lon="7.03273">
        <ele>1221.01</ele>
        <time>2011-05-29T15:15:26Z</time>
      </trkpt>
      <trkpt lat="43.74136" lon="7.03275">
        <ele>1220.05</ele>
        <time>2011-05-29T15:15:29Z</time>
      </trkpt>
      <trkpt lat="43.74125" lon="7.03279">
        <ele>1221.01</ele>
        <time>2011-05-29T15:15:40Z</time>
      </trkpt>
      <trkpt lat="43.74121" lon="7.0328">
        <ele>1221.97</ele>
        <time>2011-05-29T15:15:44Z</time>
      </trkpt>
      <trkpt lat="43.74118" lon="7.0328">
        <ele>1221.01</ele>
        <time>2011-05-29T15:15:47Z</time>
      </trkpt>
      <trkpt lat="43.74113" lon="7.03281">
        <ele>1220.53</ele>
        <time>2011-05-29T15:15:52Z</time>
      </trkpt>
      <trkpt lat="43.74097" lon="7.03284">
        <ele>1220.53</ele>
        <time>2011-05-29T15:16:07Z</time>
      </trkpt>
      <trkpt lat="43.74085" lon="7.03287">
        <ele>1220.53</ele>
        <time>2011-05-29T15:16:20Z</time>
      </trkpt>
      <trkpt lat="43.74079" lon="7.03289">
        <ele>1220.05</ele>
        <time>2011-05-29T15:16:25Z</time>
      </trkpt>
      <trkpt lat="43.74072" lon="7.03294">
        <ele>1221.49</ele>
        <time>2011-05-29T15:16:33Z</time>
      </trkpt>
      <trkpt lat="43.74068" lon="7.03295">
        <ele>1220.05</ele>
        <time>2011-05-29T15:16:36Z</time>
      </trkpt>
      <trkpt lat="43.74064" lon="7.03294">
        <ele>1221.01</ele>
        <time>2011-05-29T15:16:41Z</time>
      </trkpt>
      <trkpt lat="43.74057" lon="7.03295">
        <ele>1221.01</ele>
        <time>2011-05-29T15:16:47Z</time>
      </trkpt>
      <trkpt lat="43.74054" lon="7.03293">
        <ele>1221.49</ele>
        <time>2011-05-29T15:16:51Z</time>
      </trkpt>
      <trkpt lat="43.7405" lon="7.03293">
        <ele>1222.93</ele>
        <time>2011-05-29T15:16:55Z</time>
      </trkpt>
      <trkpt lat="43.74045" lon="7.03289">
        <ele>1221.49</ele>
        <time>2011-05-29T15:17:00Z</time>
      </trkpt>
      <trkpt lat="43.74042" lon="7.03285">
        <ele>1221.01</ele>
        <time>2011-05-29T15:17:05Z</time>
      </trkpt>
      <trkpt lat="43.74029" lon="7.03286">
        <ele>1219.57</ele>
        <time>2011-05-29T15:17:20Z</time>
      </trkpt>
      <trkpt lat="43.74027" lon="7.03287">
        <ele>1218.61</ele>
        <time>2011-05-29T15:17:33Z</time>
      </trkpt>
      <trkpt lat="43.74023" lon="7.03283">
        <ele>1220.53</ele>
        <time>2011-05-29T15:17:41Z</time>
      </trkpt>
      <trkpt lat="43.74019" lon="7.03283">
        <ele>1219.57</ele>
        <time>2011-05-29T15:17:44Z</time>
      </trkpt>
      <trkpt lat="43.74011" lon="7.03276">
        <ele>1218.13</ele>
        <time>2011-05-29T15:17:53Z</time>
      </trkpt>
      <trkpt lat="43.7401" lon="7.03274">
        <ele>1219.09</ele>
        <time>2011-05-29T15:17:55Z</time>
      </trkpt>
      <trkpt lat="43.74005" lon="7.03268">
        <ele>1219.57</ele>
        <time>2011-05-29T15:18:02Z</time>
      </trkpt>
      <trkpt lat="43.74" lon="7.03267">
        <ele>1219.57</ele>
        <time>2011-05-29T15:18:08Z</time>
      </trkpt>
      <trkpt lat="43.73994" lon="7.03266">
        <ele>1219.09</ele>
        <time>2011-05-29T15:18:14Z</time>
      </trkpt>
      <trkpt lat="43.73991" lon="7.03263">
        <ele>1219.57</ele>
        <time>2011-05-29T15:18:18Z</time>
      </trkpt>
      <trkpt lat="43.73976" lon="7.03255">
        <ele>1219.09</ele>
        <time>2011-05-29T15:18:33Z</time>
      </trkpt>
      <trkpt lat="43.73961" lon="7.03253">
        <ele>1218.13</ele>
        <time>2011-05-29T15:18:47Z</time>
      </trkpt>
      <trkpt lat="43.73959" lon="7.03253">
        <ele>1217.65</ele>
        <time>2011-05-29T15:18:57Z</time>
      </trkpt>
      <trkpt lat="43.73959" lon="7.03253">
        <ele>1217.17</ele>
        <time>2011-05-29T15:19:33Z</time>
      </trkpt>
      <trkpt lat="43.73959" lon="7.03253">
        <ele>1217.17</ele>
        <time>2011-05-29T15:20:11Z</time>
      </trkpt>
      <trkpt lat="43.73957" lon="7.03251">
        <ele>1218.13</ele>
        <time>2011-05-29T15:20:36Z</time>
      </trkpt>
      <trkpt lat="43.73955" lon="7.03248">
        <ele>1218.61</ele>
        <time>2011-05-29T15:20:52Z</time>
      </trkpt>
      <trkpt lat="43.73956" lon="7.03247">
        <ele>1217.65</ele>
        <time>2011-05-29T15:21:18Z</time>
      </trkpt>
      <trkpt lat="43.73956" lon="7.03247">
        <ele>1218.13</ele>
        <time>2011-05-29T15:21:49Z</time>
      </trkpt>
      <trkpt lat="43.73955" lon="7.03247">
        <ele>1219.09</ele>
        <time>2011-05-29T15:22:20Z</time>
      </trkpt>
      <trkpt lat="43.73955" lon="7.03247">
        <ele>1227.26</ele>
        <time>2011-05-29T15:22:25Z</time>
      </trkpt>
      <trkpt lat="43.73955" lon="7.03247">
        <ele>1219.09</ele>
        <time>2011-05-29T15:22:26Z</time>
      </trkpt>
      <trkpt lat="43.73955" lon="7.03247">
        <ele>1217.65</ele>
        <time>2011-05-29T15:22:47Z</time>
      </trkpt>
      <trkpt lat="43.73955" lon="7.03247">
        <ele>1217.65</ele>
        <time>2011-05-29T15:22:59Z</time>
      </trkpt>
      <trkpt lat="43.73955" lon="7.03247">
        <ele>1217.65</ele>
        <time>2011-05-29T15:23:27Z</time>
      </trkpt>
      <trkpt lat="43.73955" lon="7.03247">
        <ele>1219.57</ele>
        <time>2011-05-29T15:23:53Z</time>
      </trkpt>
      <trkpt lat="43.73955" lon="7.03247">
        <ele>1217.65</ele>
        <time>2011-05-29T15:23:57Z</time>
      </trkpt>
      <trkpt lat="43.73955" lon="7.03247">
        <ele>1218.13</ele>
        <time>2011-05-29T15:24:22Z</time>
      </trkpt>
      <trkpt lat="43.73955" lon="7.03246">
        <ele>1218.13</ele>
        <time>2011-05-29T15:24:58Z</time>
      </trkpt>
      <trkpt lat="43.73955" lon="7.03245">
        <ele>1220.53</ele>
        <time>2011-05-29T15:25:22Z</time>
      </trkpt>
      <trkpt lat="43.73954" lon="7.03244">
        <ele>1219.09</ele>
        <time>2011-05-29T15:25:24Z</time>
      </trkpt>
      <trkpt lat="43.73943" lon="7.03238">
        <ele>1217.65</ele>
        <time>2011-05-29T15:25:37Z</time>
      </trkpt>
      <trkpt lat="43.73931" lon="7.03228">
        <ele>1216.69</ele>
        <time>2011-05-29T15:25:52Z</time>
      </trkpt>
      <trkpt lat="43.73924" lon="7.03221">
        <ele>1217.17</ele>
        <time>2011-05-29T15:26:01Z</time>
      </trkpt>
      <trkpt lat="43.73921" lon="7.03217">
        <ele>1215.24</ele>
        <time>2011-05-29T15:26:14Z</time>
      </trkpt>
      <trkpt lat="43.73921" lon="7.03218">
        <ele>1215.24</ele>
        <time>2011-05-29T15:26:28Z</time>
      </trkpt>
      <trkpt lat="43.73921" lon="7.03218">
        <ele>1215.24</ele>
        <time>2011-05-29T15:26:45Z</time>
      </trkpt>
      <trkpt lat="43.73921" lon="7.03218">
        <ele>1216.21</ele>
        <time>2011-05-29T15:26:59Z</time>
      </trkpt>
      <trkpt lat="43.73921" lon="7.03218">
        <ele>1213.8</ele>
        <time>2011-05-29T15:27:01Z</time>
      </trkpt>
      <trkpt lat="43.73921" lon="7.03218">
        <ele>1215.24</ele>
        <time>2011-05-29T15:27:06Z</time>
      </trkpt>
      <trkpt lat="43.73921" lon="7.03218">
        <ele>1214.28</ele>
        <time>2011-05-29T15:27:08Z</time>
      </trkpt>
      <trkpt lat="43.73921" lon="7.03218">
        <ele>1215.24</ele>
        <time>2011-05-29T15:27:17Z</time>
      </trkpt>
      <trkpt lat="43.73921" lon="7.03218">
        <ele>1214.28</ele>
        <time>2011-05-29T15:27:19Z</time>
      </trkpt>
      <trkpt lat="43.73921" lon="7.03218">
        <ele>1214.76</ele>
        <time>2011-05-29T15:27:23Z</time>
      </trkpt>
      <trkpt lat="43.7391" lon="7.03206">
        <ele>1212.84</ele>
        <time>2011-05-29T15:27:36Z</time>
      </trkpt>
      <trkpt lat="43.73909" lon="7.03206">
        <ele>1213.8</ele>
        <time>2011-05-29T15:27:41Z</time>
      </trkpt>
      <trkpt lat="43.73909" lon="7.03206">
        <ele>1214.28</ele>
        <time>2011-05-29T15:27:46Z</time>
      </trkpt>
      <trkpt lat="43.73909" lon="7.03206">
        <ele>1210.44</ele>
        <time>2011-05-29T15:27:55Z</time>
      </trkpt>
      <trkpt lat="43.73909" lon="7.03206">
        <ele>1210.92</ele>
        <time>2011-05-29T15:27:56Z</time>
      </trkpt>
      <trkpt lat="43.73909" lon="7.03206">
        <ele>1212.36</ele>
        <time>2011-05-29T15:28:14Z</time>
      </trkpt>
      <trkpt lat="43.73909" lon="7.03206">
        <ele>1211.88</ele>
        <time>2011-05-29T15:28:16Z</time>
      </trkpt>
      <trkpt lat="43.73909" lon="7.03205">
        <ele>1212.84</ele>
        <time>2011-05-29T15:28:32Z</time>
      </trkpt>
      <trkpt lat="43.73909" lon="7.03205">
        <ele>1212.36</ele>
        <time>2011-05-29T15:28:55Z</time>
      </trkpt>
      <trkpt lat="43.73908" lon="7.03205">
        <ele>1210.92</ele>
        <time>2011-05-29T15:29:09Z</time>
      </trkpt>
      <trkpt lat="43.73906" lon="7.03202">
        <ele>1210.92</ele>
        <time>2011-05-29T15:29:15Z</time>
      </trkpt>
      <trkpt lat="43.73894" lon="7.03187">
        <ele>1209.96</ele>
        <time>2011-05-29T15:29:28Z</time>
      </trkpt>
      <trkpt lat="43.73887" lon="7.03175">
        <ele>1209</ele>
        <time>2011-05-29T15:29:40Z</time>
      </trkpt>
      <trkpt lat="43.73885" lon="7.03171">
        <ele>1207.55</ele>
        <time>2011-05-29T15:29:55Z</time>
      </trkpt>
      <trkpt lat="43.73885" lon="7.03171">
        <ele>1208.03</ele>
        <time>2011-05-29T15:30:12Z</time>
      </trkpt>
      <trkpt lat="43.73885" lon="7.0317">
        <ele>1207.55</ele>
        <time>2011-05-29T15:30:35Z</time>
      </trkpt>
      <trkpt lat="43.73885" lon="7.0317">
        <ele>1208.03</ele>
        <time>2011-05-29T15:31:02Z</time>
      </trkpt>
      <trkpt lat="43.73885" lon="7.0317">
        <ele>1207.55</ele>
        <time>2011-05-29T15:31:25Z</time>
      </trkpt>
      <trkpt lat="43.73885" lon="7.0317">
        <ele>1207.55</ele>
        <time>2011-05-29T15:31:43Z</time>
      </trkpt>
      <trkpt lat="43.73885" lon="7.0317">
        <ele>1207.55</ele>
        <time>2011-05-29T15:32:11Z</time>
      </trkpt>
      <trkpt lat="43.73885" lon="7.03169">
        <ele>1208.03</ele>
        <time>2011-05-29T15:32:39Z</time>
      </trkpt>
      <trkpt lat="43.73885" lon="7.03169">
        <ele>1207.07</ele>
        <time>2011-05-29T15:32:41Z</time>
      </trkpt>
      <trkpt lat="43.73885" lon="7.03169">
        <ele>1206.59</ele>
        <time>2011-05-29T15:32:53Z</time>
      </trkpt>
      <trkpt lat="43.73885" lon="7.03169">
        <ele>1207.55</ele>
        <time>2011-05-29T15:33:04Z</time>
      </trkpt>
      <trkpt lat="43.73885" lon="7.03168">
        <ele>1207.07</ele>
        <time>2011-05-29T15:33:35Z</time>
      </trkpt>
      <trkpt lat="43.73885" lon="7.03168">
        <ele>1206.11</ele>
        <time>2011-05-29T15:33:45Z</time>
      </trkpt>
      <trkpt lat="43.73885" lon="7.03168">
        <ele>1208.03</ele>
        <time>2011-05-29T15:34:02Z</time>
      </trkpt>
      <trkpt lat="43.73885" lon="7.03168">
        <ele>1206.11</ele>
        <time>2011-05-29T15:34:04Z</time>
      </trkpt>
      <trkpt lat="43.73885" lon="7.03168">
        <ele>1207.07</ele>
        <time>2011-05-29T15:34:42Z</time>
      </trkpt>
      <trkpt lat="43.73885" lon="7.03167">
        <ele>1207.07</ele>
        <time>2011-05-29T15:35:17Z</time>
      </trkpt>
      <trkpt lat="43.73885" lon="7.03167">
        <ele>1206.11</ele>
        <time>2011-05-29T15:35:32Z</time>
      </trkpt>
      <trkpt lat="43.73885" lon="7.03167">
        <ele>1207.55</ele>
        <time>2011-05-29T15:35:35Z</time>
      </trkpt>
      <trkpt lat="43.73885" lon="7.03167">
        <ele>1208.03</ele>
        <time>2011-05-29T15:35:45Z</time>
      </trkpt>
      <trkpt lat="43.73884" lon="7.03167">
        <ele>1207.07</ele>
        <time>2011-05-29T15:35:58Z</time>
      </trkpt>
      <trkpt lat="43.73884" lon="7.03166">
        <ele>1207.07</ele>
        <time>2011-05-29T15:36:37Z</time>
      </trkpt>
      <trkpt lat="43.73884" lon="7.03166">
        <ele>1207.07</ele>
        <time>2011-05-29T15:37:19Z</time>
      </trkpt>
      <trkpt lat="43.73884" lon="7.03166">
        <ele>1206.59</ele>
        <time>2011-05-29T15:37:52Z</time>
      </trkpt>
      <trkpt lat="43.73884" lon="7.03165">
        <ele>1207.55</ele>
        <time>2011-05-29T15:38:29Z</time>
      </trkpt>
      <trkpt lat="43.73884" lon="7.03165">
        <ele>1207.55</ele>
        <time>2011-05-29T15:38:54Z</time>
      </trkpt>
      <trkpt lat="43.73883" lon="7.03164">
        <ele>1208.03</ele>
        <time>2011-05-29T15:39:14Z</time>
      </trkpt>
      <trkpt lat="43.73883" lon="7.03164">
        <ele>1208.03</ele>
        <time>2011-05-29T15:39:32Z</time>
      </trkpt>
      <trkpt lat="43.73884" lon="7.03164">
        <ele>1208.03</ele>
        <time>2011-05-29T15:40:02Z</time>
      </trkpt>
      <trkpt lat="43.73884" lon="7.03164">
        <ele>1207.55</ele>
        <time>2011-05-29T15:40:19Z</time>
      </trkpt>
      <trkpt lat="43.73885" lon="7.03163">
        <ele>1207.07</ele>
        <time>2011-05-29T15:40:39Z</time>
      </trkpt>
      <trkpt lat="43.73884" lon="7.03161">
        <ele>1205.63</ele>
        <time>2011-05-29T15:40:53Z</time>
      </trkpt>
      <trkpt lat="43.73881" lon="7.03151">
        <ele>1206.11</ele>
        <time>2011-05-29T15:41:05Z</time>
      </trkpt>
      <trkpt lat="43.73879" lon="7.03142">
        <ele>1203.71</ele>
        <time>2011-05-29T15:41:21Z</time>
      </trkpt>
      <trkpt lat="43.73877" lon="7.03131">
        <ele>1204.19</ele>
        <time>2011-05-29T15:41:33Z</time>
      </trkpt>
      <trkpt lat="43.73874" lon="7.03117">
        <ele>1202.27</ele>
        <time>2011-05-29T15:41:45Z</time>
      </trkpt>
      <trkpt lat="43.7387" lon="7.03108">
        <ele>1200.34</ele>
        <time>2011-05-29T15:42:00Z</time>
      </trkpt>
      <trkpt lat="43.73867" lon="7.03095">
        <ele>1197.94</ele>
        <time>2011-05-29T15:42:14Z</time>
      </trkpt>
      <trkpt lat="43.73867" lon="7.03093">
        <ele>1197.46</ele>
        <time>2011-05-29T15:42:30Z</time>
      </trkpt>
      <trkpt lat="43.73867" lon="7.03093">
        <ele>1198.9</ele>
        <time>2011-05-29T15:42:55Z</time>
      </trkpt>
      <trkpt lat="43.73866" lon="7.03087">
        <ele>1197.46</ele>
        <time>2011-05-29T15:43:09Z</time>
      </trkpt>
      <trkpt lat="43.73863" lon="7.03077">
        <ele>1197.46</ele>
        <time>2011-05-29T15:43:20Z</time>
      </trkpt>
      <trkpt lat="43.73861" lon="7.03064">
        <ele>1194.58</ele>
        <time>2011-05-29T15:43:34Z</time>
      </trkpt>
      <trkpt lat="43.73861" lon="7.03064">
        <ele>1196.02</ele>
        <time>2011-05-29T15:43:37Z</time>
      </trkpt>
      <trkpt lat="43.7386" lon="7.03057">
        <ele>1193.13</ele>
        <time>2011-05-29T15:43:51Z</time>
      </trkpt>
      <trkpt lat="43.73856" lon="7.03046">
        <ele>1192.65</ele>
        <time>2011-05-29T15:44:05Z</time>
      </trkpt>
      <trkpt lat="43.73852" lon="7.0304">
        <ele>1189.77</ele>
        <time>2011-05-29T15:44:14Z</time>
      </trkpt>
      <trkpt lat="43.73848" lon="7.03033">
        <ele>1188.81</ele>
        <time>2011-05-29T15:44:25Z</time>
      </trkpt>
      <trkpt lat="43.73846" lon="7.03025">
        <ele>1188.33</ele>
        <time>2011-05-29T15:44:37Z</time>
      </trkpt>
      <trkpt lat="43.73844" lon="7.03021">
        <ele>1187.85</ele>
        <time>2011-05-29T15:44:46Z</time>
      </trkpt>
      <trkpt lat="43.73843" lon="7.03014">
        <ele>1187.85</ele>
        <time>2011-05-29T15:45:00Z</time>
      </trkpt>
      <trkpt lat="43.73842" lon="7.03015">
        <ele>1186.88</ele>
        <time>2011-05-29T15:45:18Z</time>
      </trkpt>
      <trkpt lat="43.73838" lon="7.03013">
        <ele>1184.96</ele>
        <time>2011-05-29T15:45:34Z</time>
      </trkpt>
      <trkpt lat="43.73835" lon="7.03008">
        <ele>1184</ele>
        <time>2011-05-29T15:45:45Z</time>
      </trkpt>
      <trkpt lat="43.73832" lon="7.03003">
        <ele>1181.6</ele>
        <time>2011-05-29T15:45:59Z</time>
      </trkpt>
      <trkpt lat="43.7383" lon="7.03001">
        <ele>1182.08</ele>
        <time>2011-05-29T15:46:11Z</time>
      </trkpt>
      <trkpt lat="43.73822" lon="7.0299">
        <ele>1180.64</ele>
        <time>2011-05-29T15:46:23Z</time>
      </trkpt>
      <trkpt lat="43.73821" lon="7.02985">
        <ele>1179.67</ele>
        <time>2011-05-29T15:46:36Z</time>
      </trkpt>
      <trkpt lat="43.73818" lon="7.02982">
        <ele>1178.71</ele>
        <time>2011-05-29T15:46:40Z</time>
      </trkpt>
      <trkpt lat="43.73817" lon="7.02981">
        <ele>1180.16</ele>
        <time>2011-05-29T15:46:41Z</time>
      </trkpt>
      <trkpt lat="43.73815" lon="7.02977">
        <ele>1178.23</ele>
        <time>2011-05-29T15:46:44Z</time>
      </trkpt>
      <trkpt lat="43.73812" lon="7.02971">
        <ele>1177.27</ele>
        <time>2011-05-29T15:47:01Z</time>
      </trkpt>
      <trkpt lat="43.73811" lon="7.02971">
        <ele>1176.79</ele>
        <time>2011-05-29T15:47:02Z</time>
      </trkpt>
      <trkpt lat="43.73806" lon="7.02961">
        <ele>1174.87</ele>
        <time>2011-05-29T15:47:15Z</time>
      </trkpt>
      <trkpt lat="43.73805" lon="7.0296">
        <ele>1175.35</ele>
        <time>2011-05-29T15:47:16Z</time>
      </trkpt>
      <trkpt lat="43.73803" lon="7.02957">
        <ele>1173.43</ele>
        <time>2011-05-29T15:47:19Z</time>
      </trkpt>
      <trkpt lat="43.73795" lon="7.02945">
        <ele>1171.98</ele>
        <time>2011-05-29T15:47:34Z</time>
      </trkpt>
      <trkpt lat="43.73793" lon="7.02941">
        <ele>1168.62</ele>
        <time>2011-05-29T15:47:53Z</time>
      </trkpt>
      <trkpt lat="43.7379" lon="7.02936">
        <ele>1168.14</ele>
        <time>2011-05-29T15:48:05Z</time>
      </trkpt>
      <trkpt lat="43.73787" lon="7.02932">
        <ele>1167.66</ele>
        <time>2011-05-29T15:48:09Z</time>
      </trkpt>
      <trkpt lat="43.7378" lon="7.02922">
        <ele>1164.77</ele>
        <time>2011-05-29T15:48:19Z</time>
      </trkpt>
      <trkpt lat="43.73777" lon="7.02916">
        <ele>1164.29</ele>
        <time>2011-05-29T15:48:32Z</time>
      </trkpt>
      <trkpt lat="43.73777" lon="7.02915">
        <ele>1165.26</ele>
        <time>2011-05-29T15:48:43Z</time>
      </trkpt>
      <trkpt lat="43.73775" lon="7.02913">
        <ele>1163.33</ele>
        <time>2011-05-29T15:48:45Z</time>
      </trkpt>
      <trkpt lat="43.73772" lon="7.02905">
        <ele>1163.33</ele>
        <time>2011-05-29T15:49:00Z</time>
      </trkpt>
      <trkpt lat="43.73771" lon="7.02904">
        <ele>1162.85</ele>
        <time>2011-05-29T15:49:01Z</time>
      </trkpt>
      <trkpt lat="43.73769" lon="7.029">
        <ele>1161.41</ele>
        <time>2011-05-29T15:49:05Z</time>
      </trkpt>
      <trkpt lat="43.73765" lon="7.02895">
        <ele>1161.41</ele>
        <time>2011-05-29T15:49:09Z</time>
      </trkpt>
      <trkpt lat="43.73761" lon="7.02892">
        <ele>1159.97</ele>
        <time>2011-05-29T15:49:13Z</time>
      </trkpt>
      <trkpt lat="43.7376" lon="7.0289">
        <ele>1158.53</ele>
        <time>2011-05-29T15:49:15Z</time>
      </trkpt>
      <trkpt lat="43.73757" lon="7.02881">
        <ele>1159.01</ele>
        <time>2011-05-29T15:49:31Z</time>
      </trkpt>
      <trkpt lat="43.73755" lon="7.02879">
        <ele>1157.56</ele>
        <time>2011-05-29T15:49:37Z</time>
      </trkpt>
      <trkpt lat="43.73744" lon="7.02861">
        <ele>1154.68</ele>
        <time>2011-05-29T15:49:53Z</time>
      </trkpt>
      <trkpt lat="43.7374" lon="7.02855">
        <ele>1154.68</ele>
        <time>2011-05-29T15:50:10Z</time>
      </trkpt>
      <trkpt lat="43.73733" lon="7.02841">
        <ele>1150.35</ele>
        <time>2011-05-29T15:50:21Z</time>
      </trkpt>
      <trkpt lat="43.73732" lon="7.02837">
        <ele>1151.8</ele>
        <time>2011-05-29T15:50:27Z</time>
      </trkpt>
      <trkpt lat="43.73729" lon="7.02829">
        <ele>1151.32</ele>
        <time>2011-05-29T15:50:36Z</time>
      </trkpt>
      <trkpt lat="43.73725" lon="7.02822">
        <ele>1148.91</ele>
        <time>2011-05-29T15:50:42Z</time>
      </trkpt>
      <trkpt lat="43.73719" lon="7.02812">
        <ele>1147.95</ele>
        <time>2011-05-29T15:51:00Z</time>
      </trkpt>
      <trkpt lat="43.73716" lon="7.02809">
        <ele>1146.03</ele>
        <time>2011-05-29T15:51:13Z</time>
      </trkpt>
      <trkpt lat="43.73714" lon="7.02807">
        <ele>1146.03</ele>
        <time>2011-05-29T15:51:15Z</time>
      </trkpt>
      <trkpt lat="43.73707" lon="7.02795">
        <ele>1142.66</ele>
        <time>2011-05-29T15:51:27Z</time>
      </trkpt>
      <trkpt lat="43.73705" lon="7.02789">
        <ele>1142.66</ele>
        <time>2011-05-29T15:51:38Z</time>
      </trkpt>
      <trkpt lat="43.73703" lon="7.02793">
        <ele>1141.22</ele>
        <time>2011-05-29T15:51:52Z</time>
      </trkpt>
      <trkpt lat="43.73703" lon="7.02793">
        <ele>1142.18</ele>
        <time>2011-05-29T15:52:10Z</time>
      </trkpt>
      <trkpt lat="43.73703" lon="7.02793">
        <ele>1141.7</ele>
        <time>2011-05-29T15:52:26Z</time>
      </trkpt>
      <trkpt lat="43.73703" lon="7.02792">
        <ele>1141.7</ele>
        <time>2011-05-29T15:52:43Z</time>
      </trkpt>
      <trkpt lat="43.73698" lon="7.02789">
        <ele>1140.74</ele>
        <time>2011-05-29T15:53:00Z</time>
      </trkpt>
      <trkpt lat="43.7369" lon="7.02783">
        <ele>1138.82</ele>
        <time>2011-05-29T15:53:09Z</time>
      </trkpt>
      <trkpt lat="43.7368" lon="7.02774">
        <ele>1137.38</ele>
        <time>2011-05-29T15:53:24Z</time>
      </trkpt>
      <trkpt lat="43.73672" lon="7.02771">
        <ele>1136.42</ele>
        <time>2011-05-29T15:53:36Z</time>
      </trkpt>
      <trkpt lat="43.73661" lon="7.02767">
        <ele>1134.97</ele>
        <time>2011-05-29T15:53:49Z</time>
      </trkpt>
      <trkpt lat="43.73653" lon="7.02766">
        <ele>1134.49</ele>
        <time>2011-05-29T15:53:55Z</time>
      </trkpt>
      <trkpt lat="43.7365" lon="7.0276">
        <ele>1134.01</ele>
        <time>2011-05-29T15:54:01Z</time>
      </trkpt>
      <trkpt lat="43.73648" lon="7.02754">
        <ele>1133.53</ele>
        <time>2011-05-29T15:54:07Z</time>
      </trkpt>
      <trkpt lat="43.73648" lon="7.02751">
        <ele>1134.01</ele>
        <time>2011-05-29T15:54:09Z</time>
      </trkpt>
      <trkpt lat="43.73646" lon="7.02743">
        <ele>1133.05</ele>
        <time>2011-05-29T15:54:14Z</time>
      </trkpt>
      <trkpt lat="43.73647" lon="7.02737">
        <ele>1134.49</ele>
        <time>2011-05-29T15:54:18Z</time>
      </trkpt>
      <trkpt lat="43.73644" lon="7.02727">
        <ele>1134.49</ele>
        <time>2011-05-29T15:54:32Z</time>
      </trkpt>
      <trkpt lat="43.73644" lon="7.02728">
        <ele>1134.01</ele>
        <time>2011-05-29T15:54:33Z</time>
      </trkpt>
      <trkpt lat="43.73642" lon="7.0273">
        <ele>1134.97</ele>
        <time>2011-05-29T15:54:35Z</time>
      </trkpt>
      <trkpt lat="43.7364" lon="7.02733">
        <ele>1134.49</ele>
        <time>2011-05-29T15:54:38Z</time>
      </trkpt>
      <trkpt lat="43.73639" lon="7.02733">
        <ele>1134.49</ele>
        <time>2011-05-29T15:54:40Z</time>
      </trkpt>
      <trkpt lat="43.73636" lon="7.02732">
        <ele>1134.49</ele>
        <time>2011-05-29T15:54:42Z</time>
      </trkpt>
      <trkpt lat="43.73629" lon="7.02731">
        <ele>1134.01</ele>
        <time>2011-05-29T15:54:55Z</time>
      </trkpt>
      <trkpt lat="43.73628" lon="7.02731">
        <ele>1133.53</ele>
        <time>2011-05-29T15:55:11Z</time>
      </trkpt>
      <trkpt lat="43.73623" lon="7.02732">
        <ele>1134.49</ele>
        <time>2011-05-29T15:55:17Z</time>
      </trkpt>
      <trkpt lat="43.73617" lon="7.02732">
        <ele>1134.97</ele>
        <time>2011-05-29T15:55:30Z</time>
      </trkpt>
      <trkpt lat="43.73615" lon="7.02732">
        <ele>1134.49</ele>
        <time>2011-05-29T15:55:42Z</time>
      </trkpt>
      <trkpt lat="43.73615" lon="7.02732">
        <ele>1133.05</ele>
        <time>2011-05-29T15:56:02Z</time>
      </trkpt>
      <trkpt lat="43.73615" lon="7.02732">
        <ele>1133.05</ele>
        <time>2011-05-29T15:56:31Z</time>
      </trkpt>
      <trkpt lat="43.73615" lon="7.02732">
        <ele>1133.53</ele>
        <time>2011-05-29T15:57:05Z</time>
      </trkpt>
      <trkpt lat="43.73615" lon="7.02732">
        <ele>1134.49</ele>
        <time>2011-05-29T15:57:19Z</time>
      </trkpt>
      <trkpt lat="43.7361" lon="7.02734">
        <ele>1134.01</ele>
        <time>2011-05-29T15:57:23Z</time>
      </trkpt>
      <trkpt lat="43.73589" lon="7.02728">
        <ele>1131.61</ele>
        <time>2011-05-29T15:57:38Z</time>
      </trkpt>
      <trkpt lat="43.73571" lon="7.02722">
        <ele>1128.73</ele>
        <time>2011-05-29T15:57:54Z</time>
      </trkpt>
      <trkpt lat="43.73565" lon="7.02722">
        <ele>1127.28</ele>
        <time>2011-05-29T15:58:00Z</time>
      </trkpt>
      <trkpt lat="43.73559" lon="7.02718">
        <ele>1125.36</ele>
        <time>2011-05-29T15:58:06Z</time>
      </trkpt>
      <trkpt lat="43.73556" lon="7.02716">
        <ele>1125.84</ele>
        <time>2011-05-29T15:58:08Z</time>
      </trkpt>
      <trkpt lat="43.73551" lon="7.02717">
        <ele>1125.84</ele>
        <time>2011-05-29T15:58:12Z</time>
      </trkpt>
      <trkpt lat="43.73537" lon="7.02719">
        <ele>1122.96</ele>
        <time>2011-05-29T15:58:25Z</time>
      </trkpt>
      <trkpt lat="43.73526" lon="7.02714">
        <ele>1121.52</ele>
        <time>2011-05-29T15:58:39Z</time>
      </trkpt>
      <trkpt lat="43.73513" lon="7.02711">
        <ele>1120.07</ele>
        <time>2011-05-29T15:58:52Z</time>
      </trkpt>
      <trkpt lat="43.73511" lon="7.02711">
        <ele>1119.11</ele>
        <time>2011-05-29T15:58:54Z</time>
      </trkpt>
      <trkpt lat="43.73501" lon="7.02707">
        <ele>1118.63</ele>
        <time>2011-05-29T15:59:07Z</time>
      </trkpt>
      <trkpt lat="43.7349" lon="7.02699">
        <ele>1116.71</ele>
        <time>2011-05-29T15:59:23Z</time>
      </trkpt>
      <trkpt lat="43.73481" lon="7.02695">
        <ele>1116.23</ele>
        <time>2011-05-29T15:59:37Z</time>
      </trkpt>
      <trkpt lat="43.73477" lon="7.02693">
        <ele>1115.75</ele>
        <time>2011-05-29T15:59:42Z</time>
      </trkpt>
      <trkpt lat="43.73468" lon="7.02688">
        <ele>1115.75</ele>
        <time>2011-05-29T15:59:53Z</time>
      </trkpt>
      <trkpt lat="43.73465" lon="7.02689">
        <ele>1115.75</ele>
        <time>2011-05-29T15:59:56Z</time>
      </trkpt>
      <trkpt lat="43.73463" lon="7.02694">
        <ele>1115.75</ele>
        <time>2011-05-29T15:59:59Z</time>
      </trkpt>
      <trkpt lat="43.73463" lon="7.02702">
        <ele>1115.75</ele>
        <time>2011-05-29T16:00:05Z</time>
      </trkpt>
      <trkpt lat="43.7346" lon="7.02702">
        <ele>1114.79</ele>
        <time>2011-05-29T16:00:15Z</time>
      </trkpt>
      <trkpt lat="43.73455" lon="7.02694">
        <ele>1115.75</ele>
        <time>2011-05-29T16:00:21Z</time>
      </trkpt>
      <trkpt lat="43.7345" lon="7.02687">
        <ele>1116.23</ele>
        <time>2011-05-29T16:00:36Z</time>
      </trkpt>
      <trkpt lat="43.73451" lon="7.02687">
        <ele>1115.27</ele>
        <time>2011-05-29T16:00:55Z</time>
      </trkpt>
      <trkpt lat="43.7345" lon="7.02687">
        <ele>1114.79</ele>
        <time>2011-05-29T16:01:14Z</time>
      </trkpt>
      <trkpt lat="43.73447" lon="7.02686">
        <ele>1115.75</ele>
        <time>2011-05-29T16:01:25Z</time>
      </trkpt>
      <trkpt lat="43.73446" lon="7.02685">
        <ele>1115.75</ele>
        <time>2011-05-29T16:01:41Z</time>
      </trkpt>
      <trkpt lat="43.73444" lon="7.02685">
        <ele>1115.27</ele>
        <time>2011-05-29T16:01:52Z</time>
      </trkpt>
      <trkpt lat="43.73439" lon="7.02682">
        <ele>1115.75</ele>
        <time>2011-05-29T16:02:08Z</time>
      </trkpt>
      <trkpt lat="43.73439" lon="7.02681">
        <ele>1115.75</ele>
        <time>2011-05-29T16:02:38Z</time>
      </trkpt>
      <trkpt lat="43.73436" lon="7.0268">
        <ele>1115.75</ele>
        <time>2011-05-29T16:02:41Z</time>
      </trkpt>
      <trkpt lat="43.73421" lon="7.02677">
        <ele>1117.19</ele>
        <time>2011-05-29T16:02:55Z</time>
      </trkpt>
      <trkpt lat="43.73407" lon="7.02673">
        <ele>1116.71</ele>
        <time>2011-05-29T16:03:09Z</time>
      </trkpt>
      <trkpt lat="43.734" lon="7.02667">
        <ele>1119.11</ele>
        <time>2011-05-29T16:03:22Z</time>
      </trkpt>
      <trkpt lat="43.73399" lon="7.02667">
        <ele>1118.63</ele>
        <time>2011-05-29T16:03:23Z</time>
      </trkpt>
      <trkpt lat="43.73383" lon="7.02667">
        <ele>1121.03</ele>
        <time>2011-05-29T16:03:40Z</time>
      </trkpt>
      <trkpt lat="43.73372" lon="7.02669">
        <ele>1123.44</ele>
        <time>2011-05-29T16:03:53Z</time>
      </trkpt>
      <trkpt lat="43.73363" lon="7.02673">
        <ele>1125.36</ele>
        <time>2011-05-29T16:04:05Z</time>
      </trkpt>
      <trkpt lat="43.73355" lon="7.02674">
        <ele>1127.76</ele>
        <time>2011-05-29T16:04:16Z</time>
      </trkpt>
      <trkpt lat="43.73353" lon="7.02674">
        <ele>1128.73</ele>
        <time>2011-05-29T16:04:18Z</time>
      </trkpt>
      <trkpt lat="43.73352" lon="7.02674">
        <ele>1128.73</ele>
        <time>2011-05-29T16:04:19Z</time>
      </trkpt>
      <trkpt lat="43.73343" lon="7.02677">
        <ele>1130.65</ele>
        <time>2011-05-29T16:04:27Z</time>
      </trkpt>
      <trkpt lat="43.73333" lon="7.02683">
        <ele>1131.61</ele>
        <time>2011-05-29T16:04:36Z</time>
      </trkpt>
      <trkpt lat="43.73323" lon="7.02688">
        <ele>1133.05</ele>
        <time>2011-05-29T16:04:47Z</time>
      </trkpt>
      <trkpt lat="43.73319" lon="7.02687">
        <ele>1133.53</ele>
        <time>2011-05-29T16:04:53Z</time>
      </trkpt>
      <trkpt lat="43.73312" lon="7.02689">
        <ele>1134.01</ele>
        <time>2011-05-29T16:05:00Z</time>
      </trkpt>
      <trkpt lat="43.73301" lon="7.02688">
        <ele>1135.45</ele>
        <time>2011-05-29T16:05:13Z</time>
      </trkpt>
      <trkpt lat="43.73298" lon="7.02688">
        <ele>1135.94</ele>
        <time>2011-05-29T16:05:16Z</time>
      </trkpt>
      <trkpt lat="43.7328" lon="7.02683">
        <ele>1137.86</ele>
        <time>2011-05-29T16:05:31Z</time>
      </trkpt>
      <trkpt lat="43.73275" lon="7.02682">
        <ele>1138.34</ele>
        <time>2011-05-29T16:05:36Z</time>
      </trkpt>
      <trkpt lat="43.73265" lon="7.02683">
        <ele>1137.38</ele>
        <time>2011-05-29T16:05:45Z</time>
      </trkpt>
      <trkpt lat="43.73249" lon="7.02676">
        <ele>1140.74</ele>
        <time>2011-05-29T16:05:59Z</time>
      </trkpt>
      <trkpt lat="43.73241" lon="7.02675">
        <ele>1141.7</ele>
        <time>2011-05-29T16:06:06Z</time>
      </trkpt>
      <trkpt lat="43.73237" lon="7.02672">
        <ele>1142.18</ele>
        <time>2011-05-29T16:06:11Z</time>
      </trkpt>
      <trkpt lat="43.73227" lon="7.02668">
        <ele>1144.59</ele>
        <time>2011-05-29T16:06:21Z</time>
      </trkpt>
      <trkpt lat="43.73224" lon="7.02666">
        <ele>1144.59</ele>
        <time>2011-05-29T16:06:23Z</time>
      </trkpt>
      <trkpt lat="43.73216" lon="7.02663">
        <ele>1145.55</ele>
        <time>2011-05-29T16:06:31Z</time>
      </trkpt>
      <trkpt lat="43.73212" lon="7.02661">
        <ele>1146.03</ele>
        <time>2011-05-29T16:06:35Z</time>
      </trkpt>
      <trkpt lat="43.73205" lon="7.02659">
        <ele>1146.99</ele>
        <time>2011-05-29T16:06:48Z</time>
      </trkpt>
      <trkpt lat="43.73199" lon="7.02656">
        <ele>1148.43</ele>
        <time>2011-05-29T16:07:04Z</time>
      </trkpt>
      <trkpt lat="43.73197" lon="7.02655">
        <ele>1148.91</ele>
        <time>2011-05-29T16:07:06Z</time>
      </trkpt>
      <trkpt lat="43.7319" lon="7.02656">
        <ele>1148.91</ele>
        <time>2011-05-29T16:07:15Z</time>
      </trkpt>
      <trkpt lat="43.73181" lon="7.0266">
        <ele>1147.95</ele>
        <time>2011-05-29T16:07:30Z</time>
      </trkpt>
      <trkpt lat="43.73173" lon="7.02662">
        <ele>1147.95</ele>
        <time>2011-05-29T16:07:43Z</time>
      </trkpt>
      <trkpt lat="43.73166" lon="7.02657">
        <ele>1150.35</ele>
        <time>2011-05-29T16:07:57Z</time>
      </trkpt>
      <trkpt lat="43.73156" lon="7.02652">
        <ele>1152.28</ele>
        <time>2011-05-29T16:08:11Z</time>
      </trkpt>
      <trkpt lat="43.73146" lon="7.02651">
        <ele>1153.24</ele>
        <time>2011-05-29T16:08:24Z</time>
      </trkpt>
      <trkpt lat="43.73137" lon="7.02648">
        <ele>1154.2</ele>
        <time>2011-05-29T16:08:38Z</time>
      </trkpt>
      <trkpt lat="43.7313" lon="7.02642">
        <ele>1156.6</ele>
        <time>2011-05-29T16:08:53Z</time>
      </trkpt>
      <trkpt lat="43.73122" lon="7.02636">
        <ele>1157.08</ele>
        <time>2011-05-29T16:09:06Z</time>
      </trkpt>
      <trkpt lat="43.73118" lon="7.02628">
        <ele>1159.49</ele>
        <time>2011-05-29T16:09:20Z</time>
      </trkpt>
      <trkpt lat="43.73111" lon="7.02624">
        <ele>1160.93</ele>
        <time>2011-05-29T16:09:32Z</time>
      </trkpt>
      <trkpt lat="43.73106" lon="7.02617">
        <ele>1164.29</ele>
        <time>2011-05-29T16:09:43Z</time>
      </trkpt>
      <trkpt lat="43.73099" lon="7.0261">
        <ele>1164.77</ele>
        <time>2011-05-29T16:09:58Z</time>
      </trkpt>
      <trkpt lat="43.73092" lon="7.02605">
        <ele>1167.18</ele>
        <time>2011-05-29T16:10:12Z</time>
      </trkpt>
      <trkpt lat="43.73091" lon="7.02604">
        <ele>1167.66</ele>
        <time>2011-05-29T16:10:25Z</time>
      </trkpt>
      <trkpt lat="43.73087" lon="7.02602">
        <ele>1170.06</ele>
        <time>2011-05-29T16:10:38Z</time>
      </trkpt>
      <trkpt lat="43.73085" lon="7.02602">
        <ele>1168.62</ele>
        <time>2011-05-29T16:10:47Z</time>
      </trkpt>
      <trkpt lat="43.73073" lon="7.02601">
        <ele>1171.02</ele>
        <time>2011-05-29T16:11:02Z</time>
      </trkpt>
      <trkpt lat="43.7307" lon="7.02597">
        <ele>1170.54</ele>
        <time>2011-05-29T16:11:06Z</time>
      </trkpt>
      <trkpt lat="43.73066" lon="7.02597">
        <ele>1171.02</ele>
        <time>2011-05-29T16:11:11Z</time>
      </trkpt>
      <trkpt lat="43.73059" lon="7.02602">
        <ele>1172.95</ele>
        <time>2011-05-29T16:11:25Z</time>
      </trkpt>
      <trkpt lat="43.73052" lon="7.026">
        <ele>1173.43</ele>
        <time>2011-05-29T16:11:39Z</time>
      </trkpt>
      <trkpt lat="43.73047" lon="7.02602">
        <ele>1175.35</ele>
        <time>2011-05-29T16:11:54Z</time>
      </trkpt>
      <trkpt lat="43.73044" lon="7.02599">
        <ele>1176.31</ele>
        <time>2011-05-29T16:12:07Z</time>
      </trkpt>
      <trkpt lat="43.7304" lon="7.02598">
        <ele>1177.75</ele>
        <time>2011-05-29T16:12:22Z</time>
      </trkpt>
      <trkpt lat="43.73035" lon="7.026">
        <ele>1177.75</ele>
        <time>2011-05-29T16:12:36Z</time>
      </trkpt>
      <trkpt lat="43.7303" lon="7.026">
        <ele>1179.19</ele>
        <time>2011-05-29T16:12:49Z</time>
      </trkpt>
      <trkpt lat="43.73029" lon="7.026">
        <ele>1179.19</ele>
        <time>2011-05-29T16:12:50Z</time>
      </trkpt>
      <trkpt lat="43.73027" lon="7.026">
        <ele>1178.71</ele>
        <time>2011-05-29T16:12:53Z</time>
      </trkpt>
      <trkpt lat="43.73024" lon="7.02601">
        <ele>1180.16</ele>
        <time>2011-05-29T16:13:06Z</time>
      </trkpt>
      <trkpt lat="43.73023" lon="7.026">
        <ele>1180.16</ele>
        <time>2011-05-29T16:13:19Z</time>
      </trkpt>
      <trkpt lat="43.7302" lon="7.02599">
        <ele>1181.6</ele>
        <time>2011-05-29T16:13:41Z</time>
      </trkpt>
      <trkpt lat="43.73013" lon="7.02595">
        <ele>1183.52</ele>
        <time>2011-05-29T16:13:53Z</time>
      </trkpt>
      <trkpt lat="43.73002" lon="7.02593">
        <ele>1183.52</ele>
        <time>2011-05-29T16:14:07Z</time>
      </trkpt>
      <trkpt lat="43.73001" lon="7.02593">
        <ele>1184.48</ele>
        <time>2011-05-29T16:14:08Z</time>
      </trkpt>
      <trkpt lat="43.72989" lon="7.02601">
        <ele>1184</ele>
        <time>2011-05-29T16:14:22Z</time>
      </trkpt>
      <trkpt lat="43.72985" lon="7.02598">
        <ele>1186.4</ele>
        <time>2011-05-29T16:14:28Z</time>
      </trkpt>
      <trkpt lat="43.72981" lon="7.02588">
        <ele>1186.4</ele>
        <time>2011-05-29T16:14:36Z</time>
      </trkpt>
      <trkpt lat="43.72979" lon="7.02584">
        <ele>1187.37</ele>
        <time>2011-05-29T16:14:49Z</time>
      </trkpt>
      <trkpt lat="43.72979" lon="7.02584">
        <ele>1187.85</ele>
        <time>2011-05-29T16:14:55Z</time>
      </trkpt>
      <trkpt lat="43.72977" lon="7.02585">
        <ele>1187.37</ele>
        <time>2011-05-29T16:15:23Z</time>
      </trkpt>
      <trkpt lat="43.72981" lon="7.02592">
        <ele>1186.88</ele>
        <time>2011-05-29T16:15:33Z</time>
      </trkpt>
      <trkpt lat="43.72981" lon="7.02597">
        <ele>1185.92</ele>
        <time>2011-05-29T16:15:37Z</time>
      </trkpt>
      <trkpt lat="43.72995" lon="7.02593">
        <ele>1184</ele>
        <time>2011-05-29T16:15:50Z</time>
      </trkpt>
      <trkpt lat="43.72996" lon="7.02593">
        <ele>1183.52</ele>
        <time>2011-05-29T16:16:00Z</time>
      </trkpt>
      <trkpt lat="43.72988" lon="7.02603">
        <ele>1185.92</ele>
        <time>2011-05-29T16:16:16Z</time>
      </trkpt>
      <trkpt lat="43.72985" lon="7.02595">
        <ele>1186.4</ele>
        <time>2011-05-29T16:16:28Z</time>
      </trkpt>
      <trkpt lat="43.72981" lon="7.02585">
        <ele>1187.37</ele>
        <time>2011-05-29T16:16:41Z</time>
      </trkpt>
      <trkpt lat="43.72978" lon="7.02579">
        <ele>1188.81</ele>
        <time>2011-05-29T16:16:55Z</time>
      </trkpt>
      <trkpt lat="43.72974" lon="7.02569">
        <ele>1191.69</ele>
        <time>2011-05-29T16:17:07Z</time>
      </trkpt>
      <trkpt lat="43.7297" lon="7.02565">
        <ele>1192.65</ele>
        <time>2011-05-29T16:17:21Z</time>
      </trkpt>
      <trkpt lat="43.72969" lon="7.02561">
        <ele>1192.65</ele>
        <time>2011-05-29T16:17:25Z</time>
      </trkpt>
      <trkpt lat="43.72963" lon="7.0255">
        <ele>1193.61</ele>
        <time>2011-05-29T16:17:39Z</time>
      </trkpt>
      <trkpt lat="43.7296" lon="7.02539">
        <ele>1195.06</ele>
        <time>2011-05-29T16:17:52Z</time>
      </trkpt>
      <trkpt lat="43.72957" lon="7.02532">
        <ele>1197.46</ele>
        <time>2011-05-29T16:18:05Z</time>
      </trkpt>
      <trkpt lat="43.72953" lon="7.02524">
        <ele>1198.42</ele>
        <time>2011-05-29T16:18:19Z</time>
      </trkpt>
      <trkpt lat="43.72952" lon="7.02518">
        <ele>1199.38</ele>
        <time>2011-05-29T16:18:31Z</time>
      </trkpt>
      <trkpt lat="43.72954" lon="7.0251">
        <ele>1200.82</ele>
        <time>2011-05-29T16:18:41Z</time>
      </trkpt>
      <trkpt lat="43.72955" lon="7.02502">
        <ele>1202.27</ele>
        <time>2011-05-29T16:18:52Z</time>
      </trkpt>
      <trkpt lat="43.72955" lon="7.02489">
        <ele>1205.15</ele>
        <time>2011-05-29T16:19:07Z</time>
      </trkpt>
      <trkpt lat="43.72951" lon="7.02476">
        <ele>1206.59</ele>
        <time>2011-05-29T16:19:22Z</time>
      </trkpt>
      <trkpt lat="43.72949" lon="7.02473">
        <ele>1206.59</ele>
        <time>2011-05-29T16:19:35Z</time>
      </trkpt>
      <trkpt lat="43.72948" lon="7.02473">
        <ele>1206.59</ele>
        <time>2011-05-29T16:19:51Z</time>
      </trkpt>
      <trkpt lat="43.72948" lon="7.02473">
        <ele>1207.07</ele>
        <time>2011-05-29T16:20:11Z</time>
      </trkpt>
      <trkpt lat="43.72944" lon="7.02469">
        <ele>1207.55</ele>
        <time>2011-05-29T16:20:23Z</time>
      </trkpt>
      <trkpt lat="43.72941" lon="7.02463">
        <ele>1209</ele>
        <time>2011-05-29T16:20:36Z</time>
      </trkpt>
      <trkpt lat="43.72936" lon="7.02461">
        <ele>1209.96</ele>
        <time>2011-05-29T16:20:49Z</time>
      </trkpt>
      <trkpt lat="43.72935" lon="7.02461">
        <ele>1211.88</ele>
        <time>2011-05-29T16:20:55Z</time>
      </trkpt>
      <trkpt lat="43.72931" lon="7.02456">
        <ele>1213.32</ele>
        <time>2011-05-29T16:21:09Z</time>
      </trkpt>
      <trkpt lat="43.72923" lon="7.02453">
        <ele>1213.8</ele>
        <time>2011-05-29T16:21:22Z</time>
      </trkpt>
      <trkpt lat="43.7292" lon="7.02445">
        <ele>1217.65</ele>
        <time>2011-05-29T16:21:34Z</time>
      </trkpt>
      <trkpt lat="43.7292" lon="7.02438">
        <ele>1217.17</ele>
        <time>2011-05-29T16:21:47Z</time>
      </trkpt>
      <trkpt lat="43.72921" lon="7.02427">
        <ele>1220.53</ele>
        <time>2011-05-29T16:21:57Z</time>
      </trkpt>
      <trkpt lat="43.72915" lon="7.02424">
        <ele>1221.01</ele>
        <time>2011-05-29T16:22:08Z</time>
      </trkpt>
      <trkpt lat="43.72908" lon="7.02421">
        <ele>1223.9</ele>
        <time>2011-05-29T16:22:23Z</time>
      </trkpt>
      <trkpt lat="43.72911" lon="7.02411">
        <ele>1226.3</ele>
        <time>2011-05-29T16:22:37Z</time>
      </trkpt>
      <trkpt lat="43.72908" lon="7.02406">
        <ele>1226.3</ele>
        <time>2011-05-29T16:22:51Z</time>
      </trkpt>
      <trkpt lat="43.72907" lon="7.02403">
        <ele>1226.78</ele>
        <time>2011-05-29T16:23:02Z</time>
      </trkpt>
      <trkpt lat="43.72902" lon="7.02387">
        <ele>1230.62</ele>
        <time>2011-05-29T16:23:17Z</time>
      </trkpt>
      <trkpt lat="43.729" lon="7.02385">
        <ele>1230.62</ele>
        <time>2011-05-29T16:23:21Z</time>
      </trkpt>
      <trkpt lat="43.7289" lon="7.02372">
        <ele>1233.03</ele>
        <time>2011-05-29T16:23:37Z</time>
      </trkpt>
      <trkpt lat="43.72884" lon="7.02367">
        <ele>1234.95</ele>
        <time>2011-05-29T16:23:48Z</time>
      </trkpt>
      <trkpt lat="43.72879" lon="7.02361">
        <ele>1234.95</ele>
        <time>2011-05-29T16:24:00Z</time>
      </trkpt>
      <trkpt lat="43.72878" lon="7.02357">
        <ele>1235.43</ele>
        <time>2011-05-29T16:24:14Z</time>
      </trkpt>
      <trkpt lat="43.72877" lon="7.02352">
        <ele>1236.87</ele>
        <time>2011-05-29T16:24:26Z</time>
      </trkpt>
      <trkpt lat="43.72876" lon="7.02349">
        <ele>1236.39</ele>
        <time>2011-05-29T16:24:38Z</time>
      </trkpt>
      <trkpt lat="43.72873" lon="7.02343">
        <ele>1236.87</ele>
        <time>2011-05-29T16:24:53Z</time>
      </trkpt>
      <trkpt lat="43.72875" lon="7.0234">
        <ele>1237.83</ele>
        <time>2011-05-29T16:25:04Z</time>
      </trkpt>
      <trkpt lat="43.72875" lon="7.0234">
        <ele>1235.91</ele>
        <time>2011-05-29T16:25:18Z</time>
      </trkpt>
      <trkpt lat="43.72875" lon="7.0234">
        <ele>1237.35</ele>
        <time>2011-05-29T16:25:56Z</time>
      </trkpt>
      <trkpt lat="43.72875" lon="7.0234">
        <ele>1237.35</ele>
        <time>2011-05-29T16:26:40Z</time>
      </trkpt>
      <trkpt lat="43.72875" lon="7.0234">
        <ele>1236.87</ele>
        <time>2011-05-29T16:26:55Z</time>
      </trkpt>
      <trkpt lat="43.72873" lon="7.02339">
        <ele>1237.35</ele>
        <time>2011-05-29T16:27:09Z</time>
      </trkpt>
      <trkpt lat="43.7287" lon="7.02332">
        <ele>1236.39</ele>
        <time>2011-05-29T16:27:22Z</time>
      </trkpt>
      <trkpt lat="43.72861" lon="7.02322">
        <ele>1236.87</ele>
        <time>2011-05-29T16:27:37Z</time>
      </trkpt>
      <trkpt lat="43.72859" lon="7.02319">
        <ele>1237.35</ele>
        <time>2011-05-29T16:27:40Z</time>
      </trkpt>
      <trkpt lat="43.72857" lon="7.02314">
        <ele>1237.83</ele>
        <time>2011-05-29T16:27:46Z</time>
      </trkpt>
      <trkpt lat="43.7285" lon="7.02308">
        <ele>1236.87</ele>
        <time>2011-05-29T16:27:59Z</time>
      </trkpt>
      <trkpt lat="43.72849" lon="7.02308">
        <ele>1237.35</ele>
        <time>2011-05-29T16:28:17Z</time>
      </trkpt>
      <trkpt lat="43.72848" lon="7.02307">
        <ele>1238.8</ele>
        <time>2011-05-29T16:28:32Z</time>
      </trkpt>
      <trkpt lat="43.72847" lon="7.02307">
        <ele>1237.83</ele>
        <time>2011-05-29T16:28:34Z</time>
      </trkpt>
      <trkpt lat="43.72838" lon="7.02301">
        <ele>1238.8</ele>
        <time>2011-05-29T16:28:44Z</time>
      </trkpt>
      <trkpt lat="43.72836" lon="7.02293">
        <ele>1239.76</ele>
        <time>2011-05-29T16:28:52Z</time>
      </trkpt>
      <trkpt lat="43.72834" lon="7.02289">
        <ele>1240.24</ele>
        <time>2011-05-29T16:28:56Z</time>
      </trkpt>
      <trkpt lat="43.72832" lon="7.02288">
        <ele>1240.24</ele>
        <time>2011-05-29T16:28:58Z</time>
      </trkpt>
      <trkpt lat="43.72824" lon="7.02284">
        <ele>1239.76</ele>
        <time>2011-05-29T16:29:07Z</time>
      </trkpt>
      <trkpt lat="43.72821" lon="7.02282">
        <ele>1240.72</ele>
        <time>2011-05-29T16:29:10Z</time>
      </trkpt>
      <trkpt lat="43.72815" lon="7.02281">
        <ele>1240.72</ele>
        <time>2011-05-29T16:29:16Z</time>
      </trkpt>
      <trkpt lat="43.72814" lon="7.0228">
        <ele>1240.24</ele>
        <time>2011-05-29T16:29:18Z</time>
      </trkpt>
      <trkpt lat="43.72808" lon="7.02277">
        <ele>1242.64</ele>
        <time>2011-05-29T16:29:24Z</time>
      </trkpt>
      <trkpt lat="43.72807" lon="7.02274">
        <ele>1241.68</ele>
        <time>2011-05-29T16:29:26Z</time>
      </trkpt>
      <trkpt lat="43.72798" lon="7.0226">
        <ele>1243.6</ele>
        <time>2011-05-29T16:29:41Z</time>
      </trkpt>
      <trkpt lat="43.72794" lon="7.02253">
        <ele>1245.04</ele>
        <time>2011-05-29T16:29:55Z</time>
      </trkpt>
      <trkpt lat="43.72794" lon="7.02253">
        <ele>1243.6</ele>
        <time>2011-05-29T16:30:09Z</time>
      </trkpt>
      <trkpt lat="43.72794" lon="7.02253">
        <ele>1243.6</ele>
        <time>2011-05-29T16:30:25Z</time>
      </trkpt>
      <trkpt lat="43.72794" lon="7.02252">
        <ele>1244.08</ele>
        <time>2011-05-29T16:30:44Z</time>
      </trkpt>
      <trkpt lat="43.72794" lon="7.02252">
        <ele>1244.08</ele>
        <time>2011-05-29T16:31:11Z</time>
      </trkpt>
      <trkpt lat="43.72793" lon="7.02252">
        <ele>1243.6</ele>
        <time>2011-05-29T16:31:25Z</time>
      </trkpt>
      <trkpt lat="43.72793" lon="7.02251">
        <ele>1244.56</ele>
        <time>2011-05-29T16:31:55Z</time>
      </trkpt>
      <trkpt lat="43.72793" lon="7.02251">
        <ele>1244.08</ele>
        <time>2011-05-29T16:32:14Z</time>
      </trkpt>
      <trkpt lat="43.72793" lon="7.02251">
        <ele>1245.04</ele>
        <time>2011-05-29T16:32:42Z</time>
      </trkpt>
      <trkpt lat="43.72793" lon="7.02251">
        <ele>1244.56</ele>
        <time>2011-05-29T16:33:10Z</time>
      </trkpt>
      <trkpt lat="43.72793" lon="7.02251">
        <ele>1244.08</ele>
        <time>2011-05-29T16:33:26Z</time>
      </trkpt>
      <trkpt lat="43.72793" lon="7.0225">
        <ele>1245.04</ele>
        <time>2011-05-29T16:33:40Z</time>
      </trkpt>
      <trkpt lat="43.72793" lon="7.0225">
        <ele>1227.74</ele>
        <time>2011-05-29T16:33:58Z</time>
      </trkpt>
      <trkpt lat="43.72793" lon="7.0225">
        <ele>1255.62</ele>
        <time>2011-05-29T16:33:59Z</time>
      </trkpt>
      <trkpt lat="43.72793" lon="7.0225">
        <ele>1246.01</ele>
        <time>2011-05-29T16:34:00Z</time>
      </trkpt>
      <trkpt lat="43.72793" lon="7.0225">
        <ele>1245.04</ele>
        <time>2011-05-29T16:34:19Z</time>
      </trkpt>
      <trkpt lat="43.72792" lon="7.0225">
        <ele>1241.68</ele>
        <time>2011-05-29T16:34:25Z</time>
      </trkpt>
      <trkpt lat="43.72792" lon="7.0225">
        <ele>1245.53</ele>
        <time>2011-05-29T16:34:26Z</time>
      </trkpt>
      <trkpt lat="43.72792" lon="7.02249">
        <ele>1246.01</ele>
        <time>2011-05-29T16:34:47Z</time>
      </trkpt>
      <trkpt lat="43.72791" lon="7.02249">
        <ele>1242.64</ele>
        <time>2011-05-29T16:34:59Z</time>
      </trkpt>
      <trkpt lat="43.72791" lon="7.02249">
        <ele>1246.01</ele>
        <time>2011-05-29T16:35:00Z</time>
      </trkpt>
      <trkpt lat="43.72791" lon="7.02249">
        <ele>1245.53</ele>
        <time>2011-05-29T16:35:33Z</time>
      </trkpt>
      <trkpt lat="43.72791" lon="7.02248">
        <ele>1245.04</ele>
        <time>2011-05-29T16:36:05Z</time>
      </trkpt>
      <trkpt lat="43.72791" lon="7.02248">
        <ele>1244.56</ele>
        <time>2011-05-29T16:36:28Z</time>
      </trkpt>
      <trkpt lat="43.72791" lon="7.02248">
        <ele>1245.04</ele>
        <time>2011-05-29T16:36:50Z</time>
      </trkpt>
      <trkpt lat="43.72791" lon="7.02248">
        <ele>1244.56</ele>
        <time>2011-05-29T16:37:16Z</time>
      </trkpt>
      <trkpt lat="43.7279" lon="7.02248">
        <ele>1244.56</ele>
        <time>2011-05-29T16:37:57Z</time>
      </trkpt>
      <trkpt lat="43.7279" lon="7.02248">
        <ele>1244.56</ele>
        <time>2011-05-29T16:38:32Z</time>
      </trkpt>
      <trkpt lat="43.72791" lon="7.02247">
        <ele>1244.08</ele>
        <time>2011-05-29T16:39:08Z</time>
      </trkpt>
      <trkpt lat="43.72791" lon="7.02247">
        <ele>1243.6</ele>
        <time>2011-05-29T16:39:24Z</time>
      </trkpt>
      <trkpt lat="43.72791" lon="7.02248">
        <ele>1244.08</ele>
        <time>2011-05-29T16:39:52Z</time>
      </trkpt>
      <trkpt lat="43.72791" lon="7.02248">
        <ele>1244.56</ele>
        <time>2011-05-29T16:40:13Z</time>
      </trkpt>
      <trkpt lat="43.72791" lon="7.02248">
        <ele>1245.04</ele>
        <time>2011-05-29T16:40:31Z</time>
      </trkpt>
      <trkpt lat="43.72791" lon="7.02248">
        <ele>1243.6</ele>
        <time>2011-05-29T16:40:56Z</time>
      </trkpt>
      <trkpt lat="43.72791" lon="7.02247">
        <ele>1245.04</ele>
        <time>2011-05-29T16:41:23Z</time>
      </trkpt>
      <trkpt lat="43.72791" lon="7.02247">
        <ele>1245.53</ele>
        <time>2011-05-29T16:41:47Z</time>
      </trkpt>
      <trkpt lat="43.72791" lon="7.02248">
        <ele>1245.04</ele>
        <time>2011-05-29T16:42:04Z</time>
      </trkpt>
      <trkpt lat="43.7279" lon="7.02247">
        <ele>1245.53</ele>
        <time>2011-05-29T16:42:16Z</time>
      </trkpt>
      <trkpt lat="43.72784" lon="7.02244">
        <ele>1242.64</ele>
        <time>2011-05-29T16:42:29Z</time>
      </trkpt>
      <trkpt lat="43.72781" lon="7.02236">
        <ele>1242.16</ele>
        <time>2011-05-29T16:42:41Z</time>
      </trkpt>
      <trkpt lat="43.72776" lon="7.02229">
        <ele>1240.72</ele>
        <time>2011-05-29T16:42:53Z</time>
      </trkpt>
      <trkpt lat="43.72773" lon="7.02228">
        <ele>1239.76</ele>
        <time>2011-05-29T16:42:57Z</time>
      </trkpt>
      <trkpt lat="43.72765" lon="7.0222">
        <ele>1237.83</ele>
        <time>2011-05-29T16:43:10Z</time>
      </trkpt>
      <trkpt lat="43.72764" lon="7.02215">
        <ele>1238.32</ele>
        <time>2011-05-29T16:43:21Z</time>
      </trkpt>
      <trkpt lat="43.72764" lon="7.02215">
        <ele>1237.83</ele>
        <time>2011-05-29T16:43:35Z</time>
      </trkpt>
      <trkpt lat="43.72757" lon="7.02207">
        <ele>1236.87</ele>
        <time>2011-05-29T16:43:45Z</time>
      </trkpt>
      <trkpt lat="43.72755" lon="7.02192">
        <ele>1235.43</ele>
        <time>2011-05-29T16:43:59Z</time>
      </trkpt>
      <trkpt lat="43.72755" lon="7.02188">
        <ele>1236.39</ele>
        <time>2011-05-29T16:44:05Z</time>
      </trkpt>
      <trkpt lat="43.72753" lon="7.02179">
        <ele>1234.47</ele>
        <time>2011-05-29T16:44:20Z</time>
      </trkpt>
      <trkpt lat="43.72747" lon="7.02164">
        <ele>1233.51</ele>
        <time>2011-05-29T16:44:35Z</time>
      </trkpt>
      <trkpt lat="43.72746" lon="7.02157">
        <ele>1231.59</ele>
        <time>2011-05-29T16:44:47Z</time>
      </trkpt>
      <trkpt lat="43.72747" lon="7.02149">
        <ele>1230.14</ele>
        <time>2011-05-29T16:45:00Z</time>
      </trkpt>
      <trkpt lat="43.72745" lon="7.02142">
        <ele>1228.7</ele>
        <time>2011-05-29T16:45:11Z</time>
      </trkpt>
      <trkpt lat="43.72746" lon="7.02141">
        <ele>1228.7</ele>
        <time>2011-05-29T16:45:28Z</time>
      </trkpt>
      <trkpt lat="43.72745" lon="7.02136">
        <ele>1226.78</ele>
        <time>2011-05-29T16:45:42Z</time>
      </trkpt>
      <trkpt lat="43.72742" lon="7.0213">
        <ele>1223.9</ele>
        <time>2011-05-29T16:45:59Z</time>
      </trkpt>
      <trkpt lat="43.72741" lon="7.02129">
        <ele>1223.42</ele>
        <time>2011-05-29T16:46:00Z</time>
      </trkpt>
      <trkpt lat="43.72739" lon="7.02127">
        <ele>1222.93</ele>
        <time>2011-05-29T16:46:03Z</time>
      </trkpt>
      <trkpt lat="43.72734" lon="7.02119">
        <ele>1220.05</ele>
        <time>2011-05-29T16:46:18Z</time>
      </trkpt>
      <trkpt lat="43.72731" lon="7.02114">
        <ele>1218.61</ele>
        <time>2011-05-29T16:46:30Z</time>
      </trkpt>
      <trkpt lat="43.72729" lon="7.02113">
        <ele>1216.69</ele>
        <time>2011-05-29T16:46:35Z</time>
      </trkpt>
      <trkpt lat="43.72723" lon="7.02107">
        <ele>1215.24</ele>
        <time>2011-05-29T16:46:49Z</time>
      </trkpt>
      <trkpt lat="43.72718" lon="7.02104">
        <ele>1214.28</ele>
        <time>2011-05-29T16:47:01Z</time>
      </trkpt>
      <trkpt lat="43.72715" lon="7.02096">
        <ele>1211.88</ele>
        <time>2011-05-29T16:47:12Z</time>
      </trkpt>
      <trkpt lat="43.72714" lon="7.02092">
        <ele>1209.96</ele>
        <time>2011-05-29T16:47:25Z</time>
      </trkpt>
      <trkpt lat="43.72714" lon="7.02092">
        <ele>1207.55</ele>
        <time>2011-05-29T16:47:39Z</time>
      </trkpt>
      <trkpt lat="43.72714" lon="7.02089">
        <ele>1206.59</ele>
        <time>2011-05-29T16:47:52Z</time>
      </trkpt>
      <trkpt lat="43.7271" lon="7.02081">
        <ele>1203.23</ele>
        <time>2011-05-29T16:48:00Z</time>
      </trkpt>
      <trkpt lat="43.72708" lon="7.02078">
        <ele>1201.3</ele>
        <time>2011-05-29T16:48:13Z</time>
      </trkpt>
      <trkpt lat="43.72705" lon="7.02078">
        <ele>1202.27</ele>
        <time>2011-05-29T16:48:21Z</time>
      </trkpt>
      <trkpt lat="43.72697" lon="7.02076">
        <ele>1199.38</ele>
        <time>2011-05-29T16:48:33Z</time>
      </trkpt>
      <trkpt lat="43.72693" lon="7.0207">
        <ele>1196.5</ele>
        <time>2011-05-29T16:48:45Z</time>
      </trkpt>
      <trkpt lat="43.72686" lon="7.02059">
        <ele>1195.54</ele>
        <time>2011-05-29T16:48:58Z</time>
      </trkpt>
      <trkpt lat="43.72684" lon="7.02059">
        <ele>1194.58</ele>
        <time>2011-05-29T16:49:10Z</time>
      </trkpt>
      <trkpt lat="43.72684" lon="7.02059">
        <ele>1194.58</ele>
        <time>2011-05-29T16:49:33Z</time>
      </trkpt>
      <trkpt lat="43.72682" lon="7.02052">
        <ele>1192.17</ele>
        <time>2011-05-29T16:49:42Z</time>
      </trkpt>
      <trkpt lat="43.72678" lon="7.02048">
        <ele>1191.21</ele>
        <time>2011-05-29T16:49:55Z</time>
      </trkpt>
      <trkpt lat="43.72678" lon="7.02048">
        <ele>1188.81</ele>
        <time>2011-05-29T16:50:12Z</time>
      </trkpt>
      <trkpt lat="43.72677" lon="7.02048">
        <ele>1189.29</ele>
        <time>2011-05-29T16:50:26Z</time>
      </trkpt>
      <trkpt lat="43.72677" lon="7.02048">
        <ele>1187.37</ele>
        <time>2011-05-29T16:50:36Z</time>
      </trkpt>
      <trkpt lat="43.72672" lon="7.02045">
        <ele>1187.37</ele>
        <time>2011-05-29T16:50:40Z</time>
      </trkpt>
      <trkpt lat="43.72672" lon="7.02044">
        <ele>1188.33</ele>
        <time>2011-05-29T16:51:06Z</time>
      </trkpt>
      <trkpt lat="43.72672" lon="7.02044">
        <ele>1186.4</ele>
        <time>2011-05-29T16:51:20Z</time>
      </trkpt>
      <trkpt lat="43.72671" lon="7.02043">
        <ele>1185.44</ele>
        <time>2011-05-29T16:51:39Z</time>
      </trkpt>
      <trkpt lat="43.7267" lon="7.02042">
        <ele>1187.37</ele>
        <time>2011-05-29T16:52:09Z</time>
      </trkpt>
      <trkpt lat="43.7267" lon="7.02042">
        <ele>1186.88</ele>
        <time>2011-05-29T16:52:30Z</time>
      </trkpt>
      <trkpt lat="43.7267" lon="7.02042">
        <ele>1186.88</ele>
        <time>2011-05-29T16:52:40Z</time>
      </trkpt>
      <trkpt lat="43.72669" lon="7.02041">
        <ele>1185.44</ele>
        <time>2011-05-29T16:52:57Z</time>
      </trkpt>
      <trkpt lat="43.72669" lon="7.02041">
        <ele>1186.4</ele>
        <time>2011-05-29T16:53:23Z</time>
      </trkpt>
      <trkpt lat="43.72669" lon="7.02041">
        <ele>1186.4</ele>
        <time>2011-05-29T16:53:47Z</time>
      </trkpt>
      <trkpt lat="43.72669" lon="7.02039">
        <ele>1186.4</ele>
        <time>2011-05-29T16:54:14Z</time>
      </trkpt>
      <trkpt lat="43.72667" lon="7.02038">
        <ele>1185.44</ele>
        <time>2011-05-29T16:54:30Z</time>
      </trkpt>
      <trkpt lat="43.72667" lon="7.02038">
        <ele>1184.48</ele>
        <time>2011-05-29T16:54:44Z</time>
      </trkpt>
      <trkpt lat="43.72665" lon="7.02037">
        <ele>1183.04</ele>
        <time>2011-05-29T16:54:58Z</time>
      </trkpt>
      <trkpt lat="43.72665" lon="7.02037">
        <ele>1181.6</ele>
        <time>2011-05-29T16:55:12Z</time>
      </trkpt>
      <trkpt lat="43.72662" lon="7.02029">
        <ele>1180.64</ele>
        <time>2011-05-29T16:55:24Z</time>
      </trkpt>
      <trkpt lat="43.72662" lon="7.02029">
        <ele>1179.67</ele>
        <time>2011-05-29T16:55:39Z</time>
      </trkpt>
      <trkpt lat="43.72663" lon="7.02003">
        <ele>1178.23</ele>
        <time>2011-05-29T16:55:48Z</time>
      </trkpt>
      <trkpt lat="43.72669" lon="7.01992">
        <ele>1179.19</ele>
        <time>2011-05-29T16:55:56Z</time>
      </trkpt>
      <trkpt lat="43.7267" lon="7.01984">
        <ele>1176.31</ele>
        <time>2011-05-29T16:56:16Z</time>
      </trkpt>
      <trkpt lat="43.72671" lon="7.01983">
        <ele>1176.79</ele>
        <time>2011-05-29T16:56:17Z</time>
      </trkpt>
      <trkpt lat="43.72672" lon="7.01972">
        <ele>1175.83</ele>
        <time>2011-05-29T16:56:31Z</time>
      </trkpt>
      <trkpt lat="43.72674" lon="7.01964">
        <ele>1174.39</ele>
        <time>2011-05-29T16:56:42Z</time>
      </trkpt>
      <trkpt lat="43.72673" lon="7.01952">
        <ele>1171.02</ele>
        <time>2011-05-29T16:56:54Z</time>
      </trkpt>
      <trkpt lat="43.72672" lon="7.01947">
        <ele>1170.06</ele>
        <time>2011-05-29T16:57:00Z</time>
      </trkpt>
      <trkpt lat="43.7267" lon="7.01936">
        <ele>1167.18</ele>
        <time>2011-05-29T16:57:08Z</time>
      </trkpt>
      <trkpt lat="43.72672" lon="7.01926">
        <ele>1166.22</ele>
        <time>2011-05-29T16:57:15Z</time>
      </trkpt>
      <trkpt lat="43.7267" lon="7.01919">
        <ele>1164.77</ele>
        <time>2011-05-29T16:57:22Z</time>
      </trkpt>
      <trkpt lat="43.72668" lon="7.01904">
        <ele>1163.33</ele>
        <time>2011-05-29T16:57:36Z</time>
      </trkpt>
      <trkpt lat="43.72667" lon="7.01897">
        <ele>1163.81</ele>
        <time>2011-05-29T16:57:50Z</time>
      </trkpt>
      <trkpt lat="43.72663" lon="7.01891">
        <ele>1160.45</ele>
        <time>2011-05-29T16:58:04Z</time>
      </trkpt>
      <trkpt lat="43.72663" lon="7.01891">
        <ele>1160.45</ele>
        <time>2011-05-29T16:58:28Z</time>
      </trkpt>
      <trkpt lat="43.72664" lon="7.01891">
        <ele>1161.41</ele>
        <time>2011-05-29T16:58:58Z</time>
      </trkpt>
      <trkpt lat="43.72662" lon="7.0189">
        <ele>1161.41</ele>
        <time>2011-05-29T16:59:15Z</time>
      </trkpt>
      <trkpt lat="43.72662" lon="7.0189">
        <ele>1160.93</ele>
        <time>2011-05-29T16:59:32Z</time>
      </trkpt>
      <trkpt lat="43.72662" lon="7.01881">
        <ele>1159.97</ele>
        <time>2011-05-29T16:59:46Z</time>
      </trkpt>
      <trkpt lat="43.72662" lon="7.01876">
        <ele>1156.6</ele>
        <time>2011-05-29T16:59:56Z</time>
      </trkpt>
      <trkpt lat="43.72662" lon="7.01874">
        <ele>1157.08</ele>
        <time>2011-05-29T17:00:13Z</time>
      </trkpt>
      <trkpt lat="43.72658" lon="7.01867">
        <ele>1155.64</ele>
        <time>2011-05-29T17:00:28Z</time>
      </trkpt>
      <trkpt lat="43.72656" lon="7.01866">
        <ele>1154.68</ele>
        <time>2011-05-29T17:00:43Z</time>
      </trkpt>
      <trkpt lat="43.72655" lon="7.01865">
        <ele>1153.72</ele>
        <time>2011-05-29T17:01:00Z</time>
      </trkpt>
      <trkpt lat="43.72652" lon="7.01866">
        <ele>1151.32</ele>
        <time>2011-05-29T17:01:14Z</time>
      </trkpt>
      <trkpt lat="43.7265" lon="7.01867">
        <ele>1149.87</ele>
        <time>2011-05-29T17:01:22Z</time>
      </trkpt>
      <trkpt lat="43.72643" lon="7.01871">
        <ele>1146.03</ele>
        <time>2011-05-29T17:01:35Z</time>
      </trkpt>
      <trkpt lat="43.7264" lon="7.01875">
        <ele>1145.55</ele>
        <time>2011-05-29T17:01:47Z</time>
      </trkpt>
      <trkpt lat="43.72636" lon="7.01875">
        <ele>1144.11</ele>
        <time>2011-05-29T17:02:00Z</time>
      </trkpt>
      <trkpt lat="43.72635" lon="7.01877">
        <ele>1143.63</ele>
        <time>2011-05-29T17:02:14Z</time>
      </trkpt>
      <trkpt lat="43.72634" lon="7.0188">
        <ele>1143.14</ele>
        <time>2011-05-29T17:02:29Z</time>
      </trkpt>
      <trkpt lat="43.72633" lon="7.01884">
        <ele>1141.7</ele>
        <time>2011-05-29T17:02:44Z</time>
      </trkpt>
      <trkpt lat="43.7263" lon="7.01886">
        <ele>1140.26</ele>
        <time>2011-05-29T17:03:00Z</time>
      </trkpt>
      <trkpt lat="43.72628" lon="7.01888">
        <ele>1138.82</ele>
        <time>2011-05-29T17:03:12Z</time>
      </trkpt>
      <trkpt lat="43.72624" lon="7.01885">
        <ele>1136.9</ele>
        <time>2011-05-29T17:03:25Z</time>
      </trkpt>
      <trkpt lat="43.72623" lon="7.01883">
        <ele>1138.34</ele>
        <time>2011-05-29T17:03:40Z</time>
      </trkpt>
      <trkpt lat="43.72622" lon="7.01881">
        <ele>1134.49</ele>
        <time>2011-05-29T17:03:52Z</time>
      </trkpt>
      <trkpt lat="43.7262" lon="7.01874">
        <ele>1134.01</ele>
        <time>2011-05-29T17:04:07Z</time>
      </trkpt>
      <trkpt lat="43.72625" lon="7.01864">
        <ele>1134.49</ele>
        <time>2011-05-29T17:04:20Z</time>
      </trkpt>
      <trkpt lat="43.72628" lon="7.01859">
        <ele>1135.45</ele>
        <time>2011-05-29T17:04:37Z</time>
      </trkpt>
      <trkpt lat="43.72627" lon="7.01855">
        <ele>1133.53</ele>
        <time>2011-05-29T17:04:50Z</time>
      </trkpt>
      <trkpt lat="43.72626" lon="7.01851">
        <ele>1132.57</ele>
        <time>2011-05-29T17:05:03Z</time>
      </trkpt>
      <trkpt lat="43.72629" lon="7.01841">
        <ele>1129.69</ele>
        <time>2011-05-29T17:05:17Z</time>
      </trkpt>
      <trkpt lat="43.72634" lon="7.01829">
        <ele>1127.76</ele>
        <time>2011-05-29T17:05:32Z</time>
      </trkpt>
      <trkpt lat="43.72635" lon="7.01821">
        <ele>1128.24</ele>
        <time>2011-05-29T17:05:49Z</time>
      </trkpt>
      <trkpt lat="43.7264" lon="7.01809">
        <ele>1127.76</ele>
        <time>2011-05-29T17:06:05Z</time>
      </trkpt>
      <trkpt lat="43.7264" lon="7.01809">
        <ele>1127.28</ele>
        <time>2011-05-29T17:06:11Z</time>
      </trkpt>
      <trkpt lat="43.72641" lon="7.01807">
        <ele>1126.32</ele>
        <time>2011-05-29T17:06:31Z</time>
      </trkpt>
      <trkpt lat="43.72641" lon="7.01807">
        <ele>1123.44</ele>
        <time>2011-05-29T17:06:49Z</time>
      </trkpt>
      <trkpt lat="43.72646" lon="7.01805">
        <ele>1120.55</ele>
        <time>2011-05-29T17:07:04Z</time>
      </trkpt>
      <trkpt lat="43.72648" lon="7.01794">
        <ele>1119.11</ele>
        <time>2011-05-29T17:07:22Z</time>
      </trkpt>
      <trkpt lat="43.7265" lon="7.01789">
        <ele>1118.15</ele>
        <time>2011-05-29T17:07:37Z</time>
      </trkpt>
      <trkpt lat="43.72652" lon="7.01786">
        <ele>1115.75</ele>
        <time>2011-05-29T17:07:43Z</time>
      </trkpt>
      <trkpt lat="43.72654" lon="7.01784">
        <ele>1115.27</ele>
        <time>2011-05-29T17:08:02Z</time>
      </trkpt>
      <trkpt lat="43.72655" lon="7.01785">
        <ele>1112.86</ele>
        <time>2011-05-29T17:08:18Z</time>
      </trkpt>
      <trkpt lat="43.72655" lon="7.01785">
        <ele>1112.86</ele>
        <time>2011-05-29T17:08:19Z</time>
      </trkpt>
      <trkpt lat="43.72658" lon="7.01779">
        <ele>1109.98</ele>
        <time>2011-05-29T17:08:28Z</time>
      </trkpt>
      <trkpt lat="43.72657" lon="7.01771">
        <ele>1108.54</ele>
        <time>2011-05-29T17:08:43Z</time>
      </trkpt>
      <trkpt lat="43.72659" lon="7.01758">
        <ele>1106.61</ele>
        <time>2011-05-29T17:08:59Z</time>
      </trkpt>
      <trkpt lat="43.72657" lon="7.0175">
        <ele>1104.21</ele>
        <time>2011-05-29T17:09:15Z</time>
      </trkpt>
      <trkpt lat="43.72657" lon="7.01747">
        <ele>1102.29</ele>
        <time>2011-05-29T17:09:22Z</time>
      </trkpt>
      <trkpt lat="43.72655" lon="7.01741">
        <ele>1099.89</ele>
        <time>2011-05-29T17:09:36Z</time>
      </trkpt>
      <trkpt lat="43.72654" lon="7.0174">
        <ele>1099.89</ele>
        <time>2011-05-29T17:09:37Z</time>
      </trkpt>
      <trkpt lat="43.72653" lon="7.01736">
        <ele>1098.92</ele>
        <time>2011-05-29T17:09:52Z</time>
      </trkpt>
      <trkpt lat="43.72649" lon="7.01723">
        <ele>1097</ele>
        <time>2011-05-29T17:10:06Z</time>
      </trkpt>
      <trkpt lat="43.72646" lon="7.01716">
        <ele>1095.08</ele>
        <time>2011-05-29T17:10:11Z</time>
      </trkpt>
      <trkpt lat="43.72641" lon="7.01703">
        <ele>1092.2</ele>
        <time>2011-05-29T17:10:25Z</time>
      </trkpt>
      <trkpt lat="43.72641" lon="7.01703">
        <ele>1090.75</ele>
        <time>2011-05-29T17:10:32Z</time>
      </trkpt>
      <trkpt lat="43.72644" lon="7.01692">
        <ele>1088.83</ele>
        <time>2011-05-29T17:10:48Z</time>
      </trkpt>
      <trkpt lat="43.72644" lon="7.01673">
        <ele>1087.39</ele>
        <time>2011-05-29T17:11:02Z</time>
      </trkpt>
      <trkpt lat="43.72644" lon="7.01668">
        <ele>1084.5</ele>
        <time>2011-05-29T17:11:10Z</time>
      </trkpt>
      <trkpt lat="43.72641" lon="7.01664">
        <ele>1084.02</ele>
        <time>2011-05-29T17:11:19Z</time>
      </trkpt>
      <trkpt lat="43.7264" lon="7.01653">
        <ele>1082.58</ele>
        <time>2011-05-29T17:11:32Z</time>
      </trkpt>
      <trkpt lat="43.72642" lon="7.01649">
        <ele>1080.18</ele>
        <time>2011-05-29T17:11:44Z</time>
      </trkpt>
      <trkpt lat="43.72644" lon="7.0165">
        <ele>1079.22</ele>
        <time>2011-05-29T17:11:57Z</time>
      </trkpt>
      <trkpt lat="43.72644" lon="7.01647">
        <ele>1078.74</ele>
        <time>2011-05-29T17:12:10Z</time>
      </trkpt>
      <trkpt lat="43.72648" lon="7.01647">
        <ele>1076.33</ele>
        <time>2011-05-29T17:12:26Z</time>
      </trkpt>
      <trkpt lat="43.72649" lon="7.01648">
        <ele>1075.85</ele>
        <time>2011-05-29T17:12:40Z</time>
      </trkpt>
      <trkpt lat="43.72648" lon="7.01645">
        <ele>1073.45</ele>
        <time>2011-05-29T17:12:55Z</time>
      </trkpt>
      <trkpt lat="43.72649" lon="7.01643">
        <ele>1073.45</ele>
        <time>2011-05-29T17:13:07Z</time>
      </trkpt>
      <trkpt lat="43.7265" lon="7.01643">
        <ele>1070.08</ele>
        <time>2011-05-29T17:13:21Z</time>
      </trkpt>
      <trkpt lat="43.72652" lon="7.01636">
        <ele>1068.64</ele>
        <time>2011-05-29T17:13:36Z</time>
      </trkpt>
      <trkpt lat="43.72651" lon="7.01633">
        <ele>1065.76</ele>
        <time>2011-05-29T17:13:50Z</time>
      </trkpt>
      <trkpt lat="43.72648" lon="7.01628">
        <ele>1064.32</ele>
        <time>2011-05-29T17:14:04Z</time>
      </trkpt>
      <trkpt lat="43.72647" lon="7.01626">
        <ele>1063.84</ele>
        <time>2011-05-29T17:14:18Z</time>
      </trkpt>
      <trkpt lat="43.72646" lon="7.01624">
        <ele>1062.87</ele>
        <time>2011-05-29T17:14:33Z</time>
      </trkpt>
      <trkpt lat="43.72646" lon="7.0162">
        <ele>1062.87</ele>
        <time>2011-05-29T17:14:46Z</time>
      </trkpt>
      <trkpt lat="43.72648" lon="7.01616">
        <ele>1060.47</ele>
        <time>2011-05-29T17:14:59Z</time>
      </trkpt>
      <trkpt lat="43.72648" lon="7.01616">
        <ele>1060.47</ele>
        <time>2011-05-29T17:15:15Z</time>
      </trkpt>
      <trkpt lat="43.72646" lon="7.01614">
        <ele>1059.51</ele>
        <time>2011-05-29T17:15:32Z</time>
      </trkpt>
      <trkpt lat="43.72646" lon="7.01614">
        <ele>1059.03</ele>
        <time>2011-05-29T17:15:33Z</time>
      </trkpt>
      <trkpt lat="43.72647" lon="7.01611">
        <ele>1059.03</ele>
        <time>2011-05-29T17:15:51Z</time>
      </trkpt>
      <trkpt lat="43.72648" lon="7.01608">
        <ele>1057.59</ele>
        <time>2011-05-29T17:16:05Z</time>
      </trkpt>
      <trkpt lat="43.72649" lon="7.01607">
        <ele>1056.63</ele>
        <time>2011-05-29T17:16:19Z</time>
      </trkpt>
      <trkpt lat="43.72649" lon="7.01604">
        <ele>1054.22</ele>
        <time>2011-05-29T17:16:32Z</time>
      </trkpt>
      <trkpt lat="43.72652" lon="7.01602">
        <ele>1051.82</ele>
        <time>2011-05-29T17:16:38Z</time>
      </trkpt>
      <trkpt lat="43.72656" lon="7.01601">
        <ele>1049.42</ele>
        <time>2011-05-29T17:16:52Z</time>
      </trkpt>
      <trkpt lat="43.72657" lon="7.01597">
        <ele>1047.49</ele>
        <time>2011-05-29T17:17:09Z</time>
      </trkpt>
      <trkpt lat="43.72657" lon="7.01594">
        <ele>1046.05</ele>
        <time>2011-05-29T17:17:21Z</time>
      </trkpt>
      <trkpt lat="43.72657" lon="7.0159">
        <ele>1045.57</ele>
        <time>2011-05-29T17:17:24Z</time>
      </trkpt>
      <trkpt lat="43.72657" lon="7.01581">
        <ele>1043.65</ele>
        <time>2011-05-29T17:17:35Z</time>
      </trkpt>
      <trkpt lat="43.72657" lon="7.01578">
        <ele>1043.17</ele>
        <time>2011-05-29T17:17:37Z</time>
      </trkpt>
      <trkpt lat="43.72656" lon="7.01577">
        <ele>1043.17</ele>
        <time>2011-05-29T17:17:42Z</time>
      </trkpt>
      <trkpt lat="43.72652" lon="7.01573">
        <ele>1040.28</ele>
        <time>2011-05-29T17:17:51Z</time>
      </trkpt>
      <trkpt lat="43.72648" lon="7.01558">
        <ele>1036.44</ele>
        <time>2011-05-29T17:18:02Z</time>
      </trkpt>
      <trkpt lat="43.72646" lon="7.01557">
        <ele>1036.44</ele>
        <time>2011-05-29T17:18:03Z</time>
      </trkpt>
      <trkpt lat="43.72644" lon="7.01554">
        <ele>1035</ele>
        <time>2011-05-29T17:18:18Z</time>
      </trkpt>
      <trkpt lat="43.72636" lon="7.01535">
        <ele>1031.63</ele>
        <time>2011-05-29T17:18:33Z</time>
      </trkpt>
      <trkpt lat="43.72633" lon="7.01525">
        <ele>1029.23</ele>
        <time>2011-05-29T17:18:45Z</time>
      </trkpt>
      <trkpt lat="43.72631" lon="7.0152">
        <ele>1027.31</ele>
        <time>2011-05-29T17:18:58Z</time>
      </trkpt>
      <trkpt lat="43.72628" lon="7.01516">
        <ele>1026.34</ele>
        <time>2011-05-29T17:19:02Z</time>
      </trkpt>
      <trkpt lat="43.72626" lon="7.01513">
        <ele>1025.86</ele>
        <time>2011-05-29T17:19:15Z</time>
      </trkpt>
      <trkpt lat="43.72621" lon="7.01506">
        <ele>1022.5</ele>
        <time>2011-05-29T17:19:25Z</time>
      </trkpt>
      <trkpt lat="43.7262" lon="7.01502">
        <ele>1020.58</ele>
        <time>2011-05-29T17:19:39Z</time>
      </trkpt>
      <trkpt lat="43.72619" lon="7.01499">
        <ele>1019.62</ele>
        <time>2011-05-29T17:19:52Z</time>
      </trkpt>
      <trkpt lat="43.7262" lon="7.01493">
        <ele>1017.69</ele>
        <time>2011-05-29T17:20:07Z</time>
      </trkpt>
      <trkpt lat="43.7262" lon="7.01488">
        <ele>1015.29</ele>
        <time>2011-05-29T17:20:23Z</time>
      </trkpt>
      <trkpt lat="43.72623" lon="7.01484">
        <ele>1014.81</ele>
        <time>2011-05-29T17:20:37Z</time>
      </trkpt>
      <trkpt lat="43.72625" lon="7.01479">
        <ele>1012.41</ele>
        <time>2011-05-29T17:20:52Z</time>
      </trkpt>
      <trkpt lat="43.7263" lon="7.01476">
        <ele>1009.52</ele>
        <time>2011-05-29T17:21:06Z</time>
      </trkpt>
      <trkpt lat="43.72629" lon="7.01472">
        <ele>1007.6</ele>
        <time>2011-05-29T17:21:22Z</time>
      </trkpt>
      <trkpt lat="43.7263" lon="7.01471">
        <ele>1007.6</ele>
        <time>2011-05-29T17:21:41Z</time>
      </trkpt>
      <trkpt lat="43.72634" lon="7.01467">
        <ele>1004.72</ele>
        <time>2011-05-29T17:21:54Z</time>
      </trkpt>
      <trkpt lat="43.72635" lon="7.01466">
        <ele>1004.72</ele>
        <time>2011-05-29T17:21:56Z</time>
      </trkpt>
      <trkpt lat="43.72637" lon="7.01461">
        <ele>1002.79</ele>
        <time>2011-05-29T17:22:11Z</time>
      </trkpt>
      <trkpt lat="43.72635" lon="7.0146">
        <ele>999.91</ele>
        <time>2011-05-29T17:22:27Z</time>
      </trkpt>
      <trkpt lat="43.72635" lon="7.0146">
        <ele>999.43</ele>
        <time>2011-05-29T17:22:30Z</time>
      </trkpt>
      <trkpt lat="43.72634" lon="7.01459">
        <ele>998.95</ele>
        <time>2011-05-29T17:22:32Z</time>
      </trkpt>
      <trkpt lat="43.72631" lon="7.01449">
        <ele>997.51</ele>
        <time>2011-05-29T17:22:41Z</time>
      </trkpt>
      <trkpt lat="43.72628" lon="7.01442">
        <ele>995.1</ele>
        <time>2011-05-29T17:22:54Z</time>
      </trkpt>
      <trkpt lat="43.72628" lon="7.01433">
        <ele>991.74</ele>
        <time>2011-05-29T17:23:04Z</time>
      </trkpt>
      <trkpt lat="43.72625" lon="7.01425">
        <ele>988.85</ele>
        <time>2011-05-29T17:23:16Z</time>
      </trkpt>
      <trkpt lat="43.72623" lon="7.01424">
        <ele>988.37</ele>
        <time>2011-05-29T17:23:25Z</time>
      </trkpt>
      <trkpt lat="43.72621" lon="7.0142">
        <ele>986.93</ele>
        <time>2011-05-29T17:23:29Z</time>
      </trkpt>
      <trkpt lat="43.72615" lon="7.01409">
        <ele>983.57</ele>
        <time>2011-05-29T17:23:41Z</time>
      </trkpt>
      <trkpt lat="43.72613" lon="7.01401">
        <ele>982.12</ele>
        <time>2011-05-29T17:23:56Z</time>
      </trkpt>
      <trkpt lat="43.72613" lon="7.01391">
        <ele>980.68</ele>
        <time>2011-05-29T17:24:06Z</time>
      </trkpt>
      <trkpt lat="43.72614" lon="7.01388">
        <ele>979.72</ele>
        <time>2011-05-29T17:24:08Z</time>
      </trkpt>
      <trkpt lat="43.72615" lon="7.01385">
        <ele>979.72</ele>
        <time>2011-05-29T17:24:11Z</time>
      </trkpt>
      <trkpt lat="43.72619" lon="7.01374">
        <ele>977.8</ele>
        <time>2011-05-29T17:24:24Z</time>
      </trkpt>
      <trkpt lat="43.72622" lon="7.01366">
        <ele>976.36</ele>
        <time>2011-05-29T17:24:36Z</time>
      </trkpt>
      <trkpt lat="43.72622" lon="7.01363">
        <ele>975.39</ele>
        <time>2011-05-29T17:24:51Z</time>
      </trkpt>
      <trkpt lat="43.72621" lon="7.0136">
        <ele>974.43</ele>
        <time>2011-05-29T17:25:02Z</time>
      </trkpt>
      <trkpt lat="43.72622" lon="7.01358">
        <ele>973.95</ele>
        <time>2011-05-29T17:25:19Z</time>
      </trkpt>
      <trkpt lat="43.72623" lon="7.01356">
        <ele>974.43</ele>
        <time>2011-05-29T17:25:35Z</time>
      </trkpt>
      <trkpt lat="43.7262" lon="7.01347">
        <ele>971.55</ele>
        <time>2011-05-29T17:25:48Z</time>
      </trkpt>
      <trkpt lat="43.72618" lon="7.01344">
        <ele>969.63</ele>
        <time>2011-05-29T17:25:51Z</time>
      </trkpt>
      <trkpt lat="43.72622" lon="7.01328">
        <ele>966.74</ele>
        <time>2011-05-29T17:26:04Z</time>
      </trkpt>
      <trkpt lat="43.72632" lon="7.01308">
        <ele>963.86</ele>
        <time>2011-05-29T17:26:21Z</time>
      </trkpt>
      <trkpt lat="43.72633" lon="7.01308">
        <ele>963.38</ele>
        <time>2011-05-29T17:26:22Z</time>
      </trkpt>
      <trkpt lat="43.72636" lon="7.01297">
        <ele>962.42</ele>
        <time>2011-05-29T17:26:34Z</time>
      </trkpt>
      <trkpt lat="43.72632" lon="7.01284">
        <ele>960.98</ele>
        <time>2011-05-29T17:26:45Z</time>
      </trkpt>
      <trkpt lat="43.72641" lon="7.01268">
        <ele>959.53</ele>
        <time>2011-05-29T17:27:00Z</time>
      </trkpt>
      <trkpt lat="43.72641" lon="7.01268">
        <ele>959.53</ele>
        <time>2011-05-29T17:27:24Z</time>
      </trkpt>
      <trkpt lat="43.72641" lon="7.01267">
        <ele>960.01</ele>
        <time>2011-05-29T17:27:44Z</time>
      </trkpt>
      <trkpt lat="43.72643" lon="7.01264">
        <ele>959.53</ele>
        <time>2011-05-29T17:28:00Z</time>
      </trkpt>
      <trkpt lat="43.72643" lon="7.01264">
        <ele>958.57</ele>
        <time>2011-05-29T17:28:18Z</time>
      </trkpt>
      <trkpt lat="43.72644" lon="7.01264">
        <ele>958.57</ele>
        <time>2011-05-29T17:28:37Z</time>
      </trkpt>
      <trkpt lat="43.72645" lon="7.01264">
        <ele>958.57</ele>
        <time>2011-05-29T17:29:06Z</time>
      </trkpt>
      <trkpt lat="43.72646" lon="7.01264">
        <ele>961.94</ele>
        <time>2011-05-29T17:29:24Z</time>
      </trkpt>
      <trkpt lat="43.72646" lon="7.01264">
        <ele>958.57</ele>
        <time>2011-05-29T17:29:25Z</time>
      </trkpt>
      <trkpt lat="43.72646" lon="7.01264">
        <ele>959.53</ele>
        <time>2011-05-29T17:29:44Z</time>
      </trkpt>
      <trkpt lat="43.72646" lon="7.01264">
        <ele>960.98</ele>
        <time>2011-05-29T17:30:03Z</time>
      </trkpt>
      <trkpt lat="43.72646" lon="7.01264">
        <ele>954.73</ele>
        <time>2011-05-29T17:30:06Z</time>
      </trkpt>
      <trkpt lat="43.72646" lon="7.01264">
        <ele>958.09</ele>
        <time>2011-05-29T17:30:07Z</time>
      </trkpt>
      <trkpt lat="43.72646" lon="7.01264">
        <ele>961.46</ele>
        <time>2011-05-29T17:30:08Z</time>
      </trkpt>
      <trkpt lat="43.72646" lon="7.01264">
        <ele>959.05</ele>
        <time>2011-05-29T17:30:09Z</time>
      </trkpt>
      <trkpt lat="43.72646" lon="7.01264">
        <ele>953.28</ele>
        <time>2011-05-29T17:30:11Z</time>
      </trkpt>
      <trkpt lat="43.72646" lon="7.01264">
        <ele>961.46</ele>
        <time>2011-05-29T17:30:12Z</time>
      </trkpt>
      <trkpt lat="43.72646" lon="7.01264">
        <ele>959.05</ele>
        <time>2011-05-29T17:30:28Z</time>
      </trkpt>
      <trkpt lat="43.72646" lon="7.01264">
        <ele>959.05</ele>
        <time>2011-05-29T17:30:49Z</time>
      </trkpt>
      <trkpt lat="43.72646" lon="7.01264">
        <ele>959.05</ele>
        <time>2011-05-29T17:31:12Z</time>
      </trkpt>
      <trkpt lat="43.72646" lon="7.01264">
        <ele>959.05</ele>
        <time>2011-05-29T17:31:33Z</time>
      </trkpt>
      <trkpt lat="43.72646" lon="7.01264">
        <ele>958.57</ele>
        <time>2011-05-29T17:32:00Z</time>
      </trkpt>
      <trkpt lat="43.72646" lon="7.01264">
        <ele>954.25</ele>
        <time>2011-05-29T17:32:11Z</time>
      </trkpt>
      <trkpt lat="43.72646" lon="7.01264">
        <ele>960.49</ele>
        <time>2011-05-29T17:32:12Z</time>
      </trkpt>
      <trkpt lat="43.72646" lon="7.01264">
        <ele>953.28</ele>
        <time>2011-05-29T17:32:26Z</time>
      </trkpt>
      <trkpt lat="43.72646" lon="7.01264">
        <ele>959.53</ele>
        <time>2011-05-29T17:32:27Z</time>
      </trkpt>
      <trkpt lat="43.72646" lon="7.01264">
        <ele>956.17</ele>
        <time>2011-05-29T17:32:32Z</time>
      </trkpt>
      <trkpt lat="43.72646" lon="7.01264">
        <ele>960.49</ele>
        <time>2011-05-29T17:32:33Z</time>
      </trkpt>
      <trkpt lat="43.72647" lon="7.01263">
        <ele>959.53</ele>
        <time>2011-05-29T17:32:50Z</time>
      </trkpt>
      <trkpt lat="43.72647" lon="7.01263">
        <ele>959.53</ele>
        <time>2011-05-29T17:32:53Z</time>
      </trkpt>
      <trkpt lat="43.72647" lon="7.01252">
        <ele>958.57</ele>
        <time>2011-05-29T17:33:02Z</time>
      </trkpt>
      <trkpt lat="43.72662" lon="7.01226">
        <ele>957.13</ele>
        <time>2011-05-29T17:33:19Z</time>
      </trkpt>
      <trkpt lat="43.7267" lon="7.01213">
        <ele>955.21</ele>
        <time>2011-05-29T17:33:29Z</time>
      </trkpt>
      <trkpt lat="43.7267" lon="7.01202">
        <ele>952.32</ele>
        <time>2011-05-29T17:33:36Z</time>
      </trkpt>
      <trkpt lat="43.72672" lon="7.01199">
        <ele>952.32</ele>
        <time>2011-05-29T17:33:39Z</time>
      </trkpt>
      <trkpt lat="43.72679" lon="7.01196">
        <ele>951.84</ele>
        <time>2011-05-29T17:33:45Z</time>
      </trkpt>
      <trkpt lat="43.72685" lon="7.01195">
        <ele>951.84</ele>
        <time>2011-05-29T17:34:00Z</time>
      </trkpt>
      <trkpt lat="43.72685" lon="7.01195">
        <ele>951.36</ele>
        <time>2011-05-29T17:34:19Z</time>
      </trkpt>
      <trkpt lat="43.72685" lon="7.01195">
        <ele>951.84</ele>
        <time>2011-05-29T17:34:49Z</time>
      </trkpt>
      <trkpt lat="43.72685" lon="7.01195">
        <ele>951.84</ele>
        <time>2011-05-29T17:35:04Z</time>
      </trkpt>
      <trkpt lat="43.72686" lon="7.01195">
        <ele>951.84</ele>
        <time>2011-05-29T17:35:33Z</time>
      </trkpt>
      <trkpt lat="43.72686" lon="7.01195">
        <ele>951.84</ele>
        <time>2011-05-29T17:35:52Z</time>
      </trkpt>
      <trkpt lat="43.72686" lon="7.01195">
        <ele>951.84</ele>
        <time>2011-05-29T17:36:22Z</time>
      </trkpt>
      <trkpt lat="43.72686" lon="7.01195">
        <ele>951.36</ele>
        <time>2011-05-29T17:36:55Z</time>
      </trkpt>
      <trkpt lat="43.72689" lon="7.01199">
        <ele>951.36</ele>
        <time>2011-05-29T17:37:06Z</time>
      </trkpt>
      <trkpt lat="43.72691" lon="7.01201">
        <ele>951.36</ele>
        <time>2011-05-29T17:37:20Z</time>
      </trkpt>
      <trkpt lat="43.72693" lon="7.012">
        <ele>951.36</ele>
        <time>2011-05-29T17:37:38Z</time>
      </trkpt>
      <trkpt lat="43.72697" lon="7.01203">
        <ele>950.88</ele>
        <time>2011-05-29T17:37:49Z</time>
      </trkpt>
      <trkpt lat="43.72707" lon="7.01215">
        <ele>949.44</ele>
        <time>2011-05-29T17:38:05Z</time>
      </trkpt>
      <trkpt lat="43.72712" lon="7.01222">
        <ele>949.44</ele>
        <time>2011-05-29T17:38:12Z</time>
      </trkpt>
      <trkpt lat="43.72722" lon="7.01235">
        <ele>947.52</ele>
        <time>2011-05-29T17:38:25Z</time>
      </trkpt>
      <trkpt lat="43.72727" lon="7.01243">
        <ele>945.59</ele>
        <time>2011-05-29T17:38:33Z</time>
      </trkpt>
      <trkpt lat="43.72739" lon="7.01254">
        <ele>943.67</ele>
        <time>2011-05-29T17:38:47Z</time>
      </trkpt>
      <trkpt lat="43.72741" lon="7.01258">
        <ele>943.67</ele>
        <time>2011-05-29T17:38:50Z</time>
      </trkpt>
      <trkpt lat="43.72752" lon="7.01273">
        <ele>940.79</ele>
        <time>2011-05-29T17:39:05Z</time>
      </trkpt>
      <trkpt lat="43.72754" lon="7.01281">
        <ele>940.31</ele>
        <time>2011-05-29T17:39:11Z</time>
      </trkpt>
      <trkpt lat="43.72756" lon="7.01283">
        <ele>939.83</ele>
        <time>2011-05-29T17:39:13Z</time>
      </trkpt>
      <trkpt lat="43.72762" lon="7.01296">
        <ele>937.42</ele>
        <time>2011-05-29T17:39:26Z</time>
      </trkpt>
      <trkpt lat="43.72763" lon="7.01297">
        <ele>937.42</ele>
        <time>2011-05-29T17:39:28Z</time>
      </trkpt>
      <trkpt lat="43.72765" lon="7.013">
        <ele>936.46</ele>
        <time>2011-05-29T17:39:31Z</time>
      </trkpt>
      <trkpt lat="43.72769" lon="7.01312">
        <ele>935.98</ele>
        <time>2011-05-29T17:39:39Z</time>
      </trkpt>
      <trkpt lat="43.72775" lon="7.01321">
        <ele>934.06</ele>
        <time>2011-05-29T17:39:47Z</time>
      </trkpt>
      <trkpt lat="43.72785" lon="7.01333">
        <ele>932.14</ele>
        <time>2011-05-29T17:39:59Z</time>
      </trkpt>
      <trkpt lat="43.72797" lon="7.0134">
        <ele>930.21</ele>
        <time>2011-05-29T17:40:11Z</time>
      </trkpt>
      <trkpt lat="43.72798" lon="7.0134">
        <ele>930.21</ele>
        <time>2011-05-29T17:40:13Z</time>
      </trkpt>
      <trkpt lat="43.7281" lon="7.01345">
        <ele>928.29</ele>
        <time>2011-05-29T17:40:28Z</time>
      </trkpt>
      <trkpt lat="43.72813" lon="7.01347">
        <ele>927.81</ele>
        <time>2011-05-29T17:40:46Z</time>
      </trkpt>
      <trkpt lat="43.72831" lon="7.0136">
        <ele>925.89</ele>
        <time>2011-05-29T17:41:04Z</time>
      </trkpt>
      <trkpt lat="43.72837" lon="7.01374">
        <ele>922.52</ele>
        <time>2011-05-29T17:41:14Z</time>
      </trkpt>
      <trkpt lat="43.72841" lon="7.01375">
        <ele>922.52</ele>
        <time>2011-05-29T17:41:18Z</time>
      </trkpt>
      <trkpt lat="43.72844" lon="7.01375">
        <ele>922.04</ele>
        <time>2011-05-29T17:41:26Z</time>
      </trkpt>
      <trkpt lat="43.72839" lon="7.01365">
        <ele>920.6</ele>
        <time>2011-05-29T17:41:38Z</time>
      </trkpt>
      <trkpt lat="43.72842" lon="7.01346">
        <ele>917.72</ele>
        <time>2011-05-29T17:41:53Z</time>
      </trkpt>
      <trkpt lat="43.72847" lon="7.01328">
        <ele>915.31</ele>
        <time>2011-05-29T17:42:07Z</time>
      </trkpt>
      <trkpt lat="43.7285" lon="7.01312">
        <ele>914.35</ele>
        <time>2011-05-29T17:42:21Z</time>
      </trkpt>
      <trkpt lat="43.72849" lon="7.01311">
        <ele>914.35</ele>
        <time>2011-05-29T17:42:38Z</time>
      </trkpt>
      <trkpt lat="43.72849" lon="7.01311">
        <ele>913.39</ele>
        <time>2011-05-29T17:42:53Z</time>
      </trkpt>
      <trkpt lat="43.72849" lon="7.01311">
        <ele>913.87</ele>
        <time>2011-05-29T17:43:17Z</time>
      </trkpt>
      <trkpt lat="43.7285" lon="7.01311">
        <ele>914.35</ele>
        <time>2011-05-29T17:43:35Z</time>
      </trkpt>
      <trkpt lat="43.72849" lon="7.01309">
        <ele>914.35</ele>
        <time>2011-05-29T17:43:51Z</time>
      </trkpt>
      <trkpt lat="43.72851" lon="7.01307">
        <ele>914.35</ele>
        <time>2011-05-29T17:44:07Z</time>
      </trkpt>
      <trkpt lat="43.72851" lon="7.01307">
        <ele>914.35</ele>
        <time>2011-05-29T17:44:31Z</time>
      </trkpt>
      <trkpt lat="43.72851" lon="7.01297">
        <ele>913.39</ele>
        <time>2011-05-29T17:44:44Z</time>
      </trkpt>
      <trkpt lat="43.72851" lon="7.01291">
        <ele>912.43</ele>
        <time>2011-05-29T17:44:48Z</time>
      </trkpt>
      <trkpt lat="43.72851" lon="7.01286">
        <ele>912.43</ele>
        <time>2011-05-29T17:45:13Z</time>
      </trkpt>
      <trkpt lat="43.72851" lon="7.01281">
        <ele>912.43</ele>
        <time>2011-05-29T17:45:17Z</time>
      </trkpt>
      <trkpt lat="43.72851" lon="7.01264">
        <ele>910.99</ele>
        <time>2011-05-29T17:45:29Z</time>
      </trkpt>
      <trkpt lat="43.72848" lon="7.01247">
        <ele>910.51</ele>
        <time>2011-05-29T17:45:45Z</time>
      </trkpt>
      <trkpt lat="43.72848" lon="7.01243">
        <ele>910.03</ele>
        <time>2011-05-29T17:46:03Z</time>
      </trkpt>
      <trkpt lat="43.72846" lon="7.01241">
        <ele>910.03</ele>
        <time>2011-05-29T17:46:23Z</time>
      </trkpt>
      <trkpt lat="43.72844" lon="7.01241">
        <ele>910.51</ele>
        <time>2011-05-29T17:46:47Z</time>
      </trkpt>
      <trkpt lat="43.72842" lon="7.01236">
        <ele>910.99</ele>
        <time>2011-05-29T17:47:00Z</time>
      </trkpt>
      <trkpt lat="43.72842" lon="7.01236">
        <ele>910.51</ele>
        <time>2011-05-29T17:47:20Z</time>
      </trkpt>
      <trkpt lat="43.72842" lon="7.01235">
        <ele>910.51</ele>
        <time>2011-05-29T17:47:41Z</time>
      </trkpt>
      <trkpt lat="43.72842" lon="7.01236">
        <ele>910.51</ele>
        <time>2011-05-29T17:48:08Z</time>
      </trkpt>
      <trkpt lat="43.72842" lon="7.01236">
        <ele>910.99</ele>
        <time>2011-05-29T17:48:39Z</time>
      </trkpt>
      <trkpt lat="43.72842" lon="7.01236">
        <ele>910.99</ele>
        <time>2011-05-29T17:49:13Z</time>
      </trkpt>
      <trkpt lat="43.72842" lon="7.01236">
        <ele>911.47</ele>
        <time>2011-05-29T17:49:33Z</time>
      </trkpt>
      <trkpt lat="43.72842" lon="7.01236">
        <ele>911.47</ele>
        <time>2011-05-29T17:49:39Z</time>
      </trkpt>
      <trkpt lat="43.72851" lon="7.01254">
        <ele>912.91</ele>
        <time>2011-05-29T17:49:51Z</time>
      </trkpt>
      <trkpt lat="43.7285" lon="7.01255">
        <ele>912.91</ele>
        <time>2011-05-29T17:49:57Z</time>
      </trkpt>
      <trkpt lat="43.72851" lon="7.01262">
        <ele>913.87</ele>
        <time>2011-05-29T17:50:01Z</time>
      </trkpt>
      <trkpt lat="43.72855" lon="7.01278">
        <ele>915.31</ele>
        <time>2011-05-29T17:50:11Z</time>
      </trkpt>
      <trkpt lat="43.72853" lon="7.01308">
        <ele>917.72</ele>
        <time>2011-05-29T17:50:25Z</time>
      </trkpt>
      <trkpt lat="43.72849" lon="7.01341">
        <ele>920.6</ele>
        <time>2011-05-29T17:50:41Z</time>
      </trkpt>
      <trkpt lat="43.72848" lon="7.01343">
        <ele>920.6</ele>
        <time>2011-05-29T17:50:42Z</time>
      </trkpt>
      <trkpt lat="43.72846" lon="7.01356">
        <ele>922.52</ele>
        <time>2011-05-29T17:50:50Z</time>
      </trkpt>
      <trkpt lat="43.72844" lon="7.01375">
        <ele>924.45</ele>
        <time>2011-05-29T17:51:00Z</time>
      </trkpt>
      <trkpt lat="43.72841" lon="7.01383">
        <ele>925.89</ele>
        <time>2011-05-29T17:51:04Z</time>
      </trkpt>
      <trkpt lat="43.72828" lon="7.01374">
        <ele>927.33</ele>
        <time>2011-05-29T17:51:13Z</time>
      </trkpt>
      <trkpt lat="43.72823" lon="7.01365">
        <ele>928.77</ele>
        <time>2011-05-29T17:51:18Z</time>
      </trkpt>
      <trkpt lat="43.7281" lon="7.01355">
        <ele>930.69</ele>
        <time>2011-05-29T17:51:31Z</time>
      </trkpt>
      <trkpt lat="43.72796" lon="7.01348">
        <ele>933.1</ele>
        <time>2011-05-29T17:51:44Z</time>
      </trkpt>
      <trkpt lat="43.72783" lon="7.01333">
        <ele>935.98</ele>
        <time>2011-05-29T17:51:59Z</time>
      </trkpt>
      <trkpt lat="43.72781" lon="7.01332">
        <ele>935.98</ele>
        <time>2011-05-29T17:52:01Z</time>
      </trkpt>
      <trkpt lat="43.72772" lon="7.01321">
        <ele>937.42</ele>
        <time>2011-05-29T17:52:11Z</time>
      </trkpt>
      <trkpt lat="43.72762" lon="7.01296">
        <ele>941.27</ele>
        <time>2011-05-29T17:52:28Z</time>
      </trkpt>
      <trkpt lat="43.72751" lon="7.01272">
        <ele>944.15</ele>
        <time>2011-05-29T17:52:43Z</time>
      </trkpt>
      <trkpt lat="43.72737" lon="7.01256">
        <ele>947.04</ele>
        <time>2011-05-29T17:52:57Z</time>
      </trkpt>
      <trkpt lat="43.72734" lon="7.01254">
        <ele>947.52</ele>
        <time>2011-05-29T17:52:59Z</time>
      </trkpt>
      <trkpt lat="43.72723" lon="7.01239">
        <ele>948.96</ele>
        <time>2011-05-29T17:53:12Z</time>
      </trkpt>
      <trkpt lat="43.72723" lon="7.01238">
        <ele>948.96</ele>
        <time>2011-05-29T17:53:28Z</time>
      </trkpt>
      <trkpt lat="43.72723" lon="7.01238">
        <ele>948.48</ele>
        <time>2011-05-29T17:53:46Z</time>
      </trkpt>
      <trkpt lat="43.72722" lon="7.01237">
        <ele>948.96</ele>
        <time>2011-05-29T17:54:05Z</time>
      </trkpt>
      <trkpt lat="43.72722" lon="7.01238">
        <ele>948.48</ele>
        <time>2011-05-29T17:54:25Z</time>
      </trkpt>
      <trkpt lat="43.72722" lon="7.01238">
        <ele>948.48</ele>
        <time>2011-05-29T17:54:52Z</time>
      </trkpt>
      <trkpt lat="43.72722" lon="7.01239">
        <ele>948.48</ele>
        <time>2011-05-29T17:55:13Z</time>
      </trkpt>
      <trkpt lat="43.72727" lon="7.01246">
        <ele>947.04</ele>
        <time>2011-05-29T17:55:27Z</time>
      </trkpt>
      <trkpt lat="43.72728" lon="7.01247">
        <ele>947.04</ele>
        <time>2011-05-29T17:55:29Z</time>
      </trkpt>
      <trkpt lat="43.72732" lon="7.01252">
        <ele>946.56</ele>
        <time>2011-05-29T17:55:42Z</time>
      </trkpt>
      <trkpt lat="43.72734" lon="7.01255">
        <ele>946.07</ele>
        <time>2011-05-29T17:55:45Z</time>
      </trkpt>
      <trkpt lat="43.72739" lon="7.01262">
        <ele>944.63</ele>
        <time>2011-05-29T17:55:51Z</time>
      </trkpt>
      <trkpt lat="43.7275" lon="7.01277">
        <ele>941.27</ele>
        <time>2011-05-29T17:56:05Z</time>
      </trkpt>
      <trkpt lat="43.72756" lon="7.01286">
        <ele>940.31</ele>
        <time>2011-05-29T17:56:12Z</time>
      </trkpt>
      <trkpt lat="43.72763" lon="7.01301">
        <ele>937.9</ele>
        <time>2011-05-29T17:56:25Z</time>
      </trkpt>
      <trkpt lat="43.72767" lon="7.01308">
        <ele>936.94</ele>
        <time>2011-05-29T17:56:32Z</time>
      </trkpt>
      <trkpt lat="43.72777" lon="7.01325">
        <ele>934.54</ele>
        <time>2011-05-29T17:56:45Z</time>
      </trkpt>
      <trkpt lat="43.72789" lon="7.01334">
        <ele>932.62</ele>
        <time>2011-05-29T17:56:57Z</time>
      </trkpt>
      <trkpt lat="43.72798" lon="7.01344">
        <ele>930.21</ele>
        <time>2011-05-29T17:57:08Z</time>
      </trkpt>
      <trkpt lat="43.72813" lon="7.01351">
        <ele>928.29</ele>
        <time>2011-05-29T17:57:20Z</time>
      </trkpt>
      <trkpt lat="43.72827" lon="7.01358">
        <ele>925.89</ele>
        <time>2011-05-29T17:57:33Z</time>
      </trkpt>
      <trkpt lat="43.72833" lon="7.0137">
        <ele>924.93</ele>
        <time>2011-05-29T17:57:42Z</time>
      </trkpt>
      <trkpt lat="43.7284" lon="7.01379">
        <ele>923</ele>
        <time>2011-05-29T17:57:52Z</time>
      </trkpt>
      <trkpt lat="43.72837" lon="7.01374">
        <ele>921.08</ele>
        <time>2011-05-29T17:58:04Z</time>
      </trkpt>
      <trkpt lat="43.72833" lon="7.01357">
        <ele>918.2</ele>
        <time>2011-05-29T17:58:19Z</time>
      </trkpt>
      <trkpt lat="43.72833" lon="7.01353">
        <ele>917.72</ele>
        <time>2011-05-29T17:58:23Z</time>
      </trkpt>
      <trkpt lat="43.72839" lon="7.01339">
        <ele>916.75</ele>
        <time>2011-05-29T17:58:30Z</time>
      </trkpt>
      <trkpt lat="43.72846" lon="7.01314">
        <ele>915.31</ele>
        <time>2011-05-29T17:58:44Z</time>
      </trkpt>
      <trkpt lat="43.72846" lon="7.01313">
        <ele>914.83</ele>
        <time>2011-05-29T17:58:45Z</time>
      </trkpt>
      <trkpt lat="43.7285" lon="7.01281">
        <ele>913.39</ele>
        <time>2011-05-29T17:59:01Z</time>
      </trkpt>
      <trkpt lat="43.72848" lon="7.01278">
        <ele>913.39</ele>
        <time>2011-05-29T17:59:04Z</time>
      </trkpt>
      <trkpt lat="43.72842" lon="7.01267">
        <ele>912.43</ele>
        <time>2011-05-29T17:59:14Z</time>
      </trkpt>
      <trkpt lat="43.72844" lon="7.01263">
        <ele>911.95</ele>
        <time>2011-05-29T17:59:18Z</time>
      </trkpt>
      <trkpt lat="43.72841" lon="7.01235">
        <ele>910.51</ele>
        <time>2011-05-29T17:59:29Z</time>
      </trkpt>
      <trkpt lat="43.72839" lon="7.01227">
        <ele>910.03</ele>
        <time>2011-05-29T17:59:35Z</time>
      </trkpt>
      <trkpt lat="43.72835" lon="7.01223">
        <ele>909.54</ele>
        <time>2011-05-29T17:59:39Z</time>
      </trkpt>
      <trkpt lat="43.72833" lon="7.01208">
        <ele>908.1</ele>
        <time>2011-05-29T17:59:53Z</time>
      </trkpt>
      <trkpt lat="43.7284" lon="7.01193">
        <ele>907.14</ele>
        <time>2011-05-29T18:00:06Z</time>
      </trkpt>
      <trkpt lat="43.7285" lon="7.01174">
        <ele>905.7</ele>
        <time>2011-05-29T18:00:21Z</time>
      </trkpt>
      <trkpt lat="43.72863" lon="7.01158">
        <ele>903.78</ele>
        <time>2011-05-29T18:00:38Z</time>
      </trkpt>
      <trkpt lat="43.72874" lon="7.01145">
        <ele>902.82</ele>
        <time>2011-05-29T18:00:52Z</time>
      </trkpt>
      <trkpt lat="43.72883" lon="7.01127">
        <ele>901.85</ele>
        <time>2011-05-29T18:01:06Z</time>
      </trkpt>
      <trkpt lat="43.72884" lon="7.01126">
        <ele>901.85</ele>
        <time>2011-05-29T18:01:08Z</time>
      </trkpt>
      <trkpt lat="43.72887" lon="7.01116">
        <ele>901.85</ele>
        <time>2011-05-29T18:01:15Z</time>
      </trkpt>
      <trkpt lat="43.72893" lon="7.0109">
        <ele>901.37</ele>
        <time>2011-05-29T18:01:30Z</time>
      </trkpt>
      <trkpt lat="43.72899" lon="7.01068">
        <ele>899.93</ele>
        <time>2011-05-29T18:01:45Z</time>
      </trkpt>
      <trkpt lat="43.7291" lon="7.01041">
        <ele>898.97</ele>
        <time>2011-05-29T18:02:00Z</time>
      </trkpt>
      <trkpt lat="43.72917" lon="7.01027">
        <ele>898.01</ele>
        <time>2011-05-29T18:02:10Z</time>
      </trkpt>
      <trkpt lat="43.72931" lon="7.01008">
        <ele>897.05</ele>
        <time>2011-05-29T18:02:26Z</time>
      </trkpt>
      <trkpt lat="43.72944" lon="7.00985">
        <ele>896.09</ele>
        <time>2011-05-29T18:02:41Z</time>
      </trkpt>
      <trkpt lat="43.7295" lon="7.00972">
        <ele>895.61</ele>
        <time>2011-05-29T18:02:54Z</time>
      </trkpt>
      <trkpt lat="43.72952" lon="7.00969">
        <ele>895.61</ele>
        <time>2011-05-29T18:02:56Z</time>
      </trkpt>
      <trkpt lat="43.72956" lon="7.00959">
        <ele>894.64</ele>
        <time>2011-05-29T18:03:09Z</time>
      </trkpt>
      <trkpt lat="43.72957" lon="7.00958">
        <ele>894.64</ele>
        <time>2011-05-29T18:03:25Z</time>
      </trkpt>
      <trkpt lat="43.72957" lon="7.00958">
        <ele>894.64</ele>
        <time>2011-05-29T18:03:46Z</time>
      </trkpt>
      <trkpt lat="43.72957" lon="7.00955">
        <ele>894.64</ele>
        <time>2011-05-29T18:04:02Z</time>
      </trkpt>
      <trkpt lat="43.7296" lon="7.0095">
        <ele>894.16</ele>
        <time>2011-05-29T18:04:11Z</time>
      </trkpt>
      <trkpt lat="43.72964" lon="7.00944">
        <ele>893.2</ele>
        <time>2011-05-29T18:04:26Z</time>
      </trkpt>
      <trkpt lat="43.72968" lon="7.00942">
        <ele>893.2</ele>
        <time>2011-05-29T18:04:37Z</time>
      </trkpt>
      <trkpt lat="43.72976" lon="7.00941">
        <ele>891.76</ele>
        <time>2011-05-29T18:04:49Z</time>
      </trkpt>
      <trkpt lat="43.72985" lon="7.00945">
        <ele>890.8</ele>
        <time>2011-05-29T18:04:58Z</time>
      </trkpt>
      <trkpt lat="43.72989" lon="7.00951">
        <ele>889.36</ele>
        <time>2011-05-29T18:05:13Z</time>
      </trkpt>
      <trkpt lat="43.72997" lon="7.00954">
        <ele>888.4</ele>
        <time>2011-05-29T18:05:25Z</time>
      </trkpt>
      <trkpt lat="43.72998" lon="7.00954">
        <ele>887.91</ele>
        <time>2011-05-29T18:05:28Z</time>
      </trkpt>
      <trkpt lat="43.73003" lon="7.00954">
        <ele>885.99</ele>
        <time>2011-05-29T18:05:39Z</time>
      </trkpt>
      <trkpt lat="43.73008" lon="7.00954">
        <ele>885.51</ele>
        <time>2011-05-29T18:05:44Z</time>
      </trkpt>
      <trkpt lat="43.73019" lon="7.00955">
        <ele>884.07</ele>
        <time>2011-05-29T18:06:00Z</time>
      </trkpt>
      <trkpt lat="43.73037" lon="7.0095">
        <ele>882.15</ele>
        <time>2011-05-29T18:06:13Z</time>
      </trkpt>
      <trkpt lat="43.73049" lon="7.00947">
        <ele>879.74</ele>
        <time>2011-05-29T18:06:27Z</time>
      </trkpt>
      <trkpt lat="43.73058" lon="7.00943">
        <ele>879.74</ele>
        <time>2011-05-29T18:06:33Z</time>
      </trkpt>
      <trkpt lat="43.73066" lon="7.00941">
        <ele>877.82</ele>
        <time>2011-05-29T18:06:46Z</time>
      </trkpt>
      <trkpt lat="43.7308" lon="7.00941">
        <ele>877.34</ele>
        <time>2011-05-29T18:06:59Z</time>
      </trkpt>
      <trkpt lat="43.73087" lon="7.00943">
        <ele>876.38</ele>
        <time>2011-05-29T18:07:13Z</time>
      </trkpt>
      <trkpt lat="43.73098" lon="7.00943">
        <ele>873.98</ele>
        <time>2011-05-29T18:07:26Z</time>
      </trkpt>
      <trkpt lat="43.73098" lon="7.00943">
        <ele>874.46</ele>
        <time>2011-05-29T18:07:27Z</time>
      </trkpt>
      <trkpt lat="43.73104" lon="7.00944">
        <ele>873.98</ele>
        <time>2011-05-29T18:07:33Z</time>
      </trkpt>
      <trkpt lat="43.7312" lon="7.00948">
        <ele>872.53</ele>
        <time>2011-05-29T18:07:47Z</time>
      </trkpt>
      <trkpt lat="43.7313" lon="7.00952">
        <ele>870.61</ele>
        <time>2011-05-29T18:08:02Z</time>
      </trkpt>
      <trkpt lat="43.73137" lon="7.00954">
        <ele>870.13</ele>
        <time>2011-05-29T18:08:09Z</time>
      </trkpt>
      <trkpt lat="43.73154" lon="7.00951">
        <ele>868.69</ele>
        <time>2011-05-29T18:08:23Z</time>
      </trkpt>
      <trkpt lat="43.73162" lon="7.00952">
        <ele>867.25</ele>
        <time>2011-05-29T18:08:32Z</time>
      </trkpt>
      <trkpt lat="43.73163" lon="7.00955">
        <ele>867.73</ele>
        <time>2011-05-29T18:08:34Z</time>
      </trkpt>
      <trkpt lat="43.73169" lon="7.00954">
        <ele>866.77</ele>
        <time>2011-05-29T18:08:43Z</time>
      </trkpt>
      <trkpt lat="43.73175" lon="7.00954">
        <ele>865.8</ele>
        <time>2011-05-29T18:08:47Z</time>
      </trkpt>
      <trkpt lat="43.73182" lon="7.00954">
        <ele>865.32</ele>
        <time>2011-05-29T18:08:52Z</time>
      </trkpt>
      <trkpt lat="43.732" lon="7.0095">
        <ele>864.36</ele>
        <time>2011-05-29T18:09:01Z</time>
      </trkpt>
      <trkpt lat="43.73204" lon="7.00951">
        <ele>863.88</ele>
        <time>2011-05-29T18:09:04Z</time>
      </trkpt>
      <trkpt lat="43.73208" lon="7.00951">
        <ele>863.4</ele>
        <time>2011-05-29T18:09:17Z</time>
      </trkpt>
      <trkpt lat="43.7321" lon="7.00951">
        <ele>863.4</ele>
        <time>2011-05-29T18:09:21Z</time>
      </trkpt>
      <trkpt lat="43.73215" lon="7.00951">
        <ele>862.92</ele>
        <time>2011-05-29T18:09:24Z</time>
      </trkpt>
      <trkpt lat="43.73219" lon="7.00952">
        <ele>862.92</ele>
        <time>2011-05-29T18:09:27Z</time>
      </trkpt>
      <trkpt lat="43.7323" lon="7.00955">
        <ele>861.96</ele>
        <time>2011-05-29T18:09:34Z</time>
      </trkpt>
      <trkpt lat="43.73233" lon="7.00957">
        <ele>861.48</ele>
        <time>2011-05-29T18:09:37Z</time>
      </trkpt>
      <trkpt lat="43.73245" lon="7.00956">
        <ele>861</ele>
        <time>2011-05-29T18:09:44Z</time>
      </trkpt>
      <trkpt lat="43.73257" lon="7.00955">
        <ele>861</ele>
        <time>2011-05-29T18:09:56Z</time>
      </trkpt>
      <trkpt lat="43.73266" lon="7.00964">
        <ele>860.52</ele>
        <time>2011-05-29T18:10:09Z</time>
      </trkpt>
      <trkpt lat="43.73282" lon="7.0097">
        <ele>858.59</ele>
        <time>2011-05-29T18:10:22Z</time>
      </trkpt>
      <trkpt lat="43.7329" lon="7.00972">
        <ele>857.15</ele>
        <time>2011-05-29T18:10:33Z</time>
      </trkpt>
      <trkpt lat="43.73302" lon="7.00977">
        <ele>855.71</ele>
        <time>2011-05-29T18:10:47Z</time>
      </trkpt>
      <trkpt lat="43.73303" lon="7.00977">
        <ele>855.23</ele>
        <time>2011-05-29T18:10:52Z</time>
      </trkpt>
      <trkpt lat="43.73306" lon="7.00976">
        <ele>855.23</ele>
        <time>2011-05-29T18:10:55Z</time>
      </trkpt>
      <trkpt lat="43.73323" lon="7.00984">
        <ele>854.75</ele>
        <time>2011-05-29T18:11:10Z</time>
      </trkpt>
      <trkpt lat="43.73337" lon="7.00999">
        <ele>852.83</ele>
        <time>2011-05-29T18:11:24Z</time>
      </trkpt>
      <trkpt lat="43.73344" lon="7.01008">
        <ele>852.35</ele>
        <time>2011-05-29T18:11:34Z</time>
      </trkpt>
      <trkpt lat="43.73346" lon="7.01025">
        <ele>849.94</ele>
        <time>2011-05-29T18:11:50Z</time>
      </trkpt>
      <trkpt lat="43.73352" lon="7.01042">
        <ele>848.02</ele>
        <time>2011-05-29T18:12:04Z</time>
      </trkpt>
      <trkpt lat="43.73352" lon="7.01059">
        <ele>846.1</ele>
        <time>2011-05-29T18:12:17Z</time>
      </trkpt>
      <trkpt lat="43.73352" lon="7.0106">
        <ele>845.62</ele>
        <time>2011-05-29T18:12:18Z</time>
      </trkpt>
      <trkpt lat="43.73352" lon="7.01078">
        <ele>844.18</ele>
        <time>2011-05-29T18:12:32Z</time>
      </trkpt>
      <trkpt lat="43.73354" lon="7.01087">
        <ele>844.18</ele>
        <time>2011-05-29T18:12:38Z</time>
      </trkpt>
      <trkpt lat="43.73357" lon="7.01109">
        <ele>842.25</ele>
        <time>2011-05-29T18:12:52Z</time>
      </trkpt>
      <trkpt lat="43.73363" lon="7.01123">
        <ele>840.33</ele>
        <time>2011-05-29T18:13:05Z</time>
      </trkpt>
      <trkpt lat="43.73363" lon="7.01123">
        <ele>839.85</ele>
        <time>2011-05-29T18:13:06Z</time>
      </trkpt>
      <trkpt lat="43.73365" lon="7.01126">
        <ele>839.37</ele>
        <time>2011-05-29T18:13:09Z</time>
      </trkpt>
      <trkpt lat="43.7337" lon="7.01137">
        <ele>837.45</ele>
        <time>2011-05-29T18:13:23Z</time>
      </trkpt>
      <trkpt lat="43.73372" lon="7.01141">
        <ele>836.48</ele>
        <time>2011-05-29T18:13:35Z</time>
      </trkpt>
      <trkpt lat="43.73373" lon="7.01142">
        <ele>835.04</ele>
        <time>2011-05-29T18:13:42Z</time>
      </trkpt>
      <trkpt lat="43.73385" lon="7.01148">
        <ele>833.12</ele>
        <time>2011-05-29T18:13:54Z</time>
      </trkpt>
      <trkpt lat="43.7339" lon="7.01147">
        <ele>834.08</ele>
        <time>2011-05-29T18:14:01Z</time>
      </trkpt>
      <trkpt lat="43.7339" lon="7.01151">
        <ele>832.64</ele>
        <time>2011-05-29T18:14:17Z</time>
      </trkpt>
      <trkpt lat="43.73393" lon="7.01156">
        <ele>832.64</ele>
        <time>2011-05-29T18:14:21Z</time>
      </trkpt>
      <trkpt lat="43.73394" lon="7.01158">
        <ele>832.16</ele>
        <time>2011-05-29T18:14:25Z</time>
      </trkpt>
      <trkpt lat="43.73407" lon="7.01168">
        <ele>833.6</ele>
        <time>2011-05-29T18:14:38Z</time>
      </trkpt>
      <trkpt lat="43.73418" lon="7.01177">
        <ele>834.08</ele>
        <time>2011-05-29T18:14:50Z</time>
      </trkpt>
      <trkpt lat="43.73427" lon="7.01188">
        <ele>832.64</ele>
        <time>2011-05-29T18:15:03Z</time>
      </trkpt>
      <trkpt lat="43.73434" lon="7.01209">
        <ele>831.68</ele>
        <time>2011-05-29T18:15:17Z</time>
      </trkpt>
      <trkpt lat="43.73442" lon="7.01218">
        <ele>831.2</ele>
        <time>2011-05-29T18:15:26Z</time>
      </trkpt>
      <trkpt lat="43.73443" lon="7.01221">
        <ele>830.72</ele>
        <time>2011-05-29T18:15:29Z</time>
      </trkpt>
      <trkpt lat="43.73453" lon="7.01245">
        <ele>829.76</ele>
        <time>2011-05-29T18:15:43Z</time>
      </trkpt>
      <trkpt lat="43.73454" lon="7.01251">
        <ele>829.27</ele>
        <time>2011-05-29T18:15:48Z</time>
      </trkpt>
      <trkpt lat="43.73458" lon="7.01257">
        <ele>827.35</ele>
        <time>2011-05-29T18:16:01Z</time>
      </trkpt>
      <trkpt lat="43.73459" lon="7.01257">
        <ele>826.39</ele>
        <time>2011-05-29T18:16:05Z</time>
      </trkpt>
      <trkpt lat="43.73465" lon="7.01263">
        <ele>824.95</ele>
        <time>2011-05-29T18:16:20Z</time>
      </trkpt>
      <trkpt lat="43.73466" lon="7.01264">
        <ele>823.03</ele>
        <time>2011-05-29T18:16:25Z</time>
      </trkpt>
      <trkpt lat="43.7348" lon="7.0127">
        <ele>822.06</ele>
        <time>2011-05-29T18:16:37Z</time>
      </trkpt>
      <trkpt lat="43.7348" lon="7.0127">
        <ele>822.06</ele>
        <time>2011-05-29T18:16:38Z</time>
      </trkpt>
      <trkpt lat="43.73489" lon="7.01269">
        <ele>821.1</ele>
        <time>2011-05-29T18:16:43Z</time>
      </trkpt>
      <trkpt lat="43.73506" lon="7.01277">
        <ele>819.66</ele>
        <time>2011-05-29T18:16:58Z</time>
      </trkpt>
      <trkpt lat="43.7352" lon="7.01281">
        <ele>817.74</ele>
        <time>2011-05-29T18:17:09Z</time>
      </trkpt>
      <trkpt lat="43.73524" lon="7.01292">
        <ele>817.74</ele>
        <time>2011-05-29T18:17:23Z</time>
      </trkpt>
      <trkpt lat="43.73525" lon="7.01296">
        <ele>818.22</ele>
        <time>2011-05-29T18:17:29Z</time>
      </trkpt>
      <trkpt lat="43.73526" lon="7.01291">
        <ele>818.22</ele>
        <time>2011-05-29T18:17:43Z</time>
      </trkpt>
      <trkpt lat="43.73526" lon="7.01291">
        <ele>818.7</ele>
        <time>2011-05-29T18:17:44Z</time>
      </trkpt>
      <trkpt lat="43.73533" lon="7.01288">
        <ele>818.7</ele>
        <time>2011-05-29T18:17:58Z</time>
      </trkpt>
      <trkpt lat="43.73531" lon="7.01291">
        <ele>816.78</ele>
        <time>2011-05-29T18:18:10Z</time>
      </trkpt>
      <trkpt lat="43.7353" lon="7.01304">
        <ele>816.78</ele>
        <time>2011-05-29T18:18:24Z</time>
      </trkpt>
      <trkpt lat="43.73529" lon="7.01308">
        <ele>817.26</ele>
        <time>2011-05-29T18:18:33Z</time>
      </trkpt>
      <trkpt lat="43.73522" lon="7.01323">
        <ele>818.7</ele>
        <time>2011-05-29T18:18:43Z</time>
      </trkpt>
      <trkpt lat="43.73507" lon="7.01333">
        <ele>819.66</ele>
        <time>2011-05-29T18:18:58Z</time>
      </trkpt>
      <trkpt lat="43.73506" lon="7.01334">
        <ele>819.66</ele>
        <time>2011-05-29T18:18:59Z</time>
      </trkpt>
      <trkpt lat="43.73497" lon="7.01342">
        <ele>818.7</ele>
        <time>2011-05-29T18:19:10Z</time>
      </trkpt>
      <trkpt lat="43.73481" lon="7.01356">
        <ele>818.22</ele>
        <time>2011-05-29T18:19:25Z</time>
      </trkpt>
      <trkpt lat="43.7347" lon="7.01364">
        <ele>817.26</ele>
        <time>2011-05-29T18:19:41Z</time>
      </trkpt>
      <trkpt lat="43.7347" lon="7.01365">
        <ele>817.74</ele>
        <time>2011-05-29T18:19:42Z</time>
      </trkpt>
      <trkpt lat="43.73463" lon="7.01383">
        <ele>817.26</ele>
        <time>2011-05-29T18:19:56Z</time>
      </trkpt>
      <trkpt lat="43.73457" lon="7.01398">
        <ele>818.22</ele>
        <time>2011-05-29T18:20:10Z</time>
      </trkpt>
      <trkpt lat="43.73454" lon="7.01405">
        <ele>817.26</ele>
        <time>2011-05-29T18:20:19Z</time>
      </trkpt>
      <trkpt lat="43.73452" lon="7.0143">
        <ele>816.78</ele>
        <time>2011-05-29T18:20:32Z</time>
      </trkpt>
      <trkpt lat="43.73453" lon="7.01432">
        <ele>816.3</ele>
        <time>2011-05-29T18:20:37Z</time>
      </trkpt>
      <trkpt lat="43.73456" lon="7.01431">
        <ele>815.82</ele>
        <time>2011-05-29T18:20:40Z</time>
      </trkpt>
      <trkpt lat="43.73457" lon="7.0143">
        <ele>815.34</ele>
        <time>2011-05-29T18:20:42Z</time>
      </trkpt>
      <trkpt lat="43.73459" lon="7.01429">
        <ele>815.34</ele>
        <time>2011-05-29T18:20:44Z</time>
      </trkpt>
      <trkpt lat="43.73475" lon="7.01442">
        <ele>812.45</ele>
        <time>2011-05-29T18:20:59Z</time>
      </trkpt>
      <trkpt lat="43.73476" lon="7.01443">
        <ele>812.45</ele>
        <time>2011-05-29T18:21:00Z</time>
      </trkpt>
      <trkpt lat="43.7348" lon="7.01452">
        <ele>807.16</ele>
        <time>2011-05-29T18:21:04Z</time>
      </trkpt>
      <trkpt lat="43.7348" lon="7.01453">
        <ele>811.97</ele>
        <time>2011-05-29T18:21:05Z</time>
      </trkpt>
      <trkpt lat="43.73481" lon="7.01454">
        <ele>807.16</ele>
        <time>2011-05-29T18:21:06Z</time>
      </trkpt>
      <trkpt lat="43.73481" lon="7.01455">
        <ele>810.05</ele>
        <time>2011-05-29T18:21:07Z</time>
      </trkpt>
      <trkpt lat="43.73483" lon="7.01457">
        <ele>814.85</ele>
        <time>2011-05-29T18:21:08Z</time>
      </trkpt>
      <trkpt lat="43.73483" lon="7.01458">
        <ele>815.34</ele>
        <time>2011-05-29T18:21:09Z</time>
      </trkpt>
      <trkpt lat="43.73485" lon="7.0146">
        <ele>812.45</ele>
        <time>2011-05-29T18:21:11Z</time>
      </trkpt>
      <trkpt lat="43.73487" lon="7.0146">
        <ele>814.37</ele>
        <time>2011-05-29T18:21:13Z</time>
      </trkpt>
      <trkpt lat="43.73497" lon="7.01464">
        <ele>811.01</ele>
        <time>2011-05-29T18:21:21Z</time>
      </trkpt>
      <trkpt lat="43.73505" lon="7.01462">
        <ele>810.05</ele>
        <time>2011-05-29T18:21:26Z</time>
      </trkpt>
      <trkpt lat="43.73523" lon="7.01468">
        <ele>808.13</ele>
        <time>2011-05-29T18:21:40Z</time>
      </trkpt>
      <trkpt lat="43.73533" lon="7.01457">
        <ele>806.2</ele>
        <time>2011-05-29T18:21:55Z</time>
      </trkpt>
      <trkpt lat="43.73557" lon="7.01453">
        <ele>804.76</ele>
        <time>2011-05-29T18:22:13Z</time>
      </trkpt>
      <trkpt lat="43.73563" lon="7.01457">
        <ele>803.8</ele>
        <time>2011-05-29T18:22:18Z</time>
      </trkpt>
      <trkpt lat="43.7357" lon="7.01468">
        <ele>804.28</ele>
        <time>2011-05-29T18:22:24Z</time>
      </trkpt>
      <trkpt lat="43.73583" lon="7.01474">
        <ele>803.8</ele>
        <time>2011-05-29T18:22:33Z</time>
      </trkpt>
      <trkpt lat="43.73587" lon="7.01474">
        <ele>804.28</ele>
        <time>2011-05-29T18:22:37Z</time>
      </trkpt>
      <trkpt lat="43.73601" lon="7.01462">
        <ele>799.95</ele>
        <time>2011-05-29T18:22:50Z</time>
      </trkpt>
      <trkpt lat="43.73603" lon="7.01458">
        <ele>800.92</ele>
        <time>2011-05-29T18:23:04Z</time>
      </trkpt>
      <trkpt lat="43.73603" lon="7.01457">
        <ele>800.44</ele>
        <time>2011-05-29T18:23:11Z</time>
      </trkpt>
      <trkpt lat="43.73598" lon="7.01445">
        <ele>798.99</ele>
        <time>2011-05-29T18:23:20Z</time>
      </trkpt>
      <trkpt lat="43.73599" lon="7.01439">
        <ele>798.51</ele>
        <time>2011-05-29T18:23:24Z</time>
      </trkpt>
      <trkpt lat="43.73602" lon="7.01434">
        <ele>798.51</ele>
        <time>2011-05-29T18:23:28Z</time>
      </trkpt>
      <trkpt lat="43.73612" lon="7.01402">
        <ele>797.55</ele>
        <time>2011-05-29T18:23:48Z</time>
      </trkpt>
      <trkpt lat="43.73613" lon="7.01393">
        <ele>797.07</ele>
        <time>2011-05-29T18:23:53Z</time>
      </trkpt>
      <trkpt lat="43.73615" lon="7.01379">
        <ele>795.15</ele>
        <time>2011-05-29T18:24:06Z</time>
      </trkpt>
      <trkpt lat="43.73618" lon="7.01372">
        <ele>794.67</ele>
        <time>2011-05-29T18:24:10Z</time>
      </trkpt>
      <trkpt lat="43.73625" lon="7.01361">
        <ele>793.71</ele>
        <time>2011-05-29T18:24:23Z</time>
      </trkpt>
      <trkpt lat="43.73632" lon="7.01361">
        <ele>793.22</ele>
        <time>2011-05-29T18:24:29Z</time>
      </trkpt>
      <trkpt lat="43.73637" lon="7.01365">
        <ele>792.74</ele>
        <time>2011-05-29T18:24:33Z</time>
      </trkpt>
      <trkpt lat="43.73655" lon="7.01377">
        <ele>791.3</ele>
        <time>2011-05-29T18:24:50Z</time>
      </trkpt>
      <trkpt lat="43.73661" lon="7.01387">
        <ele>787.94</ele>
        <time>2011-05-29T18:25:04Z</time>
      </trkpt>
      <trkpt lat="43.73669" lon="7.01406">
        <ele>786.98</ele>
        <time>2011-05-29T18:25:17Z</time>
      </trkpt>
      <trkpt lat="43.73679" lon="7.01417">
        <ele>784.09</ele>
        <time>2011-05-29T18:25:31Z</time>
      </trkpt>
      <trkpt lat="43.7368" lon="7.01419">
        <ele>783.61</ele>
        <time>2011-05-29T18:25:35Z</time>
      </trkpt>
      <trkpt lat="43.73681" lon="7.0142">
        <ele>783.13</ele>
        <time>2011-05-29T18:25:38Z</time>
      </trkpt>
      <trkpt lat="43.73687" lon="7.01414">
        <ele>781.21</ele>
        <time>2011-05-29T18:25:45Z</time>
      </trkpt>
      <trkpt lat="43.73693" lon="7.014">
        <ele>778.32</ele>
        <time>2011-05-29T18:26:00Z</time>
      </trkpt>
      <trkpt lat="43.73693" lon="7.014">
        <ele>778.32</ele>
        <time>2011-05-29T18:26:02Z</time>
      </trkpt>
      <trkpt lat="43.73695" lon="7.01401">
        <ele>777.84</ele>
        <time>2011-05-29T18:26:04Z</time>
      </trkpt>
      <trkpt lat="43.737" lon="7.014">
        <ele>777.36</ele>
        <time>2011-05-29T18:26:07Z</time>
      </trkpt>
      <trkpt lat="43.73707" lon="7.01394">
        <ele>776.88</ele>
        <time>2011-05-29T18:26:15Z</time>
      </trkpt>
      <trkpt lat="43.73722" lon="7.01391">
        <ele>774.48</ele>
        <time>2011-05-29T18:26:30Z</time>
      </trkpt>
      <trkpt lat="43.7373" lon="7.01386">
        <ele>772.56</ele>
        <time>2011-05-29T18:26:44Z</time>
      </trkpt>
      <trkpt lat="43.73733" lon="7.01388">
        <ele>771.6</ele>
        <time>2011-05-29T18:26:49Z</time>
      </trkpt>
      <trkpt lat="43.73737" lon="7.01388">
        <ele>770.63</ele>
        <time>2011-05-29T18:26:54Z</time>
      </trkpt>
      <trkpt lat="43.73742" lon="7.01388">
        <ele>770.15</ele>
        <time>2011-05-29T18:27:00Z</time>
      </trkpt>
      <trkpt lat="43.73755" lon="7.0138">
        <ele>766.79</ele>
        <time>2011-05-29T18:27:11Z</time>
      </trkpt>
      <trkpt lat="43.73756" lon="7.0138">
        <ele>766.79</ele>
        <time>2011-05-29T18:27:12Z</time>
      </trkpt>
      <trkpt lat="43.73758" lon="7.01379">
        <ele>765.83</ele>
        <time>2011-05-29T18:27:28Z</time>
      </trkpt>
      <trkpt lat="43.73769" lon="7.01379">
        <ele>763.42</ele>
        <time>2011-05-29T18:27:40Z</time>
      </trkpt>
      <trkpt lat="43.73779" lon="7.01382">
        <ele>760.54</ele>
        <time>2011-05-29T18:27:51Z</time>
      </trkpt>
      <trkpt lat="43.73786" lon="7.01382">
        <ele>757.18</ele>
        <time>2011-05-29T18:28:05Z</time>
      </trkpt>
      <trkpt lat="43.73787" lon="7.01382">
        <ele>757.18</ele>
        <time>2011-05-29T18:28:16Z</time>
      </trkpt>
      <trkpt lat="43.73798" lon="7.01374">
        <ele>753.81</ele>
        <time>2011-05-29T18:28:30Z</time>
      </trkpt>
      <trkpt lat="43.73803" lon="7.01365">
        <ele>750.93</ele>
        <time>2011-05-29T18:28:44Z</time>
      </trkpt>
      <trkpt lat="43.73804" lon="7.01361">
        <ele>750.45</ele>
        <time>2011-05-29T18:28:49Z</time>
      </trkpt>
      <trkpt lat="43.73809" lon="7.0134">
        <ele>746.6</ele>
        <time>2011-05-29T18:29:04Z</time>
      </trkpt>
      <trkpt lat="43.73809" lon="7.01339">
        <ele>750.93</ele>
        <time>2011-05-29T18:29:05Z</time>
      </trkpt>
      <trkpt lat="43.73814" lon="7.0133">
        <ele>749.49</ele>
        <time>2011-05-29T18:29:19Z</time>
      </trkpt>
      <trkpt lat="43.73814" lon="7.0133">
        <ele>750.45</ele>
        <time>2011-05-29T18:29:20Z</time>
      </trkpt>
      <trkpt lat="43.73826" lon="7.0131">
        <ele>750.45</ele>
        <time>2011-05-29T18:29:36Z</time>
      </trkpt>
      <trkpt lat="43.73842" lon="7.01302">
        <ele>750.93</ele>
        <time>2011-05-29T18:29:52Z</time>
      </trkpt>
      <trkpt lat="43.73856" lon="7.01302">
        <ele>750.93</ele>
        <time>2011-05-29T18:30:08Z</time>
      </trkpt>
      <trkpt lat="43.73856" lon="7.01302">
        <ele>750.93</ele>
        <time>2011-05-29T18:30:09Z</time>
      </trkpt>
      <trkpt lat="43.7386" lon="7.01303">
        <ele>750.45</ele>
        <time>2011-05-29T18:30:12Z</time>
      </trkpt>
      <trkpt lat="43.73866" lon="7.01306">
        <ele>749.49</ele>
        <time>2011-05-29T18:30:18Z</time>
      </trkpt>
      <trkpt lat="43.73882" lon="7.01308">
        <ele>745.16</ele>
        <time>2011-05-29T18:30:33Z</time>
      </trkpt>
      <trkpt lat="43.73897" lon="7.01307">
        <ele>745.64</ele>
        <time>2011-05-29T18:30:48Z</time>
      </trkpt>
      <trkpt lat="43.73917" lon="7.01305">
        <ele>742.76</ele>
        <time>2011-05-29T18:31:05Z</time>
      </trkpt>
      <trkpt lat="43.73928" lon="7.01304">
        <ele>741.79</ele>
        <time>2011-05-29T18:31:15Z</time>
      </trkpt>
      <trkpt lat="43.73938" lon="7.01299">
        <ele>740.35</ele>
        <time>2011-05-29T18:31:26Z</time>
      </trkpt>
      <trkpt lat="43.73954" lon="7.01287">
        <ele>737.47</ele>
        <time>2011-05-29T18:31:42Z</time>
      </trkpt>
      <trkpt lat="43.73959" lon="7.01285">
        <ele>736.03</ele>
        <time>2011-05-29T18:31:48Z</time>
      </trkpt>
      <trkpt lat="43.7398" lon="7.01287">
        <ele>733.14</ele>
        <time>2011-05-29T18:32:03Z</time>
      </trkpt>
      <trkpt lat="43.7398" lon="7.01287">
        <ele>733.14</ele>
        <time>2011-05-29T18:32:12Z</time>
      </trkpt>
      <trkpt lat="43.73981" lon="7.01282">
        <ele>730.26</ele>
        <time>2011-05-29T18:32:29Z</time>
      </trkpt>
      <trkpt lat="43.73991" lon="7.01261">
        <ele>727.86</ele>
        <time>2011-05-29T18:32:43Z</time>
      </trkpt>
      <trkpt lat="43.73995" lon="7.0125">
        <ele>727.86</ele>
        <time>2011-05-29T18:32:49Z</time>
      </trkpt>
      <trkpt lat="43.74004" lon="7.01231">
        <ele>726.41</ele>
        <time>2011-05-29T18:33:06Z</time>
      </trkpt>
      <trkpt lat="43.74004" lon="7.01226">
        <ele>725.93</ele>
        <time>2011-05-29T18:33:10Z</time>
      </trkpt>
      <trkpt lat="43.74007" lon="7.01214">
        <ele>725.45</ele>
        <time>2011-05-29T18:33:15Z</time>
      </trkpt>
      <trkpt lat="43.74021" lon="7.01193">
        <ele>724.01</ele>
        <time>2011-05-29T18:33:30Z</time>
      </trkpt>
      <trkpt lat="43.74027" lon="7.01185">
        <ele>723.05</ele>
        <time>2011-05-29T18:33:37Z</time>
      </trkpt>
      <trkpt lat="43.74031" lon="7.01184">
        <ele>722.57</ele>
        <time>2011-05-29T18:33:42Z</time>
      </trkpt>
      <trkpt lat="43.74033" lon="7.0118">
        <ele>722.09</ele>
        <time>2011-05-29T18:33:45Z</time>
      </trkpt>
      <trkpt lat="43.74051" lon="7.01158">
        <ele>719.68</ele>
        <time>2011-05-29T18:34:04Z</time>
      </trkpt>
      <trkpt lat="43.74061" lon="7.01153">
        <ele>717.28</ele>
        <time>2011-05-29T18:34:19Z</time>
      </trkpt>
      <trkpt lat="43.7407" lon="7.01149">
        <ele>714.4</ele>
        <time>2011-05-29T18:34:33Z</time>
      </trkpt>
      <trkpt lat="43.7407" lon="7.01149">
        <ele>714.4</ele>
        <time>2011-05-29T18:34:36Z</time>
      </trkpt>
      <trkpt lat="43.74085" lon="7.01138">
        <ele>711.51</ele>
        <time>2011-05-29T18:34:51Z</time>
      </trkpt>
      <trkpt lat="43.74089" lon="7.01137">
        <ele>711.03</ele>
        <time>2011-05-29T18:34:55Z</time>
      </trkpt>
      <trkpt lat="43.74099" lon="7.01137">
        <ele>707.67</ele>
        <time>2011-05-29T18:35:12Z</time>
      </trkpt>
      <trkpt lat="43.74101" lon="7.01144">
        <ele>706.23</ele>
        <time>2011-05-29T18:35:25Z</time>
      </trkpt>
      <trkpt lat="43.74107" lon="7.01145">
        <ele>704.78</ele>
        <time>2011-05-29T18:35:36Z</time>
      </trkpt>
      <trkpt lat="43.74108" lon="7.01138">
        <ele>701.9</ele>
        <time>2011-05-29T18:35:51Z</time>
      </trkpt>
      <trkpt lat="43.74112" lon="7.01142">
        <ele>700.46</ele>
        <time>2011-05-29T18:36:04Z</time>
      </trkpt>
      <trkpt lat="43.74115" lon="7.01143">
        <ele>699.5</ele>
        <time>2011-05-29T18:36:10Z</time>
      </trkpt>
      <trkpt lat="43.74118" lon="7.01141">
        <ele>697.09</ele>
        <time>2011-05-29T18:36:23Z</time>
      </trkpt>
      <trkpt lat="43.7412" lon="7.01144">
        <ele>697.09</ele>
        <time>2011-05-29T18:36:25Z</time>
      </trkpt>
      <trkpt lat="43.74123" lon="7.01146">
        <ele>694.69</ele>
        <time>2011-05-29T18:36:41Z</time>
      </trkpt>
      <trkpt lat="43.74124" lon="7.01146">
        <ele>693.73</ele>
        <time>2011-05-29T18:36:43Z</time>
      </trkpt>
      <trkpt lat="43.74129" lon="7.01156">
        <ele>691.81</ele>
        <time>2011-05-29T18:36:53Z</time>
      </trkpt>
      <trkpt lat="43.74133" lon="7.01158">
        <ele>690.36</ele>
        <time>2011-05-29T18:37:06Z</time>
      </trkpt>
      <trkpt lat="43.74134" lon="7.01158">
        <ele>689.4</ele>
        <time>2011-05-29T18:37:14Z</time>
      </trkpt>
      <trkpt lat="43.74138" lon="7.01152">
        <ele>687.48</ele>
        <time>2011-05-29T18:37:26Z</time>
      </trkpt>
      <trkpt lat="43.74147" lon="7.01142">
        <ele>685.56</ele>
        <time>2011-05-29T18:37:40Z</time>
      </trkpt>
      <trkpt lat="43.74151" lon="7.01131">
        <ele>682.67</ele>
        <time>2011-05-29T18:37:56Z</time>
      </trkpt>
      <trkpt lat="43.74163" lon="7.01116">
        <ele>681.23</ele>
        <time>2011-05-29T18:38:08Z</time>
      </trkpt>
      <trkpt lat="43.74167" lon="7.01115">
        <ele>680.75</ele>
        <time>2011-05-29T18:38:10Z</time>
      </trkpt>
      <trkpt lat="43.74172" lon="7.01112">
        <ele>679.79</ele>
        <time>2011-05-29T18:38:15Z</time>
      </trkpt>
      <trkpt lat="43.7418" lon="7.01108">
        <ele>679.31</ele>
        <time>2011-05-29T18:38:20Z</time>
      </trkpt>
      <trkpt lat="43.74206" lon="7.01107">
        <ele>676.91</ele>
        <time>2011-05-29T18:38:36Z</time>
      </trkpt>
      <trkpt lat="43.7421" lon="7.01107">
        <ele>676.42</ele>
        <time>2011-05-29T18:38:38Z</time>
      </trkpt>
      <trkpt lat="43.74214" lon="7.01105">
        <ele>675.94</ele>
        <time>2011-05-29T18:38:41Z</time>
      </trkpt>
      <trkpt lat="43.74217" lon="7.01104">
        <ele>675.94</ele>
        <time>2011-05-29T18:38:44Z</time>
      </trkpt>
      <trkpt lat="43.7423" lon="7.01097">
        <ele>674.02</ele>
        <time>2011-05-29T18:38:58Z</time>
      </trkpt>
      <trkpt lat="43.74232" lon="7.01097">
        <ele>673.54</ele>
        <time>2011-05-29T18:39:00Z</time>
      </trkpt>
      <trkpt lat="43.74237" lon="7.01094">
        <ele>672.58</ele>
        <time>2011-05-29T18:39:05Z</time>
      </trkpt>
      <trkpt lat="43.74241" lon="7.01089">
        <ele>670.18</ele>
        <time>2011-05-29T18:39:21Z</time>
      </trkpt>
      <trkpt lat="43.74241" lon="7.01087">
        <ele>669.7</ele>
        <time>2011-05-29T18:39:25Z</time>
      </trkpt>
      <trkpt lat="43.74242" lon="7.01047">
        <ele>666.33</ele>
        <time>2011-05-29T18:39:44Z</time>
      </trkpt>
      <trkpt lat="43.74242" lon="7.01039">
        <ele>666.33</ele>
        <time>2011-05-29T18:39:46Z</time>
      </trkpt>
      <trkpt lat="43.74249" lon="7.01024">
        <ele>663.93</ele>
        <time>2011-05-29T18:40:01Z</time>
      </trkpt>
      <trkpt lat="43.74258" lon="7.01011">
        <ele>662.49</ele>
        <time>2011-05-29T18:40:17Z</time>
      </trkpt>
      <trkpt lat="43.74266" lon="7.00999">
        <ele>661.04</ele>
        <time>2011-05-29T18:40:33Z</time>
      </trkpt>
      <trkpt lat="43.74266" lon="7.00999">
        <ele>660.56</ele>
        <time>2011-05-29T18:40:55Z</time>
      </trkpt>
      <trkpt lat="43.74268" lon="7.00997">
        <ele>659.6</ele>
        <time>2011-05-29T18:41:19Z</time>
      </trkpt>
      <trkpt lat="43.74272" lon="7.00994">
        <ele>658.64</ele>
        <time>2011-05-29T18:41:23Z</time>
      </trkpt>
      <trkpt lat="43.74281" lon="7.00987">
        <ele>657.68</ele>
        <time>2011-05-29T18:41:30Z</time>
      </trkpt>
      <trkpt lat="43.74289" lon="7.00983">
        <ele>656.72</ele>
        <time>2011-05-29T18:41:36Z</time>
      </trkpt>
      <trkpt lat="43.74298" lon="7.00976">
        <ele>653.83</ele>
        <time>2011-05-29T18:41:43Z</time>
      </trkpt>
      <trkpt lat="43.74313" lon="7.00958">
        <ele>651.43</ele>
        <time>2011-05-29T18:41:53Z</time>
      </trkpt>
      <trkpt lat="43.74321" lon="7.00954">
        <ele>651.43</ele>
        <time>2011-05-29T18:42:07Z</time>
      </trkpt>
      <trkpt lat="43.74309" lon="7.00955">
        <ele>650.47</ele>
        <time>2011-05-29T18:42:18Z</time>
      </trkpt>
      <trkpt lat="43.74308" lon="7.00955">
        <ele>650.95</ele>
        <time>2011-05-29T18:42:35Z</time>
      </trkpt>
      <trkpt lat="43.74311" lon="7.00953">
        <ele>650.95</ele>
        <time>2011-05-29T18:42:41Z</time>
      </trkpt>
      <trkpt lat="43.74324" lon="7.00953">
        <ele>650.47</ele>
        <time>2011-05-29T18:42:52Z</time>
      </trkpt>
      <trkpt lat="43.74326" lon="7.00953">
        <ele>649.99</ele>
        <time>2011-05-29T18:42:54Z</time>
      </trkpt>
      <trkpt lat="43.74336" lon="7.00955">
        <ele>648.55</ele>
        <time>2011-05-29T18:43:10Z</time>
      </trkpt>
      <trkpt lat="43.74337" lon="7.00957">
        <ele>647.1</ele>
        <time>2011-05-29T18:43:22Z</time>
      </trkpt>
      <trkpt lat="43.74345" lon="7.00958">
        <ele>644.7</ele>
        <time>2011-05-29T18:43:36Z</time>
      </trkpt>
      <trkpt lat="43.7435" lon="7.00955">
        <ele>643.74</ele>
        <time>2011-05-29T18:43:41Z</time>
      </trkpt>
      <trkpt lat="43.74376" lon="7.00958">
        <ele>642.3</ele>
        <time>2011-05-29T18:43:49Z</time>
      </trkpt>
      <trkpt lat="43.74386" lon="7.00941">
        <ele>639.41</ele>
        <time>2011-05-29T18:44:02Z</time>
      </trkpt>
      <trkpt lat="43.74387" lon="7.00937">
        <ele>639.41</ele>
        <time>2011-05-29T18:44:05Z</time>
      </trkpt>
      <trkpt lat="43.7439" lon="7.00934">
        <ele>637.01</ele>
        <time>2011-05-29T18:44:18Z</time>
      </trkpt>
      <trkpt lat="43.74381" lon="7.00925">
        <ele>638.45</ele>
        <time>2011-05-29T18:44:30Z</time>
      </trkpt>
      <trkpt lat="43.74376" lon="7.00911">
        <ele>638.93</ele>
        <time>2011-05-29T18:44:40Z</time>
      </trkpt>
      <trkpt lat="43.74372" lon="7.00887">
        <ele>638.45</ele>
        <time>2011-05-29T18:44:57Z</time>
      </trkpt>
      <trkpt lat="43.74365" lon="7.00872">
        <ele>638.45</ele>
        <time>2011-05-29T18:45:11Z</time>
      </trkpt>
      <trkpt lat="43.74364" lon="7.00872">
        <ele>638.45</ele>
        <time>2011-05-29T18:45:31Z</time>
      </trkpt>
      <trkpt lat="43.74362" lon="7.00874">
        <ele>638.45</ele>
        <time>2011-05-29T18:45:38Z</time>
      </trkpt>
      <trkpt lat="43.74348" lon="7.00886">
        <ele>636.05</ele>
        <time>2011-05-29T18:45:55Z</time>
      </trkpt>
      <trkpt lat="43.74348" lon="7.00887">
        <ele>638.45</ele>
        <time>2011-05-29T18:46:13Z</time>
      </trkpt>
      <trkpt lat="43.74348" lon="7.00887">
        <ele>638.45</ele>
        <time>2011-05-29T18:46:32Z</time>
      </trkpt>
      <trkpt lat="43.74349" lon="7.00886">
        <ele>637.97</ele>
        <time>2011-05-29T18:46:58Z</time>
      </trkpt>
      <trkpt lat="43.74349" lon="7.00886">
        <ele>638.45</ele>
        <time>2011-05-29T18:47:20Z</time>
      </trkpt>
      <trkpt lat="43.74349" lon="7.00887">
        <ele>638.45</ele>
        <time>2011-05-29T18:47:38Z</time>
      </trkpt>
      <trkpt lat="43.74348" lon="7.00888">
        <ele>638.45</ele>
        <time>2011-05-29T18:47:58Z</time>
      </trkpt>
      <trkpt lat="43.74348" lon="7.00888">
        <ele>637.49</ele>
        <time>2011-05-29T18:48:25Z</time>
      </trkpt>
      <trkpt lat="43.74348" lon="7.00888">
        <ele>637.49</ele>
        <time>2011-05-29T18:48:53Z</time>
      </trkpt>
      <trkpt lat="43.74349" lon="7.00888">
        <ele>637.97</ele>
        <time>2011-05-29T18:49:21Z</time>
      </trkpt>
      <trkpt lat="43.74349" lon="7.00888">
        <ele>637.01</ele>
        <time>2011-05-29T18:49:44Z</time>
      </trkpt>
      <trkpt lat="43.74348" lon="7.00888">
        <ele>637.01</ele>
        <time>2011-05-29T18:50:04Z</time>
      </trkpt>
      <trkpt lat="43.74347" lon="7.00888">
        <ele>637.01</ele>
        <time>2011-05-29T18:50:23Z</time>
      </trkpt>
      <trkpt lat="43.74347" lon="7.00888">
        <ele>637.01</ele>
        <time>2011-05-29T18:50:44Z</time>
      </trkpt>
      <trkpt lat="43.7434" lon="7.00883">
        <ele>636.53</ele>
        <time>2011-05-29T18:51:08Z</time>
      </trkpt>
      <trkpt lat="43.74342" lon="7.00881">
        <ele>636.53</ele>
        <time>2011-05-29T18:51:12Z</time>
      </trkpt>
      <trkpt lat="43.74356" lon="7.00874">
        <ele>636.53</ele>
        <time>2011-05-29T18:51:19Z</time>
      </trkpt>
      <trkpt lat="43.7436" lon="7.00872">
        <ele>635.57</ele>
        <time>2011-05-29T18:51:35Z</time>
      </trkpt>
    </trkseg>
  </trk>
</gpx>